<
# Wetter Temperatur Luftdruck Luftfeuchtigkeit Sichtweite Windgeschwindigkeit Windrichtung Zeit
1 Clouds 34 1005 52 0 0.45 303 07:27 11.07.2020
2 Clouds 34 1006 52 0 0.45 173 06:56 11.07.2020
3 Clouds 33 1006 54 0 1.34 256 06:22 11.07.2020
4 Clouds 33 1007 55 0 1.79 272 05:36 11.07.2020
5 Clouds 33 1007 57 0 0.45 236 04:56 11.07.2020
6 Clouds 32 1007 59 0 0.89 278 04:33 11.07.2020
7 Clouds 30 1007 66 10000 4.1 250 03:32 11.07.2020
8 Clouds 29 1007 74 10000 3.1 250 02:40 11.07.2020
9 Clouds 28 1007 74 10000 3.6 250 01:49 11.07.2020
10 Clouds 29 1007 74 10000 3.6 260 01:18 11.07.2020
11 Clouds 28 1006 74 10000 3.1 250 00:41 11.07.2020
12 Clouds 28 1006 74 10000 3.1 250 00:22 11.07.2020
13 Clouds 29 1006 70 10000 2.6 240 23:57 10.07.2020
14 Clouds 29 1006 70 10000 2.6 260 23:39 10.07.2020
15 Clouds 29 1006 70 10000 2.6 260 23:19 10.07.2020
16 Clouds 29 1006 70 10000 1 250 22:46 10.07.2020
17 Clouds 29 1006 74 10000 1 0 22:21 10.07.2020
18 Clouds 29 1006 78 10000 1.5 220 21:58 10.07.2020
19 Clouds 29 1007 74 10000 2.1 260 21:37 10.07.2020
20 Clouds 29 1007 74 10000 2.1 260 21:19 10.07.2020
21 Clouds 30 1007 74 10000 2.1 280 20:43 10.07.2020
22 Clouds 30 1007 74 10000 2.1 280 20:23 10.07.2020
23 Clouds 30 1007 74 10000 2.1 280 20:23 10.07.2020
24 Clouds 30 1007 74 10000 1.5 260 19:58 10.07.2020
25 Clouds 30 1008 79 10000 3.1 250 19:40 10.07.2020
26 Clouds 30 1008 79 10000 3.1 250 19:21 10.07.2020
27 Clouds 30 1008 79 10000 3.1 220 18:42 10.07.2020
28 Clouds 32 1008 79 10000 3.1 220 18:22 10.07.2020
29 Clouds 32 1009 79 10000 3.6 200 17:59 10.07.2020
30 Rain 32 1007 69 0 3.91 205 17:40 10.07.2020
31 Rain 32 1007 68 0 4.22 196 17:21 10.07.2020
32 Rain 32 1007 67 0 4.22 196 16:44 10.07.2020
33 Clouds 31 1007 74 10000 5.7 210 16:21 10.07.2020
34 Clouds 31 1007 74 10000 5.7 210 15:55 10.07.2020
35 Clouds 33 1007 46 0 5.01 191 15:37 10.07.2020
36 Rain 33 1007 46 0 5.31 194 15:18 10.07.2020
37 Clouds 31 1006 66 10000 5.1 190 14:41 10.07.2020
38 Clouds 34 1007 44 0 5.63 190 14:20 10.07.2020
39 Clouds 36 1006 44 0 5.63 190 13:58 10.07.2020
40 Clouds 36 1006 43 0 5.63 190 13:38 10.07.2020
41 Clouds 36 1005 42 0 4.61 183 13:20 10.07.2020
42 Clouds 36 1005 42 0 4.61 183 12:56 10.07.2020
43 Clouds 36 1005 42 0 4.61 183 12:37 10.07.2020
44 Clouds 36 1005 42 0 3.85 195 12:19 10.07.2020
45 Clouds 36 1004 43 0 3.85 195 11:41 10.07.2020
46 Clouds 37 1004 43 0 3.68 216 11:21 10.07.2020
47 Clouds 37 1004 40 0 3.68 216 10:57 10.07.2020
48 Clouds 37 1005 41 0 3.68 216 10:38 10.07.2020
49 Clouds 37 1005 42 0 3.67 231 10:19 10.07.2020
50 Clouds 37 1005 43 0 3.67 231 09:40 10.07.2020
51 Clouds 37 1006 42 0 3.63 258 09:22 10.07.2020
52 Clouds 37 1006 43 0 3.63 258 08:58 10.07.2020
53 Clouds 37 1006 42 0 3.63 258 08:40 10.07.2020
54 Clouds 37 1007 42 0 3.38 253 08:22 10.07.2020
55 Clouds 36 1007 43 0 3.38 253 07:44 10.07.2020
56 Clouds 36 1008 43 0 2.9 263 07:23 10.07.2020
57 Clouds 36 1008 43 0 2.9 263 06:54 10.07.2020
58 Clouds 34 1007 49 0 0.89 165 06:32 10.07.2020
59 Clouds 34 1007 53 0 0.89 191 05:20 10.07.2020
60 Clouds 32 1007 63 0 2.77 281 03:43 10.07.2020
61 Clouds 31 1007 70 10000 2.1 230 02:53 10.07.2020
62 Clouds 29 1007 78 10000 2.6 260 01:53 10.07.2020
63 Clouds 28 1007 78 10000 0.5 0 00:53 10.07.2020
64 Clouds 29 1006 78 10000 1.5 280 00:22 10.07.2020
65 Clouds 29 1007 79 10000 2.1 270 23:55 09.07.2020
66 Clouds 29 1006 79 10000 2.6 280 23:37 09.07.2020
67 Clouds 29 1006 79 10000 2.6 280 23:18 09.07.2020
68 Clouds 29 1006 79 10000 2.1 250 22:55 09.07.2020
69 Clouds 29 1006 79 10000 2.1 260 22:37 09.07.2020
70 Clouds 29 1006 79 10000 2.1 260 22:18 09.07.2020
71 Clouds 29 1006 79 10000 2.1 270 21:39 09.07.2020
72 Clouds 29 1006 79 10000 2.1 270 21:19 09.07.2020
73 Clouds 29 1006 79 10000 2.6 210 20:58 09.07.2020
74 Clouds 29 1006 79 10000 2.6 210 20:39 09.07.2020
75 Clouds 29 1006 79 10000 2.6 210 20:21 09.07.2020
76 Clouds 30 1007 79 10000 4.1 210 19:43 09.07.2020
77 Clouds 30 1007 79 10000 4.1 210 19:21 09.07.2020
78 Clouds 30 1007 74 10000 4.1 210 18:56 09.07.2020
79 Clouds 30 1007 74 10000 4.1 200 18:38 09.07.2020
80 Clouds 30 1007 79 10000 5.1 190 18:18 09.07.2020
81 Clouds 31 1007 70 10000 5.1 200 17:42 09.07.2020
82 Clouds 31 1007 70 10000 5.1 200 17:22 09.07.2020
83 Clouds 31 1007 66 10000 5.1 200 16:56 09.07.2020
84 Clouds 31 1007 66 10000 5.1 200 16:38 09.07.2020
85 Clouds 31 1007 66 10000 5.1 200 16:19 09.07.2020
86 Clouds 32 1006 66 10000 3.1 180 15:56 09.07.2020
87 Clouds 33 1005 63 0 0.45 247 15:37 09.07.2020
88 Clouds 32 1005 59 10000 3.1 160 15:18 09.07.2020
89 Clouds 32 1005 59 10000 3.1 160 14:57 09.07.2020
90 Clouds 32 1004 55 10000 3.6 150 14:39 09.07.2020
91 Clouds 34 1003 58 0 0.45 168 14:20 09.07.2020
92 Clouds 34 1003 53 0 3.57 170 13:56 09.07.2020
93 Clouds 33 1004 52 10000 4.1 140 13:37 09.07.2020
94 Clouds 36 1004 44 0 4.05 181 13:18 09.07.2020
95 Clouds 35 1004 46 0 4.05 181 12:41 09.07.2020
96 Clouds 36 1004 46 0 3.99 192 12:22 09.07.2020
97 Clouds 36 1004 46 0 3.99 192 11:56 09.07.2020
98 Clouds 36 1004 47 0 3.99 192 11:38 09.07.2020
99 Clouds 36 1004 46 0 3.72 198 11:18 09.07.2020
100 Clouds 36 1004 46 0 3.72 198 10:55 09.07.2020
101 Clouds 36 1004 46 0 3.72 198 10:37 09.07.2020
102 Clouds 36 1004 46 0 3.53 211 10:18 09.07.2020
103 Clouds 36 1005 45 0 3.53 211 09:41 09.07.2020
104 Clouds 36 1005 45 0 2.81 235 09:22 09.07.2020
105 Clouds 35 1006 43 0 2.81 235 08:49 09.07.2020
106 Clouds 34 1004 56 0 0.89 277 08:26 09.07.2020
107 Clouds 34 1005 56 0 0.89 227 07:50 09.07.2020
108 Clouds 34 1005 57 0 0.89 150 07:26 09.07.2020
109 Clouds 34 1006 57 0 1.34 107 06:57 09.07.2020
110 Clouds 34 1006 57 0 0.45 99 06:20 09.07.2020
111 Clouds 33 1006 59 0 0.45 143 05:46 09.07.2020
112 Clouds 32 1007 65 0 0.45 270 04:28 09.07.2020
113 Clouds 29 1008 83 10000 1.5 260 02:33 09.07.2020
114 Clouds 29 1007 88 10000 2.79 220 01:39 09.07.2020
115 Clouds 29 1007 83 10000 3.09 201 00:55 09.07.2020
116 Clouds 29 1007 83 10000 1.5 170 00:25 09.07.2020
117 Clouds 29 1007 88 10000 1.5 190 23:47 08.07.2020
118 Clouds 29 1007 79 10000 1.5 170 23:28 08.07.2020
119 Clouds 29 1007 83 10000 1.5 170 22:59 08.07.2020
120 Clouds 29 1007 83 10000 2.1 180 22:41 08.07.2020
121 Clouds 29 1007 83 10000 2.1 180 22:23 08.07.2020
122 Clouds 29 1007 83 10000 2.6 200 21:58 08.07.2020
123 Clouds 29 1008 83 10000 3.1 190 21:39 08.07.2020
124 Clouds 29 1008 83 10000 3.1 190 21:21 08.07.2020
125 Clouds 29 1008 79 10000 3.6 190 20:55 08.07.2020
126 Clouds 29 1008 83 10000 3.1 200 20:37 08.07.2020
127 Clouds 29 1008 83 10000 3.1 200 20:19 08.07.2020
128 Clouds 30 1008 83 10000 3.6 180 19:43 08.07.2020
129 Clouds 30 1008 83 10000 3.6 180 19:23 08.07.2020
130 Clouds 30 1009 79 10000 4.6 170 18:57 08.07.2020
131 Clouds 30 1009 79 10000 3.1 190 18:39 08.07.2020
132 Clouds 30 1009 79 10000 3.1 190 18:19 08.07.2020
133 Clouds 30 1009 79 10000 3.6 190 17:55 08.07.2020
134 Clouds 30 1008 79 10000 3.6 200 17:37 08.07.2020
135 Clouds 30 1008 79 10000 3.6 200 17:19 08.07.2020
136 Clouds 30 1008 74 10000 4.1 180 16:40 08.07.2020
137 Clouds 30 1008 74 10000 4.1 180 16:22 08.07.2020
138 Clouds 30 1007 70 10000 3.6 170 15:59 08.07.2020
139 Clouds 31 1006 68 0 5.02 174 15:41 08.07.2020
140 Clouds 32 1006 66 0 5.02 178 15:19 08.07.2020
141 Clouds 32 1006 65 0 0.45 327 14:49 08.07.2020
142 Clouds 32 1005 64 0 5.7 175 14:30 08.07.2020
143 Clouds 32 1005 62 0 0.45 147 13:59 08.07.2020
144 Clouds 32 1005 60 0 5.77 177 13:41 08.07.2020
145 Clouds 33 1005 58 0 1.34 131 13:22 08.07.2020
146 Clouds 34 1004 56 0 5.49 175 12:45 08.07.2020
147 Clouds 35 1006 44 0 5.85 173 12:21 08.07.2020
148 Clouds 35 1006 44 0 5.85 173 11:57 08.07.2020
149 Clouds 35 1006 43 0 5.85 173 11:38 08.07.2020
150 Clouds 35 1006 43 0 5.73 176 11:20 08.07.2020
151 Clouds 35 1007 44 0 5.73 176 10:45 08.07.2020
152 Clouds 35 1007 44 0 5.73 176 10:45 08.07.2020
153 Clouds 35 1007 44 0 5.56 179 10:26 08.07.2020
154 Clouds 35 1007 45 0 5.56 179 09:47 08.07.2020
155 Clouds 35 1008 45 0 5.24 185 09:26 08.07.2020
156 Clouds 35 1008 46 0 5.35 182 08:58 08.07.2020
157 Clouds 35 1008 46 0 5.35 182 08:39 08.07.2020
158 Clouds 34 1008 47 0 5.28 184 08:20 08.07.2020
159 Clouds 34 1008 47 0 5.28 184 08:20 08.07.2020
160 Clouds 34 1008 49 0 5.28 184 07:46 08.07.2020
161 Clouds 33 1009 50 0 5.11 179 07:22 08.07.2020
162 Clouds 33 1009 52 0 5.11 179 06:53 08.07.2020
163 Clouds 33 1009 53 0 5.11 179 06:32 08.07.2020
164 Clouds 32 1009 56 0 4.96 172 05:50 08.07.2020
165 Clouds 32 1010 57 0 4.95 173 05:18 08.07.2020
166 Rain 31 1010 59 0 4.32 165 04:20 08.07.2020
167 Clouds 28 1009 100 10000 2.6 120 02:20 08.07.2020
168 Clouds 28 1008 94 10000 2.1 100 01:39 08.07.2020
169 Clouds 28 1008 94 10000 2.6 100 00:59 08.07.2020
170 Clouds 28 1008 94 10000 4.13 163 00:22 08.07.2020
171 Clouds 28 1008 94 10000 1.5 110 23:44 07.07.2020
172 Clouds 28 1008 94 10000 4.14 166 23:24 07.07.2020
173 Clouds 28 1008 94 10000 2.1 140 22:58 07.07.2020
174 Clouds 28 1008 94 10000 1 130 22:40 07.07.2020
175 Clouds 28 1008 94 10000 1 130 22:20 07.07.2020
176 Clouds 28 1008 94 10000 1 130 22:20 07.07.2020
177 Clouds 28 1008 94 10000 2.6 130 21:58 07.07.2020
178 Rain 28 1009 94 10000 3.1 170 21:38 07.07.2020
179 Rain 28 1009 94 10000 3.1 170 21:38 07.07.2020
180 Rain 28 1009 94 10000 3.1 170 21:38 07.07.2020
181 Rain 29 1009 94 10000 3.1 170 21:19 07.07.2020
182 Clouds 30 1009 88 10000 2.1 120 20:55 07.07.2020
183 Clouds 30 1009 88 10000 2.1 140 20:36 07.07.2020
184 Clouds 30 1009 88 10000 2.6 140 20:18 07.07.2020
185 Clouds 30 1009 88 10000 2.6 140 20:18 07.07.2020
186 Rain 30 1009 88 10000 1.5 120 19:39 07.07.2020
187 Clouds 30 1010 83 10000 0.5 170 19:20 07.07.2020
188 Clouds 29 1010 83 10000 0.5 170 18:55 07.07.2020
189 Clouds 32 1010 61 0 5.05 168 18:37 07.07.2020
190 Rain 32 1010 61 0 4.66 167 18:19 07.07.2020
191 Rain 30 1008 76 0 4.66 167 17:55 07.07.2020
192 Rain 32 1008 76 0 4.66 167 17:36 07.07.2020
193 Clouds 30 1009 83 10000 2.1 170 17:18 07.07.2020
194 Clouds 30 1007 83 0 4.92 171 16:42 07.07.2020
195 Clouds 30 1007 83 0 5.09 175 16:22 07.07.2020
196 Clouds 30 1007 83 0 5.09 175 15:55 07.07.2020
197 Clouds 30 1007 83 0 5.09 175 15:37 07.07.2020
198 Clouds 30 1008 84 0 5.56 174 15:18 07.07.2020
199 Clouds 30 1007 84 0 5.56 174 14:42 07.07.2020
200 Clouds 30 1007 84 0 5.93 174 14:24 07.07.2020
201 Clouds 30 1006 85 0 5.93 174 13:43 07.07.2020
202 Clouds 31 1005 85 0 6.2 177 13:20 07.07.2020
203 Clouds 31 1005 86 0 6.2 177 12:56 07.07.2020
204 Clouds 31 1005 89 0 6.2 177 12:37 07.07.2020
205 Clouds 32 1005 73 0 0.45 133 12:18 07.07.2020
206 Clouds 33 1005 71 0 6.02 179 11:43 07.07.2020
207 Clouds 32 1005 69 0 0.45 133 11:22 07.07.2020
208 Clouds 32 1006 79 10000 4.1 260 10:58 07.07.2020
209 Thunderstorm 31 1007 83 8000 8.7 270 10:39 07.07.2020
210 Thunderstorm 32 1007 83 8000 8.7 270 10:20 07.07.2020
211 Clouds 32 1005 64 0 0.89 144 09:43 07.07.2020
212 Rain 33 1005 61 0 0.89 205 09:22 07.07.2020
213 Rain 33 1005 69 0 2.18 176 08:57 07.07.2020
214 Rain 35 1006 67 0 2.18 176 08:39 07.07.2020
215 Rain 35 1006 63 0 2.21 194 08:19 07.07.2020
216 Rain 34 1006 64 0 2.21 194 07:38 07.07.2020
217 Rain 34 1006 64 0 1.13 185 07:19 07.07.2020
218 Rain 34 1007 69 0 1.13 185 06:45 07.07.2020
219 Rain 33 1007 69 0 0.33 142 06:26 07.07.2020
220 Rain 32 1007 73 0 0.33 142 05:43 07.07.2020
221 Rain 31 1007 77 0 0.45 269 04:52 07.07.2020
222 Rain 29 1007 83 0 0.45 243 03:43 07.07.2020
223 Rain 29 1007 85 0 0.79 355 03:23 07.07.2020
224 Clouds 28 1007 88 10000 1.92 310 01:41 07.07.2020
225 Clouds 28 1007 83 10000 1 0 00:59 07.07.2020
226 Clouds 28 1007 83 10000 1.5 190 00:40 07.07.2020
227 Clouds 28 1007 83 10000 1.5 190 00:20 07.07.2020
228 Clouds 28 1006 88 10000 1.5 160 23:43 06.07.2020
229 Clouds 28 1006 88 10000 1.5 160 23:25 06.07.2020
230 Clouds 28 1006 88 10000 0.5 180 22:57 06.07.2020
231 Clouds 28 1006 94 10000 1 150 22:38 06.07.2020
232 Clouds 28 1006 94 10000 1 150 22:18 06.07.2020
233 Clouds 28 1006 94 10000 2.6 220 21:56 06.07.2020
234 Rain 28 1007 88 8000 5.1 220 21:36 06.07.2020
235 Rain 28 1007 88 8000 5.1 220 21:18 06.07.2020
236 Clouds 29 1007 79 10000 2.6 200 20:40 06.07.2020
237 Clouds 29 1007 79 10000 2.6 200 20:20 06.07.2020
238 Clouds 30 1007 79 10000 3.1 190 19:58 06.07.2020
239 Clouds 30 1007 79 10000 3.1 210 19:40 06.07.2020
240 Rain 30 1006 76 0 3.31 177 19:22 06.07.2020
241 Clouds 30 1007 79 10000 4.1 210 18:57 06.07.2020
242 Clouds 30 1007 79 10000 4.1 210 18:57 06.07.2020
243 Clouds 30 1007 74 10000 3.6 210 18:39 06.07.2020
244 Clouds 30 1007 70 10000 4.1 210 18:21 06.07.2020
245 Clouds 31 1007 70 10000 4.1 210 17:46 06.07.2020
246 Clouds 31 1007 70 10000 4.1 210 17:28 06.07.2020
247 Clouds 31 1006 70 10000 3.6 190 16:59 06.07.2020
248 Clouds 31 1006 70 10000 5.7 210 16:41 06.07.2020
249 Clouds 31 1006 70 10000 5.7 210 16:22 06.07.2020
250 Clouds 31 1005 70 10000 5.1 210 15:44 06.07.2020
251 Clouds 32 1005 73 0 4.8 192 15:25 06.07.2020
252 Clouds 33 1005 72 0 4.8 192 14:57 06.07.2020
253 Clouds 32 1004 66 10000 5.1 170 14:38 06.07.2020
254 Rain 33 1004 71 0 4.48 183 14:20 06.07.2020
255 Rain 33 1003 68 0 4.48 183 13:56 06.07.2020
256 Rain 34 1003 66 0 4.48 183 13:38 06.07.2020
257 Rain 34 1002 64 0 3.44 204 13:19 06.07.2020
258 Rain 34 1002 64 0 3.44 204 13:19 06.07.2020
259 Rain 34 1002 62 0 3.44 204 12:42 06.07.2020
260 Rain 34 1002 59 0 2.93 238 12:19 06.07.2020
261 Rain 34 1002 59 0 2.93 238 12:19 06.07.2020
262 Rain 35 1002 57 0 2.93 238 11:58 06.07.2020
263 Rain 35 953 51 0 2.93 238 11:38 06.07.2020
264 Clouds 34 1003 45 0 2.59 269 11:20 06.07.2020
265 Clouds 34 1003 45 0 2.59 269 10:56 06.07.2020
266 Clouds 35 1003 43 0 2.59 269 10:37 06.07.2020
267 Clouds 34 1004 43 0 2.61 281 10:18 06.07.2020
268 Clouds 34 1003 53 0 2.61 281 09:41 06.07.2020
269 Clouds 33 1004 48 0 2.51 275 09:21 06.07.2020
270 Clouds 35 1004 54 0 2.08 271 08:55 06.07.2020
271 Clouds 35 1005 46 0 2.08 271 08:37 06.07.2020
272 Clouds 35 1005 46 0 1.47 258 08:19 06.07.2020
273 Clouds 35 1005 46 0 1.47 258 08:19 06.07.2020
274 Clouds 34 1005 52 0 1.47 258 07:43 06.07.2020
275 Clouds 34 1006 47 0 1.08 255 07:23 06.07.2020
276 Clouds 34 1007 46 0 1.08 255 06:40 06.07.2020
277 Clouds 32 1007 62 10000 3.1 270 06:21 06.07.2020
278 Clouds 32 1007 62 10000 4.1 270 05:38 06.07.2020
279 Clouds 31 1007 66 10000 4.6 270 04:54 06.07.2020
280 Clouds 31 1006 66 10000 3.6 260 03:40 06.07.2020
281 Clouds 28 1006 66 10000 3.1 260 02:22 06.07.2020
282 Clouds 28 1005 69 10000 2.6 250 01:28 06.07.2020
283 Clouds 28 1005 69 10000 1.5 250 00:36 06.07.2020
284 Clouds 28 1005 69 10000 1.5 250 00:18 06.07.2020
285 Clouds 28 1005 69 10000 1.5 240 23:41 05.07.2020
286 Clouds 28 1005 69 10000 1.5 240 23:23 05.07.2020
287 Clouds 28 1006 69 10000 1 0 22:59 05.07.2020
288 Clouds 29 1006 66 10000 2.6 330 22:40 05.07.2020
289 Clouds 29 1006 66 10000 2.6 330 22:20 05.07.2020
290 Clouds 29 1006 69 10000 2.6 320 21:57 05.07.2020
291 Clouds 29 1006 66 10000 3.1 330 21:38 05.07.2020
292 Clouds 29 1006 66 10000 3.1 330 21:18 05.07.2020
293 Clouds 29 1007 66 10000 2.6 280 20:57 05.07.2020
294 Clouds 29 1007 66 10000 3.1 270 20:38 05.07.2020
295 Clouds 29 1007 66 10000 3.1 270 20:20 05.07.2020
296 Clouds 30 1007 62 10000 4.1 260 19:42 05.07.2020
297 Clouds 30 1007 62 10000 4.1 260 19:21 05.07.2020
298 Clouds 30 1007 62 10000 4.1 260 18:56 05.07.2020
299 Clouds 30 1007 62 10000 4.6 260 18:37 05.07.2020
300 Clouds 31 1007 62 10000 4.6 260 18:19 05.07.2020
301 Clouds 31 1007 58 10000 5.7 240 17:42 05.07.2020
302 Clouds 31 1007 58 10000 5.7 240 17:19 05.07.2020
303 Clouds 31 1006 58 10000 6.2 240 16:58 05.07.2020
304 Clouds 31 1006 58 10000 7.2 260 16:40 05.07.2020
305 Clouds 31 1006 58 10000 7.2 260 16:21 05.07.2020
306 Rain 31 1005 52 0 5.49 258 15:40 05.07.2020
307 Clouds 31 1005 59 10000 4.1 250 15:20 05.07.2020
308 Clouds 31 1005 59 10000 4.1 250 15:20 05.07.2020
309 Clouds 31 1004 59 10000 4.1 260 14:55 05.07.2020
310 Clouds 31 1004 59 10000 5.1 260 14:36 05.07.2020
311 Clouds 32 1004 55 10000 4.6 250 14:18 05.07.2020
312 Clouds 32 1003 55 10000 5.1 260 13:41 05.07.2020
313 Clouds 32 1003 55 10000 5.1 260 13:23 05.07.2020
314 Clouds 32 1003 52 10000 4.6 290 12:45 05.07.2020
315 Clouds 33 1003 52 10000 4.6 290 12:21 05.07.2020
316 Clouds 34 1004 52 10000 4.1 280 11:56 05.07.2020
317 Clouds 33 1004 55 10000 3.1 210 11:38 05.07.2020
318 Clouds 33 1004 55 10000 3.1 210 11:19 05.07.2020
319 Clouds 33 1004 55 10000 2.6 220 10:55 05.07.2020
320 Clouds 33 1005 55 10000 2.6 250 10:36 05.07.2020
321 Clouds 32 1005 55 10000 2.6 250 10:18 05.07.2020
322 Clouds 34 1006 52 10000 4.1 230 09:41 05.07.2020
323 Clouds 33 1004 54 0 1.34 121 09:20 05.07.2020
324 Clouds 33 1005 56 0 0.89 237 08:56 05.07.2020
325 Clouds 33 1005 55 0 0.45 291 08:37 05.07.2020
326 Clouds 33 1005 53 0 0.45 265 07:59 05.07.2020
327 Clouds 33 1006 54 0 1.79 116 07:33 05.07.2020
328 Clouds 33 1006 54 0 0.45 256 06:58 05.07.2020
329 Clouds 33 1006 56 0 0.45 260 06:29 05.07.2020
330 Clouds 31 1008 58 10000 1.5 210 04:24 05.07.2020
331 Clouds 28 1008 83 10000 1.5 140 02:59 05.07.2020
332 Clouds 28 1008 88 10000 1 150 02:37 05.07.2020
333 Clouds 27 1008 78 10000 3.19 259 01:44 05.07.2020
334 Clouds 27 1008 78 10000 2.78 255 01:26 05.07.2020
335 Clouds 27 1008 78 10000 1.5 210 00:50 05.07.2020
336 Clouds 27 1008 78 10000 3.15 252 00:28 05.07.2020
337 Clouds 28 1008 78 10000 3.15 252 23:55 04.07.2020
338 Clouds 28 1008 78 10000 2.1 220 23:32 04.07.2020
339 Clouds 28 1008 74 10000 2.1 250 22:59 04.07.2020
340 Clouds 28 1008 74 10000 1.5 260 22:40 04.07.2020
341 Clouds 28 1008 74 10000 1.5 260 22:22 04.07.2020
342 Clouds 28 1008 70 10000 2.1 250 21:58 04.07.2020
343 Clouds 28 1009 70 10000 2.1 280 21:39 04.07.2020
344 Clouds 28 1009 70 10000 2.1 280 21:20 04.07.2020
345 Clouds 29 1009 70 10000 3.1 250 20:42 04.07.2020
346 Clouds 29 1010 70 10000 3.1 250 20:21 04.07.2020
347 Clouds 29 1010 70 10000 3.1 250 19:56 04.07.2020
348 Clouds 29 1010 70 10000 3.1 250 19:37 04.07.2020
349 Clouds 29 1010 66 10000 3.1 230 19:19 04.07.2020
350 Clouds 29 1009 70 10000 2.6 230 18:43 04.07.2020
351 Clouds 29 1009 70 10000 2.1 220 18:22 04.07.2020
352 Clouds 29 1009 70 10000 2.1 220 17:45 04.07.2020
353 Clouds 29 1008 66 10000 2.6 240 17:26 04.07.2020
354 Clouds 29 1008 66 10000 2.1 250 16:59 04.07.2020
355 Clouds 29 1007 70 10000 1.5 230 16:39 04.07.2020
356 Clouds 29 1007 70 10000 1.5 230 16:21 04.07.2020
357 Clouds 29 1007 66 10000 3.1 220 15:58 04.07.2020
358 Clouds 29 1007 66 10000 2.6 250 15:40 04.07.2020
359 Clouds 30 1007 66 10000 2.6 250 15:21 04.07.2020
360 Clouds 30 1007 66 10000 2.6 230 14:55 04.07.2020
361 Clouds 30 1007 66 10000 2.6 230 14:55 04.07.2020
362 Clouds 30 1007 66 10000 2.6 230 14:55 04.07.2020
363 Clouds 30 1007 66 10000 3.1 240 14:36 04.07.2020
364 Clouds 30 1007 66 10000 3.1 240 14:36 04.07.2020
365 Clouds 30 1007 66 10000 3.1 240 14:18 04.07.2020
366 Clouds 30 1007 66 10000 3.1 240 14:18 04.07.2020
367 Clouds 30 1006 66 10000 3.6 250 13:41 04.07.2020
368 Clouds 30 1006 66 10000 3.6 250 13:19 04.07.2020
369 Clouds 31 1006 62 10000 3.6 250 12:43 04.07.2020
370 Clouds 31 1006 62 10000 3.6 250 12:23 04.07.2020
371 Clouds 31 1006 62 10000 4.6 240 11:59 04.07.2020
372 Clouds 31 1006 62 10000 4.6 260 11:40 04.07.2020
373 Clouds 31 1005 64 0 4.02 285 11:21 04.07.2020
374 Clouds 31 1005 62 0 0.45 184 10:42 04.07.2020
375 Clouds 32 1005 60 0 0.89 285 10:22 04.07.2020
376 Clouds 32 1006 60 0 0.89 265 09:59 04.07.2020
377 Clouds 32 1006 60 0 0.89 250 09:40 04.07.2020
378 Clouds 32 1006 59 0 0.89 254 09:20 04.07.2020
379 Clouds 31 1006 62 0 0.89 293 08:50 04.07.2020
380 Clouds 31 1007 62 0 0.89 307 08:32 04.07.2020
381 Clouds 31 1007 62 0 1.34 269 07:54 04.07.2020
382 Clouds 31 1007 62 0 1.34 257 07:35 04.07.2020
383 Clouds 31 1008 64 0 0.45 165 06:57 04.07.2020
384 Clouds 31 1008 66 0 0.89 226 06:23 04.07.2020
385 Clouds 30 1009 71 0 0.89 217 05:40 04.07.2020
386 Rain 28 1010 88 8000 2.1 140 04:55 04.07.2020
387 Clouds 27 1009 94 10000 2.6 130 03:19 04.07.2020
388 Clouds 27 1009 100 10000 2.6 110 02:27 04.07.2020
389 Clouds 26 1008 100 10000 1.5 120 01:37 04.07.2020
390 Clouds 26 1008 94 10000 2.1 100 00:45 04.07.2020
391 Clouds 26 1008 94 10000 2.1 100 00:26 04.07.2020
392 Clouds 26 1008 94 10000 2.1 130 23:41 03.07.2020
393 Clouds 26 1008 94 10000 2.1 130 23:19 03.07.2020
394 Clouds 26 1008 88 10000 1.5 170 22:59 03.07.2020
395 Clouds 26 1008 88 10000 2.1 180 22:39 03.07.2020
396 Clouds 26 1008 88 10000 2.1 180 22:21 03.07.2020
397 Clouds 26 1009 94 10000 1 0 21:54 03.07.2020
398 Clouds 26 1009 94 10000 1 0 21:36 03.07.2020
399 Clouds 26 1009 94 10000 1 0 21:18 03.07.2020
400 Clouds 26 1009 88 10000 2.6 160 20:42 03.07.2020
401 Clouds 26 1009 88 10000 2.6 160 20:23 03.07.2020
402 Clouds 26 1009 83 10000 2.6 170 19:42 03.07.2020
403 Clouds 26 1009 83 10000 2.6 170 19:21 03.07.2020
404 Clouds 26 1009 83 10000 2.6 170 19:21 03.07.2020
405 Clouds 26 1009 83 10000 2.6 170 18:57 03.07.2020
406 Clouds 26 1009 83 10000 2.1 190 18:39 03.07.2020
407 Clouds 26 1009 83 10000 2.1 190 18:39 03.07.2020
408 Clouds 26 1009 83 10000 2.1 200 18:20 03.07.2020
409 Clouds 26 1009 83 10000 2.6 200 17:44 03.07.2020
410 Clouds 26 1009 83 10000 2.6 200 17:22 03.07.2020
411 Clouds 26 1008 83 10000 2.6 210 16:47 03.07.2020
412 Rain 26 1008 83 10000 3.6 200 16:29 03.07.2020
413 Rain 26 1008 94 8000 3.6 210 15:57 03.07.2020
414 Rain 27 1008 88 8000 4.6 230 15:38 03.07.2020
415 Rain 27 1008 88 8000 4.6 230 15:20 03.07.2020
416 Rain 27 1007 88 8000 3.6 220 14:41 03.07.2020
417 Rain 27 1007 88 8000 3.6 220 14:22 03.07.2020
418 Rain 27 1007 94 7000 5.7 250 13:59 03.07.2020
419 Rain 27 1007 94 3000 6.2 260 13:40 03.07.2020
420 Rain 27 1007 94 3000 6.2 260 13:21 03.07.2020
421 Rain 28 1006 78 9000 9.8 230 12:40 03.07.2020
422 Rain 30 1006 78 9000 9.8 230 12:21 03.07.2020
423 Rain 33 1004 62 0 0.89 337 11:44 03.07.2020
424 Rain 33 1004 61 0 1.34 282 11:25 03.07.2020
425 Rain 33 1004 61 0 0.45 178 10:59 03.07.2020
426 Rain 33 1004 61 0 0.89 133 10:41 03.07.2020
427 Rain 33 1004 59 0 0.45 160 10:21 03.07.2020
428 Rain 33 1004 58 0 0.45 166 09:58 03.07.2020
429 Rain 33 1005 58 0 0.89 191 09:38 03.07.2020
430 Rain 33 1005 58 0 0.89 191 09:38 03.07.2020
431 Clouds 33 1006 59 10000 5.1 230 09:19 03.07.2020
432 Clouds 33 1007 55 10000 5.1 250 08:40 03.07.2020
433 Clouds 33 1005 57 0 0.45 239 08:19 03.07.2020
434 Clouds 32 1006 58 0 0.45 165 07:52 03.07.2020
435 Clouds 32 1006 58 0 0.89 260 07:28 03.07.2020
436 Clouds 32 1006 59 0 0.45 109 06:58 03.07.2020
437 Clouds 32 1007 60 0 0.45 242 06:25 03.07.2020
438 Clouds 32 1007 61 0 1.34 281 04:56 03.07.2020
439 Clouds 30 1007 66 10000 3.6 220 03:45 03.07.2020
440 Clouds 29 1007 74 10000 2.1 230 02:49 03.07.2020
441 Clouds 28 1007 74 10000 3.1 220 02:29 03.07.2020
442 Clouds 28 1006 78 10000 3.1 220 01:29 03.07.2020
443 Clouds 29 1004 72 0 4.22 237 00:56 03.07.2020
444 Clouds 29 1004 72 0 4.22 237 00:36 03.07.2020
445 Clouds 28 1006 74 10000 4.1 240 23:49 02.07.2020
446 Clouds 28 1006 74 10000 3.6 240 23:21 02.07.2020
447 Clouds 28 1006 74 10000 2.6 240 22:58 02.07.2020
448 Clouds 28 1006 78 10000 2.6 210 22:40 02.07.2020
449 Clouds 27 1006 78 10000 2.6 210 22:20 02.07.2020
450 Clouds 27 1005 78 10000 2.6 210 21:56 02.07.2020
451 Clouds 27 1005 78 10000 2.6 210 21:56 02.07.2020
452 Clouds 27 1006 78 10000 2.6 220 21:38 02.07.2020
453 Clouds 27 1006 78 10000 2.6 220 21:18 02.07.2020
454 Clouds 28 1006 78 10000 2.6 230 20:57 02.07.2020
455 Clouds 28 1006 74 10000 4.1 240 20:39 02.07.2020
456 Clouds 28 1006 74 10000 4.1 240 20:18 02.07.2020
457 Clouds 28 1006 78 10000 2.6 240 19:41 02.07.2020
458 Clouds 28 1006 78 10000 2.6 240 19:22 02.07.2020
459 Clouds 28 1006 78 10000 2.6 240 18:57 02.07.2020
460 Clouds 28 1007 83 10000 2.1 210 18:39 02.07.2020
461 Clouds 28 1007 83 10000 2.1 210 18:21 02.07.2020
462 Clouds 28 1007 78 10000 1.5 270 17:41 02.07.2020
463 Clouds 28 1007 78 10000 1.5 270 17:20 02.07.2020
464 Clouds 28 1006 74 10000 2.6 250 16:58 02.07.2020
465 Clouds 28 1006 78 10000 3.6 240 16:40 02.07.2020
466 Clouds 28 1006 78 10000 3.6 240 16:20 02.07.2020
467 Clouds 29 1006 83 10000 4.1 240 15:55 02.07.2020
468 Clouds 29 1005 78 10000 4.1 240 15:36 02.07.2020
469 Clouds 29 1005 78 10000 4.1 240 15:18 02.07.2020
470 Clouds 30 1004 78 10000 4.1 260 14:43 02.07.2020
471 Rain 32 1003 67 0 6.93 239 14:20 02.07.2020
472 Rain 32 1003 67 0 6.93 239 13:56 02.07.2020
473 Rain 34 1004 43 0 6.93 239 13:37 02.07.2020
474 Rain 33 1004 45 0 6.82 226 13:18 02.07.2020
475 Rain 34 1004 42 0 6.82 226 12:41 02.07.2020
476 Clouds 34 1003 42 0 6.43 215 12:22 02.07.2020
477 Clouds 32 1002 75 0 6.43 215 11:46 02.07.2020
478 Clouds 34 1004 41 0 6.16 218 11:27 02.07.2020
479 Clouds 35 1004 41 0 6.16 218 10:59 02.07.2020
480 Clouds 34 1002 57 0 0.89 155 10:41 02.07.2020
481 Clouds 36 1003 42 0 5.78 223 10:23 02.07.2020
482 Clouds 35 1004 42 0 5.78 223 09:44 02.07.2020
483 Clouds 34 1004 43 0 5.98 228 09:22 02.07.2020
484 Clouds 35 1004 43 0 5.32 255 08:58 02.07.2020
485 Clouds 35 1005 43 0 5.32 255 08:39 02.07.2020
486 Clouds 34 1005 42 0 5.33 260 08:19 02.07.2020
487 Clouds 35 1005 43 0 5.33 260 07:42 02.07.2020
488 Clouds 34 1006 45 0 5.4 264 07:21 02.07.2020
489 Clouds 34 1006 44 0 5.4 264 06:45 02.07.2020
490 Clouds 32 1004 60 0 1.34 194 06:26 02.07.2020
491 Clouds 32 1005 61 0 0.89 250 05:48 02.07.2020
492 Clouds 32 1005 63 0 0.45 281 04:50 02.07.2020
493 Clouds 30 1007 70 10000 2.6 200 03:34 02.07.2020
494 Clouds 28 1005 83 10000 1.5 110 01:50 02.07.2020
495 Clouds 28 1005 74 10000 1.5 190 00:28 02.07.2020
496 Clouds 28 1005 78 10000 1.5 230 23:57 01.07.2020
497 Clouds 28 1005 74 10000 2.1 200 23:39 01.07.2020
498 Clouds 28 1005 74 10000 2.1 200 23:21 01.07.2020
499 Clouds 28 1005 74 10000 1.5 200 22:55 01.07.2020
500 Clouds 28 1005 74 10000 2.6 200 22:36 01.07.2020
501 Clouds 28 1005 74 10000 2.6 200 22:18 01.07.2020
502 Clouds 28 1005 69 10000 2.6 200 21:55 01.07.2020
503 Clouds 28 1005 69 10000 2.1 210 21:37 01.07.2020
504 Clouds 28 1005 69 10000 2.1 210 21:19 01.07.2020
505 Clouds 28 1006 69 10000 3.6 230 20:45 01.07.2020
506 Clouds 28 1006 69 10000 3.6 230 20:26 01.07.2020
507 Clouds 28 1007 69 10000 4.1 230 19:57 01.07.2020
508 Clouds 28 1007 69 10000 4.6 230 19:38 01.07.2020
509 Clouds 28 1007 69 10000 4.6 230 19:20 01.07.2020
510 Clouds 28 1007 69 10000 4.6 230 18:54 01.07.2020
511 Clouds 28 1007 69 10000 5.7 230 18:36 01.07.2020
512 Clouds 28 1007 69 10000 5.7 230 18:18 01.07.2020
513 Clouds 28 1007 69 10000 5.1 230 17:41 01.07.2020
514 Clouds 28 1007 69 10000 5.1 230 17:19 01.07.2020
515 Clouds 27 1007 78 10000 4.1 210 16:48 01.07.2020
516 Clouds 27 1006 78 10000 4.1 200 16:29 01.07.2020
517 Clouds 29 1006 78 10000 3.6 220 15:58 01.07.2020
518 Clouds 29 1006 74 10000 5.7 230 15:39 01.07.2020
519 Clouds 29 1006 74 10000 5.7 230 15:21 01.07.2020
520 Clouds 29 1005 83 10000 5.1 210 14:45 01.07.2020
521 Rain 29 1005 83 10000 6.2 220 14:22 01.07.2020
522 Rain 30 1004 78 10000 10.3 230 13:59 01.07.2020
523 Clouds 32 1003 55 10000 4.1 290 13:39 01.07.2020
524 Clouds 32 1003 52 10000 4.6 310 13:20 01.07.2020
525 Clouds 33 1003 52 10000 4.6 310 12:58 01.07.2020
526 Clouds 33 1002 58 0 5.29 259 12:39 01.07.2020
527 Clouds 33 1002 57 0 5.67 269 12:20 01.07.2020
528 Clouds 34 1002 55 0 0.45 134 11:44 01.07.2020
529 Clouds 34 1002 55 0 0.45 134 11:44 01.07.2020
530 Clouds 34 1002 55 0 0.45 134 11:44 01.07.2020
531 Clouds 34 1002 55 0 0.45 134 11:44 01.07.2020
532 Clouds 34 1002 55 0 0.45 134 11:44 01.07.2020
533 Clouds 34 1002 55 0 0.45 134 11:44 01.07.2020
534 Clouds 34 1002 55 0 0.45 134 11:44 01.07.2020
535 Clouds 34 1002 55 0 0.45 272 11:25 01.07.2020
536 Clouds 34 1002 55 0 0.45 90 10:59 01.07.2020
537 Clouds 34 1002 54 0 0.45 131 10:41 01.07.2020
538 Clouds 33 1004 52 10000 4.6 270 10:22 01.07.2020
539 Clouds 34 1005 52 10000 7.2 270 09:54 01.07.2020
540 Clouds 33 1005 52 10000 5.7 260 09:36 01.07.2020
541 Clouds 34 1004 54 0 0.89 264 09:18 01.07.2020
542 Clouds 33 1005 56 0 0.89 194 08:41 01.07.2020
543 Clouds 33 1006 55 10000 4.6 280 08:22 01.07.2020
544 Clouds 33 1007 55 10000 3.6 280 07:57 01.07.2020
545 Clouds 33 1005 57 0 0.89 211 07:36 01.07.2020
546 Clouds 33 1005 57 0 0.89 145 07:18 01.07.2020
547 Clouds 32 1006 57 0 0.89 243 06:48 01.07.2020
548 Clouds 31 1008 70 9000 3.1 230 06:27 01.07.2020
549 Rain 29 1009 88 9000 1.5 20 04:31 01.07.2020
550 Rain 29 1008 83 9000 2.6 360 03:46 01.07.2020
551 Rain 29 1008 78 9000 1 280 03:26 01.07.2020
552 Clouds 29 1008 66 10000 2.1 260 02:36 01.07.2020
553 Clouds 28 1007 74 10000 2.1 230 01:45 01.07.2020
554 Clouds 28 1007 69 10000 3.1 240 00:41 01.07.2020
555 Clouds 28 1007 69 10000 3.1 240 00:23 01.07.2020
556 Clouds 29 1006 66 10000 2.6 250 23:41 30.06.2020
557 Clouds 29 1006 66 10000 2.6 250 23:22 30.06.2020
558 Clouds 29 1006 66 10000 4.1 250 22:43 30.06.2020
559 Clouds 29 1006 66 10000 4.1 250 22:20 30.06.2020
560 Clouds 29 1006 66 10000 4.1 240 21:59 30.06.2020
561 Clouds 29 1007 66 10000 4.6 250 21:40 30.06.2020
562 Clouds 29 1007 66 10000 4.6 250 21:19 30.06.2020
563 Clouds 29 1007 66 10000 5.7 240 20:43 30.06.2020
564 Clouds 29 1007 66 10000 5.7 240 20:21 30.06.2020
565 Clouds 30 1008 62 10000 4.6 240 19:47 30.06.2020
566 Clouds 30 1008 62 10000 4.6 240 19:22 30.06.2020
567 Clouds 30 1008 62 10000 5.1 240 18:59 30.06.2020
568 Clouds 30 1008 66 10000 5.1 240 18:41 30.06.2020
569 Clouds 30 1008 66 10000 5.1 240 18:20 30.06.2020
570 Clouds 30 1007 79 10000 3.1 190 17:40 30.06.2020
571 Clouds 30 1007 79 10000 3.1 190 17:21 30.06.2020
572 Clouds 30 1007 79 10000 4.1 200 16:59 30.06.2020
573 Clouds 30 1007 74 10000 4.6 200 16:40 30.06.2020
574 Clouds 30 1007 74 10000 4.6 200 16:21 30.06.2020
575 Clouds 30 1006 74 10000 5.1 190 15:56 30.06.2020
576 Clouds 31 1006 74 10000 6.2 190 15:38 30.06.2020
577 Clouds 32 1006 74 10000 6.2 190 15:19 30.06.2020
578 Clouds 32 1005 66 10000 6.7 190 14:43 30.06.2020
579 Clouds 31 1005 66 10000 6.7 190 14:21 30.06.2020
580 Clouds 31 1004 70 10000 5.7 200 13:57 30.06.2020
581 Clouds 31 1004 66 10000 5.1 180 13:37 30.06.2020
582 Clouds 31 1004 66 10000 5.1 180 13:37 30.06.2020
583 Clouds 32 1004 63 10000 5.7 190 13:19 30.06.2020
584 Clouds 32 1004 63 10000 5.7 190 12:55 30.06.2020
585 Rain 34 1004 41 0 6.13 191 12:37 30.06.2020
586 Rain 34 1003 60 0 0.45 262 12:18 30.06.2020
587 Rain 34 1003 60 0 0.45 262 12:18 30.06.2020
588 Rain 33 1003 58 0 0.45 3 11:56 30.06.2020
589 Rain 33 1003 58 0 0.89 325 11:37 30.06.2020
590 Clouds 34 1003 57 0 0.89 209 11:18 30.06.2020
591 Rain 29 1006 71 0 2.89 242 16:46 28.06.2020
592 Rain 29 1005 70 0 3.6 198 16:28 28.06.2020
593 Rain 29 1005 68 0 3.6 198 15:59 28.06.2020
594 Rain 31 1005 68 0 3.6 198 15:39 28.06.2020
595 Rain 31 1005 66 0 0.45 296 15:20 28.06.2020
596 Rain 31 1004 65 0 0.45 319 14:55 28.06.2020
597 Rain 30 1004 65 0 0.45 309 14:37 28.06.2020
598 Rain 30 1004 64 0 0.45 332 14:19 28.06.2020
599 Rain 31 1004 64 0 0.45 124 13:39 28.06.2020
600 Rain 34 1005 43 0 5.41 180 13:21 28.06.2020
601 Rain 34 1004 44 0 5.41 180 12:57 28.06.2020
602 Rain 34 1004 43 0 5.41 180 12:38 28.06.2020
603 Rain 34 1004 43 0 5.03 183 12:19 28.06.2020
604 Rain 34 1004 43 0 5.03 183 11:58 28.06.2020
605 Rain 34 1004 43 0 5.03 183 11:39 28.06.2020
606 Clouds 35 1004 42 0 5.09 188 11:20 28.06.2020
607 Clouds 35 1005 43 0 5.09 188 10:57 28.06.2020
608 Clouds 35 1004 42 0 5.09 188 10:38 28.06.2020
609 Clouds 35 1004 41 0 4.63 194 10:19 28.06.2020
610 Clouds 35 1005 41 0 4.63 194 09:40 28.06.2020
611 Rain 34 1005 41 0 4.48 203 09:21 28.06.2020
612 Clouds 34 1005 43 0 4.2 200 08:51 28.06.2020
613 Clouds 34 1006 43 0 4.2 200 08:32 28.06.2020
614 Rain 35 1006 44 0 4.43 202 07:53 28.06.2020
615 Rain 34 1007 44 0 4.43 202 07:30 28.06.2020
616 Rain 34 1007 47 0 4.25 204 06:45 28.06.2020
617 Clouds 34 1007 48 0 3.56 205 06:26 28.06.2020
618 Clouds 33 1008 47 0 3.11 211 05:27 28.06.2020
619 Clouds 30 1007 66 0 0.45 164 03:45 28.06.2020
620 Clouds 29 1006 69 0 1.96 205 02:47 28.06.2020
621 Clouds 28 1007 78 10000 0.91 222 01:56 28.06.2020
622 Clouds 28 1006 78 10000 0.89 248 01:27 28.06.2020
623 Clouds 29 1006 78 10000 0.89 248 00:51 28.06.2020
624 Clouds 27 1007 78 10000 1 180 00:27 28.06.2020
625 Clouds 27 1006 74 10000 1.5 240 23:43 27.06.2020
626 Clouds 27 1006 74 10000 1.5 240 23:24 27.06.2020
627 Clouds 27 1006 74 10000 1.5 240 23:24 27.06.2020
628 Clouds 28 1006 78 10000 2.6 250 22:58 27.06.2020
629 Clouds 28 1007 69 10000 2.6 250 22:40 27.06.2020
630 Clouds 28 1007 69 10000 2.6 250 22:21 27.06.2020
631 Clouds 28 1007 69 10000 3.1 230 21:55 27.06.2020
632 Clouds 28 1007 69 10000 3.1 240 21:37 27.06.2020
633 Clouds 28 1007 69 10000 3.1 240 21:19 27.06.2020
634 Clouds 28 1008 69 10000 3.1 260 20:43 27.06.2020
635 Clouds 29 1008 69 10000 3.1 260 20:19 27.06.2020
636 Clouds 29 1008 70 10000 3.1 250 19:55 27.06.2020
637 Clouds 29 1008 70 10000 3.1 250 19:36 27.06.2020
638 Clouds 29 1008 74 10000 4.1 230 19:18 27.06.2020
639 Clouds 29 1008 70 10000 3.6 240 18:45 27.06.2020
640 Clouds 29 1008 70 10000 3.6 240 18:25 27.06.2020
641 Clouds 30 1008 70 10000 4.1 240 17:57 27.06.2020
642 Clouds 30 1008 70 10000 3.6 240 17:38 27.06.2020
643 Clouds 30 1008 70 10000 3.6 240 17:19 27.06.2020
644 Clouds 30 1008 70 10000 4.1 250 16:43 27.06.2020
645 Clouds 30 1008 70 10000 4.6 240 16:25 27.06.2020
646 Clouds 30 1007 66 10000 5.7 240 15:55 27.06.2020
647 Clouds 32 1007 66 10000 6.7 230 15:37 27.06.2020
648 Clouds 32 1007 66 10000 6.7 230 15:18 27.06.2020
649 Rain 32 1005 61 0 4.02 183 14:41 27.06.2020
650 Rain 34 1005 63 0 0.45 240 14:23 27.06.2020
651 Rain 33 1004 62 0 4.66 174 13:57 27.06.2020
652 Rain 33 1004 62 0 0.45 228 13:37 27.06.2020
653 Clouds 34 1004 61 0 4.85 176 13:19 27.06.2020
654 Clouds 34 1004 61 0 4.85 176 13:19 27.06.2020
655 Clouds 33 1004 60 0 0.45 172 12:56 27.06.2020
656 Clouds 34 1003 60 0 4.85 176 12:37 27.06.2020
657 Clouds 34 1004 60 0 4.25 180 12:19 27.06.2020
658 Clouds 35 1004 57 0 0.45 233 11:41 27.06.2020
659 Clouds 35 1004 57 0 0.45 268 11:23 27.06.2020
660 Clouds 34 1004 57 0 0.45 117 10:57 27.06.2020
661 Clouds 34 1004 57 0 0.45 162 10:38 27.06.2020
662 Clouds 34 1004 57 0 0.45 228 10:18 27.06.2020
663 Clouds 34 1004 57 0 2.24 275 09:41 27.06.2020
664 Clouds 34 1005 58 0 1.34 293 09:21 27.06.2020
665 Clouds 34 1005 56 0 0.45 168 08:46 27.06.2020
666 Clouds 34 1005 56 0 0.45 203 08:23 27.06.2020
667 Clouds 34 1006 57 0 0.45 166 07:55 27.06.2020
668 Clouds 34 1006 57 0 0.89 242 07:37 27.06.2020
669 Clouds 34 1006 56 0 0.45 282 07:18 27.06.2020
670 Clouds 33 1006 57 0 0.45 249 06:35 27.06.2020
671 Rain 33 1007 57 0 0.45 290 05:33 27.06.2020
672 Clouds 32 1007 64 0 0.45 295 04:19 27.06.2020
673 Clouds 32 1007 65 0 2.63 196 03:51 27.06.2020
674 Clouds 29 1008 74 10000 1.5 130 02:47 27.06.2020
675 Clouds 28 1008 83 10000 3.1 130 02:27 27.06.2020
676 Clouds 28 1007 78 10000 1.5 190 01:39 27.06.2020
677 Clouds 28 1007 74 10000 1 0 00:52 27.06.2020
678 Clouds 28 1006 69 10000 1.5 260 23:57 26.06.2020
679 Clouds 28 1006 74 10000 2.6 270 23:38 26.06.2020
680 Clouds 28 1006 74 10000 2.6 270 23:20 26.06.2020
681 Clouds 28 1006 74 10000 2.6 280 22:43 26.06.2020
682 Clouds 28 1006 74 10000 2.6 280 22:24 26.06.2020
683 Clouds 28 1006 74 10000 1.5 320 21:58 26.06.2020
684 Clouds 28 1006 70 10000 1.5 250 21:40 26.06.2020
685 Clouds 28 1006 70 10000 1.5 250 21:21 26.06.2020
686 Clouds 29 1007 70 10000 2.1 260 20:58 26.06.2020
687 Clouds 29 1007 70 10000 2.6 230 20:40 26.06.2020
688 Clouds 29 1008 78 10000 2.6 220 20:18 26.06.2020
689 Clouds 29 1006 68 0 3.04 231 19:40 26.06.2020
690 Clouds 29 1006 67 0 3.47 232 19:20 26.06.2020
691 Clouds 29 1007 66 0 3.47 232 18:43 26.06.2020
692 Clouds 29 1007 66 0 4.13 229 18:25 26.06.2020
693 Clouds 29 1007 65 0 4.13 229 17:55 26.06.2020
694 Clouds 29 1007 65 0 4.13 229 17:37 26.06.2020
695 Clouds 29 1007 65 0 0.45 226 17:19 26.06.2020
696 Clouds 29 1007 65 0 4.64 225 16:42 26.06.2020
697 Clouds 29 1007 65 0 4.79 221 16:23 26.06.2020
698 Clouds 31 1006 65 0 4.79 221 15:41 26.06.2020
699 Clouds 31 1006 65 0 0.45 147 15:22 26.06.2020
700 Clouds 31 1006 65 0 0.45 256 14:58 26.06.2020
701 Clouds 31 1006 70 0 0.45 152 14:40 26.06.2020
702 Clouds 31 1005 69 0 6.11 207 14:22 26.06.2020
703 Clouds 31 1005 69 0 6.11 207 13:47 26.06.2020
704 Rain 31 1005 70 0 0.45 35 13:25 26.06.2020
705 Rain 31 1004 69 0 0.89 269 12:59 26.06.2020
706 Clouds 32 1005 70 10000 6.2 210 12:40 26.06.2020
707 Rain 33 1004 67 0 0.89 329 12:22 26.06.2020
708 Rain 34 1006 47 0 6.97 199 11:57 26.06.2020
709 Rain 35 1006 47 0 6.97 199 11:39 26.06.2020
710 Clouds 35 1006 45 0 6.11 210 11:20 26.06.2020
711 Clouds 35 1006 46 0 6.11 210 10:57 26.06.2020
712 Clouds 36 1006 46 0 6.11 210 10:38 26.06.2020
713 Rain 36 1006 45 0 5.43 233 10:18 26.06.2020
714 Rain 36 1006 44 0 5.43 233 09:43 26.06.2020
715 Clouds 35 1006 45 0 4.89 254 09:22 26.06.2020
716 Clouds 34 1007 42 0 4.29 257 08:51 26.06.2020
717 Clouds 34 1007 43 0 4.34 266 08:28 26.06.2020
718 Clouds 35 1008 45 0 4.34 266 07:52 26.06.2020
719 Clouds 35 1008 45 0 4.15 275 07:24 26.06.2020
720 Clouds 34 1008 45 0 4.15 275 06:57 26.06.2020
721 Clouds 34 1008 43 0 4.15 275 06:35 26.06.2020
722 Clouds 32 1007 59 0 0.45 251 05:58 26.06.2020
723 Clouds 32 1007 60 0 0.89 184 05:31 26.06.2020
724 Clouds 29 1007 74 10000 3.1 250 02:42 26.06.2020
725 Clouds 28 1007 74 10000 3.1 250 02:22 26.06.2020
726 Clouds 26 1007 94 10000 2.6 190 00:58 26.06.2020
727 Clouds 26 1007 94 10000 1.5 210 00:39 26.06.2020
728 Clouds 26 1007 94 10000 2.1 190 23:48 25.06.2020
729 Clouds 26 1007 94 10000 1.5 210 23:24 25.06.2020
730 Clouds 26 1007 94 10000 1.5 180 22:59 25.06.2020
731 Clouds 26 1007 94 10000 2.1 180 22:40 25.06.2020
732 Clouds 26 1007 94 10000 2.1 180 22:40 25.06.2020
733 Clouds 26 1007 94 10000 2.1 180 22:21 25.06.2020
734 Clouds 26 1007 88 10000 1 220 21:58 25.06.2020
735 Clouds 27 1007 88 10000 2.37 284 21:40 25.06.2020
736 Clouds 27 1007 88 10000 2.37 284 21:40 25.06.2020
737 Clouds 27 1007 88 10000 2.35 289 21:21 25.06.2020
738 Rain 27 1007 88 10000 1.5 170 20:59 25.06.2020
739 Rain 28 1007 83 10000 3.1 210 20:41 25.06.2020
740 Rain 28 1007 83 10000 3.1 210 20:22 25.06.2020
741 Clouds 29 1008 78 10000 5.7 240 19:56 25.06.2020
742 Clouds 29 1008 78 10000 5.7 240 19:37 25.06.2020
743 Thunderstorm 30 1008 74 10000 5.1 260 19:18 25.06.2020
744 Thunderstorm 30 1008 79 10000 2.6 200 18:40 25.06.2020
745 Thunderstorm 30 1008 79 10000 2.6 200 18:21 25.06.2020
746 Clouds 30 1008 79 10000 2.1 200 17:55 25.06.2020
747 Clouds 30 1008 79 10000 3.6 210 17:37 25.06.2020
748 Clouds 30 1008 79 10000 3.6 210 17:18 25.06.2020
749 Clouds 30 1007 74 10000 4.1 200 16:40 25.06.2020
750 Clouds 30 1007 74 10000 4.1 200 16:20 25.06.2020
751 Clouds 31 1007 70 10000 3.1 200 15:45 25.06.2020
752 Rain 32 1005 68 0 4.17 206 15:27 25.06.2020
753 Rain 32 1005 67 0 0.45 345 14:57 25.06.2020
754 Rain 32 1004 66 0 0.45 354 14:39 25.06.2020
755 Rain 34 1004 65 0 4.71 188 14:21 25.06.2020
756 Rain 34 1004 64 0 4.75 184 13:55 25.06.2020
757 Rain 33 1003 65 0 0.45 145 13:37 25.06.2020
758 Clouds 34 1003 64 0 4.89 173 13:19 25.06.2020
759 Clouds 33 1004 66 10000 3.6 170 12:43 25.06.2020
760 Clouds 35 1003 60 0 5.27 180 12:20 25.06.2020
761 Clouds 36 1004 47 0 5.27 180 11:44 25.06.2020
762 Clouds 36 1004 47 0 4.57 186 11:25 25.06.2020
763 Clouds 36 1004 49 0 4.57 186 10:58 25.06.2020
764 Clouds 36 1004 49 0 4.57 186 10:40 25.06.2020
765 Clouds 36 1004 49 0 3.8 191 10:21 25.06.2020
766 Clouds 36 1005 48 0 3.8 191 09:41 25.06.2020
767 Clouds 35 1005 49 0 3.94 190 09:23 25.06.2020
768 Clouds 35 1006 48 0 3.94 190 08:47 25.06.2020
769 Clouds 35 1006 47 0 3.42 191 08:20 25.06.2020
770 Clouds 35 1006 45 0 3.42 191 07:46 25.06.2020
771 Clouds 35 1007 48 0 3.28 196 07:27 25.06.2020
772 Clouds 35 1007 50 0 3.28 196 06:51 25.06.2020
773 Clouds 34 1007 51 0 3.19 195 06:27 25.06.2020
774 Clouds 34 1006 59 0 0.45 258 05:51 25.06.2020
775 Rain 33 1008 53 0 2.68 213 03:58 25.06.2020
776 Clouds 33 1007 84 10000 1 100 03:32 25.06.2020
777 Clouds 30 1007 89 10000 1.5 90 02:42 25.06.2020
778 Clouds 29 1007 94 10000 1.5 110 01:55 25.06.2020
779 Clouds 30 1007 94 10000 1.5 100 01:20 25.06.2020
780 Clouds 29 1007 89 10000 1.55 231 00:43 25.06.2020
781 Clouds 29 1007 83 10000 1 30 00:20 25.06.2020
782 Clouds 29 1007 83 10000 2.24 211 23:44 24.06.2020
783 Clouds 29 1007 83 10000 3.1 191 23:25 24.06.2020
784 Clouds 29 1007 89 10000 3.1 191 22:58 24.06.2020
785 Clouds 29 1007 83 10000 1.5 210 22:40 24.06.2020
786 Clouds 29 1007 83 10000 1.5 210 22:20 24.06.2020
787 Clouds 29 1007 83 10000 3.65 181 21:55 24.06.2020
788 Clouds 30 1007 79 10000 2.1 180 21:36 24.06.2020
789 Clouds 30 1007 79 10000 2.1 180 21:18 24.06.2020
790 Clouds 30 1008 83 10000 2.6 200 20:58 24.06.2020
791 Clouds 30 1008 83 10000 2.1 210 20:38 24.06.2020
792 Clouds 30 1008 83 10000 2.1 210 20:20 24.06.2020
793 Clouds 30 1008 79 10000 2.1 200 19:55 24.06.2020
794 Clouds 30 1008 83 10000 3.1 220 19:36 24.06.2020
795 Clouds 30 1008 83 10000 3.1 220 19:18 24.06.2020
796 Clouds 30 1008 79 10000 3.1 210 18:57 24.06.2020
797 Clouds 30 1008 79 10000 3.1 210 18:38 24.06.2020
798 Clouds 30 1007 79 10000 2.6 180 18:19 24.06.2020
799 Clouds 31 1007 74 10000 3.1 190 17:43 24.06.2020
800 Clouds 31 1007 74 10000 3.1 190 17:21 24.06.2020
801 Clouds 31 1007 79 10000 3.6 210 16:59 24.06.2020
802 Clouds 31 1007 74 10000 4.1 200 16:40 24.06.2020
803 Clouds 31 1007 74 10000 4.1 200 16:22 24.06.2020
804 Clouds 32 1005 68 0 5.8 183 15:58 24.06.2020
805 Clouds 33 1005 67 0 0.45 350 15:39 24.06.2020
806 Rain 33 1005 66 0 5.24 181 15:20 24.06.2020
807 Rain 33 1004 65 0 0.45 242 14:54 24.06.2020
808 Rain 33 1004 64 0 0.45 351 14:36 24.06.2020
809 Rain 33 1004 62 0 5.22 172 14:18 24.06.2020
810 Rain 35 1005 52 0 5.22 172 13:41 24.06.2020
811 Clouds 35 1005 53 0 5.21 177 13:20 24.06.2020
812 Clouds 34 1003 58 0 0.45 302 12:41 24.06.2020
813 Clouds 36 1005 49 0 4.52 179 12:21 24.06.2020
814 Clouds 36 1005 47 0 4.52 179 11:57 24.06.2020
815 Clouds 36 1005 47 0 4.52 179 11:39 24.06.2020
816 Clouds 35 1005 45 0 3.9 183 11:21 24.06.2020
817 Clouds 36 1005 45 0 3.9 183 10:44 24.06.2020
818 Clouds 36 1005 44 0 3.49 191 10:19 24.06.2020
819 Clouds 36 1006 44 0 3.49 191 09:44 24.06.2020
820 Clouds 36 1006 45 0 3.73 192 09:23 24.06.2020
821 Clouds 36 1007 44 0 3.73 192 08:46 24.06.2020
822 Clouds 36 1007 45 0 3.37 198 08:27 24.06.2020
823 Clouds 36 1007 46 0 3.37 198 07:58 24.06.2020
824 Clouds 35 1007 46 0 3.37 198 07:40 24.06.2020
825 Clouds 36 1008 47 0 3.02 209 07:18 24.06.2020
826 Clouds 35 1008 47 0 3.02 209 06:40 24.06.2020
827 Clouds 33 1008 66 10000 1.5 0 06:21 24.06.2020
828 Clouds 33 1007 64 0 2.6 216 05:32 24.06.2020
829 Clouds 33 1009 52 0 2.27 221 04:37 24.06.2020
830 Clouds 33 1009 54 0 1.96 226 03:37 24.06.2020
831 Clouds 29 1009 89 10000 1.5 90 02:52 24.06.2020
832 Clouds 29 1008 94 10000 1.5 30 01:46 24.06.2020
833 Clouds 28 1008 88 10000 1.5 130 00:50 24.06.2020
834 Clouds 28 1008 88 10000 1.5 130 00:31 24.06.2020
835 Clouds 28 1008 88 10000 1.8 232 23:46 23.06.2020
836 Clouds 29 1008 88 10000 2.29 210 23:21 23.06.2020
837 Clouds 29 1008 88 10000 2.29 210 22:57 23.06.2020
838 Clouds 29 1008 88 10000 1.5 140 22:38 23.06.2020
839 Clouds 28 1008 88 10000 2.1 140 22:18 23.06.2020
840 Clouds 30 1008 88 10000 2.1 140 21:42 23.06.2020
841 Clouds 29 1008 88 10000 2.79 196 21:20 23.06.2020
842 Clouds 29 1008 88 10000 2.79 196 20:56 23.06.2020
843 Clouds 28 1008 88 10000 1 160 20:37 23.06.2020
844 Clouds 28 1009 88 10000 2.1 150 20:19 23.06.2020
845 Clouds 29 1009 83 10000 3.56 176 19:49 23.06.2020
846 Clouds 31 1009 83 10000 4.34 171 19:28 23.06.2020
847 Clouds 29 1009 83 10000 2.1 190 18:42 23.06.2020
848 Clouds 29 1009 83 10000 2.1 190 18:42 23.06.2020
849 Clouds 29 1009 83 10000 2.1 190 18:19 23.06.2020
850 Clouds 29 1009 83 10000 2.1 190 17:59 23.06.2020
851 Clouds 29 1009 79 10000 3.1 190 17:39 23.06.2020
852 Clouds 29 1009 79 10000 3.1 190 17:21 23.06.2020
853 Clouds 30 1009 79 10000 2.6 190 16:56 23.06.2020
854 Clouds 29 1008 79 10000 2.1 190 16:37 23.06.2020
855 Clouds 29 1008 79 10000 2.1 190 16:18 23.06.2020
856 Clouds 29 1008 79 10000 2.1 190 16:18 23.06.2020
857 Clouds 31 1007 74 0 4.44 170 15:45 23.06.2020
858 Clouds 34 1008 51 0 4.36 177 15:25 23.06.2020
859 Clouds 34 1007 51 0 4.36 177 14:58 23.06.2020
860 Clouds 34 1007 51 0 4.36 177 14:40 23.06.2020
861 Clouds 32 1005 71 0 5.23 180 14:18 23.06.2020
862 Clouds 32 1005 71 0 4.88 181 14:18 23.06.2020
863 Clouds 32 1005 71 0 5.23 180 13:55 23.06.2020
864 Clouds 32 1005 71 0 5.23 180 13:55 23.06.2020
865 Clouds 34 1007 51 0 5.23 180 13:37 23.06.2020
866 Clouds 34 1006 51 0 5.4 180 13:19 23.06.2020
867 Clouds 34 1006 49 0 5.4 180 12:40 23.06.2020
868 Clouds 34 1006 49 0 5.1 181 12:22 23.06.2020
869 Clouds 34 1006 51 0 5.1 181 11:44 23.06.2020
870 Clouds 34 1006 52 0 4.87 176 11:23 23.06.2020
871 Clouds 34 1006 51 0 4.87 176 10:59 23.06.2020
872 Clouds 35 1006 51 0 4.87 176 10:41 23.06.2020
873 Clouds 35 1006 51 0 4.87 176 10:41 23.06.2020
874 Clouds 35 1007 51 0 4.82 173 10:22 23.06.2020
875 Clouds 35 1006 51 0 4.82 173 09:58 23.06.2020
876 Clouds 35 1007 52 0 4.82 173 09:39 23.06.2020
877 Clouds 35 1007 50 0 4.54 181 09:20 23.06.2020
878 Clouds 35 1007 50 0 4.79 177 09:20 23.06.2020
879 Clouds 35 1008 50 0 4.79 177 08:47 23.06.2020
880 Clouds 35 1008 48 0 4.5 182 08:26 23.06.2020
881 Clouds 35 1008 49 0 4.5 182 07:51 23.06.2020
882 Clouds 35 1008 49 0 3.56 194 07:25 23.06.2020
883 Clouds 34 1008 50 0 3.56 194 06:57 23.06.2020
884 Clouds 34 1008 50 0 3.56 194 06:38 23.06.2020
885 Clouds 33 1009 51 0 2.18 207 06:19 23.06.2020
886 Clouds 32 1009 53 0 1.54 221 05:28 23.06.2020
887 Clouds 29 1008 83 10000 2.1 90 03:23 23.06.2020
888 Clouds 28 1008 88 10000 2.6 120 02:52 23.06.2020
889 Clouds 28 1008 94 10000 1.5 60 02:33 23.06.2020
890 Clouds 28 1007 94 10000 3.1 70 01:46 23.06.2020
891 Clouds 28 1007 88 10000 2.1 90 01:24 23.06.2020
892 Clouds 27 1006 83 10000 0.87 258 00:46 23.06.2020
893 Clouds 27 1006 83 10000 1.4 212 00:21 23.06.2020
894 Clouds 27 1006 83 10000 1.4 212 23:55 22.06.2020
895 Clouds 27 1006 83 10000 1.4 212 23:55 22.06.2020
896 Clouds 27 1006 83 10000 1.5 150 23:36 22.06.2020
897 Clouds 27 1006 83 10000 1.5 150 23:18 22.06.2020
898 Clouds 27 1007 88 10000 2.6 160 22:54 22.06.2020
899 Clouds 27 1007 94 10000 2.1 110 22:36 22.06.2020
900 Clouds 27 1007 94 10000 2.1 110 22:18 22.06.2020
901 Clouds 27 1007 94 10000 2.6 140 21:41 22.06.2020
902 Clouds 27 1007 94 10000 2.6 140 21:22 22.06.2020
903 Clouds 27 1007 88 10000 2.1 110 20:59 22.06.2020
904 Clouds 28 1007 88 10000 2.6 100 20:41 22.06.2020
905 Clouds 28 1007 88 10000 2.6 100 20:21 22.06.2020
906 Clouds 28 1008 83 10000 2.6 110 19:44 22.06.2020
907 Clouds 28 1008 83 10000 2.6 110 19:20 22.06.2020
908 Clouds 30 1008 83 10000 2.1 130 18:57 22.06.2020
909 Clouds 30 1008 83 10000 2.1 130 18:38 22.06.2020
910 Clouds 30 1008 83 10000 2.1 130 18:19 22.06.2020
911 Clouds 30 1008 83 10000 3.1 120 17:55 22.06.2020
912 Clouds 30 1007 83 10000 2.6 130 17:37 22.06.2020
913 Clouds 30 1007 83 10000 3.1 110 17:19 22.06.2020
914 Clouds 30 1007 88 10000 3.1 140 16:43 22.06.2020
915 Rain 32 1006 76 0 4.76 172 16:19 22.06.2020
916 Rain 33 1006 76 0 4.76 172 15:58 22.06.2020
917 Rain 33 1006 75 0 4.76 172 15:39 22.06.2020
918 Rain 33 1006 75 0 4.76 172 15:39 22.06.2020
919 Rain 34 1007 48 0 4.26 175 15:21 22.06.2020
920 Rain 33 1004 73 0 0.45 109 14:40 22.06.2020
921 Rain 34 1005 47 0 4.28 159 14:21 22.06.2020
922 Rain 34 1005 48 0 4.75 164 13:58 22.06.2020
923 Rain 34 1005 46 0 4.75 164 13:38 22.06.2020
924 Rain 34 1005 46 0 4.82 158 13:20 22.06.2020
925 Rain 34 1005 50 0 4.82 158 12:44 22.06.2020
926 Rain 34 1005 50 0 4.82 158 12:44 22.06.2020
927 Rain 35 1004 47 0 4.63 163 12:23 22.06.2020
928 Rain 35 1004 46 0 4.63 163 11:58 22.06.2020
929 Rain 35 1004 47 0 4.63 163 11:37 22.06.2020
930 Clouds 35 1004 46 0 3.55 173 11:18 22.06.2020
931 Clouds 35 1004 46 0 3.55 173 10:55 22.06.2020
932 Clouds 36 1005 42 0 3.55 173 10:36 22.06.2020
933 Clouds 36 1005 42 0 2.44 195 10:18 22.06.2020
934 Clouds 34 1005 42 0 2.44 195 09:42 22.06.2020
935 Clouds 36 1005 42 0 2.08 231 09:22 22.06.2020
936 Clouds 36 1005 42 0 2.08 231 09:22 22.06.2020
937 Clouds 35 1005 44 0 2.08 231 08:59 22.06.2020
938 Clouds 36 1005 44 0 2.08 231 08:39 22.06.2020
939 Clouds 37 1006 44 0 2.33 251 08:20 22.06.2020
940 Clouds 35 1006 44 0 2.33 251 07:52 22.06.2020
941 Clouds 35 1007 45 0 2.33 251 07:33 22.06.2020
942 Clouds 35 1007 46 0 2.15 262 06:46 22.06.2020
943 Clouds 33 1005 62 0 2.07 272 06:27 22.06.2020
944 Clouds 33 1006 63 0 0.45 276 05:58 22.06.2020
945 Clouds 33 1006 65 0 0.45 221 05:30 22.06.2020
946 Clouds 29 1007 83 10000 2.1 160 02:56 22.06.2020
947 Thunderstorm 28 1006 88 10000 4.1 200 01:34 22.06.2020
948 Thunderstorm 27 1005 94 10000 3.1 240 00:41 22.06.2020
949 Thunderstorm 28 1005 88 9000 3.1 180 23:59 21.06.2020
950 Thunderstorm 28 1005 94 8000 3.1 140 23:40 21.06.2020
951 Thunderstorm 29 1005 94 8000 3.1 140 23:22 21.06.2020
952 Rain 29 1005 83 10000 2.6 140 22:57 21.06.2020
953 Rain 30 1005 79 10000 1.5 120 22:38 21.06.2020
954 Clouds 30 1006 79 10000 1.5 130 22:19 21.06.2020
955 Clouds 30 1006 79 10000 1.5 130 21:59 21.06.2020
956 Clouds 30 1005 79 10000 2.1 170 21:40 21.06.2020
957 Clouds 30 1005 79 10000 2.1 170 21:21 21.06.2020
958 Clouds 30 1005 74 10000 3.6 190 20:59 21.06.2020
959 Clouds 30 1005 74 10000 3.6 190 20:59 21.06.2020
960 Clouds 30 1006 79 10000 3.6 210 20:38 21.06.2020
961 Clouds 30 1007 79 10000 4.1 200 20:19 21.06.2020
962 Clouds 30 1007 79 10000 4.1 200 19:56 21.06.2020
963 Clouds 31 1007 74 10000 4.6 190 19:38 21.06.2020
964 Clouds 31 1007 74 10000 5.7 190 19:19 21.06.2020
965 Clouds 31 1007 74 10000 5.7 190 18:54 21.06.2020
966 Clouds 31 1007 74 10000 3.6 180 18:36 21.06.2020
967 Clouds 31 1006 74 10000 3.6 190 18:18 21.06.2020
968 Clouds 32 1006 74 10000 3.6 180 17:40 21.06.2020
969 Clouds 32 1006 74 10000 3.6 180 17:39 21.06.2020
970 Clouds 33 1006 74 10000 3.6 180 17:20 21.06.2020
971 Clouds 33 1005 74 10000 3.6 160 16:43 21.06.2020
972 Clouds 34 1004 70 0 5.1 192 16:24 21.06.2020
973 Clouds 33 1005 70 10000 2.6 190 15:59 21.06.2020
974 Clouds 33 1005 66 10000 3.1 180 15:37 21.06.2020
975 Clouds 34 1004 72 0 4.73 179 15:19 21.06.2020
976 Clouds 34 1003 72 0 4.73 179 14:39 21.06.2020
977 Clouds 34 1003 68 0 4.9 174 14:20 21.06.2020
978 Clouds 35 1003 66 0 0.45 110 13:59 21.06.2020
979 Clouds 35 1003 65 0 0.45 156 13:40 21.06.2020
980 Clouds 36 1004 46 0 4.29 181 13:21 21.06.2020
981 Clouds 36 1003 48 0 4.29 181 12:45 21.06.2020
982 Clouds 36 1003 47 0 3.31 198 12:26 21.06.2020
983 Clouds 36 1003 45 0 3.31 198 11:59 21.06.2020
984 Clouds 36 1003 46 0 3.31 198 11:41 21.06.2020
985 Clouds 36 1003 46 0 3.31 198 11:41 21.06.2020
986 Clouds 37 1003 46 0 2.75 231 11:23 21.06.2020
987 Clouds 37 1003 46 0 2.75 231 10:57 21.06.2020
988 Clouds 37 1003 45 0 2.75 231 10:38 21.06.2020
989 Clouds 37 1003 45 0 3.07 249 10:20 21.06.2020
990 Clouds 37 1004 45 0 3.07 249 09:43 21.06.2020
991 Clouds 37 1004 44 0 3.11 260 09:22 21.06.2020
992 Clouds 37 1004 44 0 3.11 260 08:57 21.06.2020
993 Clouds 36 1005 44 0 3.11 260 08:39 21.06.2020
994 Clouds 36 1005 45 0 3.24 266 08:19 21.06.2020
995 Clouds 36 1006 45 0 3.24 266 07:41 21.06.2020
996 Clouds 36 1006 45 0 3.24 266 07:41 21.06.2020
997 Clouds 36 1006 46 0 3.39 270 07:23 21.06.2020
998 Clouds 35 1007 46 0 3.39 270 06:50 21.06.2020
999 Clouds 34 1006 54 0 0.45 277 06:18 21.06.2020
1000 Clouds 35 1008 48 0 3.35 276 05:56 21.06.2020
1001 Clouds 33 1008 51 0 2.41 278 03:53 21.06.2020
1002 Clouds 30 1007 70 10000 2.6 290 03:18 21.06.2020
1003 Clouds 29 1007 89 10000 2.14 292 02:20 21.06.2020
1004 Clouds 30 1007 89 10000 2.14 292 01:34 21.06.2020
1005 Clouds 30 1006 89 10000 2.25 291 00:57 21.06.2020
1006 Clouds 29 1006 89 10000 2.25 291 00:38 21.06.2020
1007 Clouds 29 1006 89 10000 2.58 285 00:20 21.06.2020
1008 Clouds 29 1006 89 10000 1 130 23:45 20.06.2020
1009 Clouds 29 1006 89 10000 1 130 23:22 20.06.2020
1010 Clouds 30 1007 84 10000 1 150 22:56 20.06.2020
1011 Clouds 30 1007 79 10000 1.5 180 22:38 20.06.2020
1012 Clouds 30 1007 79 10000 2.6 190 22:19 20.06.2020
1013 Clouds 30 1007 79 10000 2.6 190 21:57 20.06.2020
1014 Clouds 30 1007 79 10000 4.1 210 21:38 20.06.2020
1015 Clouds 30 1007 79 10000 4.1 210 21:20 20.06.2020
1016 Clouds 30 1007 79 10000 3.6 200 20:57 20.06.2020
1017 Clouds 30 1007 79 10000 3.6 210 20:39 20.06.2020
1018 Clouds 30 1007 79 10000 3.6 210 20:20 20.06.2020
1019 Clouds 30 1008 74 10000 3.1 190 19:44 20.06.2020
1020 Clouds 30 1008 74 10000 3.1 190 19:25 20.06.2020
1021 Clouds 30 1008 74 10000 4.1 200 18:58 20.06.2020
1022 Clouds 30 1008 74 10000 3.6 200 18:40 20.06.2020
1023 Clouds 31 1007 69 0 4.41 190 18:19 20.06.2020
1024 Clouds 30 1008 74 10000 3.6 190 17:56 20.06.2020
1025 Clouds 30 1007 74 10000 3.1 190 17:37 20.06.2020
1026 Clouds 31 1007 66 10000 3.1 190 17:18 20.06.2020
1027 Clouds 32 1006 65 0 0.45 236 16:40 20.06.2020
1028 Clouds 32 1006 65 0 5.1 187 16:19 20.06.2020
1029 Clouds 32 1005 63 0 5.1 187 15:57 20.06.2020
1030 Clouds 32 1005 62 0 5.1 187 15:38 20.06.2020
1031 Clouds 32 1005 60 0 5.19 186 15:18 20.06.2020
1032 Clouds 32 1004 58 0 5.19 186 14:42 20.06.2020
1033 Clouds 33 1004 58 0 4.7 182 14:20 20.06.2020
1034 Clouds 33 1004 57 0 4.7 182 13:42 20.06.2020
1035 Clouds 33 1004 57 0 0.45 297 13:20 20.06.2020
1036 Clouds 34 1004 57 0 0.45 274 12:56 20.06.2020
1037 Clouds 34 1003 56 0 0.45 245 12:38 20.06.2020
1038 Clouds 35 1004 44 0 4.38 191 12:18 20.06.2020
1039 Clouds 35 1004 45 0 4.38 191 11:39 20.06.2020
1040 Clouds 36 1005 45 0 3.59 207 11:20 20.06.2020
1041 Clouds 36 1005 44 0 3.59 207 10:57 20.06.2020
1042 Clouds 36 1005 43 0 3.59 207 10:39 20.06.2020
1043 Clouds 36 1005 44 0 2.99 227 10:18 20.06.2020
1044 Clouds 35 1006 44 0 2.99 227 09:42 20.06.2020
1045 Clouds 36 1006 43 0 3.04 261 09:24 20.06.2020
1046 Clouds 36 1007 45 0 3.04 261 08:58 20.06.2020
1047 Clouds 35 1007 45 0 3.04 261 08:39 20.06.2020
1048 Clouds 35 1007 45 0 2.8 274 08:21 20.06.2020
1049 Clouds 35 1007 45 0 2.8 274 07:50 20.06.2020
1050 Clouds 35 1008 46 0 2.54 287 07:25 20.06.2020
1051 Clouds 34 1008 48 0 2.54 287 06:43 20.06.2020
1052 Clouds 33 1007 56 0 0.89 268 06:20 20.06.2020
1053 Clouds 32 1009 59 0 2.43 286 05:47 20.06.2020
1054 Clouds 29 1009 66 10000 3.1 250 03:25 20.06.2020
1055 Clouds 28 1008 69 10000 2.6 260 01:53 20.06.2020
1056 Clouds 27 1008 78 10000 2.1 240 01:35 20.06.2020
1057 Clouds 27 1007 88 10000 1.76 285 00:42 20.06.2020
1058 Clouds 27 1007 94 10000 1.92 292 00:19 20.06.2020
1059 Clouds 27 1007 94 10000 1.92 292 23:40 19.06.2020
1060 Clouds 27 1007 94 10000 2.06 299 23:19 19.06.2020
1061 Clouds 28 1007 94 10000 2.06 299 22:55 19.06.2020
1062 Clouds 28 1007 94 10000 2.06 299 22:37 19.06.2020
1063 Clouds 29 1007 94 10000 1.5 160 22:18 19.06.2020
1064 Clouds 29 1007 94 10000 1.5 160 21:54 19.06.2020
1065 Rain 28 1007 78 10000 2.1 210 21:36 19.06.2020
1066 Rain 28 1008 79 10000 2.6 230 21:18 19.06.2020
1067 Rain 29 1008 79 10000 2.6 230 20:55 19.06.2020
1068 Clouds 29 1008 83 10000 1.5 150 20:37 19.06.2020
1069 Clouds 30 1008 83 10000 0.5 170 20:18 19.06.2020
1070 Rain 30 1006 77 0 2.37 286 19:42 19.06.2020
1071 Rain 30 1006 77 0 2.37 286 19:42 19.06.2020
1072 Clouds 30 1007 77 0 1.51 270 19:23 19.06.2020
1073 Clouds 30 1007 76 0 1.51 270 18:59 19.06.2020
1074 Clouds 30 1007 76 0 1.51 270 18:39 19.06.2020
1075 Rain 31 1007 75 0 2.05 244 18:20 19.06.2020
1076 Rain 31 1007 74 0 2.05 244 17:42 19.06.2020
1077 Clouds 31 1007 73 0 2.46 237 17:23 19.06.2020
1078 Clouds 31 1007 73 0 2.46 237 16:57 19.06.2020
1079 Clouds 31 1007 74 0 2.46 237 16:39 19.06.2020
1080 Clouds 31 1007 73 0 2.76 231 16:21 19.06.2020
1081 Clouds 31 1006 72 0 2.76 231 15:45 19.06.2020
1082 Clouds 31 1006 71 0 2.89 239 15:25 19.06.2020
1083 Clouds 31 1005 70 0 2.89 239 14:58 19.06.2020
1084 Clouds 31 1005 69 0 2.89 239 14:39 19.06.2020
1085 Clouds 31 1005 68 0 2.79 260 14:21 19.06.2020
1086 Clouds 31 1005 68 0 2.79 260 13:58 19.06.2020
1087 Clouds 31 1005 67 0 2.79 260 13:39 19.06.2020
1088 Clouds 32 1005 67 0 3.95 268 13:21 19.06.2020
1089 Clouds 32 1005 65 0 3.95 268 12:44 19.06.2020
1090 Clouds 32 1004 64 0 0.45 178 12:20 19.06.2020
1091 Clouds 32 1005 64 0 0.89 222 11:41 19.06.2020
1092 Clouds 32 1005 64 0 5.02 256 11:19 19.06.2020
1093 Clouds 32 1005 65 0 0.89 263 10:59 19.06.2020
1094 Clouds 32 1005 64 0 0.45 262 10:41 19.06.2020
1095 Clouds 32 1005 62 0 0.89 132 10:21 19.06.2020
1096 Clouds 33 1006 59 0 4.15 252 09:45 19.06.2020
1097 Clouds 33 1008 59 10000 5.7 240 09:25 19.06.2020
1098 Clouds 33 1008 59 10000 4.6 240 08:59 19.06.2020
1099 Clouds 33 1006 60 0 0.89 238 08:39 19.06.2020
1100 Clouds 32 1009 59 10000 5.1 240 08:20 19.06.2020
1101 Clouds 32 1007 63 0 0.89 183 07:41 19.06.2020
1102 Clouds 32 1008 62 0 0.89 291 07:21 19.06.2020
1103 Clouds 32 1008 67 0 0.45 241 06:47 19.06.2020
1104 Clouds 31 1008 69 0 3 265 06:21 19.06.2020
1105 Clouds 31 1008 75 0 0.45 245 05:28 19.06.2020
1106 Clouds 28 1009 100 10000 2.6 110 03:37 19.06.2020
1107 Rain 28 1008 100 10000 1.5 90 02:19 19.06.2020
1108 Rain 28 1008 94 10000 3.1 110 00:44 19.06.2020
1109 Rain 28 1008 94 10000 3.1 110 00:44 19.06.2020
1110 Rain 28 1008 94 10000 3.1 110 00:22 19.06.2020
1111 Rain 28 1008 100 10000 2.1 100 23:57 18.06.2020
1112 Rain 28 1008 100 10000 1.5 110 23:38 18.06.2020
1113 Rain 28 1008 100 10000 1.5 110 23:20 18.06.2020
1114 Rain 28 1008 94 10000 2.52 217 22:40 18.06.2020
1115 Rain 29 1008 94 10000 2.71 219 22:20 18.06.2020
1116 Rain 29 1008 94 10000 2.71 219 22:20 18.06.2020
1117 Rain 29 1008 94 10000 1.5 110 21:56 18.06.2020
1118 Rain 26 1008 100 10000 2.71 219 21:37 18.06.2020
1119 Rain 27 1009 94 10000 1 120 21:18 18.06.2020
1120 Rain 26 1009 100 10000 1 0 20:40 18.06.2020
1121 Rain 29 1009 100 10000 1 0 20:20 18.06.2020
1122 Rain 29 1009 100 9000 2.1 110 19:57 18.06.2020
1123 Rain 29 1009 100 5000 6.2 260 19:38 18.06.2020
1124 Rain 29 1009 94 7000 6.2 250 19:19 18.06.2020
1125 Rain 30 1008 79 0 2.34 243 18:39 18.06.2020
1126 Clouds 30 1008 79 0 2.08 258 18:21 18.06.2020
1127 Clouds 30 1008 75 0 0.45 235 17:54 18.06.2020
1128 Clouds 29 1009 79 10000 2.1 180 17:36 18.06.2020
1129 Rain 30 1007 74 0 1.84 274 17:18 18.06.2020
1130 Rain 31 1007 73 0 1.84 274 16:41 18.06.2020
1131 Rain 31 1007 73 0 1.9 284 16:23 18.06.2020
1132 Rain 31 1007 72 0 1.9 284 15:58 18.06.2020
1133 Rain 31 1006 72 0 1.9 284 15:39 18.06.2020
1134 Clouds 30 1006 71 0 2.11 285 15:20 18.06.2020
1135 Clouds 30 1006 70 0 2.11 285 14:56 18.06.2020
1136 Clouds 30 1006 66 10000 1.5 300 14:37 18.06.2020
1137 Clouds 31 1005 69 0 2.62 268 14:19 18.06.2020
1138 Clouds 31 1005 68 0 2.62 268 13:47 18.06.2020
1139 Clouds 31 1005 67 0 3.06 276 13:28 18.06.2020
1140 Clouds 31 1005 65 0 3.06 276 12:57 18.06.2020
1141 Clouds 31 1005 65 0 3.06 276 12:57 18.06.2020
1142 Clouds 32 1005 62 0 3.06 276 12:39 18.06.2020
1143 Clouds 32 1005 62 0 2.83 270 12:19 18.06.2020
1144 Clouds 32 1005 61 0 0.45 289 11:48 18.06.2020
1145 Clouds 32 1006 62 10000 2.6 330 11:21 18.06.2020
1146 Clouds 32 1007 62 10000 3.6 300 10:59 18.06.2020
1147 Clouds 32 1007 62 10000 4.1 320 10:39 18.06.2020
1148 Clouds 32 1007 62 10000 3.6 300 10:18 18.06.2020
1149 Clouds 32 1008 59 10000 3.6 320 09:44 18.06.2020
1150 Clouds 32 1008 59 10000 3.6 320 09:26 18.06.2020
1151 Clouds 31 1008 59 10000 3.6 310 08:54 18.06.2020
1152 Rain 31 1009 62 10000 3.1 260 08:36 18.06.2020
1153 Rain 31 1009 70 10000 4.1 260 08:18 18.06.2020
1154 Clouds 31 1009 62 10000 3.6 290 07:43 18.06.2020
1155 Clouds 30 1008 67 0 0.45 187 07:23 18.06.2020
1156 Clouds 30 1008 72 0 1.86 285 06:34 18.06.2020
1157 Clouds 28 1010 83 9000 1.92 280 04:27 18.06.2020
1158 Clouds 26 1010 94 8000 1.92 280 03:30 18.06.2020
1159 Clouds 25 1009 100 8000 1.14 278 01:42 18.06.2020
1160 Clouds 25 1009 100 8000 1.29 281 01:18 18.06.2020
1161 Clouds 25 1009 100 8000 1.29 281 00:49 18.06.2020
1162 Clouds 25 1009 100 8000 1.56 304 00:25 18.06.2020
1163 Clouds 25 1009 100 8000 1.56 304 23:49 17.06.2020
1164 Clouds 25 1009 100 8000 1.66 316 23:23 17.06.2020
1165 Clouds 25 1009 100 8000 1.66 316 22:59 17.06.2020
1166 Clouds 25 1009 100 10000 1.66 316 22:40 17.06.2020
1167 Clouds 25 1009 100 10000 1.56 313 22:21 17.06.2020
1168 Clouds 25 1009 100 10000 1.56 313 21:59 17.06.2020
1169 Clouds 27 1009 100 10000 1.56 313 21:39 17.06.2020
1170 Clouds 27 1009 100 10000 1.48 309 21:20 17.06.2020
1171 Clouds 27 1010 94 10000 1.98 293 20:55 17.06.2020
1172 Clouds 27 1010 100 10000 1.98 293 20:37 17.06.2020
1173 Clouds 27 1010 94 10000 1.84 292 20:18 17.06.2020
1174 Clouds 27 1010 94 10000 1 160 19:42 17.06.2020
1175 Clouds 27 1010 94 10000 1.5 180 19:19 17.06.2020
1176 Clouds 29 1009 88 0 2.64 301 18:48 17.06.2020
1177 Clouds 29 1010 94 10000 1.5 160 18:28 17.06.2020
1178 Rain 27 1010 94 10000 3.56 291 17:47 17.06.2020
1179 Rain 27 1010 94 10000 2.86 282 17:23 17.06.2020
1180 Rain 27 1010 94 10000 2.86 282 16:59 17.06.2020
1181 Rain 27 1010 94 10000 1.5 80 16:41 17.06.2020
1182 Rain 27 1010 94 10000 1.5 80 16:21 17.06.2020
1183 Rain 27 1009 94 8000 1 80 15:59 17.06.2020
1184 Rain 29 1009 100 8000 2.6 90 15:39 17.06.2020
1185 Rain 29 1009 100 8000 2.6 90 15:21 17.06.2020
1186 Rain 29 1009 100 8000 2.6 90 15:21 17.06.2020
1187 Clouds 29 1007 87 0 2.21 247 14:58 17.06.2020
1188 Clouds 29 1007 87 0 2.21 247 14:40 17.06.2020
1189 Rain 26 1009 94 8000 3.09 243 14:19 17.06.2020
1190 Rain 26 1009 94 8000 2.1 242 13:57 17.06.2020
1191 Rain 27 1009 94 6000 2.1 242 13:39 17.06.2020
1192 Rain 27 1009 94 6000 3.34 254 13:21 17.06.2020
1193 Rain 27 1008 94 6000 3.34 254 12:43 17.06.2020
1194 Rain 27 1008 94 6000 4.4 266 12:23 17.06.2020
1195 Rain 27 1008 100 6000 1.5 240 11:58 17.06.2020
1196 Rain 27 1008 100 6000 3.6 300 11:40 17.06.2020
1197 Rain 30 1006 81 0 4.58 264 11:21 17.06.2020
1198 Rain 30 1006 80 0 0.89 249 10:39 17.06.2020
1199 Rain 30 1007 74 0 1.79 269 10:19 17.06.2020
1200 Rain 30 1007 74 0 1.79 269 10:19 17.06.2020
1201 Rain 30 1007 74 0 1.79 269 10:19 17.06.2020
1202 Rain 31 1005 66 0 0.89 237 09:58 17.06.2020
1203 Rain 30 1008 94 8000 4.6 120 09:40 17.06.2020
1204 Rain 29 1008 94 8000 4.6 120 09:21 17.06.2020
1205 Rain 29 1009 88 9000 5.1 140 08:46 17.06.2020
1206 Rain 29 1009 88 9000 5.1 140 08:21 17.06.2020
1207 Clouds 29 1009 83 9000 5.7 140 07:57 17.06.2020
1208 Clouds 29 1009 83 9000 5.1 120 07:39 17.06.2020
1209 Clouds 29 1009 83 9000 5.1 120 07:21 17.06.2020
1210 Clouds 29 1010 89 9000 4.1 120 06:55 17.06.2020
1211 Rain 29 1010 89 9000 2.6 120 06:37 17.06.2020
1212 Clouds 29 1010 84 9000 2.6 130 06:19 17.06.2020
1213 Clouds 29 1010 88 9000 2.1 120 04:56 17.06.2020
1214 Clouds 26 1009 100 8000 2.6 110 02:55 17.06.2020
1215 Clouds 26 1009 100 8000 2.6 110 01:29 17.06.2020
1216 Clouds 26 1008 100 10000 1 100 00:38 17.06.2020
1217 Clouds 26 1008 100 10000 1 100 00:20 17.06.2020
1218 Clouds 26 1008 94 10000 2.86 241 23:56 16.06.2020
1219 Clouds 26 1007 100 10000 2.86 241 23:37 16.06.2020
1220 Clouds 26 1007 94 10000 1.5 130 23:19 16.06.2020
1221 Clouds 26 1007 94 10000 1.5 130 22:54 16.06.2020
1222 Clouds 26 1008 94 10000 1.5 140 22:36 16.06.2020
1223 Clouds 27 1008 94 10000 1 130 22:18 16.06.2020
1224 Rain 27 1008 94 10000 1 160 21:44 16.06.2020
1225 Rain 28 1008 94 10000 1 160 21:23 16.06.2020
1226 Rain 28 1009 94 10000 4.43 254 20:57 16.06.2020
1227 Rain 28 1010 100 10000 1.5 190 20:39 16.06.2020
1228 Rain 30 1007 86 0 4.45 246 20:18 16.06.2020
1229 Rain 30 1008 85 0 4.45 246 19:56 16.06.2020
1230 Rain 30 1008 84 0 4.45 246 19:38 16.06.2020
1231 Rain 30 1008 84 0 4.9 250 19:18 16.06.2020
1232 Rain 30 1009 83 0 4.9 250 18:45 16.06.2020
1233 Rain 30 1009 83 0 4.9 250 18:45 16.06.2020
1234 Rain 30 1009 83 0 4.61 247 18:21 16.06.2020
1235 Rain 30 1009 83 0 4.61 247 17:58 16.06.2020
1236 Rain 30 1009 83 0 4.61 247 17:39 16.06.2020
1237 Rain 30 1009 82 0 4.12 234 17:21 16.06.2020
1238 Rain 30 1009 82 0 4.12 234 16:58 16.06.2020
1239 Rain 30 1009 81 0 4.12 234 16:39 16.06.2020
1240 Rain 30 1008 81 0 4.64 208 16:19 16.06.2020
1241 Rain 31 1008 80 0 0.89 158 15:57 16.06.2020
1242 Rain 31 1008 80 0 0.45 144 15:39 16.06.2020
1243 Rain 31 1007 81 0 4.91 198 15:21 16.06.2020
1244 Rain 31 1007 81 0 4.91 198 14:55 16.06.2020
1245 Rain 30 1007 80 0 0.45 257 14:36 16.06.2020
1246 Rain 31 1007 80 0 4.16 222 14:18 16.06.2020
1247 Rain 30 1007 78 0 0.89 262 13:44 16.06.2020
1248 Clouds 31 1007 77 0 1.79 284 13:24 16.06.2020
1249 Clouds 31 1007 77 0 1.79 284 13:24 16.06.2020
1250 Clouds 31 1005 69 0 0.89 135 12:42 16.06.2020
1251 Rain 32 1006 67 0 5.64 205 12:22 16.06.2020
1252 Rain 32 1005 66 0 0.89 240 11:57 16.06.2020
1253 Rain 34 1006 44 0 5.64 205 11:39 16.06.2020
1254 Rain 34 1007 45 0 5.55 213 11:21 16.06.2020
1255 Rain 34 1007 44 0 5.55 213 10:57 16.06.2020
1256 Rain 34 1007 43 0 5.55 213 10:38 16.06.2020
1257 Clouds 34 1007 43 0 4.16 223 10:18 16.06.2020
1258 Clouds 34 1007 43 0 4.16 223 09:43 16.06.2020
1259 Clouds 34 1007 43 0 4.54 221 09:22 16.06.2020
1260 Clouds 32 1006 60 0 0.45 150 08:51 16.06.2020
1261 Clouds 32 1007 59 0 0.89 296 08:32 16.06.2020
1262 Clouds 33 1007 59 0 0.45 153 07:51 16.06.2020
1263 Clouds 32 1007 58 0 0.89 251 07:29 16.06.2020
1264 Clouds 32 1008 58 0 0.89 296 06:56 16.06.2020
1265 Clouds 32 1008 59 0 0.89 187 06:33 16.06.2020
1266 Clouds 31 1010 79 10000 3.1 160 05:50 16.06.2020
1267 Clouds 29 1010 83 10000 1 0 04:54 16.06.2020
1268 Clouds 29 1010 83 10000 1 0 03:53 16.06.2020
1269 Clouds 29 1009 83 10000 0.5 0 02:28 16.06.2020
1270 Clouds 29 1008 83 10000 1.5 250 01:32 16.06.2020
1271 Clouds 27 1008 88 10000 2.1 220 00:52 16.06.2020
1272 Clouds 27 1008 88 10000 1.5 230 00:22 16.06.2020
1273 Rain 27 1008 88 10000 2.1 230 23:43 15.06.2020
1274 Rain 27 1008 88 10000 2.1 230 23:24 15.06.2020
1275 Rain 27 1008 94 10000 4.21 182 22:59 15.06.2020
1276 Clouds 27 1008 88 10000 4.21 182 22:41 15.06.2020
1277 Clouds 28 1008 88 10000 4.28 181 22:21 15.06.2020
1278 Clouds 28 1008 88 10000 2.1 120 21:57 15.06.2020
1279 Rain 28 1008 88 10000 2.6 170 21:38 15.06.2020
1280 Rain 28 1009 88 10000 3.1 140 21:19 15.06.2020
1281 Rain 28 1009 88 10000 3.1 140 20:57 15.06.2020
1282 Clouds 28 1009 88 10000 2.6 110 20:38 15.06.2020
1283 Clouds 28 1009 88 10000 3.1 130 20:19 15.06.2020
1284 Clouds 28 1009 88 10000 3.1 130 19:56 15.06.2020
1285 Clouds 29 1009 88 10000 2.6 120 19:38 15.06.2020
1286 Clouds 29 1009 79 10000 2.6 110 19:19 15.06.2020
1287 Clouds 29 1009 79 10000 2.6 110 18:56 15.06.2020
1288 Clouds 29 1009 79 10000 2.1 100 18:37 15.06.2020
1289 Clouds 29 1009 79 10000 2.1 110 18:19 15.06.2020
1290 Clouds 29 1009 79 10000 2.6 160 17:42 15.06.2020
1291 Clouds 29 1009 79 10000 2.6 160 17:21 15.06.2020
1292 Clouds 29 1009 79 10000 2.6 160 17:21 15.06.2020
1293 Clouds 29 1009 79 10000 2.6 160 16:59 15.06.2020
1294 Clouds 29 1009 79 10000 3.1 180 16:40 15.06.2020
1295 Clouds 29 1008 83 10000 2.6 190 16:19 15.06.2020
1296 Clouds 29 1008 83 10000 2.6 190 15:56 15.06.2020
1297 Clouds 29 1008 83 10000 2.6 180 15:37 15.06.2020
1298 Clouds 29 1007 79 10000 4.1 180 15:18 15.06.2020
1299 Clouds 29 1007 79 10000 4.1 180 15:18 15.06.2020
1300 Clouds 30 1007 79 10000 4.1 160 14:42 15.06.2020
1301 Clouds 30 1007 70 10000 5.1 200 14:21 15.06.2020
1302 Clouds 31 1007 70 10000 5.1 200 13:59 15.06.2020
1303 Clouds 31 1007 70 10000 5.1 200 13:39 15.06.2020
1304 Clouds 31 1007 70 10000 5.1 200 13:20 15.06.2020
1305 Clouds 30 1006 66 10000 5.1 210 12:55 15.06.2020
1306 Clouds 30 1006 66 10000 5.1 180 12:36 15.06.2020
1307 Clouds 31 1006 66 10000 4.6 200 12:18 15.06.2020
1308 Clouds 31 1006 66 10000 3.6 180 11:42 15.06.2020
1309 Clouds 31 1006 66 10000 3.6 180 11:24 15.06.2020
1310 Clouds 30 1006 70 10000 3.1 170 10:44 15.06.2020
1311 Clouds 30 1006 70 10000 3.1 170 10:22 15.06.2020
1312 Clouds 31 1007 70 10000 3.6 200 09:47 15.06.2020
1313 Clouds 31 1007 70 10000 3.6 200 09:25 15.06.2020
1314 Clouds 30 1008 70 10000 4.1 190 08:57 15.06.2020
1315 Clouds 30 1008 70 10000 4.1 210 08:39 15.06.2020
1316 Clouds 30 1008 70 10000 4.1 210 08:39 15.06.2020
1317 Clouds 30 1008 70 10000 4.1 210 08:20 15.06.2020
1318 Clouds 30 1009 74 10000 2.6 180 07:45 15.06.2020
1319 Clouds 30 1009 74 10000 2.6 180 07:22 15.06.2020
1320 Clouds 30 1009 79 10000 2.1 150 06:38 15.06.2020
1321 Clouds 29 1009 83 10000 2.6 130 06:19 15.06.2020
1322 Clouds 29 1009 88 10000 2.6 140 05:39 15.06.2020
1323 Clouds 29 1009 88 10000 2.6 140 05:20 15.06.2020
1324 Rain 27 1009 100 9000 2.1 120 04:18 15.06.2020
1325 Rain 26 1009 94 8000 2.1 110 03:37 15.06.2020
1326 Rain 27 1009 94 8000 1.5 150 02:34 15.06.2020
1327 Rain 27 1008 100 8000 1.5 120 01:53 15.06.2020
1328 Rain 27 1008 94 8000 3.6 100 01:31 15.06.2020
1329 Rain 26 1008 100 8000 1.5 100 00:58 15.06.2020
1330 Rain 26 1008 94 8000 2.6 100 00:39 15.06.2020
1331 Rain 26 1008 94 8000 1 100 00:19 15.06.2020
1332 Rain 26 1007 94 8000 1 120 23:46 14.06.2020
1333 Rain 26 1007 94 8000 1 120 23:24 14.06.2020
1334 Rain 27 1007 94 8000 1.5 220 22:58 14.06.2020
1335 Rain 27 1007 94 8000 3.1 240 22:38 14.06.2020
1336 Rain 27 1007 94 9000 3.1 220 22:19 14.06.2020
1337 Rain 27 1007 94 9000 3.1 220 21:57 14.06.2020
1338 Rain 27 1007 94 8000 4.1 230 21:38 14.06.2020
1339 Rain 27 1007 100 6000 4.1 210 21:19 14.06.2020
1340 Rain 27 1007 100 6000 4.1 210 20:58 14.06.2020
1341 Thunderstorm 27 1007 100 7000 3.6 180 20:38 14.06.2020
1342 Thunderstorm 27 1008 94 7000 4.1 180 20:19 14.06.2020
1343 Thunderstorm 27 1008 94 7000 4.1 180 19:57 14.06.2020
1344 Rain 27 1008 83 8000 5.1 130 19:37 14.06.2020
1345 Rain 27 1008 83 8000 5.1 130 19:37 14.06.2020
1346 Clouds 29 1008 74 10000 3.6 210 19:19 14.06.2020
1347 Clouds 29 1008 74 10000 3.6 210 18:56 14.06.2020
1348 Clouds 30 1008 74 10000 5.7 220 18:37 14.06.2020
1349 Clouds 30 1007 79 10000 3.6 210 18:19 14.06.2020
1350 Clouds 30 1007 79 10000 3.6 210 17:55 14.06.2020
1351 Clouds 30 1008 79 10000 4.1 210 17:37 14.06.2020
1352 Clouds 30 1007 79 10000 5.1 220 17:19 14.06.2020
1353 Clouds 30 1007 74 10000 5.1 210 16:40 14.06.2020
1354 Rain 33 1006 68 0 1.34 300 16:20 14.06.2020
1355 Clouds 32 1006 74 10000 5.1 190 15:58 14.06.2020
1356 Clouds 32 1006 74 10000 5.1 190 15:58 14.06.2020
1357 Clouds 33 1005 70 10000 4.6 160 15:40 14.06.2020
1358 Rain 34 1005 65 0 0.89 286 15:18 14.06.2020
1359 Rain 34 1006 48 0 4.79 196 14:57 14.06.2020
1360 Rain 35 1006 52 0 4.79 196 14:38 14.06.2020
1361 Rain 35 1003 61 0 0.45 127 14:18 14.06.2020
1362 Clouds 34 1003 59 10000 2.1 230 13:42 14.06.2020
1363 Clouds 36 1004 45 0 5.04 200 13:22 14.06.2020
1364 Clouds 36 1003 45 0 5.04 200 12:59 14.06.2020
1365 Clouds 36 1003 45 0 5.04 200 12:41 14.06.2020
1366 Clouds 36 1003 45 0 5.04 200 12:41 14.06.2020
1367 Rain 37 1003 44 0 4.72 204 12:23 14.06.2020
1368 Rain 37 1003 44 0 4.72 204 11:59 14.06.2020
1369 Rain 37 1003 44 0 4.72 204 11:40 14.06.2020
1370 Clouds 37 1003 44 0 3.66 216 11:22 14.06.2020
1371 Clouds 37 1002 43 0 3.66 216 10:57 14.06.2020
1372 Clouds 37 1003 43 0 3.66 216 10:38 14.06.2020
1373 Clouds 37 1003 43 0 3.55 236 10:18 14.06.2020
1374 Clouds 37 1004 50 0 3.55 236 09:42 14.06.2020
1375 Clouds 37 1004 43 0 3.66 248 09:23 14.06.2020
1376 Clouds 37 1005 53 0 3.66 248 08:42 14.06.2020
1377 Clouds 37 1005 44 0 4.11 256 08:22 14.06.2020
1378 Clouds 37 1006 50 0 4.11 256 07:52 14.06.2020
1379 Clouds 37 1006 49 0 4.11 256 07:34 14.06.2020
1380 Clouds 37 1006 45 0 4.07 261 06:54 14.06.2020
1381 Clouds 35 1007 51 0 4.18 263 05:54 14.06.2020
1382 Clouds 34 1005 55 0 1.34 292 05:29 14.06.2020
1383 Clouds 34 1006 57 0 0.45 274 04:38 14.06.2020
1384 Clouds 33 1007 48 0 4.2 265 03:54 14.06.2020
1385 Clouds 30 1006 70 10000 5.1 220 02:35 14.06.2020
1386 Clouds 31 1005 70 10000 4.1 230 01:55 14.06.2020
1387 Clouds 30 1005 74 10000 3.6 210 01:26 14.06.2020
1388 Clouds 29 1004 74 10000 2.6 260 00:47 14.06.2020
1389 Clouds 30 1004 70 10000 3.1 250 00:20 14.06.2020
1390 Clouds 30 1004 70 10000 3.6 230 23:46 13.06.2020
1391 Clouds 30 1004 70 10000 3.6 230 23:26 13.06.2020
1392 Clouds 30 1004 70 10000 2.6 270 22:58 13.06.2020
1393 Clouds 31 1004 66 10000 4.1 270 22:38 13.06.2020
1394 Clouds 31 1004 66 10000 3.1 250 22:18 13.06.2020
1395 Clouds 31 1004 66 10000 3.1 250 21:57 13.06.2020
1396 Clouds 31 1004 66 10000 4.1 240 21:38 13.06.2020
1397 Clouds 31 1005 79 10000 4.6 210 21:20 13.06.2020
1398 Clouds 31 1005 74 10000 4.6 210 20:43 13.06.2020
1399 Clouds 31 1005 74 10000 4.6 210 20:20 13.06.2020
1400 Clouds 31 1005 74 10000 4.6 210 19:58 13.06.2020
1401 Clouds 31 1005 74 10000 4.6 210 19:36 13.06.2020
1402 Clouds 31 1006 74 10000 4.6 210 19:18 13.06.2020
1403 Clouds 31 1006 74 10000 4.6 210 18:55 13.06.2020
1404 Clouds 31 1006 74 10000 5.7 210 18:37 13.06.2020
1405 Clouds 31 1006 74 10000 4.1 200 18:18 13.06.2020
1406 Clouds 31 1005 74 10000 3.6 190 17:42 13.06.2020
1407 Clouds 31 1005 74 10000 3.6 190 17:23 13.06.2020
1408 Clouds 33 1005 70 10000 4.1 190 16:58 13.06.2020
1409 Clouds 33 1004 74 10000 4.1 180 16:40 13.06.2020
1410 Clouds 33 1004 74 10000 4.6 190 16:19 13.06.2020
1411 Clouds 33 1004 74 10000 4.6 190 15:58 13.06.2020
1412 Clouds 35 1004 46 0 4.97 204 15:39 13.06.2020
1413 Clouds 35 1003 64 0 0.45 237 15:20 13.06.2020
1414 Clouds 36 1003 47 0 5.26 202 14:43 13.06.2020
1415 Clouds 34 1002 66 10000 4.1 200 14:21 13.06.2020
1416 Clouds 35 1002 50 10000 3.1 270 13:45 13.06.2020
1417 Clouds 36 1001 60 0 0.89 211 13:26 13.06.2020
1418 Clouds 35 1001 50 10000 3.1 280 12:57 13.06.2020
1419 Clouds 35 1000 58 0 0.45 34 12:37 13.06.2020
1420 Clouds 37 1001 43 0 4.95 193 12:19 13.06.2020
1421 Clouds 37 1001 43 0 4.95 193 12:19 13.06.2020
1422 Clouds 37 1001 43 0 4.95 193 11:40 13.06.2020
1423 Clouds 37 1001 42 0 4.27 201 11:19 13.06.2020
1424 Clouds 37 1002 43 0 4.27 201 10:58 13.06.2020
1425 Clouds 37 1002 43 0 4.27 201 10:40 13.06.2020
1426 Clouds 37 1002 43 0 3.83 226 10:22 13.06.2020
1427 Clouds 37 1002 44 0 3.83 226 09:52 13.06.2020
1428 Clouds 37 1002 44 0 3.04 258 09:32 13.06.2020
1429 Clouds 37 1003 44 0 3.47 266 08:56 13.06.2020
1430 Clouds 37 1003 44 0 3.47 266 08:37 13.06.2020
1431 Clouds 37 1004 44 0 3.69 273 08:19 13.06.2020
1432 Clouds 36 1005 44 0 3.69 273 07:42 13.06.2020
1433 Clouds 36 1005 44 0 4.13 278 07:24 13.06.2020
1434 Clouds 35 1005 45 0 4.13 278 06:44 13.06.2020
1435 Clouds 35 1004 53 0 0.45 258 06:25 13.06.2020
1436 Clouds 34 1005 54 0 1.34 298 05:28 13.06.2020
1437 Clouds 33 1005 58 0 0.89 270 04:35 13.06.2020
1438 Clouds 30 1006 66 10000 5.1 270 03:33 13.06.2020
1439 Clouds 30 1005 70 10000 4.1 260 02:38 13.06.2020
1440 Clouds 30 1004 74 10000 4.1 250 01:48 13.06.2020
1441 Clouds 29 1004 74 10000 4.1 250 01:22 13.06.2020
1442 Clouds 28 1004 74 10000 4.1 250 00:48 13.06.2020
1443 Clouds 29 1004 74 10000 4.1 250 00:27 13.06.2020
1444 Clouds 29 1004 74 10000 4.1 260 23:57 12.06.2020
1445 Clouds 29 1004 74 10000 4.6 250 23:38 12.06.2020
1446 Clouds 29 1004 74 10000 3.6 250 23:18 12.06.2020
1447 Clouds 29 1004 70 10000 3.6 260 22:41 12.06.2020
1448 Clouds 29 1004 70 10000 4.1 250 22:19 12.06.2020
1449 Clouds 29 1004 70 10000 4.1 250 21:54 12.06.2020
1450 Clouds 29 1005 70 10000 4.1 250 21:36 12.06.2020
1451 Clouds 30 1005 66 10000 4.1 240 21:18 12.06.2020
1452 Clouds 30 1005 66 10000 4.1 240 20:55 12.06.2020
1453 Clouds 30 1005 66 10000 4.1 250 20:36 12.06.2020
1454 Clouds 30 1005 70 10000 4.1 250 20:18 12.06.2020
1455 Clouds 30 1005 70 10000 4.6 240 19:39 12.06.2020
1456 Clouds 30 1005 74 10000 5.1 240 19:19 12.06.2020
1457 Clouds 31 1005 70 10000 4.6 230 18:39 12.06.2020
1458 Clouds 30 1005 74 10000 3.6 210 18:19 12.06.2020
1459 Clouds 30 1005 74 10000 3.6 210 17:58 12.06.2020
1460 Clouds 31 1005 74 10000 4.6 210 17:39 12.06.2020
1461 Clouds 31 1005 74 10000 5.1 210 17:19 12.06.2020
1462 Clouds 31 1005 70 10000 4.6 220 16:44 12.06.2020
1463 Clouds 31 1004 74 10000 4.1 210 16:20 12.06.2020
1464 Clouds 32 1004 74 10000 5.1 210 15:49 12.06.2020
1465 Clouds 33 1004 74 10000 5.1 210 15:26 12.06.2020
1466 Clouds 33 1004 70 10000 5.1 210 14:58 12.06.2020
1467 Clouds 35 1003 62 0 0.45 315 14:39 12.06.2020
1468 Clouds 34 1003 66 10000 5.7 210 14:21 12.06.2020
1469 Clouds 34 1003 52 10000 4.6 250 13:42 12.06.2020
1470 Clouds 35 1003 52 10000 4.6 250 13:21 12.06.2020
1471 Clouds 35 1002 56 10000 4.1 290 12:41 12.06.2020
1472 Clouds 37 1003 41 0 4.87 198 12:20 12.06.2020
1473 Clouds 36 1002 53 10000 4.6 260 11:58 12.06.2020
1474 Clouds 35 1002 53 10000 4.6 280 11:40 12.06.2020
1475 Clouds 35 1002 53 10000 4.6 280 11:21 12.06.2020
1476 Clouds 35 1003 53 10000 4.6 300 10:46 12.06.2020
1477 Clouds 35 1003 53 10000 4.6 300 10:24 12.06.2020
1478 Clouds 36 1004 56 10000 4.6 260 09:47 12.06.2020
1479 Clouds 35 1004 56 10000 4.6 260 09:21 12.06.2020
1480 Clouds 36 1005 56 10000 4.6 290 08:45 12.06.2020
1481 Clouds 35 1005 56 10000 4.6 290 08:25 12.06.2020
1482 Clouds 35 1006 59 10000 5.1 250 07:44 12.06.2020
1483 Clouds 35 1006 59 10000 5.1 250 07:26 12.06.2020
1484 Clouds 35 1006 56 10000 5.1 280 06:56 12.06.2020
1485 Clouds 33 1006 59 10000 6.2 260 06:30 12.06.2020
1486 Clouds 33 1007 59 10000 5.7 270 05:55 12.06.2020
1487 Clouds 33 1007 59 10000 7.2 260 05:37 12.06.2020
1488 Clouds 32 1007 59 10000 6.7 260 05:19 12.06.2020
1489 Clouds 30 1007 66 10000 5.1 280 03:24 12.06.2020
1490 Clouds 28 1006 74 10000 2.6 240 01:56 12.06.2020
1491 Clouds 29 1006 74 10000 3.1 260 01:27 12.06.2020
1492 Clouds 28 1006 74 10000 2.6 270 00:45 12.06.2020
1493 Clouds 28 1006 74 10000 2.6 270 00:25 12.06.2020
1494 Clouds 29 1006 74 10000 2.6 250 23:59 11.06.2020
1495 Clouds 29 1006 74 10000 2.1 230 23:41 11.06.2020
1496 Clouds 29 1006 74 10000 2.1 230 23:21 11.06.2020
1497 Clouds 29 1006 74 10000 2.6 250 22:59 11.06.2020
1498 Clouds 29 1006 70 10000 3.1 270 22:38 11.06.2020
1499 Clouds 29 1006 74 10000 2.6 270 22:20 11.06.2020
1500 Clouds 29 1006 74 10000 2.6 270 21:56 11.06.2020
1501 Clouds 29 1006 74 10000 3.1 280 21:37 11.06.2020
1502 Clouds 30 1006 74 10000 2.6 270 21:19 11.06.2020
1503 Clouds 30 1006 74 10000 2.1 260 20:43 11.06.2020
1504 Clouds 30 1006 74 10000 2.1 260 20:21 11.06.2020
1505 Clouds 30 1007 79 10000 1.5 220 19:55 11.06.2020
1506 Clouds 30 1008 79 10000 2.6 210 19:36 11.06.2020
1507 Clouds 30 1008 79 10000 2.6 210 19:18 11.06.2020
1508 Clouds 30 1008 79 10000 3.1 210 18:41 11.06.2020
1509 Clouds 30 1008 74 10000 3.1 220 18:20 11.06.2020
1510 Clouds 30 1008 74 10000 3.1 220 17:56 11.06.2020
1511 Clouds 30 1007 74 10000 4.6 220 17:37 11.06.2020
1512 Clouds 30 1007 74 10000 4.6 220 17:19 11.06.2020
1513 Clouds 30 1007 74 10000 4.1 210 16:55 11.06.2020
1514 Clouds 30 1007 74 10000 4.1 220 16:37 11.06.2020
1515 Clouds 30 1007 74 10000 4.1 220 16:18 11.06.2020
1516 Clouds 32 1006 70 10000 5.1 220 15:42 11.06.2020
1517 Clouds 32 1006 70 10000 5.1 220 15:23 11.06.2020
1518 Clouds 32 1006 70 10000 5.7 210 14:55 11.06.2020
1519 Rain 35 1005 64 0 0.89 253 14:37 11.06.2020
1520 Rain 35 1005 63 0 1.34 234 14:19 11.06.2020
1521 Rain 35 1004 61 0 0.45 268 13:54 11.06.2020
1522 Rain 35 1004 60 0 0.89 295 13:36 11.06.2020
1523 Clouds 36 1005 43 0 6.27 201 13:18 11.06.2020
1524 Clouds 36 1004 42 0 6.27 201 12:39 11.06.2020
1525 Clouds 36 1004 42 0 4.01 194 12:20 11.06.2020
1526 Clouds 36 1004 42 0 4.01 194 11:59 11.06.2020
1527 Clouds 36 1004 42 0 4.01 194 11:40 11.06.2020
1528 Clouds 36 1004 42 0 3.39 196 11:22 11.06.2020
1529 Clouds 36 1004 42 0 3.39 196 10:57 11.06.2020
1530 Clouds 36 1005 42 0 3.39 196 10:39 11.06.2020
1531 Clouds 36 1005 42 0 3.39 196 10:39 11.06.2020
1532 Clouds 37 1005 40 0 3.48 204 10:18 11.06.2020
1533 Clouds 36 1005 40 0 3.48 204 09:42 11.06.2020
1534 Clouds 36 1006 42 0 3.68 222 09:24 11.06.2020
1535 Clear 36 1007 41 0 3.56 219 08:44 11.06.2020
1536 Clear 36 1007 41 0 3.56 219 08:44 11.06.2020
1537 Clouds 36 1007 42 0 3.83 238 08:21 11.06.2020
1538 Clouds 36 1007 45 0 3.83 238 07:59 11.06.2020
1539 Clouds 36 1007 45 0 3.83 238 07:41 11.06.2020
1540 Clouds 35 1007 43 0 3.97 248 07:20 11.06.2020
1541 Clear 35 1006 50 0 0.45 119 06:29 11.06.2020
1542 Clear 34 1008 44 0 3.58 246 05:46 11.06.2020
1543 Clear 32 1007 58 0 0.45 261 03:56 11.06.2020
1544 Clouds 31 1008 70 10000 1.9 238 03:24 11.06.2020
1545 Clouds 29 1008 78 10000 1.9 238 02:32 11.06.2020
1546 Clouds 28 1008 83 10000 1.72 240 01:53 11.06.2020
1547 Clouds 29 1008 83 10000 1.5 110 01:31 11.06.2020
1548 Clouds 28 1007 78 10000 2.01 250 00:51 11.06.2020
1549 Clouds 28 1007 78 10000 2.01 250 00:30 11.06.2020
1550 Clouds 28 1008 78 10000 2.24 258 23:49 10.06.2020
1551 Clouds 28 1008 78 10000 2.6 264 23:27 10.06.2020
1552 Clouds 28 1007 78 10000 0.5 210 22:59 10.06.2020
1553 Clouds 28 1008 74 10000 2.6 264 22:38 10.06.2020
1554 Clouds 30 1008 74 10000 2.1 260 22:20 10.06.2020
1555 Clouds 28 1008 74 10000 2.1 260 21:58 10.06.2020
1556 Clouds 29 1008 74 10000 2.1 240 21:40 10.06.2020
1557 Clouds 28 1008 74 10000 1.5 240 21:18 10.06.2020
1558 Clouds 28 1008 74 10000 1.5 240 20:57 10.06.2020
1559 Clouds 29 1009 74 10000 2.6 240 20:39 10.06.2020
1560 Clouds 29 1009 70 10000 2.1 240 20:21 10.06.2020
1561 Clouds 29 1009 70 10000 3.1 240 19:42 10.06.2020
1562 Clouds 31 1009 74 10000 4.04 256 19:20 10.06.2020
1563 Clouds 31 1009 74 10000 2.1 220 19:00 10.06.2020
1564 Clouds 31 1009 74 10000 2.1 220 18:41 10.06.2020
1565 Clouds 31 1009 74 10000 2.1 210 18:20 10.06.2020
1566 Clouds 31 1009 74 10000 2.1 210 17:58 10.06.2020
1567 Clouds 31 1009 70 10000 3.1 230 17:40 10.06.2020
1568 Clouds 31 1009 70 10000 3.1 260 17:19 10.06.2020
1569 Clouds 31 1009 70 10000 3.1 260 16:57 10.06.2020
1570 Clouds 31 1008 70 10000 3.6 240 16:39 10.06.2020
1571 Clouds 31 1008 70 10000 3.6 240 16:20 10.06.2020
1572 Clouds 31 1008 70 10000 5.1 220 15:41 10.06.2020
1573 Clouds 31 1008 70 10000 5.1 220 15:22 10.06.2020
1574 Clouds 31 1007 70 10000 5.1 210 14:59 10.06.2020
1575 Clouds 32 1006 66 10000 5.1 210 14:40 10.06.2020
1576 Clouds 32 1006 66 10000 5.1 210 14:40 10.06.2020
1577 Clouds 32 1006 66 10000 5.1 210 14:20 10.06.2020
1578 Clouds 33 1006 66 10000 9.3 220 13:41 10.06.2020
1579 Rain 34 1005 62 0 0.89 101 13:22 10.06.2020
1580 Rain 34 1005 62 0 0.89 6 12:46 10.06.2020
1581 Rain 34 1004 59 0 1.34 257 12:23 10.06.2020
1582 Rain 35 1004 57 0 0.89 142 11:59 10.06.2020
1583 Rain 35 1004 54 0 0.89 99 11:41 10.06.2020
1584 Clouds 35 1004 52 0 1.79 275 11:20 10.06.2020
1585 Clouds 35 1004 51 0 0.45 194 10:58 10.06.2020
1586 Clouds 35 1004 51 0 0.45 194 10:58 10.06.2020
1587 Clouds 35 1004 51 0 0.45 177 10:39 10.06.2020
1588 Clouds 35 1004 51 0 0.45 177 10:39 10.06.2020
1589 Clouds 35 1004 50 0 0.45 314 10:21 10.06.2020
1590 Clouds 36 1006 42 0 4.17 189 09:42 10.06.2020
1591 Clouds 35 1007 41 0 4.05 191 09:23 10.06.2020
1592 Clouds 36 1007 41 0 3.86 192 08:57 10.06.2020
1593 Clouds 36 1007 42 0 3.86 192 08:39 10.06.2020
1594 Clouds 36 1008 41 0 3.42 212 08:20 10.06.2020
1595 Clouds 35 1008 43 0 3.42 212 07:39 10.06.2020
1596 Clouds 35 1008 43 0 3.41 222 07:21 10.06.2020
1597 Clouds 35 1008 44 0 3.41 222 06:46 10.06.2020
1598 Clouds 33 1007 61 0 0.45 277 06:23 10.06.2020
1599 Clouds 33 1007 61 0 0.89 187 05:58 10.06.2020
1600 Clouds 33 1007 61 0 0.89 178 05:26 10.06.2020
1601 Clouds 32 1008 66 0 0.89 287 04:35 10.06.2020
1602 Clouds 29 1008 88 10000 1 0 02:57 10.06.2020
1603 Clouds 29 1008 88 10000 2.27 239 02:21 10.06.2020
1604 Clouds 29 1007 94 10000 1.5 70 01:37 10.06.2020
1605 Clouds 30 1007 83 10000 1 200 00:40 10.06.2020
1606 Clouds 30 1007 83 10000 1.5 210 00:21 10.06.2020
1607 Clouds 30 1007 83 10000 1.5 210 00:21 10.06.2020
1608 Clouds 28 1007 83 10000 1.5 210 23:56 09.06.2020
1609 Clouds 28 1007 88 10000 2.1 210 23:38 09.06.2020
1610 Clouds 28 1007 88 10000 2.1 210 23:19 09.06.2020
1611 Clouds 28 1007 83 10000 2.1 210 22:55 09.06.2020
1612 Clouds 28 1007 94 10000 2.42 233 22:37 09.06.2020
1613 Clouds 28 1007 94 10000 2.99 238 22:19 09.06.2020
1614 Clouds 28 1007 94 10000 2.99 238 21:56 09.06.2020
1615 Clouds 28 1007 94 10000 2.99 238 21:56 09.06.2020
1616 Clouds 28 1008 94 10000 0.5 50 21:37 09.06.2020
1617 Clouds 30 1008 94 10000 0.5 50 21:19 09.06.2020
1618 Clouds 30 1008 88 10000 3.76 248 20:56 09.06.2020
1619 Clouds 30 1008 83 10000 3.76 248 20:38 09.06.2020
1620 Clouds 30 1008 83 10000 1 0 20:18 09.06.2020
1621 Clouds 30 1008 83 10000 1 0 19:56 09.06.2020
1622 Clouds 30 1009 83 10000 1.5 150 19:38 09.06.2020
1623 Clouds 30 1009 88 10000 1.5 130 19:19 09.06.2020
1624 Clouds 31 1009 83 10000 1.5 130 18:45 09.06.2020
1625 Clouds 31 1009 83 10000 1.5 130 18:26 09.06.2020
1626 Clouds 31 1009 83 10000 2.1 130 17:58 09.06.2020
1627 Clouds 31 1009 83 10000 2.6 150 17:40 09.06.2020
1628 Clouds 31 1009 83 10000 2.6 150 17:22 09.06.2020
1629 Clouds 31 1008 83 10000 2.6 150 16:57 09.06.2020
1630 Clouds 31 1008 79 10000 3.1 150 16:39 09.06.2020
1631 Clouds 31 1008 79 10000 3.1 150 16:20 09.06.2020
1632 Clouds 31 1007 79 10000 2.6 160 15:40 09.06.2020
1633 Rain 32 1006 71 0 0.45 154 15:22 09.06.2020
1634 Rain 32 1005 71 0 0.45 245 14:57 09.06.2020
1635 Rain 32 1005 71 0 0.45 320 14:39 09.06.2020
1636 Rain 32 1005 71 0 0.45 100 14:19 09.06.2020
1637 Rain 33 1005 67 0 5.7 197 13:54 09.06.2020
1638 Rain 33 1005 67 0 0.45 93 13:36 09.06.2020
1639 Rain 33 1004 69 0 1.34 119 13:18 09.06.2020
1640 Rain 33 1004 68 0 0.45 132 12:42 09.06.2020
1641 Rain 33 1004 69 0 1.34 110 12:20 09.06.2020
1642 Rain 33 1004 67 0 0.45 85 11:56 09.06.2020
1643 Rain 34 1004 64 0 0.45 182 11:38 09.06.2020
1644 Rain 34 1004 64 0 0.45 182 11:38 09.06.2020
1645 Rain 34 1004 65 0 1.34 338 11:19 09.06.2020
1646 Rain 33 1004 63 0 2.24 328 10:54 09.06.2020
1647 Rain 33 1004 63 0 0.45 1 10:36 09.06.2020
1648 Rain 33 1004 62 0 0.45 104 10:18 09.06.2020
1649 Rain 34 1004 58 0 1.34 136 09:40 09.06.2020
1650 Clouds 33 1005 58 0 1.34 273 09:19 09.06.2020
1651 Clouds 34 1005 57 0 1.34 293 08:40 09.06.2020
1652 Clouds 34 1006 58 0 0.45 126 08:21 09.06.2020
1653 Clouds 34 1006 59 0 1.34 139 07:44 09.06.2020
1654 Clouds 33 1006 59 0 0.89 146 07:23 09.06.2020
1655 Clouds 33 1006 60 0 0.89 266 06:56 09.06.2020
1656 Clouds 33 1006 61 0 0.89 135 06:37 09.06.2020
1657 Clouds 33 1007 61 0 1.34 214 05:53 09.06.2020
1658 Clouds 32 1006 69 0 0.89 57 04:22 09.06.2020
1659 Clouds 31 1006 81 0 3.59 176 02:47 09.06.2020
1660 Clouds 30 1005 84 0 2.79 194 01:38 09.06.2020
1661 Clouds 29 1005 84 0 2.79 188 01:19 09.06.2020
1662 Clouds 26 1006 100 10000 2.1 130 00:44 09.06.2020
1663 Clouds 28 1007 100 10000 3.6 120 00:19 09.06.2020
1664 Clouds 28 1006 100 10000 3.6 120 23:42 08.06.2020
1665 Clouds 28 1006 100 10000 3.6 120 23:22 08.06.2020
1666 Clouds 29 1006 94 10000 1.5 120 22:59 08.06.2020
1667 Clouds 29 1006 94 10000 1 90 22:39 08.06.2020
1668 Clouds 29 1006 94 10000 1 90 22:20 08.06.2020
1669 Clouds 29 1006 94 10000 2.21 213 21:56 08.06.2020
1670 Clouds 29 1007 94 10000 2.1 110 21:38 08.06.2020
1671 Clouds 29 1008 94 10000 2.25 209 21:19 08.06.2020
1672 Clouds 29 1008 94 10000 2.25 209 20:55 08.06.2020
1673 Clouds 29 1008 94 10000 2.25 209 20:37 08.06.2020
1674 Clouds 29 1008 94 10000 1.5 140 20:18 08.06.2020
1675 Clouds 29 1009 94 10000 0.5 0 19:43 08.06.2020
1676 Clouds 31 1007 78 0 3.11 225 19:21 08.06.2020
1677 Clouds 31 1007 78 0 3.11 225 18:44 08.06.2020
1678 Clouds 31 1007 78 0 4.04 224 18:22 08.06.2020
1679 Clouds 31 1007 77 0 4.04 224 17:58 08.06.2020
1680 Clouds 31 1007 75 0 4.04 224 17:40 08.06.2020
1681 Clouds 31 1007 76 0 4.58 223 17:22 08.06.2020
1682 Rain 29 1009 100 10000 2.1 200 16:58 08.06.2020
1683 Rain 29 1009 100 10000 2.1 200 16:58 08.06.2020
1684 Rain 29 1008 94 9000 5.7 240 16:40 08.06.2020
1685 Rain 29 1008 94 9000 5.7 240 16:21 08.06.2020
1686 Clouds 31 1006 70 10000 4.6 180 15:44 08.06.2020
1687 Clouds 30 1006 70 10000 4.6 180 15:22 08.06.2020
1688 Clouds 32 1006 70 10000 4.6 180 14:58 08.06.2020
1689 Clouds 32 1005 70 10000 4.1 170 14:39 08.06.2020
1690 Clouds 32 1005 70 10000 4.1 170 14:19 08.06.2020
1691 Clouds 32 1004 62 10000 4.1 180 13:44 08.06.2020
1692 Clouds 33 1003 63 0 0.45 334 13:24 08.06.2020
1693 Clouds 32 1004 63 10000 4.1 200 12:43 08.06.2020
1694 Clouds 34 1003 59 0 0.89 246 12:20 08.06.2020
1695 Clouds 34 1003 59 0 0.45 250 11:59 08.06.2020
1696 Clouds 34 1003 58 0 0.45 340 11:40 08.06.2020
1697 Clouds 34 1003 58 0 0.45 325 11:22 08.06.2020
1698 Clouds 34 1003 58 0 0.45 325 11:22 08.06.2020
1699 Clouds 34 1004 56 10000 4.1 200 10:58 08.06.2020
1700 Clouds 34 1003 58 0 0.89 173 10:38 08.06.2020
1701 Clouds 34 1003 58 0 1.34 263 10:20 08.06.2020
1702 Clouds 34 1005 59 10000 5.1 210 09:57 08.06.2020
1703 Clouds 34 1005 59 10000 5.1 210 09:57 08.06.2020
1704 Clouds 34 1005 59 10000 5.1 210 09:57 08.06.2020
1705 Clouds 35 1005 44 0 5.65 204 09:39 08.06.2020
1706 Clouds 35 1006 44 0 5.38 201 09:20 08.06.2020
1707 Clouds 34 1005 59 0 1.34 165 08:42 08.06.2020
1708 Rain 34 1005 58 0 0.89 276 08:20 08.06.2020
1709 Rain 33 1006 60 0 1.34 192 07:43 08.06.2020
1710 Clouds 34 1006 59 0 0.89 260 07:21 08.06.2020
1711 Clouds 33 1008 59 10000 5.1 200 06:48 08.06.2020
1712 Clouds 33 1007 60 0 1.34 294 06:28 08.06.2020
1713 Clouds 33 1007 61 0 0.45 313 05:43 08.06.2020
1714 Clouds 32 1007 64 0 0.45 248 04:27 08.06.2020
1715 Clouds 29 1007 94 10000 0.5 0 02:32 08.06.2020
1716 Clouds 28 1007 94 10000 1 110 01:45 08.06.2020
1717 Clouds 28 1007 94 10000 1 110 01:25 08.06.2020
1718 Clouds 29 1006 94 10000 3.25 203 00:29 08.06.2020
1719 Clouds 29 1006 94 10000 3.25 203 00:29 08.06.2020
1720 Clouds 27 1006 94 10000 3.25 203 23:41 07.06.2020
1721 Clouds 27 1006 94 10000 2.79 215 23:20 07.06.2020
1722 Clouds 27 1006 94 10000 1.5 140 22:59 07.06.2020
1723 Clouds 27 1006 94 10000 1.5 140 22:59 07.06.2020
1724 Rain 27 1006 94 10000 2.79 215 22:39 07.06.2020
1725 Rain 27 1006 94 10000 3.28 228 22:19 07.06.2020
1726 Clouds 27 1007 94 10000 3.28 228 21:58 07.06.2020
1727 Clouds 27 1007 94 10000 3.28 228 21:37 07.06.2020
1728 Clouds 27 1007 94 10000 3.28 228 21:37 07.06.2020
1729 Clouds 27 1007 94 10000 3.26 231 21:19 07.06.2020
1730 Clouds 27 1007 94 10000 1 110 20:54 07.06.2020
1731 Clouds 27 1007 94 10000 1.5 120 20:36 07.06.2020
1732 Clouds 27 1008 94 10000 1.5 120 20:18 07.06.2020
1733 Clouds 27 1008 94 10000 1.5 120 19:54 07.06.2020
1734 Rain 26 1007 100 10000 3.8 240 19:36 07.06.2020
1735 Clouds 27 1008 94 10000 1 120 19:18 07.06.2020
1736 Rain 27 1008 94 9000 4.18 238 18:40 07.06.2020
1737 Rain 27 1009 94 9000 1 360 18:21 07.06.2020
1738 Rain 27 1009 94 9000 1 360 17:58 07.06.2020
1739 Thunderstorm 27 1008 94 9000 2.6 30 17:40 07.06.2020
1740 Rain 31 1007 66 0 5.5 244 17:21 07.06.2020
1741 Rain 29 1006 72 0 5.5 244 16:44 07.06.2020
1742 Rain 29 1006 71 0 0.89 147 16:22 07.06.2020
1743 Clouds 30 1006 79 10000 3.6 170 15:44 07.06.2020
1744 Rain 31 1005 71 0 0.45 266 15:22 07.06.2020
1745 Rain 31 1005 70 0 1.34 137 14:55 07.06.2020
1746 Rain 32 1005 69 0 1.34 135 14:36 07.06.2020
1747 Rain 32 1005 68 0 0.89 107 14:18 07.06.2020
1748 Rain 31 1004 67 0 0.89 145 13:42 07.06.2020
1749 Rain 31 1004 67 0 0.89 145 13:42 07.06.2020
1750 Rain 31 1004 67 0 0.89 145 13:42 07.06.2020
1751 Rain 31 1004 67 0 0.89 145 13:42 07.06.2020
1752 Rain 31 1004 67 0 0.89 145 13:42 07.06.2020
1753 Rain 32 1004 65 0 0.45 307 13:19 07.06.2020
1754 Clouds 32 1004 63 10000 4.6 170 12:43 07.06.2020
1755 Clouds 35 1005 43 0 5.85 181 12:25 07.06.2020
1756 Clouds 35 1004 44 0 5.85 181 11:55 07.06.2020
1757 Clouds 36 1004 43 0 5.85 181 11:37 07.06.2020
1758 Clouds 36 1004 44 0 5.43 187 11:19 07.06.2020
1759 Clouds 36 1005 43 0 5.43 187 10:54 07.06.2020
1760 Clouds 36 1005 43 0 5.43 187 10:36 07.06.2020
1761 Clouds 36 1005 42 0 5.48 192 10:18 07.06.2020
1762 Clouds 36 1005 43 0 5.48 192 09:41 07.06.2020
1763 Clouds 35 1006 43 0 6.42 181 09:22 07.06.2020
1764 Clouds 35 1006 44 0 6.42 181 08:59 07.06.2020
1765 Clouds 35 1006 44 0 6.42 181 08:41 07.06.2020
1766 Clouds 35 1007 44 0 6.62 183 08:22 07.06.2020
1767 Clouds 35 1007 44 0 6.62 183 07:43 07.06.2020
1768 Clouds 34 1007 45 0 5.91 185 07:24 07.06.2020
1769 Clouds 33 1007 63 0 0.45 167 06:22 07.06.2020
1770 Clouds 33 1009 49 0 4.19 200 04:49 07.06.2020
1771 Clouds 30 1007 68 0 1.34 291 04:18 07.06.2020
1772 Clouds 29 1007 74 0 3.29 190 02:26 07.06.2020
1773 Clouds 28 1008 94 10000 2.1 110 01:40 07.06.2020
1774 Clouds 28 1008 94 10000 2.1 110 01:22 07.06.2020
1775 Clouds 28 1007 94 10000 2.6 130 00:40 07.06.2020
1776 Clouds 28 1007 88 10000 3.1 120 00:18 07.06.2020
1777 Clouds 29 1007 88 10000 3.1 120 23:55 06.06.2020
1778 Clouds 29 1006 76 0 2.18 200 23:36 06.06.2020
1779 Clouds 29 1006 77 0 2.21 221 23:18 06.06.2020
1780 Clouds 29 1006 77 0 2.21 221 22:55 06.06.2020
1781 Clouds 29 1005 78 0 2.21 221 22:36 06.06.2020
1782 Clouds 30 1005 78 0 2.63 235 22:18 06.06.2020
1783 Clouds 30 1006 78 0 2.63 235 21:42 06.06.2020
1784 Clouds 30 1006 78 0 2.95 239 21:20 06.06.2020
1785 Clouds 29 1008 83 10000 1.5 150 20:41 06.06.2020
1786 Clouds 31 1006 78 0 4.16 236 20:21 06.06.2020
1787 Clouds 31 1007 77 0 4.16 236 19:59 06.06.2020
1788 Clouds 31 1007 77 0 4.16 236 19:41 06.06.2020
1789 Clouds 31 1008 76 0 4.11 232 19:22 06.06.2020
1790 Clouds 31 1008 76 0 4.11 232 18:57 06.06.2020
1791 Clouds 31 1008 76 0 4.11 232 18:39 06.06.2020
1792 Clouds 29 1009 83 10000 3.43 241 18:20 06.06.2020
1793 Clouds 29 1009 83 10000 1 130 17:44 06.06.2020
1794 Rain 31 1008 77 0 4.78 232 17:21 06.06.2020
1795 Rain 31 1008 77 0 4.78 232 17:21 06.06.2020
1796 Rain 31 1008 77 0 4.78 232 16:57 06.06.2020
1797 Rain 31 1007 77 0 4.78 232 16:38 06.06.2020
1798 Rain 31 1007 76 0 4.87 199 16:20 06.06.2020
1799 Rain 31 1007 74 0 4.87 199 15:45 06.06.2020
1800 Clouds 32 1007 72 0 6.2 190 15:21 06.06.2020
1801 Clouds 32 1006 68 0 1.34 134 14:59 06.06.2020
1802 Clouds 32 1006 66 0 6.2 190 14:38 06.06.2020
1803 Rain 32 1006 65 0 0.45 207 14:19 06.06.2020
1804 Rain 33 1006 62 0 1.34 215 13:49 06.06.2020
1805 Rain 33 1005 66 0 1.34 339 13:20 06.06.2020
1806 Rain 33 1005 65 0 1.34 303 12:58 06.06.2020
1807 Rain 35 1006 44 0 7.36 176 12:39 06.06.2020
1808 Rain 35 1005 44 0 7.04 177 12:20 06.06.2020
1809 Rain 36 1005 45 0 7.04 177 11:55 06.06.2020
1810 Rain 36 1005 43 0 7.04 177 11:37 06.06.2020
1811 Clouds 36 1005 42 0 6.15 179 11:18 06.06.2020
1812 Clouds 35 1005 42 0 6.15 179 10:56 06.06.2020
1813 Clouds 35 1005 42 0 6.15 179 10:38 06.06.2020
1814 Clouds 35 1006 42 0 5.83 181 10:19 06.06.2020
1815 Clouds 36 1006 42 0 5.83 181 09:43 06.06.2020
1816 Clouds 35 1006 42 0 5.27 181 09:24 06.06.2020
1817 Clouds 35 1007 43 0 4.93 181 08:48 06.06.2020
1818 Clouds 35 1007 43 0 4.54 178 08:25 06.06.2020
1819 Clouds 35 1007 44 0 4.54 178 07:57 06.06.2020
1820 Clouds 35 1008 44 0 4.54 178 07:38 06.06.2020
1821 Clouds 35 1008 45 0 4.28 177 07:20 06.06.2020
1822 Clouds 34 1008 45 0 4.28 177 06:44 06.06.2020
1823 Clouds 32 1007 60 0 0.89 147 06:26 06.06.2020
1824 Clouds 33 1008 49 0 3.35 176 05:41 06.06.2020
1825 Clouds 33 1009 51 0 2.42 185 04:51 06.06.2020
1826 Clouds 32 1009 53 0 2.23 198 03:45 06.06.2020
1827 Clouds 28 1007 78 0 0.45 308 02:35 06.06.2020
1828 Clouds 29 1006 81 0 1.84 213 01:23 06.06.2020
1829 Clouds 29 1006 79 0 1.84 213 00:57 06.06.2020
1830 Clouds 29 1005 79 0 1.84 213 00:39 06.06.2020
1831 Clouds 29 1005 79 0 2.21 224 00:20 06.06.2020
1832 Clouds 29 1005 78 0 2.21 224 23:40 05.06.2020
1833 Clouds 29 1005 78 0 2.93 224 23:20 05.06.2020
1834 Clouds 29 1005 78 0 2.93 224 23:20 05.06.2020
1835 Clouds 29 1005 78 0 2.93 224 22:56 05.06.2020
1836 Clouds 29 1005 78 0 2.93 224 22:38 05.06.2020
1837 Clouds 29 1005 77 0 3.34 213 22:19 05.06.2020
1838 Clouds 30 1005 77 0 3.34 213 21:43 05.06.2020
1839 Clouds 30 1006 78 0 3.5 207 21:23 05.06.2020
1840 Clouds 30 1006 78 0 3.5 207 21:23 05.06.2020
1841 Clouds 30 1006 78 0 3.01 234 20:58 05.06.2020
1842 Clouds 30 1006 78 0 3.01 234 20:40 05.06.2020
1843 Clouds 30 1006 78 0 2.84 242 20:21 05.06.2020
1844 Clouds 30 1007 78 0 2.84 242 19:44 05.06.2020
1845 Clouds 29 1007 78 0 2.54 235 19:24 05.06.2020
1846 Clouds 30 1007 78 0 2.54 235 18:58 05.06.2020
1847 Clouds 30 1007 78 0 2.54 235 18:58 05.06.2020
1848 Clouds 30 1009 94 10000 1.5 150 18:39 05.06.2020
1849 Clouds 30 1009 94 10000 1.5 140 18:20 05.06.2020
1850 Clouds 30 1009 94 10000 1.5 140 17:58 05.06.2020
1851 Clouds 30 1009 94 10000 1.5 140 17:58 05.06.2020
1852 Clouds 30 1009 83 10000 2.6 250 17:40 05.06.2020
1853 Clouds 30 1009 83 10000 2.6 250 17:19 05.06.2020
1854 Clouds 31 1007 75 0 2.83 182 16:40 05.06.2020
1855 Clouds 32 1007 74 0 0.45 271 16:22 05.06.2020
1856 Clouds 32 1007 71 0 0.45 116 15:57 05.06.2020
1857 Clouds 32 1007 74 0 0.89 308 15:37 05.06.2020
1858 Rain 31 1007 72 0 0.89 238 15:19 05.06.2020
1859 Rain 31 1006 73 0 0.89 119 14:56 05.06.2020
1860 Rain 31 1006 72 0 1.34 119 14:37 05.06.2020
1861 Rain 31 1006 72 0 0.45 348 14:19 05.06.2020
1862 Rain 31 1005 72 0 4.52 180 13:42 05.06.2020
1863 Rain 31 1005 71 0 0.89 123 13:23 05.06.2020
1864 Rain 31 1004 69 0 0.45 145 12:43 05.06.2020
1865 Rain 34 1006 48 0 4.68 172 12:20 05.06.2020
1866 Rain 34 1005 49 0 4.68 172 11:57 05.06.2020
1867 Rain 34 1006 49 0 4.68 172 11:39 05.06.2020
1868 Clouds 34 1005 49 0 4.63 171 11:20 05.06.2020
1869 Clouds 33 1006 56 0 4.63 171 10:54 05.06.2020
1870 Clouds 33 1006 61 0 4.63 171 10:36 05.06.2020
1871 Clouds 33 1006 57 0 4.16 174 10:18 05.06.2020
1872 Clouds 33 1006 56 0 4.16 174 09:55 05.06.2020
1873 Clouds 34 1007 49 0 4.16 174 09:36 05.06.2020
1874 Clouds 34 1007 48 0 3.12 204 09:18 05.06.2020
1875 Clouds 34 1007 46 0 3.12 204 08:41 05.06.2020
1876 Clouds 33 1007 47 0 3.01 214 08:20 05.06.2020
1877 Clouds 34 1007 48 0 3.01 214 07:56 05.06.2020
1878 Clouds 34 1008 49 0 3.01 214 07:38 05.06.2020
1879 Clouds 34 1008 48 0 2.81 220 06:56 05.06.2020
1880 Clouds 33 1009 56 0 2.47 229 05:41 05.06.2020
1881 Clouds 32 1008 69 0 2.11 237 05:18 05.06.2020
1882 Clouds 32 1008 52 0 1.62 235 03:53 05.06.2020
1883 Clouds 28 1008 94 10000 1.4 244 02:45 05.06.2020
1884 Clouds 28 1008 94 10000 1.82 253 02:21 05.06.2020
1885 Clouds 29 1007 94 10000 1.5 80 01:52 05.06.2020
1886 Clouds 29 1007 94 10000 1 0 00:59 05.06.2020
1887 Clouds 30 1007 94 10000 1 90 00:39 05.06.2020
1888 Clouds 30 1007 94 10000 1 110 00:19 05.06.2020
1889 Clouds 30 1005 75 0 2.72 258 23:46 04.06.2020
1890 Clouds 30 1005 75 0 3.51 264 23:25 04.06.2020
1891 Clouds 30 1005 76 0 3.51 264 22:45 04.06.2020
1892 Clouds 30 1005 77 0 3.3 261 22:23 04.06.2020
1893 Clouds 31 1005 77 0 3.3 261 21:59 04.06.2020
1894 Clouds 31 1005 77 0 3.3 261 21:41 04.06.2020
1895 Clouds 31 1006 77 0 2.52 239 21:23 04.06.2020
1896 Clouds 31 1006 76 0 2.03 225 20:59 04.06.2020
1897 Clouds 31 1006 74 0 2.03 225 20:40 04.06.2020
1898 Clouds 31 1007 72 0 1.83 169 20:21 04.06.2020
1899 Clouds 31 1007 71 0 0.45 279 19:58 04.06.2020
1900 Clouds 31 1007 75 0 1.34 250 19:38 04.06.2020
1901 Rain 31 1007 75 0 2.84 156 19:20 04.06.2020
1902 Rain 31 1008 74 0 2.84 156 18:40 04.06.2020
1903 Rain 31 1008 73 0 3.32 155 18:21 04.06.2020
1904 Rain 31 1008 72 0 0.45 32 17:59 04.06.2020
1905 Rain 31 1008 72 0 0.45 264 17:41 04.06.2020
1906 Rain 31 1008 72 0 0.45 264 17:41 04.06.2020
1907 Rain 31 1008 72 0 0.45 161 17:20 04.06.2020
1908 Rain 31 1007 71 0 0.45 292 16:41 04.06.2020
1909 Rain 31 1007 71 0 0.89 141 16:21 04.06.2020
1910 Rain 31 1007 70 0 0.45 85 15:56 04.06.2020
1911 Rain 31 1007 71 0 3.9 135 15:37 04.06.2020
1912 Rain 31 1007 71 0 4.98 124 15:19 04.06.2020
1913 Rain 31 1006 70 0 0.45 303 14:38 04.06.2020
1914 Clouds 31 1006 70 0 0.45 185 14:19 04.06.2020
1915 Clouds 31 1005 70 0 0.45 210 13:54 04.06.2020
1916 Clouds 32 1005 69 0 6.01 175 13:36 04.06.2020
1917 Clouds 33 1004 68 0 5.81 172 13:18 04.06.2020
1918 Clouds 34 1005 50 0 5.81 172 12:41 04.06.2020
1919 Clouds 34 1006 52 0 5.75 178 12:23 04.06.2020
1920 Clouds 34 1006 52 0 5.75 178 11:59 04.06.2020
1921 Clouds 34 1006 51 0 5.75 178 11:38 04.06.2020
1922 Clouds 34 1006 51 0 5.34 191 11:20 04.06.2020
1923 Clouds 34 1006 56 0 5.34 191 10:57 04.06.2020
1924 Clouds 34 1005 57 0 5.34 191 10:38 04.06.2020
1925 Clouds 35 1005 56 0 4.31 204 10:19 04.06.2020
1926 Clouds 35 1005 56 0 4.31 204 10:19 04.06.2020
1927 Clouds 35 1006 44 0 4.31 204 09:43 04.06.2020
1928 Clouds 35 1006 44 0 3.43 220 09:24 04.06.2020
1929 Clouds 35 1006 44 0 4.8 192 08:46 04.06.2020
1930 Clouds 35 1007 43 0 3.72 202 08:26 04.06.2020
1931 Clouds 34 1008 43 0 3.72 202 07:48 04.06.2020
1932 Clouds 34 1008 44 0 2.89 214 07:28 04.06.2020
1933 Clouds 34 1008 46 0 2.89 214 06:44 04.06.2020
1934 Clouds 34 1008 46 0 2.89 214 06:44 04.06.2020
1935 Clouds 33 1007 64 0 0.45 112 06:25 04.06.2020
1936 Clouds 33 1007 64 0 0.45 141 05:39 04.06.2020
1937 Clouds 32 1007 64 0 0.45 72 05:20 04.06.2020
1938 Clouds 30 1008 77 0 2.4 200 03:25 04.06.2020
1939 Clouds 28 1008 94 10000 1 70 01:56 04.06.2020
1940 Clouds 29 1007 94 10000 1 120 01:20 04.06.2020
1941 Clouds 29 1007 94 10000 0.5 110 00:48 04.06.2020
1942 Clouds 26 1007 94 10000 1 60 23:44 03.06.2020
1943 Clouds 26 1007 94 10000 1 60 23:21 03.06.2020
1944 Clouds 26 1008 94 10000 0.5 50 22:59 03.06.2020
1945 Clouds 26 1008 94 10000 3.19 212 22:39 03.06.2020
1946 Clouds 26 1008 94 10000 3.06 216 22:19 03.06.2020
1947 Clouds 26 1008 94 10000 3.06 216 22:19 03.06.2020
1948 Clouds 26 1008 94 10000 3.06 216 21:57 03.06.2020
1949 Clouds 26 1008 88 10000 3.06 216 21:39 03.06.2020
1950 Clouds 27 1008 88 10000 2.39 227 21:20 03.06.2020
1951 Clouds 27 1008 83 10000 2.1 130 20:55 03.06.2020
1952 Clouds 27 1009 83 10000 2.6 150 20:37 03.06.2020
1953 Clouds 27 1009 88 10000 2.6 150 20:19 03.06.2020
1954 Clouds 27 1009 88 10000 2.6 150 19:55 03.06.2020
1955 Clouds 26 1010 94 10000 2.6 140 19:36 03.06.2020
1956 Clouds 27 1010 88 10000 1.5 120 19:18 03.06.2020
1957 Clouds 27 1010 94 10000 1.5 70 18:41 03.06.2020
1958 Clouds 27 1009 88 10000 2.29 231 18:22 03.06.2020
1959 Clouds 27 1009 88 10000 2.29 231 17:57 03.06.2020
1960 Clouds 27 1009 88 10000 2.29 231 17:37 03.06.2020
1961 Clouds 27 1009 88 10000 2.67 218 17:18 03.06.2020
1962 Clouds 27 1009 94 10000 2.67 218 16:42 03.06.2020
1963 Rain 27 1009 88 9000 2.6 240 16:21 03.06.2020
1964 Rain 27 1009 88 9000 2.6 240 15:58 03.06.2020
1965 Rain 29 1009 94 8000 1 0 15:40 03.06.2020
1966 Rain 29 1009 94 8000 1 0 15:20 03.06.2020
1967 Rain 29 1009 94 8000 1 0 15:20 03.06.2020
1968 Thunderstorm 29 1008 94 5000 5.1 260 14:46 03.06.2020
1969 Rain 32 1006 72 0 0.89 116 14:24 03.06.2020
1970 Rain 31 1006 69 0 0.89 264 13:56 03.06.2020
1971 Rain 32 1006 66 0 1.34 256 13:38 03.06.2020
1972 Rain 34 1007 45 0 6.14 192 13:18 03.06.2020
1973 Rain 35 1006 44 0 6.14 192 12:42 03.06.2020
1974 Clouds 35 1005 44 0 5.37 174 12:21 03.06.2020
1975 Clouds 35 1005 46 0 5.37 174 11:45 03.06.2020
1976 Clouds 34 1005 46 0 4.98 175 11:26 03.06.2020
1977 Clouds 35 1005 47 0 4.98 175 10:56 03.06.2020
1978 Clouds 34 1005 47 0 4.98 175 10:38 03.06.2020
1979 Clouds 34 1005 47 0 5.46 182 10:20 03.06.2020
1980 Clouds 35 1006 44 0 5.46 182 09:42 03.06.2020
1981 Clouds 34 1006 44 0 3.45 215 09:19 03.06.2020
1982 Clouds 35 1007 45 0 3.45 215 08:47 03.06.2020
1983 Clouds 35 1007 44 0 3.16 231 08:24 03.06.2020
1984 Clouds 35 1008 46 0 3.16 231 07:58 03.06.2020
1985 Clouds 35 1008 46 0 3.16 231 07:39 03.06.2020
1986 Clouds 34 1008 46 0 2.43 233 07:18 03.06.2020
1987 Clouds 34 1009 50 0 2.43 233 06:45 03.06.2020
1988 Clouds 34 1009 49 0 1.9 214 06:27 03.06.2020
1989 Clouds 33 1010 50 0 1.9 214 05:45 03.06.2020
1990 Clear 32 1010 58 0 1.71 174 04:30 03.06.2020
1991 Clear 30 1010 58 0 1.82 155 03:42 03.06.2020
1992 Clear 28 1008 81 0 1.45 147 02:42 03.06.2020
1993 Clouds 26 1008 94 10000 0.84 117 01:46 03.06.2020
1994 Clouds 26 1008 94 10000 0.44 105 00:39 03.06.2020
1995 Clouds 26 1008 94 10000 1 140 00:21 03.06.2020
1996 Clouds 26 1008 94 10000 2.1 130 23:46 02.06.2020
1997 Clouds 26 1008 94 10000 2.1 130 23:27 02.06.2020
1998 Clouds 26 1008 88 10000 1.5 110 22:55 02.06.2020
1999 Clouds 26 1008 88 10000 2.1 90 22:36 02.06.2020
2000 Clouds 26 1008 88 10000 2.1 90 22:18 02.06.2020
2001 Clouds 26 1008 94 10000 2.1 110 21:54 02.06.2020
2002 Clouds 27 1008 94 10000 2.6 120 21:36 02.06.2020
2003 Clouds 26 1008 94 10000 2.6 120 21:18 02.06.2020
2004 Clouds 27 1009 94 10000 2.6 120 20:42 02.06.2020
2005 Clouds 27 1009 94 10000 2.6 120 20:23 02.06.2020
2006 Clouds 27 1010 94 10000 2.6 140 19:46 02.06.2020
2007 Clouds 27 1010 94 10000 2.6 140 19:27 02.06.2020
2008 Rain 27 1010 94 10000 2.1 140 18:59 02.06.2020
2009 Rain 27 1011 94 10000 2.1 150 18:41 02.06.2020
2010 Rain 27 1011 94 10000 1.5 130 18:22 02.06.2020
2011 Rain 27 1011 94 10000 1.5 130 17:59 02.06.2020
2012 Rain 25 1012 100 10000 3.1 130 17:41 02.06.2020
2013 Rain 25 1012 100 10000 3.1 130 17:22 02.06.2020
2014 Rain 26 1011 88 10000 2.1 180 16:56 02.06.2020
2015 Rain 26 1011 88 10000 3.73 96 16:38 02.06.2020
2016 Rain 26 1011 88 10000 0.78 129 16:19 02.06.2020
2017 Rain 27 1010 88 10000 4.1 210 15:42 02.06.2020
2018 Rain 28 1010 88 10000 4.1 210 15:23 02.06.2020
2019 Rain 30 1009 78 10000 3.6 40 14:49 02.06.2020
2020 Clouds 31 1008 78 10000 5.1 340 14:30 02.06.2020
2021 Clouds 33 1007 66 10000 6.7 160 13:57 02.06.2020
2022 Clouds 33 1006 66 10000 4.1 160 13:38 02.06.2020
2023 Rain 34 1005 63 0 0.89 305 13:19 02.06.2020
2024 Rain 34 1006 61 0 0.45 244 12:57 02.06.2020
2025 Rain 34 1005 61 0 0.45 330 12:39 02.06.2020
2026 Rain 36 1006 44 0 8.26 196 12:20 02.06.2020
2027 Rain 35 1006 44 0 8.26 196 11:55 02.06.2020
2028 Rain 36 1006 45 0 8.26 196 11:36 02.06.2020
2029 Rain 36 1006 45 0 5.69 171 11:18 02.06.2020
2030 Rain 35 1006 42 0 5.69 171 10:44 02.06.2020
2031 Clouds 36 1006 41 0 6.3 164 10:25 02.06.2020
2032 Clouds 36 1007 44 0 6.3 164 09:44 02.06.2020
2033 Clouds 36 1007 42 0 5.85 168 09:22 02.06.2020
2034 Clouds 36 1008 43 0 5.69 167 08:57 02.06.2020
2035 Clouds 36 1008 43 0 5.69 167 08:36 02.06.2020
2036 Clouds 36 1009 45 0 4.43 170 08:18 02.06.2020
2037 Clouds 36 1009 42 0 4.43 170 07:39 02.06.2020
2038 Clouds 35 1010 43 0 3.52 178 07:20 02.06.2020
2039 Clouds 34 1010 47 0 3.52 178 06:43 02.06.2020
2040 Clouds 33 1011 47 0 2.93 191 05:46 02.06.2020
2041 Clouds 34 1012 48 0 2.97 202 04:54 02.06.2020
2042 Clouds 29 1011 78 10000 2.6 220 03:19 02.06.2020
2043 Clouds 28 1010 78 10000 5.1 140 02:18 02.06.2020
2044 Clouds 30 1008 83 10000 2.1 170 00:53 02.06.2020
2045 Clouds 30 1008 83 10000 2.1 170 00:22 02.06.2020
2046 Clouds 30 1008 79 10000 2.1 180 23:39 01.06.2020
2047 Clouds 30 1008 79 10000 2.1 180 23:21 01.06.2020
2048 Clouds 30 1009 79 10000 2.1 210 22:58 01.06.2020
2049 Rain 30 1007 76 0 5.29 193 22:39 01.06.2020
2050 Rain 30 1007 76 0 5.59 193 22:19 01.06.2020
2051 Rain 30 1008 76 0 5.59 193 21:55 01.06.2020
2052 Rain 30 1008 75 0 5.59 193 21:36 01.06.2020
2053 Rain 30 1008 75 0 5.59 193 21:36 01.06.2020
2054 Rain 30 1008 74 0 4.73 177 21:18 01.06.2020
2055 Rain 30 1008 72 0 4.73 177 20:54 01.06.2020
2056 Rain 31 1009 71 0 4.73 177 20:36 01.06.2020
2057 Clouds 31 1009 71 0 4.77 176 20:18 01.06.2020
2058 Clouds 30 1009 71 0 4.77 176 19:42 01.06.2020
2059 Clouds 31 1009 71 0 4.65 169 19:20 01.06.2020
2060 Clouds 31 1009 70 0 4.65 169 18:58 01.06.2020
2061 Clouds 31 1009 70 0 0.89 308 18:39 01.06.2020
2062 Clouds 31 1009 70 0 4.99 177 18:19 01.06.2020
2063 Clouds 31 1009 71 0 4.99 177 17:55 01.06.2020
2064 Clouds 31 1009 71 0 4.99 177 17:36 01.06.2020
2065 Rain 31 1009 70 0 0.45 191 17:18 01.06.2020
2066 Rain 31 1009 67 0 5.08 182 16:39 01.06.2020
2067 Clouds 32 1009 67 0 5.36 177 16:20 01.06.2020
2068 Clouds 32 1009 68 0 0.89 292 15:55 01.06.2020
2069 Clouds 32 1008 66 0 0.89 285 15:37 01.06.2020
2070 Clouds 33 1008 65 0 0.89 280 15:18 01.06.2020
2071 Clouds 33 1008 64 0 0.45 68 14:55 01.06.2020
2072 Clouds 33 1007 62 0 5.62 167 14:36 01.06.2020
2073 Clouds 33 1007 61 0 4.99 172 14:18 01.06.2020
2074 Clouds 33 1007 58 0 0.89 255 13:41 01.06.2020
2075 Clouds 34 1007 60 0 0.45 264 13:21 01.06.2020
2076 Clouds 34 1006 60 0 0.45 284 12:58 01.06.2020
2077 Clouds 35 1007 44 0 4.8 175 12:40 01.06.2020
2078 Clouds 36 1007 44 0 4.6 177 12:21 01.06.2020
2079 Clouds 36 1007 44 0 4.6 177 11:56 01.06.2020
2080 Clouds 36 1007 43 0 4.6 177 11:36 01.06.2020
2081 Clear 36 1007 43 0 4.48 172 11:18 01.06.2020
2082 Clear 36 1007 44 0 4.48 172 10:39 01.06.2020
2083 Clear 36 1008 44 0 4.48 171 10:20 01.06.2020
2084 Clear 36 1008 45 0 4.48 171 09:57 01.06.2020
2085 Clear 36 1008 45 0 4.48 171 09:39 01.06.2020
2086 Clouds 36 1009 45 0 4.55 174 09:20 01.06.2020
2087 Clouds 36 1009 45 0 4.55 174 08:51 01.06.2020
2088 Clouds 34 1008 57 0 0.89 261 08:28 01.06.2020
2089 Clouds 34 1009 58 0 0.89 266 07:46 01.06.2020
2090 Clouds 33 1009 58 0 0.45 81 07:28 01.06.2020
2091 Clouds 33 1009 61 0 0.45 89 06:59 01.06.2020
2092 Clouds 32 1010 65 0 0.89 276 06:33 01.06.2020
2093 Clouds 31 1010 70 0 0.89 93 05:53 01.06.2020
2094 Clouds 30 1011 78 0 2.98 183 04:31 01.06.2020
2095 Clouds 30 1010 79 0 2.81 186 03:48 01.06.2020
2096 Clouds 30 1010 81 0 2.87 194 03:24 01.06.2020
2097 Clouds 29 1010 82 0 4.08 193 02:19 01.06.2020
2098 Clouds 30 1010 81 0 4.08 193 01:34 01.06.2020
2099 Rain 30 1010 79 0 4.23 191 00:58 01.06.2020
2100 Rain 30 1009 80 0 4.23 191 00:39 01.06.2020
2101 Rain 30 1009 79 0 4.24 191 00:21 01.06.2020
2102 Rain 30 1009 77 0 4.24 191 23:56 31.05.2020
2103 Rain 30 1009 77 0 4.24 191 23:37 31.05.2020
2104 Rain 30 1008 77 0 4.32 193 23:19 31.05.2020
2105 Rain 30 1009 80 0 4.32 193 22:43 31.05.2020
2106 Rain 30 1008 80 0 4.77 191 22:25 31.05.2020
2107 Rain 30 1009 80 0 4.77 191 21:58 31.05.2020
2108 Rain 30 1009 80 0 4.77 191 21:39 31.05.2020
2109 Rain 30 1009 79 0 4.85 191 21:21 31.05.2020
2110 Rain 30 1009 79 0 4.85 191 20:57 31.05.2020
2111 Rain 30 1009 79 0 4.85 191 20:38 31.05.2020
2112 Rain 30 1009 79 0 5.48 177 20:19 31.05.2020
2113 Rain 30 1009 78 0 5.48 177 19:54 31.05.2020
2114 Clouds 31 1012 83 10000 3.6 210 19:36 31.05.2020
2115 Rain 31 1010 77 0 5.36 174 19:18 31.05.2020
2116 Rain 31 1010 77 0 5.36 174 18:43 31.05.2020
2117 Clouds 31 1011 77 0 5.48 179 18:24 31.05.2020
2118 Clouds 31 1011 75 0 5.48 179 17:44 31.05.2020
2119 Clouds 31 1010 74 0 5.74 178 17:24 31.05.2020
2120 Clouds 31 1010 74 0 5.74 178 17:24 31.05.2020
2121 Clouds 31 1010 74 0 5.74 178 16:55 31.05.2020
2122 Clouds 32 1010 74 0 5.74 178 16:37 31.05.2020
2123 Clouds 32 1010 74 0 0.45 322 16:18 31.05.2020
2124 Clouds 34 1011 51 0 6.13 184 15:39 31.05.2020
2125 Clouds 34 1011 50 0 5.77 188 15:21 31.05.2020
2126 Clouds 34 1010 50 0 5.77 188 14:47 31.05.2020
2127 Rain 31 1008 71 0 0.45 155 14:21 31.05.2020
2128 Rain 33 1008 69 0 5.45 194 13:56 31.05.2020
2129 Rain 34 1009 46 0 5.45 194 13:38 31.05.2020
2130 Clouds 34 1009 46 0 5.63 168 13:20 31.05.2020
2131 Clouds 34 1009 46 0 5.63 168 13:20 31.05.2020
2132 Clouds 34 1009 47 0 5.63 168 12:56 31.05.2020
2133 Clouds 34 1009 47 0 5.63 168 12:37 31.05.2020
2134 Clouds 34 1008 47 0 4.83 173 12:18 31.05.2020
2135 Clouds 34 1007 49 0 4.83 173 11:47 31.05.2020
2136 Clouds 34 1007 49 0 4.11 182 11:23 31.05.2020
2137 Clouds 34 1007 51 0 4.11 182 10:55 31.05.2020
2138 Clouds 33 1008 51 0 4.11 182 10:37 31.05.2020
2139 Clouds 35 1008 51 0 3.41 190 10:18 31.05.2020
2140 Clouds 35 1008 51 0 3.41 190 09:42 31.05.2020
2141 Clouds 35 1009 52 0 4.25 188 09:22 31.05.2020
2142 Clouds 35 1010 56 10000 2.6 330 08:57 31.05.2020
2143 Clouds 35 1010 54 0 4.25 188 08:37 31.05.2020
2144 Clouds 35 1010 53 0 3.95 190 08:19 31.05.2020
2145 Clouds 34 1011 55 0 3.95 190 07:40 31.05.2020
2146 Clouds 34 1012 54 0 3.97 191 07:20 31.05.2020
2147 Clouds 34 1012 54 0 3.97 191 06:50 31.05.2020
2148 Clouds 34 1012 55 0 3.97 191 06:31 31.05.2020
2149 Clouds 33 1013 57 0 3.7 195 05:41 31.05.2020
2150 Clouds 31 1013 59 0 2.94 210 04:25 31.05.2020
2151 Clouds 30 1013 60 0 2.94 210 03:48 31.05.2020
2152 Clouds 31 1013 59 0 3.1 206 02:59 31.05.2020
2153 Clouds 27 1011 94 10000 3.35 192 01:48 31.05.2020
2154 Clouds 28 1011 94 10000 3.73 185 00:59 31.05.2020
2155 Rain 28 1011 94 9000 3.73 185 00:29 31.05.2020
2156 Rain 28 1011 94 8000 4.35 185 23:45 30.05.2020
2157 Rain 28 1011 94 8000 4.44 187 23:27 30.05.2020
2158 Rain 28 1011 94 8000 1.5 210 22:59 30.05.2020
2159 Rain 28 1011 88 9000 2.6 190 22:40 30.05.2020
2160 Rain 28 1011 88 9000 2.6 190 22:40 30.05.2020
2161 Rain 28 1011 88 9000 2.6 190 22:21 30.05.2020
2162 Thunderstorm 28 1012 88 8000 6.2 230 21:55 30.05.2020
2163 Thunderstorm 28 1012 88 8000 6.2 230 21:37 30.05.2020
2164 Thunderstorm 29 1012 88 8000 6.2 230 21:18 30.05.2020
2165 Thunderstorm 27 1011 88 8000 5.1 260 20:56 30.05.2020
2166 Clouds 27 1011 81 0 0.89 262 20:37 30.05.2020
2167 Clouds 29 1010 81 0 0.89 269 20:19 30.05.2020
2168 Clouds 31 1010 76 0 3.85 186 19:41 30.05.2020
2169 Clouds 29 1012 83 10000 2.6 170 19:21 30.05.2020
2170 Clouds 29 1012 83 10000 2.6 170 18:45 30.05.2020
2171 Clouds 29 1012 83 10000 2.6 170 18:22 30.05.2020
2172 Rain 31 1010 73 0 1.34 133 17:46 30.05.2020
2173 Rain 31 1010 73 0 2.24 128 17:26 30.05.2020
2174 Rain 31 1010 71 0 0.89 146 16:59 30.05.2020
2175 Rain 31 1010 71 0 0.89 146 16:59 30.05.2020
2176 Rain 31 1010 71 0 0.89 146 16:59 30.05.2020
2177 Clouds 30 1011 74 10000 3.1 170 16:41 30.05.2020
2178 Rain 31 1009 72 0 0.45 139 16:21 30.05.2020
2179 Rain 31 1009 72 0 0.45 122 15:45 30.05.2020
2180 Clouds 31 1009 72 0 0.45 197 15:26 30.05.2020
2181 Clouds 32 1008 72 0 0.89 146 14:46 30.05.2020
2182 Rain 32 1008 70 0 0.89 133 14:27 30.05.2020
2183 Rain 32 1007 69 0 0.89 132 13:44 30.05.2020
2184 Rain 32 1007 68 0 1.79 119 13:26 30.05.2020
2185 Clouds 32 1007 63 10000 3.6 190 12:43 30.05.2020
2186 Clouds 34 1008 45 0 4.36 180 12:23 30.05.2020
2187 Clouds 34 1008 44 0 4.36 180 11:59 30.05.2020
2188 Clouds 34 1008 46 0 4.36 180 11:41 30.05.2020
2189 Clouds 35 1008 46 0 4.85 184 11:22 30.05.2020
2190 Clouds 35 1008 46 0 4.85 184 10:55 30.05.2020
2191 Clouds 35 1008 47 0 4.85 184 10:37 30.05.2020
2192 Clouds 35 1008 50 0 4.54 184 10:19 30.05.2020
2193 Clouds 34 1007 63 0 1.34 273 09:42 30.05.2020
2194 Clouds 32 1009 70 10000 4.6 290 09:24 30.05.2020
2195 Clouds 33 1010 66 10000 2.1 80 08:41 30.05.2020
2196 Clouds 32 1010 66 10000 2.1 80 08:22 30.05.2020
2197 Clouds 33 1011 54 0 3.32 175 07:39 30.05.2020
2198 Clouds 32 1011 70 10000 3.1 120 07:18 30.05.2020
2199 Clouds 30 1011 74 10000 4.1 110 06:28 30.05.2020
2200 Clouds 29 1012 83 10000 4.6 120 05:49 30.05.2020
2201 Rain 30 1011 80 0 0.89 93 04:37 30.05.2020
2202 Rain 27 1012 94 9000 1.5 120 02:34 30.05.2020
2203 Rain 28 1012 100 9000 2.1 120 01:57 30.05.2020
2204 Clouds 28 1011 100 10000 1 150 00:44 30.05.2020
2205 Clouds 28 1011 100 10000 1 150 00:24 30.05.2020
2206 Clouds 28 1010 100 10000 1.78 216 23:59 29.05.2020
2207 Clouds 28 1010 100 10000 1.78 216 23:38 29.05.2020
2208 Clouds 26 1010 100 10000 1.62 231 23:19 29.05.2020
2209 Clouds 25 1010 94 10000 1.62 231 22:42 29.05.2020
2210 Clouds 25 1010 94 10000 2 238 22:21 29.05.2020
2211 Rain 26 1010 94 9000 2 238 22:00 29.05.2020
2212 Rain 26 1010 94 8000 1.5 210 21:39 29.05.2020
2213 Rain 26 1010 94 8000 1.5 210 21:21 29.05.2020
2214 Rain 26 1010 94 8000 2.6 210 20:56 29.05.2020
2215 Rain 26 1011 100 8000 2.1 210 20:37 29.05.2020
2216 Rain 26 1011 100 8000 2.1 210 20:37 29.05.2020
2217 Rain 26 1011 100 8000 2.1 210 20:18 29.05.2020
2218 Rain 27 1012 94 8000 3.6 210 19:42 29.05.2020
2219 Rain 27 1012 94 8000 3.6 210 19:24 29.05.2020
2220 Rain 28 1011 81 0 0.45 289 18:48 29.05.2020
2221 Rain 28 1012 94 9000 3.1 200 18:23 29.05.2020
2222 Rain 28 1012 94 9000 4.6 210 17:58 29.05.2020
2223 Rain 28 1011 94 10000 4.1 210 17:39 29.05.2020
2224 Rain 27 1011 94 10000 4.1 210 17:20 29.05.2020
2225 Clouds 29 1010 79 10000 7.7 240 16:46 29.05.2020
2226 Clouds 30 1010 77 0 5.89 160 16:28 29.05.2020
2227 Clouds 32 1009 66 0 1.34 268 15:59 29.05.2020
2228 Clouds 30 1009 70 0 5.89 160 15:40 29.05.2020
2229 Clouds 32 1008 70 0 0.89 9 15:21 29.05.2020
2230 Clouds 31 1008 79 10000 3.6 190 14:54 29.05.2020
2231 Clouds 34 1009 48 0 6.31 159 14:36 29.05.2020
2232 Clouds 35 1009 49 0 5.8 163 14:18 29.05.2020
2233 Clouds 35 1008 47 0 5.8 163 13:41 29.05.2020
2234 Clouds 35 1008 46 0 5.54 162 13:21 29.05.2020
2235 Clouds 35 1008 44 0 5.54 162 12:46 29.05.2020
2236 Clouds 35 1007 43 0 5.89 165 12:26 29.05.2020
2237 Clouds 35 1007 43 0 5.89 165 12:26 29.05.2020
2238 Clouds 35 1007 43 0 5.89 165 11:59 29.05.2020
2239 Clouds 35 1006 44 0 5.89 165 11:41 29.05.2020
2240 Clouds 35 1006 46 0 5.56 173 11:22 29.05.2020
2241 Clouds 36 1007 45 0 5.56 173 10:43 29.05.2020
2242 Clouds 35 1006 46 0 4.35 182 10:23 29.05.2020
2243 Clouds 35 1006 46 0 4.35 182 09:56 29.05.2020
2244 Clouds 35 1007 47 0 4.35 182 09:38 29.05.2020
2245 Clouds 34 1007 46 0 4.18 186 09:19 29.05.2020
2246 Clouds 35 1008 59 9000 3.1 180 08:46 29.05.2020
2247 Clouds 35 1008 46 0 3.73 198 08:23 29.05.2020
2248 Clouds 35 1009 47 0 3.73 198 07:47 29.05.2020
2249 Clouds 34 1009 48 0 3.73 198 07:29 29.05.2020
2250 Clouds 34 1009 48 0 2.65 197 06:55 29.05.2020
2251 Clouds 34 1010 50 0 2.65 197 06:37 29.05.2020
2252 Clouds 33 1010 50 0 2.3 183 06:18 29.05.2020
2253 Clouds 33 1011 50 0 2.39 172 05:24 29.05.2020
2254 Clouds 29 1009 78 10000 2.1 230 01:48 29.05.2020
2255 Clouds 29 1009 78 10000 2.1 230 01:26 29.05.2020
2256 Clouds 29 1009 78 10000 1.5 180 00:50 29.05.2020
2257 Clouds 29 1010 78 10000 2.1 220 00:23 29.05.2020
2258 Clouds 29 1009 83 10000 2.1 220 23:41 28.05.2020
2259 Clouds 29 1009 83 10000 2.1 220 23:20 28.05.2020
2260 Clouds 29 1009 83 10000 2.1 220 23:20 28.05.2020
2261 Clouds 29 1009 83 10000 2.1 210 22:59 28.05.2020
2262 Clouds 29 1009 78 10000 2.1 250 22:40 28.05.2020
2263 Clouds 29 1009 78 10000 2.1 250 22:20 28.05.2020
2264 Clouds 29 1009 78 10000 2.6 240 21:55 28.05.2020
2265 Clouds 29 1009 78 10000 2.6 250 21:36 28.05.2020
2266 Clouds 31 1008 67 0 1.25 289 21:18 28.05.2020
2267 Clouds 31 1008 65 0 1.25 289 20:41 28.05.2020
2268 Clouds 32 1008 65 0 0.32 236 20:20 28.05.2020
2269 Clouds 30 1010 83 10000 1.5 210 19:58 28.05.2020
2270 Clouds 30 1010 83 10000 1.5 190 19:40 28.05.2020
2271 Clouds 30 1010 83 10000 1.5 190 19:20 28.05.2020
2272 Clouds 30 1010 83 10000 2.1 150 18:57 28.05.2020
2273 Clouds 30 1010 83 10000 2.6 130 18:38 28.05.2020
2274 Clouds 30 1010 83 10000 2.6 130 18:20 28.05.2020
2275 Clouds 30 1010 74 10000 2.1 120 17:40 28.05.2020
2276 Clouds 30 1010 74 10000 2.1 120 17:21 28.05.2020
2277 Clouds 30 1010 78 10000 0.5 0 16:47 28.05.2020
2278 Clouds 30 1010 78 10000 0.5 0 16:21 28.05.2020
2279 Clouds 30 1010 78 10000 2.1 330 15:56 28.05.2020
2280 Clouds 30 1009 78 10000 2.1 290 15:38 28.05.2020
2281 Clouds 30 1009 78 10000 2.1 290 15:19 28.05.2020
2282 Rain 32 1009 83 9000 3.6 300 14:42 28.05.2020
2283 Rain 34 1007 59 0 0.45 311 14:22 28.05.2020
2284 Rain 35 1009 49 0 5.97 200 13:46 28.05.2020
2285 Rain 35 1009 48 0 4.94 180 13:28 28.05.2020
2286 Rain 36 1008 47 0 4.94 180 12:56 28.05.2020
2287 Rain 36 1008 42 0 4.94 180 12:37 28.05.2020
2288 Clouds 37 1008 40 0 4.54 181 12:18 28.05.2020
2289 Clouds 37 1006 40 0 4.54 181 11:40 28.05.2020
2290 Clouds 37 1006 39 0 4.56 186 11:22 28.05.2020
2291 Clouds 37 1006 39 0 4.56 186 10:50 28.05.2020
2292 Clouds 37 1006 40 0 4.76 190 10:28 28.05.2020
2293 Clouds 37 1006 40 0 4.76 190 10:28 28.05.2020
2294 Clouds 37 1006 40 0 4.76 190 09:59 28.05.2020
2295 Clouds 37 1006 40 0 4.76 190 09:38 28.05.2020
2296 Clouds 37 1006 40 0 4.76 190 09:38 28.05.2020
2297 Clouds 37 1006 41 0 4.53 193 09:18 28.05.2020
2298 Clouds 37 1007 40 0 4.43 191 08:44 28.05.2020
2299 Clouds 37 1007 41 0 3.57 195 08:25 28.05.2020
2300 Clouds 37 1008 41 0 3.57 195 07:45 28.05.2020
2301 Clouds 37 1009 43 0 2.86 203 07:23 28.05.2020
2302 Clouds 36 1009 42 0 2.86 203 06:45 28.05.2020
2303 Clouds 34 1008 51 0 0.45 161 06:27 28.05.2020
2304 Clouds 33 1008 53 0 0.45 119 05:40 28.05.2020
2305 Clouds 32 1009 56 0 0.45 215 04:39 28.05.2020
2306 Clouds 33 1009 58 0 0.45 269 04:20 28.05.2020
2307 Clouds 30 1010 70 10000 2.04 245 02:59 28.05.2020
2308 Clouds 30 1010 74 10000 1.5 240 02:38 28.05.2020
2309 Clouds 30 1009 74 10000 2.58 264 01:45 28.05.2020
2310 Clouds 30 1009 74 10000 1.5 320 00:49 28.05.2020
2311 Clouds 30 1008 74 10000 1.5 10 00:20 28.05.2020
2312 Clouds 30 1008 74 10000 1 0 23:56 27.05.2020
2313 Clouds 30 1008 74 10000 1 0 23:56 27.05.2020
2314 Clouds 30 1008 74 10000 1.5 280 23:37 27.05.2020
2315 Clouds 30 1007 64 0 2.93 265 23:19 27.05.2020
2316 Clouds 30 1007 63 0 0.45 324 22:41 27.05.2020
2317 Clouds 30 1007 63 0 0.45 271 22:23 27.05.2020
2318 Clouds 30 1007 63 0 3.49 261 21:56 27.05.2020
2319 Clouds 30 1007 65 0 3.49 261 21:38 27.05.2020
2320 Clouds 30 1008 74 10000 2.1 230 21:20 27.05.2020
2321 Clouds 30 1009 74 10000 2.1 290 20:58 27.05.2020
2322 Clouds 30 1009 74 10000 2.1 290 20:58 27.05.2020
2323 Clouds 30 1009 74 10000 1.5 230 20:39 27.05.2020
2324 Clouds 30 1009 74 10000 1.5 230 20:19 27.05.2020
2325 Clouds 31 1010 74 10000 2.6 240 19:45 27.05.2020
2326 Clouds 31 1008 67 0 4.02 177 19:21 27.05.2020
2327 Clouds 31 1008 67 0 4.02 177 18:45 27.05.2020
2328 Clouds 31 1009 66 0 4.61 182 18:23 27.05.2020
2329 Clouds 32 1008 66 0 4.61 182 17:59 27.05.2020
2330 Clouds 32 1008 67 0 0.45 275 17:40 27.05.2020
2331 Clouds 32 1009 68 0 4.6 186 17:22 27.05.2020
2332 Clouds 32 1009 67 0 0.45 142 16:56 27.05.2020
2333 Clouds 32 1010 66 0 0.45 257 16:38 27.05.2020
2334 Clouds 33 1010 65 0 0.45 306 16:19 27.05.2020
2335 Clouds 33 1008 63 0 0.45 33 15:48 27.05.2020
2336 Clouds 33 1008 62 0 0.45 251 15:22 27.05.2020
2337 Clouds 34 1007 61 0 0.45 283 14:47 27.05.2020
2338 Clouds 36 1008 42 0 2.27 220 14:23 27.05.2020
2339 Clouds 36 1008 41 0 1.82 197 13:59 27.05.2020
2340 Clouds 36 1008 40 0 1.82 197 13:41 27.05.2020
2341 Clouds 36 1007 39 0 1.92 224 13:22 27.05.2020
2342 Clouds 36 1007 41 0 1.92 224 12:42 27.05.2020
2343 Clouds 37 1006 41 0 2.89 235 12:23 27.05.2020
2344 Clouds 36 1006 40 0 2.89 235 11:56 27.05.2020
2345 Clouds 36 1006 40 0 2.89 235 11:37 27.05.2020
2346 Clouds 37 1006 40 0 3.59 233 11:18 27.05.2020
2347 Clouds 36 1006 40 0 3.59 233 10:43 27.05.2020
2348 Clouds 36 1006 41 0 3.25 262 10:24 27.05.2020
2349 Clouds 36 1007 41 0 3.25 262 09:57 27.05.2020
2350 Clouds 36 1007 41 0 3.25 262 09:57 27.05.2020
2351 Clouds 36 1007 40 0 3.25 262 09:39 27.05.2020
2352 Clouds 36 1007 39 0 3.25 284 09:20 27.05.2020
2353 Clouds 36 1008 39 0 3.23 281 08:42 27.05.2020
2354 Clouds 36 1008 39 0 3.23 281 08:42 27.05.2020
2355 Clouds 35 1008 39 0 3.14 284 08:24 27.05.2020
2356 Clouds 37 1009 39 0 3.14 284 07:53 27.05.2020
2357 Clouds 36 1009 40 0 3.14 284 07:34 27.05.2020
2358 Clouds 36 1010 41 0 2.67 269 06:56 27.05.2020
2359 Clouds 34 1008 47 0 0.89 267 06:30 27.05.2020
2360 Clouds 35 1011 45 0 2.38 245 05:50 27.05.2020
2361 Clouds 32 1009 54 0 2.14 234 05:28 27.05.2020
2362 Clouds 33 1012 53 0 2.16 241 03:39 27.05.2020
2363 Clouds 28 1010 94 10000 1.5 130 02:30 27.05.2020
2364 Clouds 30 1008 78 0 1.78 257 01:34 27.05.2020
2365 Clouds 28 1009 94 10000 1.5 120 00:58 27.05.2020
2366 Clouds 30 1008 77 0 1.93 254 00:40 27.05.2020
2367 Clouds 30 1008 77 0 2.17 234 00:18 27.05.2020
2368 Clouds 30 1008 76 0 2.17 234 23:41 26.05.2020
2369 Clouds 30 1008 77 0 1.97 214 23:23 26.05.2020
2370 Clouds 30 1008 76 0 1.97 214 22:58 26.05.2020
2371 Clouds 30 1007 76 0 1.97 214 22:38 26.05.2020
2372 Clouds 30 1007 76 0 2 195 22:19 26.05.2020
2373 Clouds 30 1007 76 0 2 195 21:56 26.05.2020
2374 Clouds 30 1007 76 0 2 195 21:38 26.05.2020
2375 Clouds 30 1007 76 0 2.58 167 21:19 26.05.2020
2376 Clouds 31 1007 75 0 2.58 167 20:42 26.05.2020
2377 Clouds 31 1007 74 0 3.02 173 20:21 26.05.2020
2378 Clouds 31 1008 73 0 3.02 173 19:55 26.05.2020
2379 Clouds 31 1008 73 0 3.02 173 19:37 26.05.2020
2380 Clouds 31 1009 73 0 3.28 165 19:18 26.05.2020
2381 Clouds 31 1009 73 0 3.28 165 18:41 26.05.2020
2382 Clouds 31 1009 74 0 2.91 168 18:21 26.05.2020
2383 Clouds 31 1009 74 0 2.91 168 17:43 26.05.2020
2384 Clouds 31 1010 74 0 2.8 177 17:24 26.05.2020
2385 Clouds 31 1010 74 0 2.8 177 16:59 26.05.2020
2386 Clouds 31 1010 73 0 0.45 269 16:41 26.05.2020
2387 Clouds 31 1010 73 0 2.46 197 16:19 26.05.2020
2388 Clouds 31 1009 72 0 2.46 197 15:43 26.05.2020
2389 Clouds 30 1009 70 0 2.17 222 15:21 26.05.2020
2390 Clouds 30 1009 69 0 2.17 222 14:56 26.05.2020
2391 Clouds 33 1010 52 0 2.17 222 14:38 26.05.2020
2392 Rain 34 1010 52 0 2.29 278 14:20 26.05.2020
2393 Rain 34 1010 51 0 4.29 237 13:41 26.05.2020
2394 Clouds 34 1010 51 0 4.3 241 13:23 26.05.2020
2395 Clouds 35 1009 50 0 4.3 241 12:57 26.05.2020
2396 Clouds 35 1009 47 0 4.3 241 12:38 26.05.2020
2397 Clouds 34 1009 55 0 4.09 240 12:19 26.05.2020
2398 Clouds 35 1007 63 0 4.09 240 11:41 26.05.2020
2399 Clouds 35 1007 64 0 3.8 223 11:21 26.05.2020
2400 Clouds 35 1008 48 0 3.8 223 10:57 26.05.2020
2401 Clouds 35 1008 48 0 3.8 223 10:38 26.05.2020
2402 Clouds 35 1008 49 0 4.14 213 10:18 26.05.2020
2403 Clouds 33 1007 70 0 4.14 213 09:38 26.05.2020
2404 Clouds 30 1007 70 0 3.28 163 09:19 26.05.2020
2405 Clouds 30 1008 72 0 3.28 163 08:42 26.05.2020
2406 Clouds 31 1011 75 10000 1.5 180 08:22 26.05.2020
2407 Clouds 31 1009 77 0 2.55 176 07:44 26.05.2020
2408 Clouds 31 1009 77 0 2.55 176 07:44 26.05.2020
2409 Rain 30 1010 80 0 1.2 170 07:24 26.05.2020
2410 Rain 33 1011 53 0 1.2 170 06:54 26.05.2020
2411 Rain 33 1012 53 0 1.2 170 06:35 26.05.2020
2412 Rain 31 1010 81 0 0.66 301 05:44 26.05.2020
2413 Rain 31 1011 82 0 1.65 234 05:25 26.05.2020
2414 Rain 31 1011 81 0 1.65 234 04:49 26.05.2020
2415 Clouds 30 1012 74 8000 1.5 210 04:30 26.05.2020
2416 Clouds 30 1011 79 8000 1.5 0 03:50 26.05.2020
2417 Clouds 29 1011 94 7000 3.84 191 02:40 26.05.2020
2418 Clouds 29 1010 100 7000 2.63 204 01:47 26.05.2020
2419 Clouds 29 1010 100 8000 3.17 198 00:56 26.05.2020
2420 Clouds 29 1010 100 8000 1 110 00:36 26.05.2020
2421 Clouds 29 1010 100 8000 1 110 00:36 26.05.2020
2422 Clouds 29 1010 94 8000 1.5 30 00:18 26.05.2020
2423 Clouds 29 1009 94 8000 2.6 30 23:39 25.05.2020
2424 Clouds 29 1009 94 8000 2.6 30 23:20 25.05.2020
2425 Clouds 29 1009 94 8000 1.5 30 22:56 25.05.2020
2426 Clouds 29 1009 94 8000 1.5 30 22:56 25.05.2020
2427 Clouds 29 1009 88 9000 1.5 60 22:38 25.05.2020
2428 Clouds 29 1009 88 9000 1.5 60 22:20 25.05.2020
2429 Clouds 29 1009 88 10000 1.5 80 21:59 25.05.2020
2430 Clouds 29 1009 88 10000 1 100 21:39 25.05.2020
2431 Clouds 29 1009 88 10000 1 100 21:20 25.05.2020
2432 Clouds 29 1010 88 10000 2.6 130 20:59 25.05.2020
2433 Clouds 29 1010 88 10000 2.6 120 20:41 25.05.2020
2434 Clouds 29 1010 88 10000 2.6 120 20:20 25.05.2020
2435 Clouds 29 1010 88 10000 3.1 120 19:57 25.05.2020
2436 Clouds 29 1011 88 10000 2.6 110 19:38 25.05.2020
2437 Clouds 29 1011 83 10000 2.1 150 19:18 25.05.2020
2438 Clouds 29 1011 83 10000 2.1 150 19:18 25.05.2020
2439 Clouds 29 1012 83 10000 1.5 170 18:43 25.05.2020
2440 Clouds 29 1012 83 10000 1.5 170 18:22 25.05.2020
2441 Clouds 29 1012 78 10000 1 180 17:57 25.05.2020
2442 Clouds 29 1012 78 10000 0.5 200 17:38 25.05.2020
2443 Clouds 29 1012 78 10000 0.5 200 17:20 25.05.2020
2444 Clouds 29 1012 83 10000 2.2 32 16:55 25.05.2020
2445 Clouds 29 1012 83 10000 1 100 16:36 25.05.2020
2446 Rain 29 1011 83 10000 2.6 90 16:18 25.05.2020
2447 Rain 30 1010 83 10000 3.6 50 15:42 25.05.2020
2448 Rain 31 1009 74 0 5.41 281 15:18 25.05.2020
2449 Rain 30 1009 72 0 5.41 281 14:43 25.05.2020
2450 Rain 32 1009 72 0 6.24 174 14:25 25.05.2020
2451 Rain 33 1008 71 0 6.24 174 13:57 25.05.2020
2452 Rain 34 1008 69 0 6.24 174 13:38 25.05.2020
2453 Rain 34 1008 68 0 5.77 161 13:20 25.05.2020
2454 Rain 35 1009 47 0 5.77 161 12:55 25.05.2020
2455 Rain 35 1009 47 0 5.77 161 12:55 25.05.2020
2456 Rain 35 1009 47 0 5.77 161 12:36 25.05.2020
2457 Clouds 35 1009 47 0 5.95 151 12:18 25.05.2020
2458 Clouds 35 1008 48 0 5.95 151 11:38 25.05.2020
2459 Clouds 35 1008 47 0 5.17 153 11:19 25.05.2020
2460 Clouds 35 1008 46 0 5.17 153 10:44 25.05.2020
2461 Clouds 35 1008 46 0 5.14 156 10:21 25.05.2020
2462 Clouds 35 1008 46 0 5.14 156 09:59 25.05.2020
2463 Clouds 35 1008 47 0 5.14 156 09:40 25.05.2020
2464 Clouds 32 1009 75 10000 4.6 150 09:19 25.05.2020
2465 Clouds 31 1010 70 10000 4.1 150 08:58 25.05.2020
2466 Clouds 31 1011 75 10000 3.6 150 08:36 25.05.2020
2467 Clouds 31 1009 79 0 0.45 112 08:18 25.05.2020
2468 Clouds 31 1009 80 0 3.51 167 07:43 25.05.2020
2469 Clouds 31 1009 81 0 3.06 174 07:21 25.05.2020
2470 Clouds 33 1009 80 0 3.06 174 06:52 25.05.2020
2471 Clouds 31 1011 75 10000 3.1 150 06:31 25.05.2020
2472 Clouds 30 1010 82 0 3.92 171 04:18 25.05.2020
2473 Clouds 29 1011 89 10000 1.5 130 03:23 25.05.2020
2474 Clouds 29 1010 94 10000 1.5 100 02:45 25.05.2020
2475 Rain 28 1010 94 8000 3.18 176 01:54 25.05.2020
2476 Rain 28 1010 94 8000 3.33 194 01:28 25.05.2020
2477 Rain 28 1010 94 8000 3.33 194 01:28 25.05.2020
2478 Thunderstorm 28 1009 94 8000 1.5 110 00:42 25.05.2020
2479 Rain 31 1008 88 0 3.92 187 00:20 25.05.2020
2480 Rain 31 1008 87 0 3.92 187 23:56 24.05.2020
2481 Rain 31 1008 87 0 3.92 187 23:37 24.05.2020
2482 Rain 31 1008 86 0 4.97 182 23:18 24.05.2020
2483 Rain 31 1007 84 0 4.97 182 22:41 24.05.2020
2484 Clouds 31 1007 83 0 5.54 179 22:19 24.05.2020
2485 Clouds 29 1009 94 10000 1 50 21:56 24.05.2020
2486 Rain 29 1009 94 9000 1.5 130 21:38 24.05.2020
2487 Rain 31 1007 82 0 5.07 155 21:19 24.05.2020
2488 Rain 31 1007 81 0 5.07 155 20:44 24.05.2020
2489 Clouds 31 1007 82 0 4.94 148 20:23 24.05.2020
2490 Clouds 31 1007 83 0 4.94 148 19:59 24.05.2020
2491 Clouds 31 1008 82 0 4.94 148 19:41 24.05.2020
2492 Clouds 31 1009 82 0 4.92 145 19:19 24.05.2020
2493 Clouds 31 1009 82 0 4.92 145 19:19 24.05.2020
2494 Clouds 31 1009 81 0 0.45 283 18:57 24.05.2020
2495 Thunderstorm 29 1011 88 7000 2.1 150 18:38 24.05.2020
2496 Clouds 32 1010 82 0 0.89 324 18:20 24.05.2020
2497 Clouds 32 1009 76 0 0.45 99 17:41 24.05.2020
2498 Clouds 33 1009 75 0 0.45 155 17:22 24.05.2020
2499 Clouds 33 1009 75 0 4.4 158 16:58 24.05.2020
2500 Clouds 30 1010 83 10000 3.6 100 16:38 24.05.2020
2501 Clouds 30 1010 79 10000 3.1 110 16:20 24.05.2020
2502 Clouds 30 1010 79 10000 3.1 110 16:20 24.05.2020
2503 Clouds 30 1010 79 10000 3.1 110 15:57 24.05.2020
2504 Clouds 30 1009 79 10000 3.1 130 15:38 24.05.2020
2505 Clouds 30 1009 79 10000 3.1 130 15:38 24.05.2020
2506 Rain 31 1008 76 0 0.45 141 15:19 24.05.2020
2507 Rain 32 1008 75 0 0.45 147 14:46 24.05.2020
2508 Rain 32 1007 75 0 0.89 123 14:25 24.05.2020
2509 Rain 32 1006 74 0 5.11 168 13:59 24.05.2020
2510 Rain 32 1006 74 0 5.11 168 13:41 24.05.2020
2511 Rain 34 1007 51 0 4.69 164 13:22 24.05.2020
2512 Rain 34 1007 51 0 4.69 164 12:59 24.05.2020
2513 Rain 34 1007 52 0 4.69 164 12:40 24.05.2020
2514 Clouds 35 1007 52 0 4.46 172 12:22 24.05.2020
2515 Clouds 35 1007 51 0 4.46 172 11:59 24.05.2020
2516 Clouds 35 1007 52 0 4.46 172 11:41 24.05.2020
2517 Clouds 35 1007 52 0 4.46 172 11:41 24.05.2020
2518 Clouds 35 1007 51 0 4.43 165 11:22 24.05.2020
2519 Clouds 35 1007 52 0 4.43 165 10:58 24.05.2020
2520 Clouds 35 1006 54 0 4.43 165 10:39 24.05.2020
2521 Clouds 36 1006 54 0 3.89 165 10:21 24.05.2020
2522 Clouds 36 1006 54 0 3.89 165 10:21 24.05.2020
2523 Clouds 36 1007 52 0 3.89 165 09:41 24.05.2020
2524 Clouds 36 1007 52 0 2.98 167 09:19 24.05.2020
2525 Clouds 35 1007 55 0 3.36 170 08:57 24.05.2020
2526 Clouds 36 1008 51 0 3.36 170 08:39 24.05.2020
2527 Clouds 35 1008 54 0 3.04 156 08:20 24.05.2020
2528 Clouds 36 1009 54 0 3.04 156 07:49 24.05.2020
2529 Clouds 36 1009 53 0 2.76 143 07:25 24.05.2020
2530 Clouds 36 1009 51 0 2.76 143 06:57 24.05.2020
2531 Clouds 35 1008 62 0 2.76 143 06:36 24.05.2020
2532 Clouds 33 1010 79 9000 2.1 120 04:54 24.05.2020
2533 Clouds 31 1009 84 10000 2.1 90 03:42 24.05.2020
2534 Clouds 29 1008 89 10000 2.1 70 02:46 24.05.2020
2535 Clouds 30 1008 94 10000 1.5 110 01:47 24.05.2020
2536 Clouds 30 1007 94 10000 3.1 100 00:41 24.05.2020
2537 Clouds 29 1007 94 10000 3.1 100 00:22 24.05.2020
2538 Clouds 30 1007 89 10000 2.6 110 23:44 23.05.2020
2539 Clouds 31 1007 89 10000 2.6 110 23:25 23.05.2020
2540 Clouds 31 1007 89 10000 2.6 110 22:59 23.05.2020
2541 Clouds 31 1007 89 10000 2.6 120 22:39 23.05.2020
2542 Clouds 31 1007 89 10000 2.6 120 22:20 23.05.2020
2543 Rain 31 1006 79 0 0.45 125 21:58 23.05.2020
2544 Rain 31 1006 79 0 0.45 144 21:40 23.05.2020
2545 Rain 31 1006 79 0 2.2 217 21:20 23.05.2020
2546 Rain 31 1006 79 0 2.2 217 21:20 23.05.2020
2547 Rain 31 1006 79 0 0.45 126 20:58 23.05.2020
2548 Rain 31 1007 78 0 0.89 131 20:38 23.05.2020
2549 Rain 31 1007 78 0 0.89 131 20:38 23.05.2020
2550 Rain 31 1007 76 0 0.89 135 20:19 23.05.2020
2551 Rain 32 1007 74 0 0.45 115 19:42 23.05.2020
2552 Rain 32 1008 74 0 3.36 186 19:20 23.05.2020
2553 Rain 32 1008 74 0 3.36 186 18:59 23.05.2020
2554 Rain 32 1008 74 0 3.36 186 18:40 23.05.2020
2555 Rain 32 1008 74 0 3.36 186 18:40 23.05.2020
2556 Rain 32 1008 74 0 5.12 167 18:22 23.05.2020
2557 Rain 32 1008 73 0 5.12 167 17:56 23.05.2020
2558 Rain 32 1008 73 0 5.12 167 17:38 23.05.2020
2559 Clouds 32 1008 73 0 0.45 324 17:19 23.05.2020
2560 Clouds 32 1007 73 0 5.37 168 16:56 23.05.2020
2561 Clouds 32 1007 72 0 5.37 168 16:38 23.05.2020
2562 Clouds 32 1007 71 0 6.25 177 16:19 23.05.2020
2563 Clouds 32 1006 71 0 0.45 54 15:42 23.05.2020
2564 Clouds 33 1006 70 0 0.45 324 15:24 23.05.2020
2565 Clouds 33 1006 70 0 0.45 324 15:24 23.05.2020
2566 Clouds 32 1006 70 0 0.45 271 14:57 23.05.2020
2567 Clouds 32 1006 70 0 0.45 271 14:57 23.05.2020
2568 Clouds 36 1007 48 0 6.65 170 14:38 23.05.2020
2569 Clouds 35 1006 46 0 6.71 170 14:20 23.05.2020
2570 Clouds 34 1006 44 0 6.71 170 13:40 23.05.2020
2571 Clouds 36 1006 45 0 5.99 165 13:19 23.05.2020
2572 Clouds 36 1005 46 0 5.99 165 12:56 23.05.2020
2573 Clouds 36 1005 49 0 5.99 165 12:36 23.05.2020
2574 Clouds 36 1005 47 0 5.42 170 12:18 23.05.2020
2575 Clouds 36 1005 45 0 5.42 170 11:42 23.05.2020
2576 Clouds 36 1004 42 0 5.16 176 11:21 23.05.2020
2577 Clouds 37 1004 43 0 5.16 176 10:56 23.05.2020
2578 Clouds 37 1004 42 0 5.16 176 10:38 23.05.2020
2579 Clouds 37 1004 44 0 4.07 185 10:19 23.05.2020
2580 Clouds 37 1005 47 0 4.07 185 09:55 23.05.2020
2581 Clouds 37 1005 47 0 4.07 185 09:55 23.05.2020
2582 Clouds 36 1005 47 0 4.07 185 09:37 23.05.2020
2583 Clouds 36 1005 52 0 3.08 188 09:19 23.05.2020
2584 Clouds 36 1006 51 0 3.08 188 08:41 23.05.2020
2585 Clouds 36 1007 50 0 2.92 211 08:19 23.05.2020
2586 Clouds 36 1007 48 0 2.92 211 07:46 23.05.2020
2587 Clouds 36 1007 45 0 2.76 231 07:27 23.05.2020
2588 Clouds 37 1008 44 0 2.76 231 06:44 23.05.2020
2589 Clouds 37 1008 43 0 2.02 241 06:19 23.05.2020
2590 Clouds 34 1007 62 0 0.45 303 04:27 23.05.2020
2591 Clouds 32 1008 63 10000 4.1 230 03:26 23.05.2020
2592 Clouds 32 1007 79 10000 2.6 200 02:42 23.05.2020
2593 Clouds 31 1007 79 10000 2.1 180 01:53 23.05.2020
2594 Clouds 31 1007 79 10000 2.1 180 01:20 23.05.2020
2595 Clouds 31 1006 79 10000 2.1 170 00:44 23.05.2020
2596 Clouds 31 1006 79 10000 2.1 170 00:22 23.05.2020
2597 Clouds 31 1006 79 10000 2.1 170 23:47 22.05.2020
2598 Clouds 31 1006 79 10000 2.1 170 23:22 22.05.2020
2599 Clouds 31 1006 79 10000 1.5 180 22:59 22.05.2020
2600 Clouds 31 1006 79 10000 2.6 200 22:41 22.05.2020
2601 Rain 31 1005 71 0 4.74 187 22:21 22.05.2020
2602 Rain 31 1005 71 0 4.74 187 21:55 22.05.2020
2603 Rain 31 1005 71 0 4.74 187 21:55 22.05.2020
2604 Rain 31 1005 70 0 4.74 187 21:36 22.05.2020
2605 Rain 31 1006 70 0 4.7 173 21:18 22.05.2020
2606 Rain 31 1006 70 0 4.7 173 20:42 22.05.2020
2607 Clouds 31 1007 79 10000 4.6 210 20:20 22.05.2020
2608 Clouds 32 1008 74 10000 4.6 210 19:45 22.05.2020
2609 Clouds 31 1008 74 10000 4.6 210 19:26 22.05.2020
2610 Clouds 32 1008 74 10000 4.1 210 18:57 22.05.2020
2611 Clouds 31 1007 68 0 0.45 62 18:38 22.05.2020
2612 Clouds 32 1007 67 0 5.02 181 18:19 22.05.2020
2613 Clouds 33 1006 67 0 0.45 281 17:40 22.05.2020
2614 Clouds 33 1006 66 0 0.89 168 17:20 22.05.2020
2615 Clouds 33 1006 65 0 5.19 185 16:57 22.05.2020
2616 Clouds 33 1006 64 0 0.45 342 16:39 22.05.2020
2617 Clouds 34 1006 63 0 0.45 255 16:19 22.05.2020
2618 Clouds 34 1005 61 0 0.45 300 15:42 22.05.2020
2619 Rain 34 1005 61 0 0.45 284 15:22 22.05.2020
2620 Rain 34 1004 60 0 0.45 332 14:56 22.05.2020
2621 Rain 34 1004 58 0 5.68 186 14:38 22.05.2020
2622 Rain 34 1004 58 0 0.45 306 14:20 22.05.2020
2623 Rain 35 1003 53 0 0.45 283 13:41 22.05.2020
2624 Rain 37 1004 42 0 5 152 13:19 22.05.2020
2625 Rain 36 1002 53 0 5 152 12:43 22.05.2020
2626 Rain 36 1002 53 0 5 152 12:43 22.05.2020
2627 Clouds 38 1003 41 0 5.01 164 12:24 22.05.2020
2628 Clouds 38 1004 40 0 5.01 164 11:47 22.05.2020
2629 Clouds 38 1004 39 0 5.2 169 11:22 22.05.2020
2630 Clouds 38 1004 39 0 5.2 169 10:59 22.05.2020
2631 Clouds 38 1004 40 0 5.2 169 10:39 22.05.2020
2632 Clouds 38 1004 41 0 5.29 173 10:20 22.05.2020
2633 Clouds 38 1004 43 0 5.29 173 09:55 22.05.2020
2634 Clouds 38 1005 43 0 3.49 192 09:36 22.05.2020
2635 Clouds 38 1005 44 0 2.93 197 09:18 22.05.2020
2636 Clouds 38 1006 42 0 2.93 197 08:41 22.05.2020
2637 Clouds 38 1007 50 10000 2.6 260 08:19 22.05.2020
2638 Clouds 38 1007 41 0 2.64 221 07:52 22.05.2020
2639 Clouds 36 1007 45 0 2.49 195 07:23 22.05.2020
2640 Clouds 36 1008 42 0 2.49 195 06:52 22.05.2020
2641 Clouds 34 1008 56 10000 3.1 250 06:29 22.05.2020
2642 Clouds 33 1008 59 10000 3.6 290 05:37 22.05.2020
2643 Clouds 33 1008 59 10000 3.6 290 05:37 22.05.2020
2644 Clouds 34 1007 54 0 0.45 254 04:50 22.05.2020
2645 Clouds 33 1007 57 0 0.45 267 03:52 22.05.2020
2646 Clouds 31 1008 66 10000 4.1 280 03:33 22.05.2020
2647 Clouds 31 1007 66 10000 2.6 250 02:55 22.05.2020
2648 Clouds 30 1006 74 10000 3.1 250 01:48 22.05.2020
2649 Clouds 30 1006 74 10000 3.1 250 01:22 22.05.2020
2650 Clouds 30 1006 70 10000 3.6 240 00:34 22.05.2020
2651 Clouds 30 1006 70 10000 3.6 250 23:58 21.05.2020
2652 Clouds 30 1006 70 10000 4.1 250 23:40 21.05.2020
2653 Clouds 30 1006 70 10000 4.1 250 23:22 21.05.2020
2654 Clouds 30 1006 74 10000 4.1 260 22:57 21.05.2020
2655 Clouds 31 1006 74 10000 4.1 240 22:37 21.05.2020
2656 Clouds 31 1006 74 10000 4.1 240 22:19 21.05.2020
2657 Clouds 30 1006 84 10000 3.6 210 21:47 21.05.2020
2658 Clouds 30 1005 75 0 0.45 148 21:27 21.05.2020
2659 Clouds 30 1007 84 10000 3.6 210 20:57 21.05.2020
2660 Clouds 31 1007 79 10000 4.1 210 20:39 21.05.2020
2661 Clouds 30 1005 73 0 3.48 141 20:21 21.05.2020
2662 Clouds 31 1007 79 10000 4.1 210 19:40 21.05.2020
2663 Clouds 31 1007 79 10000 4.1 210 19:20 21.05.2020
2664 Clouds 31 1007 79 10000 4.1 210 18:57 21.05.2020
2665 Clouds 31 1007 74 10000 4.1 210 18:36 21.05.2020
2666 Clouds 31 1008 74 10000 4.1 210 18:18 21.05.2020
2667 Clouds 32 1007 74 10000 3.6 210 17:45 21.05.2020
2668 Clouds 32 1007 74 10000 3.6 210 17:26 21.05.2020
2669 Clouds 33 1007 70 10000 3.6 200 16:48 21.05.2020
2670 Rain 32 1006 68 0 4.52 167 16:27 21.05.2020
2671 Rain 32 1006 67 0 0.45 276 15:59 21.05.2020
2672 Rain 33 1006 66 0 0.45 287 15:40 21.05.2020
2673 Rain 34 1006 65 0 0.45 170 15:21 21.05.2020
2674 Rain 33 1005 63 0 0.89 278 14:41 21.05.2020
2675 Clouds 33 1005 63 10000 2.6 220 14:22 21.05.2020
2676 Clouds 34 1005 59 10000 3.6 240 13:55 21.05.2020
2677 Clouds 34 1005 63 10000 3.6 210 13:37 21.05.2020
2678 Rain 34 1004 59 0 0.45 295 13:18 21.05.2020
2679 Rain 34 1003 56 0 0.45 228 12:39 21.05.2020
2680 Rain 37 1004 43 0 4.25 189 12:20 21.05.2020
2681 Rain 37 1004 44 0 4.25 189 11:56 21.05.2020
2682 Rain 37 1005 44 0 4.25 189 11:37 21.05.2020
2683 Rain 37 1005 45 0 5.25 205 11:19 21.05.2020
2684 Rain 37 1005 44 0 5.25 205 10:43 21.05.2020
2685 Clouds 37 1006 44 0 3.17 191 10:23 21.05.2020
2686 Clouds 37 1006 41 0 3.17 191 09:57 21.05.2020
2687 Clouds 38 1006 40 0 3.17 191 09:39 21.05.2020
2688 Clouds 37 1006 40 0 3.66 184 09:21 21.05.2020
2689 Clouds 37 1006 40 0 3.66 184 08:48 21.05.2020
2690 Clouds 38 1006 39 0 3.66 184 08:29 21.05.2020
2691 Clouds 37 1007 40 0 3.45 193 07:49 21.05.2020
2692 Clouds 37 1008 41 0 3.36 211 07:28 21.05.2020
2693 Clouds 37 1008 40 0 3.36 211 06:55 21.05.2020
2694 Clouds 35 1007 54 0 1.34 190 06:25 21.05.2020
2695 Clouds 34 1007 56 0 0.89 291 05:47 21.05.2020
2696 Clouds 31 1009 66 10000 2.6 200 03:22 21.05.2020
2697 Clouds 31 1007 68 0 0.45 275 02:54 21.05.2020
2698 Clouds 30 1008 74 10000 1.5 210 02:30 21.05.2020
2699 Clouds 30 1007 74 10000 2.1 170 01:47 21.05.2020
2700 Clouds 30 1007 74 10000 2.1 170 01:23 21.05.2020
2701 Clouds 30 1007 74 10000 2.6 200 00:53 21.05.2020
2702 Clouds 30 1007 74 10000 2.6 230 00:24 21.05.2020
2703 Clouds 30 1006 74 10000 2.1 240 23:46 20.05.2020
2704 Clouds 30 1006 74 10000 2.1 240 23:21 20.05.2020
2705 Clouds 30 1006 74 10000 1.5 250 22:59 20.05.2020
2706 Clouds 30 1007 74 10000 2.1 250 22:41 20.05.2020
2707 Clouds 30 1007 74 10000 2.1 250 22:23 20.05.2020
2708 Clouds 30 1007 79 10000 2.1 270 21:42 20.05.2020
2709 Clouds 30 1007 79 10000 2.1 270 21:23 20.05.2020
2710 Clouds 29 1007 83 10000 2.6 210 20:55 20.05.2020
2711 Clouds 30 1007 79 10000 1.5 190 20:37 20.05.2020
2712 Clouds 30 1007 79 10000 1.5 190 20:19 20.05.2020
2713 Clouds 30 1008 83 10000 2.6 210 19:39 20.05.2020
2714 Clouds 31 1008 83 10000 2.6 210 19:20 20.05.2020
2715 Clouds 31 1008 79 10000 2.6 210 18:56 20.05.2020
2716 Clouds 31 1008 79 10000 3.1 210 18:38 20.05.2020
2717 Clouds 31 1008 79 10000 3.1 210 18:18 20.05.2020
2718 Clouds 31 1008 79 10000 4.6 210 17:38 20.05.2020
2719 Clouds 31 1008 79 10000 4.6 210 17:19 20.05.2020
2720 Clouds 32 1007 74 10000 4.1 200 16:42 20.05.2020
2721 Clouds 32 1006 74 10000 6.7 200 16:22 20.05.2020
2722 Rain 33 1006 67 0 0.45 300 15:57 20.05.2020
2723 Rain 33 1005 66 0 0.45 156 15:39 20.05.2020
2724 Rain 32 1005 67 0 0.45 200 15:20 20.05.2020
2725 Rain 32 1005 67 0 6.74 166 14:42 20.05.2020
2726 Clouds 32 1004 66 0 0.45 244 14:20 20.05.2020
2727 Clouds 33 1004 65 0 0.89 20 13:41 20.05.2020
2728 Clouds 33 1004 63 0 0.89 324 13:19 20.05.2020
2729 Clouds 33 1003 62 0 0.89 345 12:56 20.05.2020
2730 Clouds 37 1005 41 0 7.49 176 12:37 20.05.2020
2731 Clouds 37 1004 41 0 7.4 178 12:18 20.05.2020
2732 Clouds 35 1003 57 0 0.89 202 11:36 20.05.2020
2733 Clouds 37 1004 39 0 7.15 176 11:18 20.05.2020
2734 Clouds 37 1004 39 0 7.15 176 11:18 20.05.2020
2735 Clouds 37 1005 40 0 7.15 176 10:42 20.05.2020
2736 Clouds 37 1005 40 0 7.02 176 10:20 20.05.2020
2737 Clouds 37 1005 41 0 7.02 176 09:44 20.05.2020
2738 Clouds 37 1005 41 0 5.89 178 09:21 20.05.2020
2739 Clouds 37 1006 41 0 5.89 178 08:56 20.05.2020
2740 Clouds 37 1006 42 0 5.89 178 08:38 20.05.2020
2741 Clouds 37 1006 42 0 6.09 181 08:18 20.05.2020
2742 Clouds 36 1007 41 0 6.09 181 07:45 20.05.2020
2743 Clouds 36 1007 40 0 5.9 183 07:19 20.05.2020
2744 Clouds 37 1008 40 0 5.9 183 06:35 20.05.2020
2745 Clouds 35 1007 56 0 0.89 293 05:22 20.05.2020
2746 Clouds 36 1008 41 0 2.63 198 04:26 20.05.2020
2747 Clouds 34 1007 43 0 2.63 198 03:38 20.05.2020
2748 Clouds 31 1007 70 10000 1.5 200 02:23 20.05.2020
2749 Clouds 29 1006 78 10000 2.1 210 01:28 20.05.2020
2750 Clouds 30 1006 74 10000 1.5 230 00:44 20.05.2020
2751 Clouds 30 1006 74 10000 1.5 230 00:23 20.05.2020
2752 Clouds 30 1006 70 10000 3.1 240 23:40 19.05.2020
2753 Clouds 30 1006 70 10000 3.1 240 23:19 19.05.2020
2754 Clouds 30 1006 70 10000 2.1 240 22:56 19.05.2020
2755 Clouds 30 1006 70 10000 2.6 250 22:38 19.05.2020
2756 Clouds 30 1006 70 10000 3.1 250 22:18 19.05.2020
2757 Clouds 31 1006 70 10000 3.1 250 21:55 19.05.2020
2758 Clouds 31 1006 70 10000 3.6 230 21:37 19.05.2020
2759 Clouds 31 1006 70 10000 3.6 230 21:37 19.05.2020
2760 Clouds 31 1006 70 10000 3.6 240 21:18 19.05.2020
2761 Clouds 31 1006 70 10000 3.6 240 20:56 19.05.2020
2762 Clouds 31 1006 70 10000 3.1 210 20:38 19.05.2020
2763 Clouds 31 1006 70 10000 3.1 210 20:38 19.05.2020
2764 Clouds 31 1006 70 10000 3.1 210 20:38 19.05.2020
2765 Clouds 31 1006 70 10000 3.1 210 20:19 19.05.2020
2766 Clouds 31 1006 70 10000 3.1 210 20:19 19.05.2020
2767 Clouds 31 1007 74 10000 2.6 180 19:39 19.05.2020
2768 Clouds 31 1007 74 10000 2.6 180 19:21 19.05.2020
2769 Clouds 31 1007 74 10000 2.6 180 18:55 19.05.2020
2770 Clouds 31 1007 70 10000 3.1 180 18:36 19.05.2020
2771 Clouds 31 1007 70 10000 3.6 190 18:18 19.05.2020
2772 Clouds 31 1007 70 10000 4.6 190 17:40 19.05.2020
2773 Rain 31 1006 66 0 3.65 178 17:21 19.05.2020
2774 Rain 31 1006 66 0 3.65 178 16:56 19.05.2020
2775 Clouds 31 1006 74 10000 4.6 210 16:37 19.05.2020
2776 Rain 31 1005 66 0 0.45 297 16:19 19.05.2020
2777 Rain 32 1005 66 0 0.45 321 15:44 19.05.2020
2778 Clouds 32 1004 67 0 3.01 211 15:21 19.05.2020
2779 Clouds 32 1004 66 0 0.45 5 14:55 19.05.2020
2780 Clouds 32 1004 66 10000 4.6 190 14:37 19.05.2020
2781 Clouds 32 1004 66 10000 4.6 190 14:37 19.05.2020
2782 Clouds 32 1003 63 10000 3.6 180 14:19 19.05.2020
2783 Clouds 33 1003 63 10000 3.6 180 13:56 19.05.2020
2784 Clouds 33 1003 63 10000 4.1 180 13:37 19.05.2020
2785 Clouds 33 1002 59 10000 4.6 180 13:19 19.05.2020
2786 Clouds 33 1002 59 10000 4.6 180 12:56 19.05.2020
2787 Clouds 34 1002 56 10000 7.7 210 12:36 19.05.2020
2788 Clouds 34 1003 53 10000 7.2 210 12:18 19.05.2020
2789 Rain 36 1003 41 0 2.29 316 11:42 19.05.2020
2790 Rain 37 1003 40 0 5.36 233 11:22 19.05.2020
2791 Rain 37 1003 40 0 5.36 233 10:56 19.05.2020
2792 Rain 37 1004 40 0 5.36 233 10:38 19.05.2020
2793 Rain 37 1004 40 0 5.36 233 10:38 19.05.2020
2794 Rain 37 1004 39 0 6.23 199 10:18 19.05.2020
2795 Rain 37 1004 39 0 6.23 199 10:18 19.05.2020
2796 Rain 37 1004 40 0 6.23 199 09:43 19.05.2020
2797 Clouds 37 1004 41 0 4.23 188 09:25 19.05.2020
2798 Clouds 37 1005 40 0 4.23 188 08:47 19.05.2020
2799 Clouds 37 1005 41 0 3.76 186 08:25 19.05.2020
2800 Clouds 37 1006 41 0 3.76 186 07:49 19.05.2020
2801 Clouds 37 1007 41 0 3.41 189 07:28 19.05.2020
2802 Clouds 37 1007 42 0 3.41 189 06:55 19.05.2020
2803 Clouds 36 1006 56 0 1.34 260 06:31 19.05.2020
2804 Clouds 35 1006 58 0 0.45 119 05:43 19.05.2020
2805 Clouds 34 1007 59 10000 2.1 220 05:23 19.05.2020
2806 Clouds 32 1008 66 10000 2.6 200 04:36 19.05.2020
2807 Clouds 31 1005 71 0 3.34 239 02:24 19.05.2020
2808 Clouds 30 1005 74 10000 1.5 240 00:48 19.05.2020
2809 Clouds 30 1005 74 10000 1.5 240 00:29 19.05.2020
2810 Clouds 30 1005 83 10000 1 220 23:59 18.05.2020
2811 Clouds 30 1005 79 10000 2.1 260 23:40 18.05.2020
2812 Clouds 30 1005 79 10000 2.1 260 23:20 18.05.2020
2813 Clouds 30 1005 79 10000 3.1 210 22:54 18.05.2020
2814 Clouds 30 1005 79 10000 2.1 210 22:36 18.05.2020
2815 Clouds 30 1005 83 10000 3.1 210 22:18 18.05.2020
2816 Clouds 30 1004 75 0 3.56 255 21:41 18.05.2020
2817 Clouds 31 1004 75 0 4.31 252 21:21 18.05.2020
2818 Clouds 31 1004 74 0 4.31 252 20:57 18.05.2020
2819 Clouds 31 1004 73 0 4.31 252 20:37 18.05.2020
2820 Clouds 31 1004 73 0 4.65 243 20:18 18.05.2020
2821 Clouds 30 1007 74 10000 0.5 0 19:41 18.05.2020
2822 Clouds 30 1007 74 10000 0.5 0 19:41 18.05.2020
2823 Clouds 30 1007 74 10000 2.13 205 19:20 18.05.2020
2824 Rain 30 1006 73 0 2.13 205 18:55 18.05.2020
2825 Rain 30 1005 73 0 2.13 205 18:37 18.05.2020
2826 Clouds 30 1005 73 0 3 245 18:19 18.05.2020
2827 Rain 30 1006 74 10000 2.1 180 17:38 18.05.2020
2828 Rain 30 1006 74 10000 1 150 17:18 18.05.2020
2829 Rain 30 1006 74 10000 1 150 16:55 18.05.2020
2830 Rain 31 1005 65 0 3.92 222 16:36 18.05.2020
2831 Clouds 31 1005 66 10000 3.6 200 16:18 18.05.2020
2832 Rain 32 1004 68 0 2.67 242 15:42 18.05.2020
2833 Rain 34 1004 65 0 5.94 191 15:24 18.05.2020
2834 Rain 32 1004 63 0 0.45 171 14:59 18.05.2020
2835 Rain 33 1004 60 0 0.89 262 14:39 18.05.2020
2836 Clouds 33 1003 56 0 0.45 270 14:21 18.05.2020
2837 Clouds 34 1003 54 0 0.45 246 13:54 18.05.2020
2838 Clouds 35 1004 40 0 6.65 188 13:36 18.05.2020
2839 Clouds 37 1004 38 0 7.11 180 13:18 18.05.2020
2840 Clouds 37 1003 38 0 7.11 180 12:54 18.05.2020
2841 Clouds 36 1001 47 0 0.89 119 12:36 18.05.2020
2842 Clouds 38 1002 37 0 6.72 176 12:18 18.05.2020
2843 Clouds 38 1002 37 0 6.72 176 11:42 18.05.2020
2844 Clouds 38 1002 36 0 5.57 166 11:23 18.05.2020
2845 Clouds 38 1002 37 0 5.57 166 10:47 18.05.2020
2846 Clouds 38 1002 38 0 5.02 165 10:25 18.05.2020
2847 Clouds 38 1003 38 0 5.02 165 09:46 18.05.2020
2848 Clouds 38 1003 39 0 5.43 168 09:27 18.05.2020
2849 Clouds 38 1003 40 0 5.43 168 08:59 18.05.2020
2850 Clouds 37 1004 41 0 5.43 168 08:39 18.05.2020
2851 Clouds 37 1004 41 0 3.89 173 08:21 18.05.2020
2852 Clouds 37 1005 43 0 3.89 173 07:43 18.05.2020
2853 Clouds 37 1005 44 0 2.86 187 07:23 18.05.2020
2854 Clouds 36 1006 46 0 2.86 187 06:47 18.05.2020
2855 Clouds 36 1006 45 0 2.2 205 06:23 18.05.2020
2856 Clouds 36 1007 47 0 2.2 205 05:43 18.05.2020
2857 Clouds 34 1007 50 0 1.88 237 03:53 18.05.2020
2858 Clouds 29 1005 78 0 0.89 149 03:22 18.05.2020
2859 Clouds 30 1004 80 0 3.32 258 01:45 18.05.2020
2860 Clouds 30 1003 75 0 2.47 255 00:45 18.05.2020
2861 Clouds 30 1003 75 0 2.53 248 00:19 18.05.2020
2862 Clouds 30 1002 75 0 2.53 248 23:55 17.05.2020
2863 Clouds 30 1002 75 0 2.53 248 23:36 17.05.2020
2864 Clouds 30 1002 74 0 0.45 315 23:18 17.05.2020
2865 Clouds 30 1002 74 0 3.34 229 22:40 17.05.2020
2866 Clouds 30 1002 74 0 3.34 229 22:40 17.05.2020
2867 Rain 30 1002 74 0 3.86 215 22:22 17.05.2020
2868 Rain 30 1002 74 0 3.86 215 21:59 17.05.2020
2869 Rain 30 1003 73 0 3.86 215 21:41 17.05.2020
2870 Clouds 31 1004 84 10000 1.5 190 21:19 17.05.2020
2871 Clouds 31 1005 84 10000 2.1 180 20:56 17.05.2020
2872 Clouds 31 1005 84 10000 2.1 170 20:37 17.05.2020
2873 Clouds 31 1004 72 0 6.44 198 20:18 17.05.2020
2874 Clouds 31 1004 72 0 6.44 198 19:42 17.05.2020
2875 Clouds 31 1004 72 0 0.45 119 19:24 17.05.2020
2876 Clouds 31 1005 71 0 6.95 184 18:56 17.05.2020
2877 Clouds 31 1005 71 0 6.95 184 18:38 17.05.2020
2878 Clouds 31 1005 70 0 0.45 318 18:20 17.05.2020
2879 Clouds 31 1006 79 10000 3.1 190 17:40 17.05.2020
2880 Clouds 31 1005 69 0 0.45 99 17:22 17.05.2020
2881 Clouds 31 1005 69 0 0.45 285 16:57 17.05.2020
2882 Clouds 31 1006 74 10000 2.6 190 16:39 17.05.2020
2883 Clouds 31 1006 74 10000 2.6 190 16:39 17.05.2020
2884 Rain 32 1005 67 0 0.89 293 16:19 17.05.2020
2885 Rain 32 1005 67 0 0.89 293 16:19 17.05.2020
2886 Rain 32 1005 67 0 0.89 293 16:19 17.05.2020
2887 Rain 32 1005 67 0 0.89 293 16:19 17.05.2020
2888 Clouds 32 1006 74 10000 3.1 200 15:46 17.05.2020
2889 Clouds 32 1006 74 10000 3.1 200 15:24 17.05.2020
2890 Clouds 32 1005 74 10000 1.5 200 14:58 17.05.2020
2891 Clouds 32 1005 74 10000 1.5 200 14:58 17.05.2020
2892 Clouds 32 1005 70 10000 2.1 210 14:39 17.05.2020
2893 Clouds 34 1004 64 0 0.45 231 14:19 17.05.2020
2894 Clouds 34 1003 63 0 6.04 173 13:41 17.05.2020
2895 Rain 36 1004 45 0 6.14 171 13:20 17.05.2020
2896 Clouds 36 1007 44 0 2.73 211 05:22 17.05.2020
2897 Clouds 34 1006 66 0 1.34 254 03:31 17.05.2020
2898 Clouds 31 1006 74 10000 1 0 02:26 17.05.2020
2899 Clouds 30 1005 79 10000 2.6 140 01:54 17.05.2020
2900 Clouds 31 1005 79 10000 1.5 140 00:48 17.05.2020
2901 Clouds 31 1005 79 10000 1.5 140 00:30 17.05.2020
2902 Clouds 31 1004 79 10000 1.5 150 23:42 16.05.2020
2903 Clouds 31 1004 79 10000 1.5 150 23:24 16.05.2020
2904 Clouds 31 1005 74 10000 1.5 150 22:59 16.05.2020
2905 Clouds 31 1005 74 10000 2.1 170 22:41 16.05.2020
2906 Clouds 31 1005 74 10000 2.1 170 22:22 16.05.2020
2907 Clouds 31 1005 74 10000 2.6 180 21:56 16.05.2020
2908 Clouds 31 1003 68 0 5.33 191 21:37 16.05.2020
2909 Rain 31 1004 68 0 0.45 261 21:19 16.05.2020
2910 Clouds 31 1004 69 0 5.85 193 20:55 16.05.2020
2911 Clouds 31 1004 69 0 5.85 193 20:36 16.05.2020
2912 Clouds 31 1004 69 0 6.11 189 20:18 16.05.2020
2913 Clouds 31 1004 69 0 0.89 322 19:41 16.05.2020
2914 Clouds 31 1004 69 0 0.89 282 19:23 16.05.2020
2915 Clouds 31 1004 70 0 0.89 286 18:57 16.05.2020
2916 Clouds 31 1006 74 10000 4.6 190 18:37 16.05.2020
2917 Clouds 31 1005 70 0 0.89 323 18:18 16.05.2020
2918 Clouds 32 1005 70 0 0.45 351 17:41 16.05.2020
2919 Clouds 32 1005 68 0 0.45 288 17:20 16.05.2020
2920 Clouds 32 1005 68 0 0.45 288 17:20 16.05.2020
2921 Clouds 32 1005 67 0 6.05 188 16:43 16.05.2020
2922 Clear 33 1004 67 0 0.45 281 16:24 16.05.2020
2923 Clear 33 1004 67 0 0.45 319 15:59 16.05.2020
2924 Clear 33 1004 67 0 5.84 178 15:41 16.05.2020
2925 Clear 36 1005 47 0 5.5 174 15:20 16.05.2020
2926 Clear 34 1003 65 0 0.45 246 14:55 16.05.2020
2927 Clear 35 1003 63 0 5.5 174 14:37 16.05.2020
2928 Clouds 35 1002 62 0 5.28 168 14:19 16.05.2020
2929 Clouds 36 1003 42 0 5.68 172 13:42 16.05.2020
2930 Clouds 37 1003 42 0 5.7 170 13:23 16.05.2020
2931 Clouds 37 1003 40 0 5.7 170 12:56 16.05.2020
2932 Clouds 37 1003 41 0 5.7 170 12:38 16.05.2020
2933 Clouds 37 1002 39 0 5.52 169 12:18 16.05.2020
2934 Clouds 38 1003 38 0 5.52 169 11:41 16.05.2020
2935 Clouds 38 1003 38 0 5.52 169 11:41 16.05.2020
2936 Clouds 38 1003 37 0 5.42 171 11:22 16.05.2020
2937 Clouds 38 1003 36 0 5.42 171 10:56 16.05.2020
2938 Clouds 38 1003 38 0 5.42 171 10:37 16.05.2020
2939 Clouds 38 1004 39 0 5.52 171 10:19 16.05.2020
2940 Clouds 38 1004 39 0 5.52 171 09:45 16.05.2020
2941 Clouds 38 1004 38 0 5.89 171 09:27 16.05.2020
2942 Clouds 38 1004 40 0 5.89 171 08:46 16.05.2020
2943 Clouds 38 1005 39 0 5.53 172 08:23 16.05.2020
2944 Clouds 38 1005 39 0 5.53 172 08:23 16.05.2020
2945 Clouds 38 1006 41 0 5.53 172 07:56 16.05.2020
2946 Clouds 37 1006 41 0 5.53 172 07:38 16.05.2020
2947 Clouds 37 1006 42 0 4.96 175 07:19 16.05.2020
2948 Clouds 37 1006 44 0 4.96 175 06:45 16.05.2020
2949 Clouds 37 1007 43 0 4.47 178 06:19 16.05.2020
2950 Clouds 36 1007 45 0 4.47 178 05:41 16.05.2020
2951 Clouds 36 1008 46 0 4.28 182 04:53 16.05.2020
2952 Clouds 31 1007 75 10000 2.1 120 03:26 16.05.2020
2953 Clouds 30 1007 89 10000 1 120 02:39 16.05.2020
2954 Clouds 30 1007 89 10000 4.39 200 02:18 16.05.2020
2955 Clouds 30 1006 89 10000 1.5 120 01:37 16.05.2020
2956 Clouds 30 1006 89 10000 1.5 110 00:56 16.05.2020
2957 Clouds 30 1006 83 10000 1 150 00:38 16.05.2020
2958 Clouds 30 1006 83 10000 1 170 00:18 16.05.2020
2959 Rain 30 1004 73 0 4.1 199 23:38 15.05.2020
2960 Clouds 30 1004 73 0 4.13 198 23:19 15.05.2020
2961 Clouds 30 1004 73 0 4.13 198 22:41 15.05.2020
2962 Rain 30 1004 73 0 4.39 199 22:20 15.05.2020
2963 Rain 30 1004 73 0 4.39 199 22:20 15.05.2020
2964 Rain 30 1004 72 0 4.39 199 21:56 15.05.2020
2965 Clouds 30 1005 79 10000 3.1 190 21:38 15.05.2020
2966 Rain 30 1004 71 0 5.15 194 21:20 15.05.2020
2967 Rain 30 1004 71 0 5.15 194 20:54 15.05.2020
2968 Clouds 30 1004 71 0 4.51 193 20:54 15.05.2020
2969 Clouds 30 1004 71 0 0.45 148 20:36 15.05.2020
2970 Rain 30 1004 71 0 0.45 328 20:18 15.05.2020
2971 Clouds 31 1006 74 10000 3.6 190 19:42 15.05.2020
2972 Clouds 31 1006 74 10000 3.6 190 19:23 15.05.2020
2973 Clouds 31 1007 74 10000 3.6 190 18:48 15.05.2020
2974 Clouds 31 1007 74 10000 3.6 190 18:28 15.05.2020
2975 Clouds 31 1007 74 10000 4.1 200 17:57 15.05.2020
2976 Clouds 31 1006 74 10000 3.1 200 17:36 15.05.2020
2977 Clouds 31 1005 68 0 0.45 311 17:18 15.05.2020
2978 Clouds 31 1005 68 0 6.15 177 16:54 15.05.2020
2979 Clouds 32 1005 68 0 0.45 145 16:36 15.05.2020
2980 Clouds 32 1005 68 0 0.45 308 16:18 15.05.2020
2981 Clouds 32 1005 66 0 0.45 307 15:40 15.05.2020
2982 Clouds 32 1005 70 10000 3.6 200 15:20 15.05.2020
2983 Clouds 32 1004 66 10000 4.1 190 14:56 15.05.2020
2984 Clouds 32 1004 66 10000 4.1 190 14:38 15.05.2020
2985 Clouds 34 1004 66 10000 4.1 190 14:19 15.05.2020
2986 Clouds 35 1003 59 10000 4.1 190 13:41 15.05.2020
2987 Clouds 35 1003 59 10000 4.1 190 13:22 15.05.2020
2988 Clouds 35 1003 56 10000 5.7 190 12:41 15.05.2020
2989 Clouds 37 1003 41 0 6.32 177 12:21 15.05.2020
2990 Clouds 37 1003 40 0 6.32 177 11:59 15.05.2020
2991 Clouds 37 1003 39 0 6.32 177 11:40 15.05.2020
2992 Clouds 37 1003 39 0 6.32 177 11:40 15.05.2020
2993 Clouds 38 1003 38 0 6.1 179 11:21 15.05.2020
2994 Clouds 38 1003 38 0 6.1 179 11:21 15.05.2020
2995 Clouds 38 1003 38 0 6.1 179 10:59 15.05.2020
2996 Clouds 37 1004 39 0 6.1 179 10:40 15.05.2020
2997 Clouds 37 1004 38 0 5.78 181 10:22 15.05.2020
2998 Clouds 38 1004 39 0 5.78 181 09:59 15.05.2020
2999 Clouds 38 1004 39 0 5.78 181 09:37 15.05.2020
3000 Clouds 38 1004 39 0 5.78 181 09:37 15.05.2020
3001 Clouds 38 1005 39 0 5.43 180 09:18 15.05.2020
3002 Clouds 37 1005 39 0 5.43 180 08:56 15.05.2020
3003 Clouds 37 1005 40 0 5.43 180 08:37 15.05.2020
3004 Clouds 37 1006 41 0 4.79 185 08:18 15.05.2020
3005 Clouds 37 1006 41 0 4.79 185 07:43 15.05.2020
3006 Clouds 37 1006 41 0 4.42 190 07:24 15.05.2020
3007 Clouds 37 1006 41 0 4.42 190 07:24 15.05.2020
3008 Clouds 36 1007 42 0 4.42 190 06:38 15.05.2020
3009 Clouds 36 1007 45 0 3.97 195 05:49 15.05.2020
3010 Clouds 36 1008 47 0 3.6 202 04:27 15.05.2020
3011 Clouds 35 1008 49 0 3.6 202 03:40 15.05.2020
3012 Clouds 30 1007 88 8000 1 0 02:26 15.05.2020
3013 Clouds 29 1006 88 10000 2.1 50 01:19 15.05.2020
3014 Clouds 29 1006 88 10000 1.5 60 00:45 15.05.2020
3015 Clouds 29 1006 88 10000 1.5 60 00:26 15.05.2020
3016 Clouds 30 1006 83 10000 1.5 210 23:43 14.05.2020
3017 Clouds 30 1006 83 10000 2.1 210 23:21 14.05.2020
3018 Clear 30 1004 72 0 4.55 198 22:56 14.05.2020
3019 Clear 30 1005 72 0 4.55 198 22:37 14.05.2020
3020 Clear 30 1005 71 0 0.45 287 22:19 14.05.2020
3021 Clear 30 1005 71 0 5.1 194 21:43 14.05.2020
3022 Clear 30 1005 71 0 5.58 195 21:20 14.05.2020
3023 Clear 30 1005 71 0 5.58 195 20:59 14.05.2020
3024 Clear 30 1005 71 0 5.58 195 20:59 14.05.2020
3025 Clear 30 1006 71 0 5.58 195 20:41 14.05.2020
3026 Clouds 31 1008 79 10000 3.1 190 20:20 14.05.2020
3027 Clouds 31 1008 79 10000 2.6 170 19:58 14.05.2020
3028 Clouds 31 1008 74 10000 2.6 190 19:39 14.05.2020
3029 Clouds 31 1008 74 10000 2.6 190 19:20 14.05.2020
3030 Clouds 31 1008 74 10000 3.1 190 18:58 14.05.2020
3031 Clouds 31 1008 84 10000 2.6 200 18:38 14.05.2020
3032 Clouds 31 1008 84 10000 2.6 200 18:38 14.05.2020
3033 Clouds 31 1008 84 10000 2.6 200 18:19 14.05.2020
3034 Clouds 31 1007 70 0 0.45 330 17:57 14.05.2020
3035 Clouds 32 1007 69 0 5.66 189 17:37 14.05.2020
3036 Clouds 32 1007 69 0 5.9 184 17:18 14.05.2020
3037 Clouds 32 1008 79 10000 5.1 200 16:56 14.05.2020
3038 Clouds 32 1007 79 10000 3.1 180 16:37 14.05.2020
3039 Clouds 32 1008 74 10000 2.6 140 16:18 14.05.2020
3040 Clouds 34 1007 68 0 0.45 303 15:41 14.05.2020
3041 Clouds 34 1007 67 0 0.45 347 15:21 14.05.2020
3042 Clouds 32 1007 74 10000 3.1 150 14:57 14.05.2020
3043 Clouds 33 1006 70 10000 3.6 170 14:39 14.05.2020
3044 Clouds 33 1006 70 10000 3.6 170 14:20 14.05.2020
3045 Clouds 34 1005 63 0 5.99 182 13:57 14.05.2020
3046 Clouds 34 1005 62 0 0.45 149 13:38 14.05.2020
3047 Clouds 34 1005 62 0 0.45 149 13:38 14.05.2020
3048 Clouds 34 1005 62 0 0.45 149 13:38 14.05.2020
3049 Clouds 37 1006 43 0 5.85 179 13:19 14.05.2020
3050 Clouds 37 1006 41 0 5.85 179 12:57 14.05.2020
3051 Clouds 37 1006 41 0 5.85 179 12:57 14.05.2020
3052 Clouds 37 1006 40 0 5.85 179 12:38 14.05.2020
3053 Clouds 37 1006 39 0 5.6 177 12:18 14.05.2020
3054 Clouds 37 1006 40 0 5.6 177 11:57 14.05.2020
3055 Clouds 37 1006 43 0 5.6 177 11:38 14.05.2020
3056 Clouds 37 1005 43 0 5.79 175 11:19 14.05.2020
3057 Clouds 37 1006 42 0 5.79 175 10:44 14.05.2020
3058 Clouds 37 1006 42 0 5.54 172 10:26 14.05.2020
3059 Clouds 38 1006 42 0 5.54 172 09:56 14.05.2020
3060 Clouds 37 1007 45 0 5.54 172 09:38 14.05.2020
3061 Clouds 37 1007 44 0 5.73 172 09:18 14.05.2020
3062 Clouds 37 1008 45 0 5.73 172 08:39 14.05.2020
3063 Clouds 37 1009 44 0 5.27 170 08:19 14.05.2020
3064 Clouds 37 1008 45 0 5.27 170 07:45 14.05.2020
3065 Clouds 37 1009 44 0 4.12 170 07:22 14.05.2020
3066 Clouds 36 1009 45 0 4.12 170 06:48 14.05.2020
3067 Clouds 36 1009 46 0 3.5 183 06:26 14.05.2020
3068 Clouds 36 1010 48 0 3.5 183 05:42 14.05.2020
3069 Clouds 35 1011 50 0 3.31 194 04:56 14.05.2020
3070 Clouds 35 1011 52 0 3.41 191 03:52 14.05.2020
3071 Clouds 31 1010 79 10000 2.1 120 03:20 14.05.2020
3072 Clouds 30 1009 83 10000 2.1 110 02:39 14.05.2020
3073 Clouds 30 1009 83 10000 1 110 01:52 14.05.2020
3074 Clouds 30 1008 83 10000 0.5 80 00:58 14.05.2020
3075 Clouds 30 1008 83 10000 1.5 60 00:29 14.05.2020
3076 Clouds 30 1008 83 10000 2.1 60 23:57 13.05.2020
3077 Clouds 30 1008 83 10000 2.6 100 23:38 13.05.2020
3078 Clouds 30 1008 83 10000 1 130 23:18 13.05.2020
3079 Clouds 30 1008 83 10000 2.6 120 22:41 13.05.2020
3080 Clouds 30 1008 83 10000 2.6 120 22:22 13.05.2020
3081 Rain 31 1007 73 0 3.97 195 21:59 13.05.2020
3082 Rain 31 1007 73 0 3.97 195 21:40 13.05.2020
3083 Rain 31 1007 73 0 5.19 193 21:19 13.05.2020
3084 Rain 31 1007 73 0 5.19 193 21:19 13.05.2020
3085 Rain 31 1007 73 0 5.19 193 20:56 13.05.2020
3086 Rain 31 1007 72 0 5.19 193 20:38 13.05.2020
3087 Clouds 31 1007 72 0 0.45 323 20:19 13.05.2020
3088 Clouds 32 1008 71 0 5.73 190 19:42 13.05.2020
3089 Clouds 32 1008 71 0 6.22 187 19:24 13.05.2020
3090 Clouds 32 1008 71 0 6.22 187 18:45 13.05.2020
3091 Clouds 32 1008 71 0 0.45 22 18:22 13.05.2020
3092 Clouds 32 1008 70 0 6.3 185 17:58 13.05.2020
3093 Clouds 32 1008 69 0 6.3 185 17:38 13.05.2020
3094 Clear 32 1008 69 0 6.46 189 17:18 13.05.2020
3095 Clear 32 1008 68 0 0.45 272 16:41 13.05.2020
3096 Clear 32 1008 68 0 0.45 288 16:20 13.05.2020
3097 Clear 32 1007 68 0 6.4 188 15:57 13.05.2020
3098 Clear 33 1007 68 0 6.4 188 15:39 13.05.2020
3099 Clear 33 1007 67 0 6.07 182 15:18 13.05.2020
3100 Clouds 32 1008 70 10000 4.1 190 14:55 13.05.2020
3101 Clear 33 1007 65 0 0.45 114 14:36 13.05.2020
3102 Clouds 34 1006 63 10000 5.1 180 14:18 13.05.2020
3103 Clouds 34 1005 63 0 0.45 302 13:42 13.05.2020
3104 Clouds 35 1005 62 0 0.45 329 13:22 13.05.2020
3105 Clouds 36 1005 60 0 0.45 266 12:59 13.05.2020
3106 Clouds 36 1004 60 0 0.89 311 12:41 13.05.2020
3107 Clouds 37 1006 42 0 5.97 181 12:20 13.05.2020
3108 Clouds 37 1006 41 0 5.97 181 11:56 13.05.2020
3109 Clouds 37 1006 40 0 5.97 181 11:37 13.05.2020
3110 Clouds 38 1006 39 0 5.66 178 11:19 13.05.2020
3111 Clouds 38 1006 39 0 5.66 178 10:57 13.05.2020
3112 Clouds 38 1006 39 0 5.66 178 10:38 13.05.2020
3113 Clouds 38 1006 39 0 5.19 179 10:19 13.05.2020
3114 Clouds 38 1007 39 0 5.19 179 09:46 13.05.2020
3115 Clouds 38 1007 40 0 5.22 177 09:24 13.05.2020
3116 Clear 37 1008 40 0 5.22 182 08:58 13.05.2020
3117 Clear 37 1008 42 0 5.22 182 08:39 13.05.2020
3118 Clouds 37 1008 42 0 5.18 178 08:20 13.05.2020
3119 Clouds 37 1009 43 0 5.18 178 07:51 13.05.2020
3120 Clouds 37 1009 42 0 5.18 178 07:32 13.05.2020
3121 Clouds 37 1009 43 0 4.84 176 06:52 13.05.2020
3122 Clouds 36 1010 45 0 4.84 176 06:34 13.05.2020
3123 Clouds 36 1010 46 0 4.74 180 05:37 13.05.2020
3124 Clouds 35 1010 52 0 4.57 181 03:49 13.05.2020
3125 Clouds 31 1008 73 0 4.29 178 02:37 13.05.2020
3126 Clouds 30 1008 83 10000 3.41 186 01:46 13.05.2020
3127 Clouds 30 1008 83 10000 3.28 192 00:56 13.05.2020
3128 Clouds 30 1008 83 10000 1 180 00:23 13.05.2020
3129 Clouds 30 1008 83 10000 1.5 200 23:58 12.05.2020
3130 Clouds 30 1008 83 10000 1.5 180 23:39 12.05.2020
3131 Clouds 30 1008 83 10000 2.1 210 23:18 12.05.2020
3132 Clear 30 1006 73 0 4.09 196 22:42 12.05.2020
3133 Clear 30 1006 72 0 4.27 197 22:22 12.05.2020
3134 Clear 30 1006 71 0 4.27 197 21:56 12.05.2020
3135 Clear 30 1006 71 0 4.27 197 21:38 12.05.2020
3136 Clear 30 1007 71 0 4.3 193 21:19 12.05.2020
3137 Clear 30 1007 71 0 4.2 194 20:58 12.05.2020
3138 Clear 30 1007 71 0 0.45 274 20:39 12.05.2020
3139 Clouds 30 1007 70 0 0.45 294 20:20 12.05.2020
3140 Clouds 30 1007 69 0 4.39 194 19:57 12.05.2020
3141 Clouds 31 1009 66 10000 2.1 180 19:39 12.05.2020
3142 Clouds 31 1009 66 10000 2.1 180 19:20 12.05.2020
3143 Clouds 31 1010 70 10000 2.1 200 18:55 12.05.2020
3144 Clouds 33 1008 65 0 4.75 193 18:36 12.05.2020
3145 Clouds 34 1010 50 0 4.84 193 18:18 12.05.2020
3146 Clouds 33 1010 48 0 4.84 193 17:41 12.05.2020
3147 Clouds 32 1009 62 0 5.01 186 17:23 12.05.2020
3148 Clouds 33 1008 60 0 5.01 186 16:47 12.05.2020
3149 Clouds 35 1010 48 0 5.19 186 16:25 12.05.2020
3150 Clouds 35 1009 48 0 5.19 186 15:56 12.05.2020
3151 Clouds 35 1009 48 0 5.19 186 15:37 12.05.2020
3152 Clouds 35 1008 46 0 5.28 190 15:19 12.05.2020
3153 Clouds 35 1008 44 0 5.28 190 14:56 12.05.2020
3154 Clouds 35 1008 45 0 5.28 190 14:37 12.05.2020
3155 Clear 36 1007 45 0 5.83 180 14:19 12.05.2020
3156 Clear 36 1007 44 0 5.83 180 13:57 12.05.2020
3157 Clear 36 1007 44 0 5.83 180 13:39 12.05.2020
3158 Clear 36 1007 44 0 5.06 181 13:19 12.05.2020
3159 Clear 36 1006 43 0 5.06 181 12:57 12.05.2020
3160 Clouds 37 1006 50 10000 4.1 180 12:39 12.05.2020
3161 Clear 36 1006 43 0 3.9 180 12:21 12.05.2020
3162 Clear 36 1006 43 0 3.9 180 11:57 12.05.2020
3163 Clear 36 1006 43 0 3.9 180 11:38 12.05.2020
3164 Clear 36 1006 43 0 2.41 171 11:20 12.05.2020
3165 Clear 36 1007 43 0 2.41 171 10:56 12.05.2020
3166 Clear 36 1007 43 0 2.41 171 10:37 12.05.2020
3167 Clouds 37 1008 41 10000 3.1 70 10:18 12.05.2020
3168 Clouds 36 1008 41 10000 3.1 70 09:57 12.05.2020
3169 Clouds 36 1008 44 10000 2.6 140 09:38 12.05.2020
3170 Clear 36 1008 43 0 1 138 09:19 12.05.2020
3171 Clear 36 1009 45 0 1.49 146 08:41 12.05.2020
3172 Clouds 36 1009 45 0 0.95 117 08:21 12.05.2020
3173 Clouds 35 1010 45 0 0.95 117 07:45 12.05.2020
3174 Clouds 35 1010 45 0 0.42 69 07:27 12.05.2020
3175 Clouds 35 1010 45 0 0.42 69 07:27 12.05.2020
3176 Clouds 35 1010 44 0 0.42 69 06:56 12.05.2020
3177 Clouds 35 1011 46 0 0.42 69 06:37 12.05.2020
3178 Clouds 34 1011 47 0 0.47 339 06:19 12.05.2020
3179 Clouds 34 1011 50 0 0.47 339 05:45 12.05.2020
3180 Clouds 33 1012 53 0 0.41 300 03:53 12.05.2020
3181 Clouds 30 1010 73 0 0.29 211 03:18 12.05.2020
3182 Mist 29 1011 94 4500 1 110 02:27 12.05.2020
3183 Clouds 29 1009 94 7000 1.5 100 01:33 12.05.2020
3184 Clouds 29 1009 94 9000 1 130 00:57 12.05.2020
3185 Clouds 32 1009 52 0 1.9 182 00:23 12.05.2020
3186 Clouds 32 1009 52 0 1.9 182 23:55 11.05.2020
3187 Clouds 32 1009 52 0 1.9 182 23:37 11.05.2020
3188 Clouds 29 1008 94 9000 1.66 180 23:18 11.05.2020
3189 Clouds 29 1008 94 9000 1.66 180 22:55 11.05.2020
3190 Clouds 29 1008 94 10000 1.66 180 22:36 11.05.2020
3191 Clouds 29 1008 94 10000 1.23 172 22:18 11.05.2020
3192 Clouds 29 1008 94 10000 1.23 172 21:54 11.05.2020
3193 Clouds 29 1008 94 10000 1.23 172 21:36 11.05.2020
3194 Clouds 28 1009 94 9000 4.02 177 21:18 11.05.2020
3195 Clouds 28 1009 94 10000 2.6 120 20:42 11.05.2020
3196 Clouds 28 1009 94 10000 2.6 120 20:21 11.05.2020
3197 Clouds 29 1010 88 10000 2.1 110 19:58 11.05.2020
3198 Clouds 29 1010 88 10000 2.6 80 19:40 11.05.2020
3199 Clouds 29 1010 88 10000 2.6 80 19:21 11.05.2020
3200 Clouds 29 1010 88 10000 2.6 80 18:57 11.05.2020
3201 Clouds 29 1010 88 10000 2.1 60 18:38 11.05.2020
3202 Clouds 29 1010 83 10000 3.1 20 18:19 11.05.2020
3203 Clouds 30 1010 83 10000 3.1 20 17:57 11.05.2020
3204 Clouds 30 1010 83 10000 3.1 20 17:57 11.05.2020
3205 Clouds 30 1010 83 10000 3.1 20 17:57 11.05.2020
3206 Clouds 30 1009 78 10000 3.6 310 17:38 11.05.2020
3207 Clouds 32 1010 49 0 4.3 187 17:19 11.05.2020
3208 Clouds 32 1009 50 0 4.3 187 16:45 11.05.2020
3209 Clouds 32 1009 50 0 4.66 182 16:23 11.05.2020
3210 Clouds 32 1010 50 0 4.66 182 15:59 11.05.2020
3211 Clouds 32 1010 50 0 4.66 182 15:40 11.05.2020
3212 Clouds 33 1009 78 10000 2.6 240 15:19 11.05.2020
3213 Clouds 33 1009 78 10000 2.1 250 14:57 11.05.2020
3214 Clouds 33 1009 78 10000 2.1 250 14:39 11.05.2020
3215 Clouds 32 1009 88 10000 1 0 14:21 11.05.2020
3216 Clouds 36 1009 47 0 4.97 172 13:42 11.05.2020
3217 Clouds 36 1009 46 0 5.53 166 13:22 11.05.2020
3218 Clouds 36 1009 47 0 5.53 166 12:59 11.05.2020
3219 Clouds 36 1009 47 0 5.53 166 12:41 11.05.2020
3220 Clouds 36 1009 47 0 5.39 174 12:22 11.05.2020
3221 Clouds 36 1009 47 0 5.39 174 11:57 11.05.2020
3222 Clouds 36 1010 45 0 5.39 174 11:39 11.05.2020
3223 Clouds 36 1010 44 0 5.01 175 11:21 11.05.2020
3224 Rain 33 1010 88 10000 8.2 110 10:56 11.05.2020
3225 Rain 34 1011 65 10000 7.7 110 10:38 11.05.2020
3226 Rain 34 1011 65 10000 7.7 110 10:20 11.05.2020
3227 Clouds 34 1010 48 0 4.21 174 09:56 11.05.2020
3228 Clouds 34 1010 49 0 4.21 174 09:37 11.05.2020
3229 Clouds 34 1010 49 0 5.51 178 09:18 11.05.2020
3230 Clouds 34 1010 52 0 5.51 178 08:40 11.05.2020
3231 Clouds 34 1011 52 0 4.88 180 08:22 11.05.2020
3232 Clouds 35 1010 66 10000 1.5 50 07:54 11.05.2020
3233 Clouds 35 1011 66 10000 1.5 30 07:36 11.05.2020
3234 Clouds 34 1011 70 10000 4.21 184 07:18 11.05.2020
3235 Rain 34 1012 70 8000 2.1 30 06:32 11.05.2020
3236 Rain 34 1012 51 0 4.27 190 05:44 11.05.2020
3237 Clouds 35 1012 49 0 4.21 196 05:19 11.05.2020
3238 Rain 35 1011 51 0 3.76 196 03:47 11.05.2020
3239 Clouds 31 1009 79 10000 2.1 170 02:35 11.05.2020
3240 Clouds 31 1009 79 10000 2.1 170 01:55 11.05.2020
3241 Clouds 31 1009 79 10000 2.6 160 00:54 11.05.2020
3242 Rain 31 1007 72 0 3.82 210 00:28 11.05.2020
3243 Rain 31 1007 72 0 3.82 210 23:56 10.05.2020
3244 Clouds 31 1008 79 10000 2.1 170 23:37 10.05.2020
3245 Clouds 31 1008 74 10000 2.1 150 23:18 10.05.2020
3246 Clouds 31 1007 72 0 4 206 22:42 10.05.2020
3247 Clouds 31 1007 71 0 4.26 201 22:24 10.05.2020
3248 Clouds 31 1007 72 0 4.26 201 21:46 10.05.2020
3249 Clouds 31 1007 72 0 4.65 198 21:21 10.05.2020
3250 Clouds 31 1007 71 0 0.45 349 20:59 10.05.2020
3251 Clouds 31 1007 71 0 0.45 349 20:59 10.05.2020
3252 Clouds 30 1006 71 0 4.65 198 20:41 10.05.2020
3253 Clouds 30 1006 72 0 0.45 289 20:23 10.05.2020
3254 Clouds 31 1008 74 10000 4.1 180 19:54 10.05.2020
3255 Clouds 31 1008 74 10000 3.6 190 19:36 10.05.2020
3256 Clouds 31 1008 74 10000 3.6 190 19:36 10.05.2020
3257 Clouds 31 1008 74 10000 3.1 180 19:18 10.05.2020
3258 Clouds 31 1008 74 10000 3.1 180 18:54 10.05.2020
3259 Clouds 31 1008 74 10000 3.1 180 18:54 10.05.2020
3260 Clouds 31 1008 74 10000 3.1 180 18:36 10.05.2020
3261 Clouds 31 1008 74 10000 3.1 180 18:36 10.05.2020
3262 Clouds 32 1009 66 10000 2.6 190 18:18 10.05.2020
3263 Clouds 32 1009 66 10000 2.6 190 17:55 10.05.2020
3264 Clouds 32 1008 70 10000 3.1 200 17:36 10.05.2020
3265 Clouds 31 1008 68 0 5.49 185 17:18 10.05.2020
3266 Clouds 32 1008 66 10000 3.6 210 16:41 10.05.2020
3267 Clouds 33 1008 66 10000 3.6 210 16:20 10.05.2020
3268 Clouds 33 1007 66 10000 4.6 200 15:57 10.05.2020
3269 Clouds 33 1007 66 10000 3.1 190 15:36 10.05.2020
3270 Clouds 34 1006 64 0 0.45 314 15:18 10.05.2020
3271 Clouds 34 1006 64 0 0.45 116 14:55 10.05.2020
3272 Clouds 33 1006 63 10000 5.1 210 14:37 10.05.2020
3273 Clouds 34 1005 59 10000 5.7 200 14:18 10.05.2020
3274 Clouds 35 1006 44 0 6.02 193 13:39 10.05.2020
3275 Clouds 37 1006 43 0 6.05 192 13:21 10.05.2020
3276 Clouds 37 1005 42 0 6.05 192 12:59 10.05.2020
3277 Clouds 37 1006 41 0 6.05 192 12:41 10.05.2020
3278 Clouds 37 1005 41 0 5.42 187 12:21 10.05.2020
3279 Clouds 37 1005 41 0 5.42 187 11:58 10.05.2020
3280 Clouds 37 1005 42 0 5.42 187 11:39 10.05.2020
3281 Clouds 37 1005 45 0 4.67 181 11:20 10.05.2020
3282 Clouds 38 1006 42 0 4.67 181 10:48 10.05.2020
3283 Clouds 38 1006 42 0 4.67 181 10:29 10.05.2020
3284 Clouds 38 1005 55 0 0.89 266 09:59 10.05.2020
3285 Clouds 38 1007 43 0 4.43 174 09:40 10.05.2020
3286 Clouds 38 1007 43 0 4.68 175 09:21 10.05.2020
3287 Clouds 37 1008 42 0 4.68 175 08:52 10.05.2020
3288 Clouds 38 1008 43 0 5.21 177 08:24 10.05.2020
3289 Clouds 38 1008 45 0 5.21 177 07:56 10.05.2020
3290 Clouds 37 1009 45 0 5.21 177 07:37 10.05.2020
3291 Clouds 37 1009 46 0 4.8 172 07:19 10.05.2020
3292 Clouds 37 1010 47 0 4.8 172 06:48 10.05.2020
3293 Clouds 37 1010 48 0 4.49 171 06:21 10.05.2020
3294 Clouds 36 1010 46 0 4.49 171 05:43 10.05.2020
3295 Clouds 35 1009 64 0 0.45 175 04:41 10.05.2020
3296 Clouds 36 1011 44 0 4.09 179 04:22 10.05.2020
3297 Clouds 36 1010 45 0 4.09 179 03:41 10.05.2020
3298 Clouds 31 1010 79 10000 2.6 170 02:54 10.05.2020
3299 Clouds 31 1009 79 10000 3.6 170 02:24 10.05.2020
3300 Clouds 31 1008 84 10000 3.1 180 01:43 10.05.2020
3301 Clouds 31 1008 84 10000 3.1 180 01:23 10.05.2020
3302 Clouds 31 1008 79 10000 3.6 180 00:57 10.05.2020
3303 Clouds 31 1008 79 10000 2.6 190 00:36 10.05.2020
3304 Clouds 31 1008 79 10000 2.6 190 00:18 10.05.2020
3305 Clouds 30 1008 84 10000 2.6 170 23:39 09.05.2020
3306 Clouds 30 1008 84 10000 2.6 170 23:20 09.05.2020
3307 Clouds 30 1006 72 0 4.3 193 22:44 09.05.2020
3308 Clouds 30 1006 72 0 4.55 200 22:25 09.05.2020
3309 Clouds 30 1006 72 0 4.55 200 22:25 09.05.2020
3310 Clouds 31 1006 72 0 4.55 200 21:59 09.05.2020
3311 Clouds 31 1006 72 0 0.45 284 21:41 09.05.2020
3312 Clouds 31 1007 72 0 4.93 195 21:22 09.05.2020
3313 Clouds 31 1007 71 0 4.93 195 20:58 09.05.2020
3314 Clouds 31 1007 71 0 4.93 195 20:58 09.05.2020
3315 Clouds 31 1007 72 0 0.45 264 20:39 09.05.2020
3316 Clouds 31 1007 72 0 0.45 315 20:20 09.05.2020
3317 Clouds 31 1007 72 0 0.45 315 20:20 09.05.2020
3318 Clouds 30 1007 72 0 0.45 296 19:58 09.05.2020
3319 Clouds 31 1007 71 0 5.03 187 19:39 09.05.2020
3320 Clouds 30 1007 72 0 5.08 184 19:20 09.05.2020
3321 Clouds 31 1009 74 10000 4.6 190 18:46 09.05.2020
3322 Clouds 31 1009 74 10000 4.6 190 18:26 09.05.2020
3323 Clouds 32 1009 66 10000 4.6 190 17:58 09.05.2020
3324 Clouds 31 1008 69 0 5.45 185 17:40 09.05.2020
3325 Clouds 31 1007 69 0 5.86 184 17:21 09.05.2020
3326 Clouds 32 1008 66 10000 4.1 190 16:41 09.05.2020
3327 Clouds 33 1008 66 10000 4.1 190 16:20 09.05.2020
3328 Clouds 32 1007 63 10000 4.6 190 15:45 09.05.2020
3329 Clouds 32 1007 63 10000 4.6 190 15:27 09.05.2020
3330 Clouds 32 1006 63 10000 5.1 190 14:59 09.05.2020
3331 Clouds 34 1005 63 10000 5.1 190 14:40 09.05.2020
3332 Clouds 34 1005 59 10000 5.1 190 14:19 09.05.2020
3333 Clouds 35 1005 59 10000 5.1 190 13:57 09.05.2020
3334 Clouds 35 1005 50 10000 5.7 190 13:38 09.05.2020
3335 Clouds 37 1005 41 0 5.55 177 13:19 09.05.2020
3336 Clouds 36 1004 44 10000 4.6 210 12:42 09.05.2020
3337 Clouds 38 1005 36 0 5.17 175 12:22 09.05.2020
3338 Clouds 38 1005 38 0 5.17 175 11:56 09.05.2020
3339 Clouds 39 1005 37 0 5.17 175 11:37 09.05.2020
3340 Clouds 38 1005 37 0 4.64 173 11:18 09.05.2020
3341 Clouds 39 1006 37 0 4.64 173 10:43 09.05.2020
3342 Clouds 39 1006 39 0 4.67 173 10:23 09.05.2020
3343 Clouds 39 1006 40 0 4.67 173 09:56 09.05.2020
3344 Clouds 39 1006 41 0 4.67 173 09:37 09.05.2020
3345 Clouds 38 1007 42 0 5.58 175 09:18 09.05.2020
3346 Clouds 38 1007 42 0 5.58 175 08:51 09.05.2020
3347 Clouds 38 1007 42 0 5.58 175 08:31 09.05.2020
3348 Clouds 38 1008 46 0 5.43 176 07:49 09.05.2020
3349 Clouds 38 1009 45 0 5.43 176 07:31 09.05.2020
3350 Clouds 37 1009 47 0 5.4 178 06:47 09.05.2020
3351 Clouds 37 1009 47 0 5.22 178 06:23 09.05.2020
3352 Clouds 37 1010 50 0 5.22 178 05:45 09.05.2020
3353 Clouds 36 1010 47 0 4.73 181 03:44 09.05.2020
3354 Clouds 32 1009 75 10000 3.6 150 03:22 09.05.2020
3355 Clouds 31 1008 79 10000 3.1 150 02:30 09.05.2020
3356 Clouds 31 1008 84 10000 3.1 150 01:52 09.05.2020
3357 Rain 32 1007 75 0 0.45 124 01:23 09.05.2020
3358 Clouds 31 1008 79 10000 2.6 150 00:47 09.05.2020
3359 Clouds 31 1008 79 10000 2.6 150 00:29 09.05.2020
3360 Clouds 31 1007 79 10000 3.6 170 23:49 08.05.2020
3361 Clouds 31 1007 79 10000 3.6 170 23:29 08.05.2020
3362 Clouds 31 1007 79 10000 3.1 170 22:58 08.05.2020
3363 Clouds 30 1007 84 10000 3.1 190 22:40 08.05.2020
3364 Clouds 31 1006 74 0 4.89 186 22:19 08.05.2020
3365 Clouds 31 1006 74 0 4.89 186 21:58 08.05.2020
3366 Clouds 31 1006 74 0 4.89 186 21:39 08.05.2020
3367 Clouds 31 1006 74 0 5.27 190 21:18 08.05.2020
3368 Clouds 31 1006 73 0 5.27 190 20:56 08.05.2020
3369 Clouds 31 1006 72 0 0.45 50 20:38 08.05.2020
3370 Rain 30 1006 72 0 5.51 186 20:20 08.05.2020
3371 Rain 30 1006 71 0 0.45 173 19:43 08.05.2020
3372 Clouds 31 1008 79 10000 4.1 180 19:23 08.05.2020
3373 Clouds 31 1008 74 10000 3.6 200 18:50 08.05.2020
3374 Clouds 31 1007 72 0 6 185 18:31 08.05.2020
3375 Clouds 32 1007 70 0 6.34 182 17:55 08.05.2020
3376 Clouds 32 1007 70 0 6.34 182 17:37 08.05.2020
3377 Clear 32 1007 70 0 6.49 180 17:18 08.05.2020
3378 Clear 32 1006 69 0 0.45 240 16:42 08.05.2020
3379 Clear 33 1006 68 0 0.45 298 16:24 08.05.2020
3380 Clear 33 1006 68 0 0.45 152 15:55 08.05.2020
3381 Clouds 33 1006 66 10000 5.1 210 15:36 08.05.2020
3382 Clear 34 1005 67 0 0.45 246 15:18 08.05.2020
3383 Clear 35 1005 66 0 0.45 275 14:41 08.05.2020
3384 Clear 35 1005 66 0 0.89 279 14:41 08.05.2020
3385 Clouds 35 1005 65 0 0.45 310 14:20 08.05.2020
3386 Clouds 36 1006 44 0 5.65 174 13:57 08.05.2020
3387 Clouds 36 1006 45 0 5.65 174 13:39 08.05.2020
3388 Clouds 37 1006 46 0 5.42 171 13:19 08.05.2020
3389 Clouds 37 1005 44 0 5.42 171 12:45 08.05.2020
3390 Rain 37 1005 44 0 5.27 172 12:24 08.05.2020
3391 Rain 38 1005 42 0 5.27 172 11:55 08.05.2020
3392 Rain 38 1005 41 0 5.27 172 11:36 08.05.2020
3393 Clouds 38 1005 41 0 5.49 171 11:18 08.05.2020
3394 Clouds 38 1005 42 0 5.49 171 10:43 08.05.2020
3395 Clouds 38 1006 43 0 5.66 171 10:22 08.05.2020
3396 Clouds 38 1006 45 0 5.66 171 09:59 08.05.2020
3397 Clouds 38 1006 45 0 5.66 171 09:40 08.05.2020
3398 Clouds 38 1006 46 0 5.78 169 09:19 08.05.2020
3399 Clouds 38 1007 46 0 5.78 169 08:50 08.05.2020
3400 Clouds 38 1007 45 0 5.53 172 08:24 08.05.2020
3401 Clouds 37 1007 46 0 5.53 172 07:45 08.05.2020
3402 Clouds 37 1008 46 0 5.33 175 07:25 08.05.2020
3403 Clouds 37 1008 46 0 5.33 175 06:52 08.05.2020
3404 Clouds 36 1007 60 0 0.45 260 06:25 08.05.2020
3405 Clouds 37 1008 47 0 4.96 178 05:59 08.05.2020
3406 Clouds 36 1008 50 0 4.61 184 04:50 08.05.2020
3407 Rain 31 1007 71 0 4.77 185 02:54 08.05.2020
3408 Clouds 31 1006 71 0 0.89 108 02:21 08.05.2020
3409 Clouds 30 1006 83 10000 3.1 170 01:31 08.05.2020
3410 Clouds 30 1006 83 10000 3.6 150 00:58 08.05.2020
3411 Clouds 30 1006 88 10000 1.5 160 00:40 08.05.2020
3412 Clouds 30 1006 88 10000 1.5 160 00:21 08.05.2020
3413 Clouds 30 1007 83 10000 2.6 90 23:43 07.05.2020
3414 Clouds 30 1007 83 10000 2.6 90 23:23 07.05.2020
3415 Clouds 30 1007 83 10000 2.6 90 23:23 07.05.2020
3416 Clouds 30 1007 83 10000 3.1 60 22:57 07.05.2020
3417 Clouds 30 1007 83 10000 3.1 60 22:57 07.05.2020
3418 Clouds 30 1007 83 10000 2.6 60 22:39 07.05.2020
3419 Clouds 30 1007 83 10000 2.6 60 22:19 07.05.2020
3420 Clouds 30 1008 83 10000 1.5 20 21:56 07.05.2020
3421 Clouds 30 1008 83 10000 0.5 0 21:37 07.05.2020
3422 Clouds 30 1008 83 10000 2.1 30 21:19 07.05.2020
3423 Clouds 31 1009 79 10000 4.1 10 20:43 07.05.2020
3424 Clouds 30 1009 79 10000 4.1 10 20:23 07.05.2020
3425 Clouds 30 1009 84 10000 2.1 220 19:58 07.05.2020
3426 Clouds 30 1009 79 10000 1.5 200 19:40 07.05.2020
3427 Clouds 31 1009 79 10000 1.5 200 19:21 07.05.2020
3428 Clouds 31 1009 79 10000 4.1 170 18:45 07.05.2020
3429 Clouds 31 1009 79 10000 4.1 170 18:27 07.05.2020
3430 Clouds 31 1008 79 10000 4.1 190 17:57 07.05.2020
3431 Clouds 31 1008 79 10000 4.1 190 17:57 07.05.2020
3432 Clear 31 1007 72 0 0.45 184 17:37 07.05.2020
3433 Clear 32 1007 71 0 0.45 327 17:18 07.05.2020
3434 Clear 32 1007 71 0 0.45 325 16:40 07.05.2020
3435 Clear 33 1006 71 0 0.89 281 16:18 07.05.2020
3436 Clouds 33 1007 70 10000 4.1 190 15:56 07.05.2020
3437 Clouds 33 1006 66 10000 4.1 190 15:37 07.05.2020
3438 Clouds 33 1005 66 10000 5.1 200 15:18 07.05.2020
3439 Clear 35 1006 47 0 6.4 174 14:44 07.05.2020
3440 Clouds 34 1005 63 10000 4.1 180 14:22 07.05.2020
3441 Clouds 34 1005 63 10000 4.1 180 14:22 07.05.2020
3442 Clouds 36 1004 61 0 0.45 26 13:45 07.05.2020
3443 Clouds 36 1003 59 0 0.45 174 13:26 07.05.2020
3444 Clouds 36 1003 57 0 0.45 286 12:58 07.05.2020
3445 Clouds 37 1004 41 0 5.43 164 12:39 07.05.2020
3446 Clouds 37 1004 42 0 5.82 166 12:19 07.05.2020
3447 Clouds 37 1004 39 0 5.82 166 11:39 07.05.2020
3448 Clouds 37 1004 38 0 5.75 167 11:21 07.05.2020
3449 Clouds 37 1004 40 0 5.75 167 10:44 07.05.2020
3450 Clouds 37 1005 39 0 5.62 170 10:26 07.05.2020
3451 Clouds 36 1004 50 0 0.89 333 09:57 07.05.2020
3452 Clouds 37 1006 53 10000 6.2 200 09:38 07.05.2020
3453 Clouds 37 1006 53 10000 6.2 200 09:38 07.05.2020
3454 Clouds 38 1006 40 0 5.52 171 09:18 07.05.2020
3455 Clouds 37 1006 41 0 5.52 171 08:43 07.05.2020
3456 Clouds 37 1007 42 0 5.54 172 08:22 07.05.2020
3457 Clouds 37 1007 42 0 5.54 172 07:58 07.05.2020
3458 Clouds 37 1008 43 0 5.54 172 07:39 07.05.2020
3459 Clouds 37 1008 43 0 5.68 176 07:19 07.05.2020
3460 Clouds 37 1008 43 0 5.68 176 07:19 07.05.2020
3461 Clouds 36 1008 48 0 5.68 176 06:37 07.05.2020
3462 Clouds 35 1009 49 0 5.41 180 05:56 07.05.2020
3463 Clouds 34 1009 51 0 4.61 177 04:27 07.05.2020
3464 Clouds 32 1008 75 10000 3.6 160 03:29 07.05.2020
3465 Clouds 32 1008 79 10000 3.1 140 02:59 07.05.2020
3466 Clouds 31 1006 70 0 4.26 174 02:26 07.05.2020
3467 Clouds 30 1006 79 10000 2.1 170 01:27 07.05.2020
3468 Clouds 30 1006 79 10000 2.6 170 00:52 07.05.2020
3469 Clouds 30 1006 84 10000 3.1 180 00:31 07.05.2020
3470 Clouds 30 1006 79 10000 3.6 180 23:58 06.05.2020
3471 Clouds 30 1006 79 10000 3.1 180 23:39 06.05.2020
3472 Clouds 30 1006 79 10000 3.1 180 23:39 06.05.2020
3473 Clouds 30 1006 79 10000 3.1 180 23:21 06.05.2020
3474 Clouds 30 1006 79 10000 3.1 200 22:55 06.05.2020
3475 Clouds 30 1006 79 10000 4.6 190 22:37 06.05.2020
3476 Clouds 30 1006 79 10000 4.6 190 22:37 06.05.2020
3477 Clouds 30 1005 73 0 4.48 181 22:18 06.05.2020
3478 Clouds 30 1005 73 0 4.48 181 21:43 06.05.2020
3479 Clouds 31 1005 72 0 4.91 181 21:23 06.05.2020
3480 Clouds 31 1006 72 0 4.91 181 20:58 06.05.2020
3481 Clouds 30 1006 72 0 0.45 277 20:39 06.05.2020
3482 Clear 30 1006 71 0 0.45 181 20:21 06.05.2020
3483 Clear 30 1006 70 0 4.9 181 19:56 06.05.2020
3484 Clouds 31 1008 74 10000 5.1 200 19:38 06.05.2020
3485 Clouds 31 1008 74 10000 5.1 200 19:18 06.05.2020
3486 Clouds 31 1008 74 10000 5.1 200 18:55 06.05.2020
3487 Clouds 31 1008 74 10000 3.6 200 18:37 06.05.2020
3488 Clouds 31 1008 74 10000 4.6 200 18:18 06.05.2020
3489 Clouds 31 1008 74 10000 4.6 200 17:55 06.05.2020
3490 Clear 31 1007 68 0 0.45 292 17:36 06.05.2020
3491 Clear 32 1007 67 0 5.83 176 17:18 06.05.2020
3492 Clear 33 1007 67 0 0.45 185 16:57 06.05.2020
3493 Clouds 33 1007 66 10000 5.1 190 16:39 06.05.2020
3494 Clear 34 1006 66 0 0.45 325 16:19 06.05.2020
3495 Clear 33 1006 66 0 0.45 275 15:47 06.05.2020
3496 Clear 34 1007 48 0 5.72 173 15:22 06.05.2020
3497 Clear 34 1007 46 0 5.72 173 14:58 06.05.2020
3498 Clear 36 1007 46 0 5.72 173 14:39 06.05.2020
3499 Clear 36 1005 62 0 0.45 276 14:19 06.05.2020
3500 Clouds 34 1005 52 10000 4.1 180 13:58 06.05.2020
3501 Clear 36 1005 42 0 5.44 164 13:38 06.05.2020
3502 Clear 37 1005 41 0 5.38 165 13:19 06.05.2020
3503 Clear 37 1003 53 0 5.38 165 12:43 06.05.2020
3504 Clear 38 1004 40 0 5.45 167 12:24 06.05.2020
3505 Clear 39 1005 37 0 5.45 167 11:42 06.05.2020
3506 Clear 39 1005 37 0 5.45 167 11:42 06.05.2020
3507 Clear 39 1005 37 0 5.45 167 11:42 06.05.2020
3508 Clear 38 1005 40 0 5.4 169 11:22 06.05.2020
3509 Clear 38 1005 41 0 5.4 169 10:58 06.05.2020
3510 Clear 38 1005 41 0 5.4 169 10:39 06.05.2020
3511 Clear 38 1005 40 0 5.53 171 10:19 06.05.2020
3512 Clear 38 1006 40 0 5.53 171 09:57 06.05.2020
3513 Clear 38 1006 39 0 5.53 171 09:37 06.05.2020
3514 Clear 39 1006 36 0 5.01 174 09:19 06.05.2020
3515 Clouds 39 1007 38 0 5.28 172 08:42 06.05.2020
3516 Clouds 38 1007 39 0 4.83 178 08:20 06.05.2020
3517 Clouds 38 1008 42 0 4.83 178 07:56 06.05.2020
3518 Clouds 38 1008 42 0 4.83 178 07:37 06.05.2020
3519 Clouds 38 1008 43 0 4.95 181 07:18 06.05.2020
3520 Clouds 37 1009 47 0 4.95 181 06:45 06.05.2020
3521 Clouds 37 1009 46 0 4.78 182 06:20 06.05.2020
3522 Clouds 36 1009 48 0 4.78 182 05:38 06.05.2020
3523 Clouds 37 1009 45 0 4.14 186 04:50 06.05.2020
3524 Clouds 35 1010 53 0 3.27 195 03:50 06.05.2020
3525 Clouds 32 1008 67 0 0.89 115 03:24 06.05.2020
3526 Clouds 31 1007 71 0 2.58 201 02:43 06.05.2020
3527 Clouds 31 1008 79 10000 2.1 170 02:20 06.05.2020
3528 Rain 31 1006 74 0 3.23 198 01:42 06.05.2020
3529 Clouds 31 1007 84 10000 2.6 160 00:57 06.05.2020
3530 Clouds 31 1007 84 10000 2.6 150 00:37 06.05.2020
3531 Clouds 31 1007 84 10000 2.6 170 00:18 06.05.2020
3532 Clouds 31 1006 84 10000 3.1 170 23:40 05.05.2020
3533 Clouds 31 1006 84 10000 2.6 170 23:19 05.05.2020
3534 Clouds 31 1007 84 10000 3.6 190 22:42 05.05.2020
3535 Clouds 31 1007 84 10000 3.6 190 22:21 05.05.2020
3536 Clear 31 1005 74 0 4.96 196 21:59 05.05.2020
3537 Clear 31 1005 74 0 0.45 311 21:41 05.05.2020
3538 Clear 31 1006 74 0 5.42 194 21:21 05.05.2020
3539 Clear 31 1005 73 0 5.2 194 20:59 05.05.2020
3540 Clear 31 1005 72 0 0.45 239 20:39 05.05.2020
3541 Clear 31 1006 72 0 0.45 297 20:19 05.05.2020
3542 Clear 31 1006 70 0 0.45 249 19:58 05.05.2020
3543 Clear 31 1006 69 0 5.45 193 19:37 05.05.2020
3544 Clear 31 1006 69 0 5.45 193 19:37 05.05.2020
3545 Clear 31 1006 70 0 0.45 210 19:18 05.05.2020
3546 Clear 31 1006 70 0 0.45 15 18:55 05.05.2020
3547 Clear 31 1007 71 0 5.63 193 18:37 05.05.2020
3548 Clear 31 1007 71 0 5.63 193 18:37 05.05.2020
3549 Clouds 31 1008 74 10000 5.1 200 18:19 05.05.2020
3550 Clouds 32 1008 70 10000 6.2 190 17:43 05.05.2020
3551 Clear 32 1007 69 0 5.9 190 17:25 05.05.2020
3552 Clear 32 1007 68 0 5.9 190 16:58 05.05.2020
3553 Clear 32 1007 66 0 0.45 186 16:37 05.05.2020
3554 Clear 32 1007 66 0 0.45 305 16:18 05.05.2020
3555 Clear 32 1007 65 0 0.89 255 15:55 05.05.2020
3556 Clouds 33 1006 59 10000 4.1 180 15:37 05.05.2020
3557 Clear 36 1007 48 0 5.31 170 15:19 05.05.2020
3558 Clear 34 1005 64 0 5.31 170 14:42 05.05.2020
3559 Clear 34 1005 64 0 5.31 170 14:42 05.05.2020
3560 Clouds 34 1005 61 0 0.45 297 14:24 05.05.2020
3561 Clouds 35 1005 60 0 0.45 339 13:59 05.05.2020
3562 Clouds 37 1005 41 0 4.81 168 13:41 05.05.2020
3563 Clouds 37 1005 40 0 4.96 169 13:21 05.05.2020
3564 Clouds 37 1005 40 0 4.96 169 12:59 05.05.2020
3565 Clouds 37 1005 40 0 4.96 169 12:40 05.05.2020
3566 Clouds 38 1005 40 0 5.14 172 12:20 05.05.2020
3567 Clouds 38 1005 40 0 5.14 172 11:57 05.05.2020
3568 Clouds 38 1005 41 0 5.14 172 11:39 05.05.2020
3569 Clouds 38 1005 41 0 5.07 172 11:18 05.05.2020
3570 Clouds 38 1005 42 0 5.07 172 10:39 05.05.2020
3571 Clouds 38 1005 42 0 5.07 172 10:39 05.05.2020
3572 Clouds 38 1005 42 0 5.07 172 10:39 05.05.2020
3573 Clouds 38 1005 43 0 5.07 173 10:20 05.05.2020
3574 Clouds 38 1005 43 0 5.07 173 09:59 05.05.2020
3575 Clouds 38 1005 43 0 5.07 173 09:59 05.05.2020
3576 Clouds 38 1005 43 0 5.07 173 09:41 05.05.2020
3577 Clouds 38 1006 42 0 4.83 177 09:22 05.05.2020
3578 Clouds 38 1007 44 0 4.83 177 08:42 05.05.2020
3579 Clouds 37 1007 46 0 4.37 180 08:21 05.05.2020
3580 Clouds 37 1008 46 0 4.37 180 07:58 05.05.2020
3581 Clouds 37 1008 45 0 4.37 180 07:39 05.05.2020
3582 Clouds 37 1009 45 0 3.69 182 07:19 05.05.2020
3583 Clouds 37 1009 44 0 3.69 182 06:49 05.05.2020
3584 Clouds 37 1009 45 0 2.87 184 06:23 05.05.2020
3585 Clouds 36 1010 45 0 2.87 184 05:39 05.05.2020
3586 Clouds 34 1010 51 0 1.98 199 03:36 05.05.2020
3587 Clouds 30 1009 89 10000 2.82 204 01:51 05.05.2020
3588 Clouds 29 1008 83 10000 3.3 206 00:54 05.05.2020
3589 Clouds 30 1008 83 10000 1.5 110 00:22 05.05.2020
3590 Clouds 30 1007 83 10000 2.1 230 23:45 04.05.2020
3591 Clouds 30 1007 83 10000 2.1 230 23:23 04.05.2020
3592 Clouds 30 1006 77 0 3.81 200 22:56 04.05.2020
3593 Clouds 30 1006 77 0 3.81 200 22:38 04.05.2020
3594 Rain 30 1006 76 0 3.58 199 22:19 04.05.2020
3595 Rain 30 1006 75 0 3.58 199 21:54 04.05.2020
3596 Rain 30 1006 75 0 3.58 199 21:34 04.05.2020
3597 Clouds 30 1007 74 0 0.45 266 20:58 04.05.2020
3598 Clouds 30 1007 74 0 0.45 266 20:57 04.05.2020
3599 Clouds 30 1007 74 0 0.45 266 20:57 04.05.2020
3600 Clouds 30 1007 74 0 4.28 196 20:38 04.05.2020
3601 Clouds 30 1007 74 0 4.28 196 20:38 04.05.2020
3602 Clouds 30 1007 74 0 4.28 196 20:38 04.05.2020
3603 Clouds 30 1007 74 0 4.28 196 20:38 04.05.2020
3604 Clouds 30 1007 74 0 4.28 196 20:38 04.05.2020
3605 Clouds 30 1007 73 0 4.49 193 20:18 04.05.2020
3606 Clouds 30 1008 73 0 4.49 193 19:42 04.05.2020
3607 Clouds 30 1010 79 10000 3.6 220 19:21 04.05.2020
3608 Clouds 31 1010 74 10000 4.1 230 19:21 04.05.2020
3609 Clouds 31 1010 74 10000 4.1 230 18:56 04.05.2020
3610 Clouds 30 1010 74 10000 3.1 210 18:38 04.05.2020
3611 Clouds 31 1010 66 10000 3.6 240 18:18 04.05.2020
3612 Clouds 31 1010 66 10000 3.6 240 18:18 04.05.2020
3613 Clouds 31 1010 66 10000 3.6 240 17:55 04.05.2020
3614 Clouds 31 1010 66 10000 3.6 240 17:55 04.05.2020
3615 Clouds 31 1010 66 10000 3.1 250 17:37 04.05.2020
3616 Clouds 31 1009 69 0 0.45 277 17:18 04.05.2020
3617 Clouds 31 1008 68 0 0.45 281 16:42 04.05.2020
3618 Clouds 33 1008 67 0 3.21 168 16:22 04.05.2020
3619 Clouds 33 1008 65 0 3.21 168 15:47 04.05.2020
3620 Clouds 35 1009 48 0 3.1 164 15:26 04.05.2020
3621 Clouds 35 1008 47 0 3.1 164 15:00 04.05.2020
3622 Clouds 34 1007 63 0 3.1 164 14:41 04.05.2020
3623 Clouds 34 1007 63 0 3.1 164 14:41 04.05.2020
3624 Clouds 35 1008 46 0 2.38 171 14:19 04.05.2020
3625 Clouds 36 1007 47 0 0.68 264 12:49 04.05.2020
3626 Clouds 36 1006 44 0 1.04 261 12:26 04.05.2020
3627 Clouds 36 1006 44 0 1.04 261 12:26 04.05.2020
3628 Clouds 36 1006 44 0 1.04 261 12:26 04.05.2020
3629 Clouds 36 1006 44 0 1.04 261 12:26 04.05.2020
3630 Clouds 36 1006 44 0 1.04 261 12:26 04.05.2020
3631 Clouds 36 1007 46 0 1.52 244 10:36 04.05.2020
3632 Clouds 36 1007 46 0 1.52 244 10:36 04.05.2020
3633 Clouds 36 1007 46 0 1.52 244 10:36 04.05.2020
3634 Clouds 34 1007 54 0 0.45 283 09:26 04.05.2020
3635 Clouds 34 1007 54 0 0.45 283 09:26 04.05.2020
3636 Clouds 34 1007 54 0 0.45 283 09:26 04.05.2020
3637 Clouds 34 1007 54 0 0.45 283 09:26 04.05.2020
3638 Clouds 34 1007 54 0 0.45 283 09:26 04.05.2020
3639 Clouds 36 1010 46 0 2.42 240 07:52 04.05.2020
3640 Clouds 36 1011 46 0 2.42 240 07:33 04.05.2020
3641 Clouds 36 1011 46 0 2.42 240 07:33 04.05.2020
3642 Clouds 36 1011 46 0 2.42 240 07:33 04.05.2020
3643 Clouds 36 1011 46 0 2.42 240 07:33 04.05.2020
3644 Clouds 31 1012 74 10000 4.1 200 04:59 04.05.2020
3645 Clouds 30 1011 79 10000 1.5 100 03:28 04.05.2020
3646 Clouds 30 1010 84 10000 2.6 170 02:32 04.05.2020
3647 Rain 31 1008 75 0 6.84 157 01:03 04.05.2020
3648 Clouds 30 1007 84 10000 2.6 180 23:46 03.05.2020
3649 Clouds 30 1007 84 10000 2.6 180 23:26 03.05.2020
3650 Clouds 30 1008 84 10000 3.6 160 23:00 03.05.2020
3651 Clouds 30 1008 84 10000 3.6 160 23:00 03.05.2020
3652 Rain 31 1006 75 0 3.95 192 22:41 03.05.2020
3653 Rain 31 1006 75 0 0.45 291 22:22 03.05.2020
3654 Rain 31 1006 75 0 0.45 291 22:22 03.05.2020
3655 Rain 31 1006 74 0 4.73 189 21:42 03.05.2020
3656 Rain 31 1006 74 0 4.73 189 21:42 03.05.2020
3657 Clouds 31 1006 73 0 5.83 187 21:21 03.05.2020
3658 Clouds 31 1006 71 0 0.89 273 20:48 03.05.2020
3659 Clouds 31 1007 71 0 0.89 304 20:23 03.05.2020
3660 Clouds 30 1007 71 0 0.45 184 19:57 03.05.2020
3661 Clouds 30 1008 70 0 0.45 325 19:38 03.05.2020
3662 Clouds 31 1008 70 0 0.45 356 19:19 03.05.2020
3663 Clouds 31 1008 70 0 6.23 188 18:39 03.05.2020
3664 Clouds 31 1008 69 0 6.08 186 18:20 03.05.2020
3665 Clouds 31 1008 69 0 6.08 186 18:20 03.05.2020
3666 Clouds 31 1008 68 0 0.45 263 17:56 03.05.2020
3667 Clouds 31 1008 68 0 0.45 263 17:56 03.05.2020
3668 Clouds 31 1008 67 0 0.45 279 17:38 03.05.2020
3669 Clouds 32 1008 66 0 5.79 184 17:20 03.05.2020
3670 Clouds 32 1007 65 0 0.45 116 16:44 03.05.2020
3671 Clouds 32 1007 65 0 0.45 311 16:19 03.05.2020
3672 Clouds 32 1007 64 0 0.45 328 15:58 03.05.2020
3673 Clouds 34 1008 48 0 5.61 184 15:39 03.05.2020
3674 Clouds 36 1007 47 0 5.2 175 15:19 03.05.2020
3675 Clouds 35 1007 48 0 5.2 175 14:56 03.05.2020
3676 Clouds 36 1006 47 0 5.2 175 14:38 03.05.2020
3677 Clouds 36 1006 46 0 5.38 170 14:19 03.05.2020
3678 Clouds 36 1006 46 0 5.38 170 14:19 03.05.2020
3679 Clouds 36 1006 46 0 5.38 170 14:19 03.05.2020
3680 Clouds 36 1006 45 0 5.38 170 13:38 03.05.2020
3681 Clouds 36 1006 45 0 5.38 170 13:38 03.05.2020
3682 Clouds 36 1006 45 0 5.38 170 13:38 03.05.2020
3683 Clouds 35 1006 55 0 5.43 167 12:57 03.05.2020
3684 Clouds 35 1006 55 0 5.43 167 12:57 03.05.2020
3685 Clouds 35 1006 55 0 5.43 167 12:57 03.05.2020
3686 Clouds 35 1006 55 0 5.43 167 12:56 03.05.2020
3687 Clouds 36 1005 47 10000 3.1 210 12:37 03.05.2020
3688 Clouds 36 1005 50 10000 4.1 210 11:58 03.05.2020
3689 Clouds 36 1005 45 0 5.21 168 11:40 03.05.2020
3690 Clouds 36 1005 45 0 5.21 168 11:40 03.05.2020
3691 Clouds 36 1005 45 0 5.21 168 11:40 03.05.2020
3692 Clouds 36 1005 45 0 5.2 170 11:21 03.05.2020
3693 Clouds 36 1005 45 0 5.2 170 10:55 03.05.2020
3694 Clouds 37 1006 50 10000 3.6 230 10:26 03.05.2020
3695 Clouds 37 1007 53 10000 4.1 240 09:41 03.05.2020
3696 Clouds 37 1007 53 10000 4.1 240 09:41 03.05.2020
3697 Clouds 37 1007 56 10000 3.1 200 09:18 03.05.2020
3698 Clouds 37 1007 56 10000 3.1 200 09:18 03.05.2020
3699 Clouds 36 1008 56 10000 3.6 230 08:35 03.05.2020
3700 Clouds 36 1009 56 10000 3.1 170 07:59 03.05.2020
3701 Clouds 36 1009 56 10000 3.6 200 07:29 03.05.2020
3702 Clouds 36 1009 56 10000 3.6 200 07:28 03.05.2020
3703 Clouds 36 1009 56 10000 3.6 200 07:28 03.05.2020
3704 Clouds 34 1011 60 0 4.27 194 05:57 03.05.2020
3705 Clouds 36 1011 56 0 4.27 194 05:38 03.05.2020
3706 Clouds 34 1011 60 0 3.19 196 04:28 03.05.2020
3707 Clouds 33 1010 59 0 3.19 196 03:46 03.05.2020
3708 Clouds 33 1010 59 0 3.19 196 03:46 03.05.2020
3709 Clouds 31 1010 61 0 3.17 202 02:36 03.05.2020
3710 Clouds 31 1009 63 0 3.34 203 02:18 03.05.2020
3711 Clouds 30 1008 83 10000 2.1 130 01:39 03.05.2020
3712 Clouds 30 1008 83 10000 2.1 130 01:21 03.05.2020
3713 Clouds 30 1008 83 10000 2.1 190 00:40 03.05.2020
3714 Clouds 30 1008 83 10000 2.1 190 00:20 03.05.2020
3715 Clouds 30 1008 83 10000 2.1 190 00:20 03.05.2020
3716 Clouds 31 1008 79 10000 3.6 190 23:46 02.05.2020
3717 Clouds 31 1008 79 10000 3.6 190 23:28 02.05.2020
3718 Clouds 31 1008 79 10000 2.6 170 22:57 02.05.2020
3719 Clouds 31 1008 79 10000 2.6 170 22:57 02.05.2020
3720 Clouds 30 1008 83 10000 2.6 200 22:39 02.05.2020
3721 Clouds 30 1008 83 10000 2.6 200 22:20 02.05.2020
3722 Clouds 31 1008 79 10000 4.1 200 21:41 02.05.2020
3723 Clouds 30 1008 79 10000 4.1 200 21:20 02.05.2020
3724 Clouds 30 1008 79 10000 3.1 190 20:58 02.05.2020
3725 Clouds 31 1008 79 10000 3.6 190 20:58 02.05.2020
3726 Clouds 31 1008 79 10000 3.6 190 20:38 02.05.2020
3727 Clouds 31 1008 79 10000 3.6 190 20:20 02.05.2020
3728 Clouds 31 1009 79 10000 4.1 190 19:58 02.05.2020
3729 Clouds 31 1009 79 10000 4.6 200 19:39 02.05.2020
3730 Clouds 31 1009 79 10000 4.6 200 19:20 02.05.2020
3731 Clouds 31 1009 79 10000 4.6 190 18:56 02.05.2020
3732 Clouds 31 1009 74 10000 2.6 190 18:38 02.05.2020
3733 Clouds 32 1009 70 10000 4.6 200 18:19 02.05.2020
3734 Clear 32 1009 59 0 6.16 186 17:55 02.05.2020
3735 Clear 32 1009 59 0 6.16 186 17:37 02.05.2020
3736 Clear 32 1009 58 0 5.87 183 17:19 02.05.2020
3737 Clear 32 1009 58 0 5.87 183 17:19 02.05.2020
3738 Clouds 32 1008 70 10000 2.6 210 16:44 02.05.2020
3739 Clouds 32 1008 70 10000 2.6 210 16:26 02.05.2020
3740 Clear 32 1008 55 0 5.45 180 15:55 02.05.2020
3741 Clear 32 1008 54 0 5.45 180 15:36 02.05.2020
3742 Clouds 34 1006 59 10000 3.6 180 15:18 02.05.2020
3743 Clouds 34 1006 59 10000 3.6 190 14:41 02.05.2020
3744 Clouds 36 1006 55 0 5.49 174 14:23 02.05.2020
3745 Clouds 36 1006 54 0 5.49 174 13:57 02.05.2020
3746 Clouds 36 1006 53 0 5.49 174 13:37 02.05.2020
3747 Clouds 36 1006 50 0 5.53 175 13:18 02.05.2020
3748 Clouds 36 1005 49 0 5.53 175 12:40 02.05.2020
3749 Clouds 36 1005 48 0 5.6 174 12:20 02.05.2020
3750 Clouds 36 1005 48 0 5.6 174 11:56 02.05.2020
3751 Clouds 35 1005 48 0 5.6 174 11:38 02.05.2020
3752 Clouds 35 1005 46 0 5.75 174 11:19 02.05.2020
3753 Clouds 35 1006 48 0 5.75 174 10:40 02.05.2020
3754 Clouds 38 1006 36 0 5.63 173 10:22 02.05.2020
3755 Clouds 38 1007 36 0 5.63 173 09:58 02.05.2020
3756 Clouds 38 1007 37 0 5.63 173 09:40 02.05.2020
3757 Clear 37 1006 46 0 4.86 176 09:21 02.05.2020
3758 Clear 38 1008 37 0 4.86 176 08:55 02.05.2020
3759 Clear 37 1008 38 0 4.86 176 08:33 02.05.2020
3760 Clouds 36 1008 48 0 3.17 185 07:50 02.05.2020
3761 Clouds 36 1010 40 0 3.17 185 07:30 02.05.2020
3762 Clouds 34 1010 58 0 2.38 204 06:56 02.05.2020
3763 Clouds 35 1010 57 0 2.04 228 06:28 02.05.2020
3764 Clouds 34 1011 58 0 2.24 247 05:27 02.05.2020
3765 Clouds 33 1011 58 0 2.57 249 04:27 02.05.2020
3766 Clouds 33 1011 61 0 2.57 249 03:38 02.05.2020
3767 Clouds 31 1010 63 0 3.09 239 02:40 02.05.2020
3768 Clouds 30 1009 88 10000 2.6 110 01:52 02.05.2020
3769 Clouds 30 1009 88 10000 2.1 100 01:18 02.05.2020
3770 Clouds 30 1008 88 10000 1.5 70 00:41 02.05.2020
3771 Clouds 31 1009 62 0 3.88 213 00:19 02.05.2020
3772 Clouds 31 1008 83 10000 1 150 23:40 01.05.2020
3773 Clouds 31 1008 83 10000 1.5 140 23:20 01.05.2020
3774 Clouds 31 1008 83 10000 1.5 140 22:58 01.05.2020
3775 Clouds 31 1008 83 10000 1 160 22:38 01.05.2020
3776 Clouds 31 1008 83 10000 1 160 22:19 01.05.2020
3777 Clouds 31 1008 83 10000 1 160 21:57 01.05.2020
3778 Clouds 31 1009 83 10000 1.5 200 21:39 01.05.2020
3779 Clouds 31 1009 83 10000 1.5 180 21:18 01.05.2020
3780 Clouds 31 1009 83 10000 1.5 180 20:56 01.05.2020
3781 Clouds 31 1009 83 10000 1 200 20:37 01.05.2020
3782 Clouds 31 1009 83 10000 1 200 20:37 01.05.2020
3783 Clouds 31 1009 83 10000 2.1 210 20:19 01.05.2020
3784 Clouds 31 1010 83 10000 3.1 200 19:42 01.05.2020
3785 Clouds 32 1010 83 10000 3.1 200 19:23 01.05.2020
3786 Clouds 32 1010 83 10000 2.6 220 18:59 01.05.2020
3787 Clouds 32 1010 83 10000 2.1 210 18:40 01.05.2020
3788 Clouds 32 1010 63 0 5.34 183 18:21 01.05.2020
3789 Clouds 32 1011 63 0 5.34 183 17:58 01.05.2020
3790 Clouds 32 1011 63 0 5.34 183 17:39 01.05.2020
3791 Clouds 32 1010 63 0 5.12 178 17:21 01.05.2020
3792 Clouds 32 1010 60 0 5.12 178 16:56 01.05.2020
3793 Clouds 32 1010 60 0 5.12 178 16:38 01.05.2020
3794 Clouds 32 1009 59 0 4.95 175 16:19 01.05.2020
3795 Clouds 32 1009 60 0 4.95 175 15:55 01.05.2020
3796 Clouds 32 1009 61 0 4.95 175 15:36 01.05.2020
3797 Clouds 33 1009 62 0 5.53 166 15:18 01.05.2020
3798 Clouds 32 1009 61 0 5.53 166 14:41 01.05.2020
3799 Clouds 33 1009 60 0 5.51 165 14:23 01.05.2020
3800 Clouds 34 1007 54 0 5.74 176 13:41 01.05.2020
3801 Clouds 34 1007 53 0 5.53 175 13:23 01.05.2020
3802 Clouds 35 1006 51 0 5.53 175 12:58 01.05.2020
3803 Clouds 35 1007 50 0 5.53 175 12:40 01.05.2020
3804 Clouds 35 1007 50 0 5.69 175 12:20 01.05.2020
3805 Clouds 35 1006 48 0 5.69 175 11:58 01.05.2020
3806 Clouds 35 1006 48 0 5.69 175 11:58 01.05.2020
3807 Clouds 36 1006 48 0 5.69 175 11:39 01.05.2020
3808 Clouds 35 1006 49 0 5.38 176 11:19 01.05.2020
3809 Clouds 36 1006 52 0 3.58 197 10:41 01.05.2020
3810 Clouds 36 1006 52 0 3.58 197 10:41 01.05.2020
3811 Clouds 35 1007 51 0 5 177 10:20 01.05.2020
3812 Clouds 35 1007 53 0 5 177 09:55 01.05.2020
3813 Clouds 35 1007 52 0 5 177 09:37 01.05.2020
3814 Clouds 36 1007 47 0 4.67 180 09:18 01.05.2020
3815 Clouds 36 1007 47 0 4.67 180 08:42 01.05.2020
3816 Clear 35 1008 55 0 4.14 182 08:24 01.05.2020
3817 Clear 36 1009 48 0 4.14 182 07:55 01.05.2020
3818 Clear 35 1009 54 0 4.14 182 07:36 01.05.2020
3819 Clouds 34 1010 59 0 3.58 186 06:57 01.05.2020
3820 Clouds 33 1011 58 0 3.4 194 05:41 01.05.2020
3821 Clouds 33 1011 58 0 3.29 195 05:19 01.05.2020
3822 Clouds 33 1012 59 0 3.06 202 03:41 01.05.2020
3823 Clouds 30 1012 61 0 2.64 205 02:48 01.05.2020
3824 Clouds 30 1011 63 0 2.53 201 02:30 01.05.2020
3825 Clouds 30 1010 88 10000 1.5 200 01:37 01.05.2020
3826 Clouds 30 1010 88 10000 1.5 210 01:18 01.05.2020
3827 Clouds 30 1009 83 10000 2.1 250 00:38 01.05.2020
3828 Clouds 30 1009 83 10000 2.1 250 00:20 01.05.2020
3829 Clouds 30 1009 83 10000 2.6 260 23:56 30.04.2020
3830 Clouds 30 1008 83 10000 2.1 210 23:38 30.04.2020
3831 Clear 30 1009 65 0 3.01 214 23:19 30.04.2020
3832 Clear 30 1009 64 0 3.01 214 22:41 30.04.2020
3833 Clouds 30 1009 83 10000 2.1 210 22:21 30.04.2020
3834 Clouds 30 1009 83 10000 3.1 230 21:57 30.04.2020
3835 Clouds 30 1009 83 10000 3.1 210 21:38 30.04.2020
3836 Clouds 30 1010 89 10000 2.1 210 21:19 30.04.2020
3837 Clouds 30 1010 89 10000 2.1 210 20:54 30.04.2020
3838 Clear 32 1010 65 0 3.86 216 20:36 30.04.2020
3839 Clear 32 1010 64 0 4.22 205 20:18 30.04.2020
3840 Clouds 31 1011 79 10000 3.1 200 19:42 30.04.2020
3841 Clouds 31 1011 79 10000 3.1 200 19:24 30.04.2020
3842 Clouds 31 1011 79 10000 2.1 190 18:56 30.04.2020
3843 Clouds 31 1010 79 10000 3.6 200 18:37 30.04.2020
3844 Clear 34 1012 55 0 4.63 190 18:19 30.04.2020
3845 Clear 33 1011 65 0 4.63 190 17:56 30.04.2020
3846 Clear 33 1011 65 0 4.63 190 17:38 30.04.2020
3847 Clear 33 1012 53 0 4.52 187 17:19 30.04.2020
3848 Clear 32 1011 63 0 4.52 187 16:54 30.04.2020
3849 Clear 33 1011 63 0 4.52 187 16:36 30.04.2020
3850 Clouds 33 1011 52 0 4.13 189 16:18 30.04.2020
3851 Clouds 34 1010 63 0 4.13 189 15:44 30.04.2020
3852 Clouds 34 1010 66 0 3.84 187 15:21 30.04.2020
3853 Clouds 33 1010 51 0 3.84 187 14:42 30.04.2020
3854 Clouds 33 1008 69 0 4.43 188 14:22 30.04.2020
3855 Clouds 34 1010 50 0 4.43 188 13:59 30.04.2020
3856 Clouds 34 1010 48 0 4.43 188 13:40 30.04.2020
3857 Clouds 34 1009 48 0 4.02 187 13:22 30.04.2020
3858 Clouds 34 1009 48 0 4.02 187 12:58 30.04.2020
3859 Clouds 34 1009 48 0 4.02 187 12:40 30.04.2020
3860 Clouds 35 1009 49 0 3.82 181 12:18 30.04.2020
3861 Clouds 35 1009 49 0 3.82 181 11:38 30.04.2020
3862 Clouds 35 1009 51 0 3.13 170 11:19 30.04.2020
3863 Clouds 34 1008 59 10000 4.1 200 10:57 30.04.2020
3864 Clouds 34 1009 53 0 3.13 170 10:38 30.04.2020
3865 Clouds 34 1009 56 0 2.51 155 10:19 30.04.2020
3866 Clouds 33 1010 56 0 2.51 155 09:55 30.04.2020
3867 Clouds 34 1009 63 10000 6.2 170 09:36 30.04.2020
3868 Clouds 35 1010 50 10000 2.1 90 09:18 30.04.2020
3869 Clouds 35 1010 50 10000 3.6 350 08:42 30.04.2020
3870 Clouds 35 1010 50 10000 3.6 350 08:23 30.04.2020
3871 Clouds 34 1012 50 0 3.01 118 07:43 30.04.2020
3872 Rain 35 1012 48 0 2.92 85 07:25 30.04.2020
3873 Rain 35 1012 44 0 2.92 85 06:48 30.04.2020
3874 Rain 34 1013 45 0 2.23 30 05:50 30.04.2020
3875 Clouds 32 1013 53 0 2.31 335 05:30 30.04.2020
3876 Clouds 32 1013 54 0 2.31 335 04:33 30.04.2020
3877 Clouds 31 1011 72 0 0.45 285 03:53 30.04.2020
3878 Clouds 31 1013 55 0 2.39 314 02:43 30.04.2020
3879 Clouds 28 1012 83 6000 1.5 70 02:23 30.04.2020
3880 Clouds 29 1011 88 6000 1.5 20 01:35 30.04.2020
3881 Clouds 29 1011 88 8000 1.5 30 00:42 30.04.2020
3882 Clouds 29 1011 88 8000 1.5 70 00:19 30.04.2020
3883 Clouds 29 1011 88 8000 1.5 70 23:56 29.04.2020
3884 Clouds 29 1010 88 8000 1.5 60 23:36 29.04.2020
3885 Clouds 29 1010 88 8000 1.5 70 23:18 29.04.2020
3886 Clouds 29 1010 88 8000 1.5 70 23:18 29.04.2020
3887 Clouds 29 1010 88 8000 1.5 70 22:40 29.04.2020
3888 Clouds 29 1010 88 8000 1.5 70 22:21 29.04.2020
3889 Clouds 29 1010 94 8000 2.1 50 21:57 29.04.2020
3890 Clouds 29 1010 94 8000 2.1 50 21:57 29.04.2020
3891 Clouds 30 1009 74 0 2.84 210 21:36 29.04.2020
3892 Clouds 29 1011 94 8000 2.1 50 21:18 29.04.2020
3893 Clouds 29 1011 94 9000 2.6 100 20:41 29.04.2020
3894 Clouds 29 1011 94 9000 2.6 100 20:20 29.04.2020
3895 Clouds 30 1012 88 10000 2.1 100 19:59 29.04.2020
3896 Clouds 30 1012 88 10000 1.5 100 19:41 29.04.2020
3897 Clouds 30 1012 88 10000 1.5 100 19:20 29.04.2020
3898 Clouds 30 1012 83 10000 2.6 110 18:43 29.04.2020
3899 Clouds 32 1013 52 0 4.38 177 18:25 29.04.2020
3900 Clouds 32 1013 52 0 4.38 177 17:57 29.04.2020
3901 Clouds 32 1013 51 0 4.38 177 17:39 29.04.2020
3902 Clouds 32 1011 72 0 4.52 176 17:20 29.04.2020
3903 Clouds 32 1013 52 0 4.52 176 16:39 29.04.2020
3904 Clouds 32 1013 52 0 4.52 176 16:39 29.04.2020
3905 Clouds 32 1010 72 0 5.08 189 16:19 29.04.2020
3906 Clouds 32 1012 51 0 5.08 189 15:57 29.04.2020
3907 Clouds 31 1012 51 0 5.08 189 15:39 29.04.2020
3908 Rain 31 1009 72 0 4.65 188 15:20 29.04.2020
3909 Rain 31 1011 50 0 4.65 188 14:57 29.04.2020
3910 Rain 31 1011 50 0 4.65 188 14:38 29.04.2020
3911 Rain 31 1011 50 0 4.65 188 14:38 29.04.2020
3912 Clouds 32 1009 56 0 5.07 177 14:18 29.04.2020
3913 Clouds 33 1009 53 0 5.07 177 13:42 29.04.2020
3914 Clouds 33 1008 54 0 4.99 179 13:20 29.04.2020
3915 Clouds 33 1008 53 0 4.99 179 12:59 29.04.2020
3916 Clouds 32 1008 61 0 4.99 179 12:39 29.04.2020
3917 Clouds 32 1008 66 10000 8.7 150 12:19 29.04.2020
3918 Clouds 33 1008 62 10000 2.6 180 11:40 29.04.2020
3919 Clouds 34 1008 62 10000 2.6 180 11:21 29.04.2020
3920 Clouds 34 1009 46 0 3.09 196 10:59 29.04.2020
3921 Clouds 34 1009 44 0 3.09 196 10:37 29.04.2020
3922 Clouds 34 1009 45 0 2.73 206 10:19 29.04.2020
3923 Clouds 33 1007 66 0 0.89 290 09:42 29.04.2020
3924 Rain 32 1010 88 7000 8.2 90 09:24 29.04.2020
3925 Thunderstorm 32 1010 88 7000 4.6 260 08:57 29.04.2020
3926 Rain 35 1011 46 0 1.98 194 08:39 29.04.2020
3927 Rain 35 1011 46 0 2.82 166 08:20 29.04.2020
3928 Rain 35 1011 46 0 2.82 166 07:42 29.04.2020
3929 Clouds 34 1012 46 0 1.86 140 07:23 29.04.2020
3930 Clouds 34 1011 49 0 1.86 140 06:50 29.04.2020
3931 Clouds 34 1012 69 0 1.86 140 06:31 29.04.2020
3932 Clouds 34 1012 68 0 0.74 68 05:21 29.04.2020
3933 Clouds 33 1012 68 0 0.74 68 04:45 29.04.2020
3934 Clouds 32 1012 68 0 0.24 17 04:18 29.04.2020
3935 Clear 31 1011 67 0 1.23 248 02:42 29.04.2020
3936 Clouds 29 1010 67 0 1.14 273 01:44 29.04.2020
3937 Clouds 29 1010 67 0 1.59 248 01:23 29.04.2020
3938 Clouds 29 1010 67 0 1.59 248 00:41 29.04.2020
3939 Clouds 29 1010 68 0 1.79 236 00:19 29.04.2020
3940 Clouds 29 1010 68 0 1.79 236 00:19 29.04.2020
3941 Clouds 29 1010 68 0 1.79 236 23:50 28.04.2020
3942 Clouds 29 1010 67 0 1.84 214 23:24 28.04.2020
3943 Clouds 29 1009 67 0 1.84 214 22:57 28.04.2020
3944 Clouds 31 1009 68 0 1.84 214 22:37 28.04.2020
3945 Clouds 31 1009 68 0 1.84 214 22:37 28.04.2020
3946 Clouds 31 1009 68 0 2.27 205 22:18 28.04.2020
3947 Clouds 29 1009 68 0 2.27 205 21:54 28.04.2020
3948 Clouds 30 1009 70 10000 1.5 130 21:36 28.04.2020
3949 Clouds 30 1009 66 10000 2.1 230 21:18 28.04.2020
3950 Clouds 30 1009 66 10000 2.1 230 20:54 28.04.2020
3951 Clouds 30 1010 66 10000 2.1 210 20:36 28.04.2020
3952 Clouds 32 1010 68 0 3.12 199 20:18 28.04.2020
3953 Clouds 32 1011 68 0 3.12 199 19:42 28.04.2020
3954 Clouds 32 1011 68 0 2.85 198 19:22 28.04.2020
3955 Clouds 31 1010 62 10000 1.5 190 18:59 28.04.2020
3956 Clouds 30 1011 66 10000 2.1 210 18:40 28.04.2020
3957 Clouds 32 1011 67 0 2.7 192 18:19 28.04.2020
3958 Clouds 32 1011 67 0 2.7 192 18:19 28.04.2020
3959 Clouds 32 1011 67 0 2.7 192 18:19 28.04.2020
3960 Clouds 31 1011 66 10000 2.1 210 17:57 28.04.2020
3961 Clouds 31 1011 66 10000 2.1 210 17:57 28.04.2020
3962 Clouds 31 1012 66 0 2.7 192 17:36 28.04.2020
3963 Clouds 31 1012 66 0 2.4 192 17:18 28.04.2020
3964 Clouds 32 1011 63 0 2.4 192 16:42 28.04.2020
3965 Clouds 32 1011 64 0 2.53 206 16:23 28.04.2020
3966 Clouds 32 1011 62 0 2.53 206 15:57 28.04.2020
3967 Clouds 32 1011 60 0 2.53 206 15:39 28.04.2020
3968 Clouds 32 1010 59 0 3.1 200 15:21 28.04.2020
3969 Clouds 32 1010 59 0 3.1 200 14:57 28.04.2020
3970 Clouds 33 1010 56 0 3.1 200 14:39 28.04.2020
3971 Clouds 33 1010 56 0 3.4 199 14:19 28.04.2020
3972 Clouds 33 1010 57 0 1.92 202 13:57 28.04.2020
3973 Clouds 33 1009 58 0 1.92 202 13:37 28.04.2020
3974 Clouds 33 1009 58 0 1.99 187 13:19 28.04.2020
3975 Clouds 33 1009 61 0 1.99 187 12:44 28.04.2020
3976 Clouds 34 1006 53 0 1.66 172 12:24 28.04.2020
3977 Clouds 35 1006 53 0 0.89 180 11:45 28.04.2020
3978 Clouds 35 1006 54 0 1.34 261 11:24 28.04.2020
3979 Clouds 35 1006 51 0 1.93 138 10:59 28.04.2020
3980 Clouds 35 1006 51 0 1.93 138 10:59 28.04.2020
3981 Clouds 35 1007 48 0 1.93 138 10:39 28.04.2020
3982 Clouds 35 1007 47 0 2.71 116 10:19 28.04.2020
3983 Clouds 34 1007 50 0 0.45 288 09:56 28.04.2020
3984 Clouds 35 1007 48 0 2.61 99 09:38 28.04.2020
3985 Clouds 34 1008 47 0 0.45 22 09:20 28.04.2020
3986 Clouds 35 1008 47 0 3.5 89 08:45 28.04.2020
3987 Clouds 34 1009 49 0 0.45 323 08:26 28.04.2020
3988 Clouds 34 1009 50 0 0.45 337 07:44 28.04.2020
3989 Clear 34 1010 51 0 0.45 78 07:19 28.04.2020
3990 Clear 33 1011 51 0 1.34 88 06:48 28.04.2020
3991 Clouds 33 1011 53 0 1.34 32 06:20 28.04.2020
3992 Clouds 31 1014 66 0 4.78 79 05:40 28.04.2020
3993 Clouds 31 1014 69 0 4.28 64 04:39 28.04.2020
3994 Clouds 29 1014 70 0 4.79 11 02:59 28.04.2020
3995 Clouds 28 1014 70 0 4.64 6 02:27 28.04.2020
3996 Clouds 28 1013 69 0 4.28 359 01:23 28.04.2020
3997 Clouds 28 1013 69 0 4.28 359 00:51 28.04.2020
3998 Clouds 28 1013 69 0 3.77 348 00:20 28.04.2020
3999 Clouds 28 1013 69 0 3.77 348 23:44 27.04.2020
4000 Clouds 28 1013 69 0 3.65 340 23:22 27.04.2020
4001 Clouds 28 1013 70 0 3.65 340 22:55 27.04.2020
4002 Clouds 28 1013 70 0 3.65 340 22:55 27.04.2020
4003 Clouds 27 1013 83 10000 2.6 310 22:37 27.04.2020
4004 Clouds 28 1013 70 0 3.46 325 22:18 27.04.2020
4005 Clouds 29 1014 71 0 3.46 325 21:54 27.04.2020
4006 Clouds 29 1014 71 0 3.46 325 21:36 27.04.2020
4007 Clouds 28 1014 72 0 3.55 318 21:18 27.04.2020
4008 Clouds 29 1015 71 0 3.55 318 20:42 27.04.2020
4009 Clouds 30 1015 71 0 3.29 311 20:21 27.04.2020
4010 Clouds 30 1015 72 0 3.29 311 19:57 27.04.2020
4011 Clouds 30 1015 72 0 3.29 311 19:38 27.04.2020
4012 Rain 30 1015 72 0 3.22 296 19:19 27.04.2020
4013 Rain 30 1015 72 0 3.22 296 19:19 27.04.2020
4014 Rain 30 1015 72 0 3.22 296 18:56 27.04.2020
4015 Rain 30 1015 73 0 3.22 296 18:37 27.04.2020
4016 Rain 30 1016 73 0 3.2 279 18:18 27.04.2020
4017 Rain 30 1016 73 0 3.2 279 18:18 27.04.2020
4018 Rain 32 1015 73 0 3.2 279 17:41 27.04.2020
4019 Rain 32 1015 73 0 1.61 228 17:20 27.04.2020
4020 Rain 32 1015 73 0 1.61 228 16:55 27.04.2020
4021 Rain 32 1015 72 0 1.61 228 16:37 27.04.2020
4022 Rain 32 1014 72 0 2.68 155 16:19 27.04.2020
4023 Rain 33 1014 72 0 2.68 155 15:56 27.04.2020
4024 Rain 32 1014 72 0 2.68 155 15:37 27.04.2020
4025 Rain 32 1013 71 0 0.94 312 15:18 27.04.2020
4026 Rain 33 1013 71 0 0.94 312 14:41 27.04.2020
4027 Rain 32 1013 74 0 1.06 129 14:20 27.04.2020
4028 Rain 32 1013 74 0 1.06 129 13:57 27.04.2020
4029 Rain 32 1012 73 0 1.06 129 13:38 27.04.2020
4030 Rain 32 1012 73 0 1.06 129 13:18 27.04.2020
4031 Rain 33 1009 62 0 1.06 129 12:43 27.04.2020
4032 Rain 33 1012 45 0 0.86 148 12:22 27.04.2020
4033 Rain 33 1011 46 0 0.86 148 11:56 27.04.2020
4034 Rain 33 1011 46 0 0.86 148 11:37 27.04.2020
4035 Rain 32 1011 70 9000 5.1 320 11:18 27.04.2020
4036 Clouds 32 1011 74 9000 8.7 340 10:42 27.04.2020
4037 Clouds 32 1011 74 9000 8.7 340 10:24 27.04.2020
4038 Clouds 33 1011 55 9000 2.6 10 09:58 27.04.2020
4039 Clouds 33 1012 55 9000 3.6 40 09:39 27.04.2020
4040 Clouds 33 1012 59 9000 2.6 30 09:18 27.04.2020
4041 Clouds 32 1012 59 9000 2.6 30 08:52 27.04.2020
4042 Clouds 33 1013 55 8000 2.6 60 08:32 27.04.2020
4043 Clouds 33 1014 66 10000 2.6 110 07:45 27.04.2020
4044 Clouds 33 1014 66 10000 2.6 110 07:27 27.04.2020
4045 Clouds 32 1014 66 10000 2.1 60 06:58 27.04.2020
4046 Clouds 31 1014 66 10000 1.5 270 06:30 27.04.2020
4047 Clouds 31 1014 66 9000 1 210 05:57 27.04.2020
4048 Clouds 31 1015 66 9000 1.5 200 05:19 27.04.2020
4049 Clouds 30 1014 74 9000 1.5 200 04:39 27.04.2020
4050 Clouds 30 1014 74 9000 1.5 200 04:39 27.04.2020
4051 Clouds 29 1013 74 8000 2.6 120 03:45 27.04.2020
4052 Clouds 29 1013 74 8000 2.6 120 03:45 27.04.2020
4053 Clouds 29 1012 78 8000 1.5 160 02:32 27.04.2020
4054 Clouds 29 1012 78 8000 4.1 150 01:20 27.04.2020
4055 Clouds 29 1010 74 8000 3.1 350 00:40 27.04.2020
4056 Clouds 29 1010 74 8000 3.1 350 00:40 27.04.2020
4057 Clouds 29 1010 74 8000 2.1 360 00:18 27.04.2020
4058 Clouds 29 1010 74 8000 2.1 360 23:55 26.04.2020
4059 Clouds 29 1010 78 8000 2.1 10 23:36 26.04.2020
4060 Clouds 29 1010 78 8000 2.1 10 23:36 26.04.2020
4061 Clouds 29 1010 78 8000 2.1 350 23:18 26.04.2020
4062 Clouds 29 1010 74 8000 3.6 340 22:40 26.04.2020
4063 Clouds 30 1010 74 8000 3.6 340 22:22 26.04.2020
4064 Clouds 29 1010 74 8000 2.1 350 21:59 26.04.2020
4065 Clouds 29 1010 74 8000 2.1 350 21:59 26.04.2020
4066 Clouds 29 1011 74 8000 3.6 340 21:41 26.04.2020
4067 Clouds 30 1011 70 10000 1.5 10 21:19 26.04.2020
4068 Clouds 30 1011 70 10000 1.5 10 20:59 26.04.2020
4069 Clouds 31 1011 74 10000 1 10 20:39 26.04.2020
4070 Clouds 30 1011 74 10000 1 10 20:20 26.04.2020
4071 Clouds 30 1012 74 10000 0.5 140 19:58 26.04.2020
4072 Clouds 30 1012 70 10000 1 180 19:37 26.04.2020
4073 Clouds 29 1012 74 10000 1 20 19:19 26.04.2020
4074 Clouds 30 1012 66 10000 1 360 18:44 26.04.2020
4075 Clouds 30 1012 66 10000 1 360 18:24 26.04.2020
4076 Clouds 30 1012 66 10000 1 360 18:24 26.04.2020
4077 Clouds 30 1011 62 10000 1 30 17:45 26.04.2020
4078 Clouds 32 1011 62 10000 1 30 17:24 26.04.2020
4079 Clouds 32 1011 62 10000 1 360 17:00 26.04.2020
4080 Clouds 33 1010 62 10000 1 50 16:40 26.04.2020
4081 Clouds 33 1010 62 10000 1 50 16:21 26.04.2020
4082 Clouds 33 1010 62 10000 1.5 30 15:58 26.04.2020
4083 Clouds 33 1010 62 10000 2.1 60 15:38 26.04.2020
4084 Clouds 34 1010 62 10000 2.1 60 15:20 26.04.2020
4085 Clouds 33 1010 62 10000 1.5 80 14:54 26.04.2020
4086 Clouds 33 1009 59 10000 3.1 80 14:36 26.04.2020
4087 Clouds 33 1009 55 10000 3.1 70 14:18 26.04.2020
4088 Clouds 33 1009 55 10000 3.6 50 13:41 26.04.2020
4089 Clouds 34 1009 55 10000 3.6 50 13:23 26.04.2020
4090 Clouds 34 1008 55 10000 4.1 50 12:57 26.04.2020
4091 Clouds 34 1008 55 10000 6.2 40 12:39 26.04.2020
4092 Clouds 34 1008 55 10000 6.2 40 12:20 26.04.2020
4093 Clouds 34 1008 59 10000 8.2 30 11:57 26.04.2020
4094 Clouds 36 1008 44 10000 3.6 100 11:38 26.04.2020
4095 Clouds 36 1008 44 10000 3.6 100 11:20 26.04.2020
4096 Clouds 36 1009 44 10000 3.1 110 10:55 26.04.2020
4097 Clouds 36 1009 47 10000 2.6 120 10:36 26.04.2020
4098 Clouds 36 1009 47 10000 2.1 100 10:18 26.04.2020
4099 Clouds 35 1009 50 10000 3.1 100 09:39 26.04.2020
4100 Clouds 35 1009 50 10000 3.1 100 09:20 26.04.2020
4101 Clouds 35 1011 52 10000 3.1 0 08:42 26.04.2020
4102 Clouds 35 1011 52 10000 3.1 0 08:23 26.04.2020
4103 Clouds 34 1011 49 10000 5.1 70 07:50 26.04.2020
4104 Clouds 34 1012 55 10000 3.1 80 07:25 26.04.2020
4105 Clouds 34 1012 59 10000 2.6 130 06:56 26.04.2020
4106 Clouds 33 1013 59 10000 1.5 20 06:33 26.04.2020
4107 Clouds 33 1013 62 10000 2.6 70 05:54 26.04.2020
4108 Clouds 32 1013 62 10000 1.5 10 05:35 26.04.2020
4109 Clouds 31 1012 79 9000 2.6 340 04:43 26.04.2020
4110 Clouds 30 1012 74 9000 3.6 350 03:50 26.04.2020
4111 Mist 28 1011 88 5000 2.69 354 02:44 26.04.2020
4112 Mist 28 1011 94 5000 1 220 02:21 26.04.2020
4113 Clouds 27 1011 88 6000 1.5 300 01:38 26.04.2020
4114 Clouds 28 1011 94 8000 1.93 18 01:19 26.04.2020
4115 Clouds 27 1011 94 8000 1 0 00:38 26.04.2020
4116 Clouds 29 1011 94 8000 1 0 00:18 26.04.2020
4117 Clouds 29 1011 94 8000 1 360 23:38 25.04.2020
4118 Clouds 29 1011 94 8000 1 360 23:20 25.04.2020
4119 Clouds 28 1011 94 9000 1 50 22:54 25.04.2020
4120 Clouds 28 1011 94 10000 1.95 349 22:36 25.04.2020
4121 Clouds 26 1011 94 10000 1.5 280 22:18 25.04.2020
4122 Clouds 28 1012 94 10000 1.5 330 21:39 25.04.2020
4123 Clouds 29 1012 94 10000 1.5 330 21:20 25.04.2020
4124 Clouds 29 1012 94 10000 1.5 330 20:56 25.04.2020
4125 Clouds 29 1012 94 10000 2.1 350 20:37 25.04.2020
4126 Clouds 29 1012 94 10000 2.1 350 20:19 25.04.2020
4127 Clouds 29 1012 94 10000 1 320 19:41 25.04.2020
4128 Clouds 28 1012 94 10000 1 320 19:22 25.04.2020
4129 Clouds 28 1012 88 10000 2.1 320 18:57 25.04.2020
4130 Clouds 28 1013 88 10000 2.1 260 18:39 25.04.2020
4131 Clouds 28 1013 88 10000 2.1 260 18:20 25.04.2020
4132 Clouds 28 1013 88 10000 3.6 290 17:56 25.04.2020
4133 Clouds 28 1012 88 10000 2.6 270 17:37 25.04.2020
4134 Clouds 28 1012 88 10000 3.1 270 17:19 25.04.2020
4135 Clouds 28 1012 88 10000 3.6 240 16:48 25.04.2020
4136 Clouds 28 1012 88 10000 3.6 240 16:29 25.04.2020
4137 Clouds 29 1011 88 10000 3.6 260 15:59 25.04.2020
4138 Clouds 29 1011 88 10000 3.1 260 15:39 25.04.2020
4139 Clouds 28 1011 88 10000 3.1 220 15:19 25.04.2020
4140 Clouds 29 1011 88 10000 3.1 220 14:57 25.04.2020
4141 Clouds 30 1011 88 10000 3.1 210 14:38 25.04.2020
4142 Clouds 30 1010 88 10000 2.6 180 14:19 25.04.2020
4143 Rain 29 1010 88 9000 4.6 200 13:43 25.04.2020
4144 Rain 29 1010 88 9000 1.5 300 13:19 25.04.2020
4145 Rain 29 1010 88 9000 1.5 300 12:58 25.04.2020
4146 Rain 30 1010 94 9000 3.1 220 12:39 25.04.2020
4147 Rain 31 1010 88 9000 2.1 350 12:20 25.04.2020
4148 Rain 31 1010 88 9000 2.1 350 11:55 25.04.2020
4149 Rain 31 1009 83 9000 4.1 330 11:37 25.04.2020
4150 Rain 31 1010 83 8000 4.6 360 11:19 25.04.2020
4151 Thunderstorm 31 1011 83 5000 5.7 30 10:42 25.04.2020
4152 Thunderstorm 31 1011 83 5000 5.7 30 10:22 25.04.2020
4153 Thunderstorm 31 1011 100 1500 13.9 120 09:47 25.04.2020
4154 Thunderstorm 32 1011 100 1500 13.9 120 09:27 25.04.2020
4155 Clouds 35 1010 52 10000 2.1 100 08:57 25.04.2020
4156 Clouds 34 1010 62 10000 7.2 340 08:38 25.04.2020
4157 Clouds 34 1010 62 10000 7.2 340 08:20 25.04.2020
4158 Clouds 34 1010 62 10000 7.2 340 08:20 25.04.2020
4159 Clouds 35 1011 59 10000 3.1 60 07:46 25.04.2020
4160 Clouds 34 1011 59 10000 3.1 60 07:24 25.04.2020
4161 Clouds 34 1012 59 10000 3.1 60 06:44 25.04.2020
4162 Clouds 32 1012 66 10000 3.1 50 05:56 25.04.2020
4163 Clouds 31 1012 70 10000 3.1 50 05:31 25.04.2020
4164 Clouds 31 1012 70 10000 3.1 40 04:42 25.04.2020
4165 Clouds 30 1011 74 9000 2.6 40 02:59 25.04.2020
4166 Clouds 29 1011 83 9000 2.1 30 02:20 25.04.2020
4167 Clouds 29 1011 83 8000 1.5 60 01:51 25.04.2020
4168 Clouds 29 1010 88 9000 2.1 30 01:27 25.04.2020
4169 Clouds 29 1010 83 10000 1.5 10 00:50 25.04.2020
4170 Clouds 29 1010 88 10000 2.43 33 00:31 25.04.2020
4171 Clouds 29 1010 83 10000 1.84 226 23:43 24.04.2020
4172 Clouds 29 1010 83 10000 1.84 226 23:22 24.04.2020
4173 Clouds 29 1010 88 10000 2.6 40 22:56 24.04.2020
4174 Clouds 29 1009 88 10000 2.1 20 22:37 24.04.2020
4175 Clouds 29 1009 88 10000 2.1 20 22:19 24.04.2020
4176 Clouds 30 1010 79 10000 1 170 21:54 24.04.2020
4177 Clouds 29 1010 79 10000 1 170 21:36 24.04.2020
4178 Clouds 30 1010 83 10000 0.5 170 21:18 24.04.2020
4179 Clouds 30 1010 79 10000 1.5 170 20:44 24.04.2020
4180 Clouds 30 1010 79 10000 1.5 170 20:19 24.04.2020
4181 Clouds 30 1011 79 10000 2.1 170 19:58 24.04.2020
4182 Clouds 30 1011 74 10000 2.1 180 19:39 24.04.2020
4183 Clouds 30 1011 74 10000 2.1 180 19:20 24.04.2020
4184 Clouds 31 1011 74 10000 2.6 160 18:43 24.04.2020
4185 Clouds 31 1011 74 10000 2.6 160 18:25 24.04.2020
4186 Clouds 31 1010 66 10000 3.6 160 17:54 24.04.2020
4187 Clouds 31 1010 66 10000 2.6 150 17:36 24.04.2020
4188 Clouds 30 1009 66 10000 3.6 150 17:18 24.04.2020
4189 Clouds 31 1009 66 10000 2.6 160 16:55 24.04.2020
4190 Clouds 31 1009 66 10000 2.6 160 16:37 24.04.2020
4191 Clouds 33 1008 62 10000 3.1 150 16:19 24.04.2020
4192 Clouds 33 1008 62 10000 3.1 150 16:19 24.04.2020
4193 Clouds 32 1008 62 10000 3.1 170 15:40 24.04.2020
4194 Clouds 32 1008 62 10000 3.1 170 15:20 24.04.2020
4195 Clouds 33 1008 59 10000 2.6 160 14:41 24.04.2020
4196 Clouds 33 1008 59 10000 3.1 180 14:22 24.04.2020
4197 Clouds 33 1008 59 10000 3.1 180 13:58 24.04.2020
4198 Clouds 34 1007 55 10000 3.1 180 13:40 24.04.2020
4199 Clouds 34 1007 55 10000 3.1 180 13:20 24.04.2020
4200 Clouds 34 1007 55 10000 5.1 190 12:46 24.04.2020
4201 Clouds 34 1007 55 10000 5.1 190 12:26 24.04.2020
4202 Clouds 34 1007 52 10000 4.1 160 11:59 24.04.2020
4203 Clouds 34 1007 59 10000 5.1 170 11:40 24.04.2020
4204 Clouds 34 1007 59 10000 5.1 170 11:20 24.04.2020
4205 Clouds 34 1008 56 10000 5.7 160 10:56 24.04.2020
4206 Clouds 35 1008 47 10000 4.6 170 10:37 24.04.2020
4207 Clouds 35 1008 47 10000 4.6 170 10:19 24.04.2020
4208 Clouds 35 1009 47 10000 3.6 90 09:46 24.04.2020
4209 Clouds 36 1009 47 10000 3.6 90 09:24 24.04.2020
4210 Clouds 36 1010 47 10000 2.1 40 08:58 24.04.2020
4211 Clouds 35 1010 49 10000 2.6 90 08:39 24.04.2020
4212 Clouds 36 1011 46 10000 1.5 0 08:18 24.04.2020
4213 Clouds 35 1012 49 9000 1.5 0 07:46 24.04.2020
4214 Clouds 35 1012 49 9000 1.5 0 07:26 24.04.2020
4215 Clouds 34 1012 59 9000 1 0 06:57 24.04.2020
4216 Clouds 33 1013 58 9000 1.5 110 06:37 24.04.2020
4217 Clouds 32 1013 74 9000 1.5 60 05:48 24.04.2020
4218 Clouds 32 1013 70 9000 1.5 60 04:30 24.04.2020
4219 Clouds 30 1012 78 10000 2.15 246 03:19 24.04.2020
4220 Clouds 29 1011 78 10000 2.1 120 02:41 24.04.2020
4221 Clouds 29 1011 78 10000 2.1 120 02:20 24.04.2020
4222 Clouds 29 1010 78 10000 2.64 273 01:24 24.04.2020
4223 Clouds 29 1010 78 10000 2.64 273 00:38 24.04.2020
4224 Clouds 29 1009 74 10000 3.6 70 00:18 24.04.2020
4225 Clouds 29 1009 74 10000 4.1 40 23:44 23.04.2020
4226 Clouds 29 1009 74 10000 4.1 40 23:26 23.04.2020
4227 Clouds 30 1009 78 10000 3.34 213 22:55 23.04.2020
4228 Clouds 30 1009 78 10000 2.1 220 22:37 23.04.2020
4229 Clouds 30 1009 78 10000 2.1 220 22:37 23.04.2020
4230 Clouds 30 1009 74 10000 4.6 250 22:18 23.04.2020
4231 Clouds 30 1009 74 10000 4.6 250 21:56 23.04.2020
4232 Clouds 30 1009 74 10000 4.6 240 21:38 23.04.2020
4233 Clouds 30 1009 74 10000 4.6 240 21:19 23.04.2020
4234 Clouds 30 1010 69 10000 2.6 210 20:43 23.04.2020
4235 Clouds 30 1010 69 10000 2.6 210 20:22 23.04.2020
4236 Clouds 30 1011 74 10000 2.6 180 19:59 23.04.2020
4237 Clouds 30 1012 74 10000 3.6 150 19:40 23.04.2020
4238 Clouds 30 1012 74 10000 3.6 150 19:21 23.04.2020
4239 Clouds 30 1012 74 10000 4.1 150 18:56 23.04.2020
4240 Clouds 31 1012 78 10000 5.7 110 18:38 23.04.2020
4241 Clouds 31 1012 69 10000 3.6 100 18:19 23.04.2020
4242 Clouds 31 1012 69 10000 3.6 100 17:55 23.04.2020
4243 Clouds 31 1012 69 10000 5.1 110 17:36 23.04.2020
4244 Clouds 31 1011 69 10000 4.6 110 17:18 23.04.2020
4245 Clouds 31 1011 62 10000 4.1 140 16:43 23.04.2020
4246 Clouds 32 1009 74 10000 5.7 170 16:19 23.04.2020
4247 Clouds 32 1008 69 10000 6.2 160 15:43 23.04.2020
4248 Clouds 32 1008 74 10000 7.7 140 15:23 23.04.2020
4249 Clouds 32 1008 74 10000 7.7 140 15:23 23.04.2020
4250 Clouds 32 1008 74 10000 7.7 140 14:59 23.04.2020
4251 Clouds 33 1009 69 10000 6.7 90 14:39 23.04.2020
4252 Clouds 33 1009 69 10000 6.7 90 14:21 23.04.2020
4253 Rain 33 1009 69 10000 7.2 60 13:57 23.04.2020
4254 Clouds 34 1008 55 10000 10.8 70 13:38 23.04.2020
4255 Clouds 35 1006 47 10000 4.1 220 13:19 23.04.2020
4256 Clouds 36 1006 44 10000 5.1 230 12:44 23.04.2020
4257 Clouds 36 1006 44 10000 5.1 230 12:26 23.04.2020
4258 Clouds 37 1005 44 10000 6.2 210 11:59 23.04.2020
4259 Clouds 37 1005 44 10000 6.2 210 11:59 23.04.2020
4260 Clouds 37 1006 44 10000 5.1 210 11:40 23.04.2020
4261 Clouds 37 1006 44 10000 5.1 210 11:22 23.04.2020
4262 Clouds 38 1007 42 10000 5.1 210 10:42 23.04.2020
4263 Clouds 38 1007 42 10000 5.1 210 10:24 23.04.2020
4264 Clouds 37 1007 44 10000 4.6 210 09:55 23.04.2020
4265 Clouds 38 1008 45 10000 2.1 0 09:37 23.04.2020
4266 Clouds 38 1008 45 10000 2.6 0 09:18 23.04.2020
4267 Clouds 37 1008 50 10000 3.1 0 08:45 23.04.2020
4268 Clouds 37 1008 50 10000 3.1 0 08:27 23.04.2020
4269 Clouds 37 1010 44 10000 2.6 190 07:43 23.04.2020
4270 Clouds 37 1010 44 10000 2.6 190 07:23 23.04.2020
4271 Clouds 36 1011 50 10000 3.1 170 06:49 23.04.2020
4272 Clouds 35 1011 50 10000 3.1 170 06:27 23.04.2020
4273 Clouds 35 1011 63 10000 3.1 190 05:31 23.04.2020
4274 Clouds 34 1011 70 10000 2.6 140 04:52 23.04.2020
4275 Clouds 30 1010 74 10000 2.6 110 02:24 23.04.2020
4276 Clouds 30 1010 78 10000 3.1 110 01:49 23.04.2020
4277 Clouds 30 1010 78 10000 3.1 110 01:25 23.04.2020
4278 Clouds 30 1009 74 10000 2.1 110 00:45 23.04.2020
4279 Clouds 30 1009 89 10000 2.6 100 00:20 23.04.2020
4280 Clouds 31 1009 89 10000 2.6 120 23:48 22.04.2020
4281 Clouds 31 1009 89 10000 2.6 120 23:23 22.04.2020
4282 Clouds 31 1009 83 10000 1.5 200 22:55 22.04.2020
4283 Clouds 31 1009 79 10000 2.6 180 22:36 22.04.2020
4284 Clouds 31 1009 79 10000 2.1 210 22:18 22.04.2020
4285 Clouds 31 1009 79 10000 2.1 210 21:55 22.04.2020
4286 Clouds 31 1009 83 10000 2.1 210 21:37 22.04.2020
4287 Clouds 31 1009 83 10000 3.1 210 21:18 22.04.2020
4288 Clouds 31 1009 79 10000 3.6 210 20:43 22.04.2020
4289 Clouds 31 1009 74 10000 4.6 170 20:19 22.04.2020
4290 Clouds 31 1009 74 10000 4.6 170 19:57 22.04.2020
4291 Clouds 31 1010 74 10000 4.6 170 19:38 22.04.2020
4292 Clouds 31 1010 70 10000 4.6 170 19:19 22.04.2020
4293 Clouds 32 1010 70 10000 4.6 170 18:58 22.04.2020
4294 Clouds 32 1010 66 10000 4.6 180 18:40 22.04.2020
4295 Clouds 32 1010 70 10000 5.1 170 18:22 22.04.2020
4296 Clouds 32 1010 66 10000 4.6 180 17:55 22.04.2020
4297 Clouds 32 1009 66 10000 3.1 160 17:37 22.04.2020
4298 Clouds 32 1009 62 10000 3.1 160 17:18 22.04.2020
4299 Clouds 32 1008 62 10000 2.6 170 16:41 22.04.2020
4300 Clouds 32 1008 62 10000 2.6 170 16:22 22.04.2020
4301 Clouds 33 1007 55 10000 4.1 170 15:43 22.04.2020
4302 Clouds 33 1007 55 10000 4.1 170 15:24 22.04.2020
4303 Clouds 34 1007 55 10000 3.6 180 14:59 22.04.2020
4304 Clouds 34 1007 55 10000 3.6 180 14:59 22.04.2020
4305 Clouds 34 1006 52 10000 4.1 190 14:40 22.04.2020
4306 Clouds 35 1006 52 10000 4.1 190 14:20 22.04.2020
4307 Clouds 34 1006 49 10000 4.6 190 13:56 22.04.2020
4308 Clouds 36 1006 44 10000 4.1 190 13:37 22.04.2020
4309 Clouds 36 1006 44 10000 4.1 200 13:19 22.04.2020
4310 Clouds 36 1006 39 10000 4.6 220 12:41 22.04.2020
4311 Clouds 37 1006 39 10000 4.6 220 12:22 22.04.2020
4312 Clouds 37 1006 42 10000 4.6 200 11:41 22.04.2020
4313 Clouds 37 1006 42 10000 4.6 200 11:22 22.04.2020
4314 Clouds 37 1007 42 10000 5.1 190 10:59 22.04.2020
4315 Clouds 37 1007 39 10000 4.1 180 10:40 22.04.2020
4316 Clouds 37 1007 39 10000 4.1 180 10:40 22.04.2020
4317 Clouds 37 1007 39 10000 4.1 180 10:20 22.04.2020
4318 Clouds 37 1008 44 10000 4.6 200 09:40 22.04.2020
4319 Clouds 37 1008 44 10000 4.6 200 09:21 22.04.2020
4320 Clouds 37 1009 47 10000 4.1 210 08:58 22.04.2020
4321 Clouds 37 1009 53 10000 4.1 170 08:40 22.04.2020
4322 Clouds 37 1009 53 10000 4.1 170 08:22 22.04.2020
4323 Clouds 37 1010 50 10000 3.1 190 07:53 22.04.2020
4324 Clouds 36 1010 50 10000 3.6 210 07:28 22.04.2020
4325 Clouds 36 1011 59 10000 2.6 210 06:53 22.04.2020
4326 Clouds 36 1011 59 10000 2.6 210 06:53 22.04.2020
4327 Clouds 35 1011 56 10000 4.1 190 06:21 22.04.2020
4328 Clouds 34 1011 63 10000 4.6 200 05:37 22.04.2020
4329 Clouds 32 1011 66 10000 4.6 200 04:20 22.04.2020
4330 Clouds 32 1011 66 10000 4.6 200 04:20 22.04.2020
4331 Clouds 31 1010 79 10000 4.1 200 02:51 22.04.2020
4332 Clouds 30 1009 84 10000 3.1 190 01:53 22.04.2020
4333 Clouds 30 1009 84 10000 2.6 180 01:27 22.04.2020
4334 Clouds 30 1009 79 10000 3.6 190 00:54 22.04.2020
4335 Clouds 30 1009 89 10000 2.6 190 00:36 22.04.2020
4336 Clouds 30 1009 89 10000 2.6 180 00:18 22.04.2020
4337 Clouds 30 1009 84 10000 2.6 200 23:41 21.04.2020
4338 Clouds 30 1009 84 10000 2.6 200 23:41 21.04.2020
4339 Clouds 30 1009 84 10000 2.6 190 23:19 21.04.2020
4340 Clouds 30 1009 84 10000 2.6 190 23:19 21.04.2020
4341 Clouds 31 1008 84 10000 4.6 180 22:40 21.04.2020
4342 Clouds 31 1008 84 10000 4.6 180 22:22 21.04.2020
4343 Clouds 31 1009 84 10000 5.1 180 21:59 21.04.2020
4344 Clouds 30 1009 84 10000 2.6 190 21:41 21.04.2020
4345 Clouds 30 1009 84 10000 2.6 190 21:22 21.04.2020
4346 Clouds 30 1009 84 10000 4.1 190 20:55 21.04.2020
4347 Clouds 30 1009 84 10000 4.6 180 20:37 21.04.2020
4348 Clouds 30 1009 84 10000 5.7 180 20:19 21.04.2020
4349 Clouds 30 1010 84 10000 5.1 180 19:40 21.04.2020
4350 Clouds 31 1010 84 10000 5.1 180 19:19 21.04.2020
4351 Clouds 31 1010 79 10000 5.7 180 18:57 21.04.2020
4352 Clouds 30 1010 79 10000 5.1 190 18:38 21.04.2020
4353 Clouds 31 1010 74 10000 5.7 190 18:19 21.04.2020
4354 Clouds 31 1010 74 10000 5.7 190 17:55 21.04.2020
4355 Clouds 32 1010 74 10000 4.6 190 17:37 21.04.2020
4356 Clouds 32 1009 74 10000 4.6 190 17:18 21.04.2020
4357 Clouds 32 1009 74 10000 3.6 190 16:39 21.04.2020
4358 Clouds 32 1009 74 10000 3.6 190 16:39 21.04.2020
4359 Clouds 32 1008 74 10000 4.1 180 16:19 21.04.2020
4360 Clouds 32 1008 74 10000 4.1 180 15:57 21.04.2020
4361 Clouds 32 1008 70 10000 5.1 190 15:38 21.04.2020
4362 Clouds 33 1008 70 10000 5.1 190 15:20 21.04.2020
4363 Clouds 33 1007 66 10000 4.1 190 14:54 21.04.2020
4364 Clouds 33 1007 62 10000 4.6 210 14:36 21.04.2020
4365 Clouds 34 1007 55 10000 4.6 210 14:18 21.04.2020
4366 Clouds 35 1006 50 10000 4.6 200 13:40 21.04.2020
4367 Clouds 35 1006 50 10000 4.6 200 13:40 21.04.2020
4368 Clouds 35 1006 50 10000 4.6 200 13:22 21.04.2020
4369 Clouds 35 1006 47 10000 5.1 190 12:55 21.04.2020
4370 Clouds 36 1006 41 10000 4.6 220 12:36 21.04.2020
4371 Clouds 37 1006 42 10000 5.7 200 12:18 21.04.2020
4372 Clouds 37 1006 42 10000 5.7 200 12:18 21.04.2020
4373 Clouds 37 1006 42 10000 5.7 200 12:18 21.04.2020
4374 Clouds 37 1006 42 10000 5.7 200 11:54 21.04.2020
4375 Clouds 36 1007 41 10000 4.6 200 11:36 21.04.2020
4376 Clouds 37 1007 42 10000 4.6 200 11:18 21.04.2020
4377 Clouds 37 1007 42 10000 4.6 200 11:18 21.04.2020
4378 Clouds 37 1007 42 10000 4.6 200 10:54 21.04.2020
4379 Clouds 37 1007 44 10000 5.1 200 10:36 21.04.2020
4380 Clouds 37 1007 44 10000 4.1 190 10:18 21.04.2020
4381 Clouds 37 1008 42 10000 4.6 200 09:37 21.04.2020
4382 Clouds 37 1008 42 10000 4.1 210 09:18 21.04.2020
4383 Clouds 37 1009 44 10000 5.1 230 08:47 21.04.2020
4384 Clouds 37 1009 44 10000 5.1 230 08:27 21.04.2020
4385 Clouds 37 1009 44 10000 5.1 230 08:27 21.04.2020
4386 Clouds 37 1009 47 10000 4.1 200 07:56 21.04.2020
4387 Clouds 36 1010 50 10000 4.6 200 07:37 21.04.2020
4388 Clouds 36 1010 50 10000 4.6 190 07:19 21.04.2020
4389 Clouds 36 1010 47 10000 4.6 190 06:43 21.04.2020
4390 Clouds 35 1011 50 10000 3.6 200 06:18 21.04.2020
4391 Clouds 35 1011 56 10000 3.1 190 05:44 21.04.2020
4392 Clouds 33 1010 74 10000 2.6 200 03:48 21.04.2020
4393 Clouds 33 1010 74 10000 2.6 200 03:48 21.04.2020
4394 Clouds 30 1010 74 10000 1.5 210 02:59 21.04.2020
4395 Clouds 29 1009 83 10000 2.1 170 01:37 21.04.2020
4396 Clouds 29 1009 83 10000 1.5 170 00:51 21.04.2020
4397 Clouds 29 1009 88 10000 1 210 00:25 21.04.2020
4398 Clouds 30 1008 83 10000 4.21 183 23:44 20.04.2020
4399 Clouds 30 1008 83 10000 4.21 183 23:23 20.04.2020
4400 Clouds 30 1009 83 10000 4.21 183 22:57 20.04.2020
4401 Clouds 30 1009 83 10000 1 150 22:37 20.04.2020
4402 Clouds 30 1009 83 10000 3.1 180 22:19 20.04.2020
4403 Clouds 30 1009 83 10000 3.1 180 22:19 20.04.2020
4404 Clouds 30 1009 83 10000 3.1 180 21:55 20.04.2020
4405 Clouds 30 1009 79 10000 3.6 180 21:36 20.04.2020
4406 Clouds 30 1009 79 10000 3.6 190 21:18 20.04.2020
4407 Clouds 30 1009 79 10000 3.6 190 20:55 20.04.2020
4408 Clouds 30 1009 79 10000 3.1 180 20:36 20.04.2020
4409 Clouds 30 1010 74 10000 4.1 190 20:18 20.04.2020
4410 Clouds 31 1010 74 10000 3.1 180 19:41 20.04.2020
4411 Clouds 31 1010 74 10000 3.1 180 19:41 20.04.2020
4412 Clouds 31 1010 74 10000 3.1 180 19:22 20.04.2020
4413 Clouds 31 1010 74 10000 4.1 190 18:58 20.04.2020
4414 Clouds 31 1010 74 10000 4.1 180 18:39 20.04.2020
4415 Clouds 31 1010 74 10000 4.1 180 18:20 20.04.2020
4416 Clouds 31 1010 74 10000 4.1 180 18:20 20.04.2020
4417 Clouds 31 1010 74 10000 4.1 180 17:54 20.04.2020
4418 Clouds 31 1010 66 10000 4.6 190 17:36 20.04.2020
4419 Clouds 31 1009 74 10000 4.1 200 17:18 20.04.2020
4420 Clouds 32 1009 70 10000 4.6 180 16:42 20.04.2020
4421 Clouds 32 1009 70 10000 4.6 180 16:20 20.04.2020
4422 Clouds 32 1009 70 10000 4.6 190 15:56 20.04.2020
4423 Clouds 32 1009 70 10000 4.1 190 15:38 20.04.2020
4424 Clouds 32 1009 70 10000 4.1 190 15:38 20.04.2020
4425 Clouds 33 1009 70 10000 4.1 190 15:19 20.04.2020
4426 Clouds 33 1009 66 10000 4.1 210 14:42 20.04.2020
4427 Clear 33 1010 56 0 5.76 185 14:19 20.04.2020
4428 Clear 35 1010 56 0 5.76 185 13:58 20.04.2020
4429 Clear 35 1010 56 0 5.76 185 13:58 20.04.2020
4430 Clear 35 1009 55 0 5.76 185 13:39 20.04.2020
4431 Clear 36 1008 48 0 5.76 185 13:20 20.04.2020
4432 Clear 36 1009 56 0 5.76 185 12:44 20.04.2020
4433 Clear 36 1009 56 0 5.33 190 12:23 20.04.2020
4434 Clear 36 1009 55 0 5.33 190 11:58 20.04.2020
4435 Clear 36 1009 55 0 5.33 190 11:38 20.04.2020
4436 Clear 37 1008 48 0 5.33 190 11:18 20.04.2020
4437 Clear 37 1008 48 0 5.33 190 10:55 20.04.2020
4438 Clear 37 1008 48 0 5.33 190 10:55 20.04.2020
4439 Clear 37 1008 48 0 5.33 190 10:36 20.04.2020
4440 Clear 37 1008 48 0 5.33 190 10:18 20.04.2020
4441 Clear 37 1008 48 0 5.53 188 09:44 20.04.2020
4442 Clouds 37 1008 48 0 4.92 180 09:25 20.04.2020
4443 Clouds 37 1009 47 0 4.92 180 08:58 20.04.2020
4444 Clouds 37 1009 47 0 4.92 180 08:58 20.04.2020
4445 Clouds 37 1009 47 0 4.92 180 08:58 20.04.2020
4446 Clouds 37 1009 45 0 4.92 180 08:39 20.04.2020
4447 Clouds 36 1009 45 0 4.92 180 08:18 20.04.2020
4448 Clouds 37 1010 44 0 4.92 180 07:51 20.04.2020
4449 Clouds 36 1010 47 0 4.92 180 07:28 20.04.2020
4450 Clouds 35 1011 49 0 4.92 180 06:38 20.04.2020
4451 Clouds 35 1011 49 0 4.92 180 06:38 20.04.2020
4452 Clouds 34 1013 60 0 4.59 185 06:19 20.04.2020
4453 Clouds 34 1012 51 0 4.59 185 05:20 20.04.2020
4454 Clouds 31 1013 68 0 4.39 186 03:19 20.04.2020
4455 Clouds 31 1012 68 0 4.39 186 02:36 20.04.2020
4456 Clouds 30 1011 68 0 4.51 190 01:31 20.04.2020
4457 Clouds 30 1010 68 0 4.51 190 00:47 20.04.2020
4458 Clouds 30 1010 68 0 4.13 191 00:25 20.04.2020
4459 Clouds 31 1010 68 0 4.13 191 23:41 19.04.2020
4460 Clouds 31 1010 68 0 4.13 191 23:22 19.04.2020
4461 Clouds 31 1010 68 0 4.13 191 22:59 19.04.2020
4462 Clouds 31 1010 67 0 4.13 191 22:38 19.04.2020
4463 Clouds 31 1010 67 0 4.13 191 22:19 19.04.2020
4464 Clouds 31 1010 66 0 4.13 191 21:43 19.04.2020
4465 Clouds 31 1010 66 0 5.49 185 21:25 19.04.2020
4466 Clouds 31 1010 66 0 5.35 183 20:59 19.04.2020
4467 Clouds 31 1010 66 0 5.35 183 20:41 19.04.2020
4468 Clouds 31 1011 66 0 5.35 183 20:20 19.04.2020
4469 Clouds 31 1011 65 0 5.35 183 19:57 19.04.2020
4470 Clouds 31 1011 65 0 5.35 183 19:39 19.04.2020
4471 Clouds 32 1011 64 0 5.35 183 19:21 19.04.2020
4472 Clouds 32 1011 64 0 5.35 183 18:57 19.04.2020
4473 Clouds 32 1012 64 0 5.35 183 18:39 19.04.2020
4474 Clouds 32 1012 63 0 5.71 182 18:19 19.04.2020
4475 Clouds 32 1012 63 0 5.71 182 18:19 19.04.2020
4476 Clouds 32 1012 63 0 5.71 182 17:56 19.04.2020
4477 Clouds 32 1011 63 0 5.71 182 17:38 19.04.2020
4478 Clouds 32 1011 63 0 5.71 182 17:19 19.04.2020
4479 Clouds 32 1011 63 0 5.71 182 17:19 19.04.2020
4480 Clouds 32 1011 62 0 5.71 182 16:41 19.04.2020
4481 Clouds 32 1011 62 0 5.71 182 16:21 19.04.2020
4482 Clouds 32 1011 61 0 5.71 182 15:59 19.04.2020
4483 Clouds 32 1009 66 0 5.71 182 15:40 19.04.2020
4484 Clouds 32 1010 60 0 6.4 172 15:19 19.04.2020
4485 Clouds 34 1010 59 0 6.4 172 14:39 19.04.2020
4486 Clouds 34 1010 59 0 6.4 173 14:21 19.04.2020
4487 Clouds 34 1008 42 0 6.4 173 13:58 19.04.2020
4488 Clouds 34 1010 57 0 6.4 173 13:37 19.04.2020
4489 Clouds 35 1009 57 0 6.4 173 13:18 19.04.2020
4490 Clouds 36 1009 54 0 6.4 173 12:46 19.04.2020
4491 Clouds 35 1007 50 0 5.69 172 12:24 19.04.2020
4492 Clouds 36 1008 51 0 5.69 172 11:55 19.04.2020
4493 Clouds 36 1008 51 0 5.69 172 11:37 19.04.2020
4494 Clouds 36 1008 50 0 5.69 172 11:18 19.04.2020
4495 Clouds 36 1008 51 0 5.69 172 10:41 19.04.2020
4496 Clouds 37 1008 43 0 5.69 172 10:21 19.04.2020
4497 Clouds 37 1008 46 0 5.69 172 09:59 19.04.2020
4498 Clouds 37 1008 45 0 5.69 172 09:41 19.04.2020
4499 Clouds 37 1008 45 0 5.69 172 09:41 19.04.2020
4500 Clouds 37 1008 46 0 4.76 181 09:19 19.04.2020
4501 Clouds 36 1009 48 0 4.76 181 08:40 19.04.2020
4502 Clouds 36 1010 48 0 4.76 181 08:21 19.04.2020
4503 Clouds 36 1010 48 0 4.88 179 07:55 19.04.2020
4504 Clouds 38 1012 43 0 4.76 181 07:37 19.04.2020
4505 Clouds 35 1012 58 0 4.88 179 07:18 19.04.2020
4506 Clouds 34 1013 58 0 3.85 200 06:24 19.04.2020
4507 Clouds 34 1013 59 0 3.85 200 05:35 19.04.2020
4508 Clouds 33 1013 63 0 3.85 200 03:54 19.04.2020
4509 Rain 30 1013 70 0 3.28 193 02:49 19.04.2020
4510 Clouds 30 1012 68 0 3.56 193 02:18 19.04.2020
4511 Clouds 30 1011 69 0 3.56 193 01:22 19.04.2020
4512 Clouds 31 1011 69 0 3.56 193 00:41 19.04.2020
4513 Clouds 31 1011 69 0 3.56 193 00:41 19.04.2020
4514 Clouds 31 1011 69 0 3.56 193 00:41 19.04.2020
4515 Clouds 31 1010 69 0 4.61 192 00:20 19.04.2020
4516 Clouds 31 1010 69 0 4.61 192 23:43 18.04.2020
4517 Clouds 31 1010 69 0 4.61 192 23:19 18.04.2020
4518 Clouds 31 1010 69 0 4.61 192 22:55 18.04.2020
4519 Clouds 31 1010 68 0 4.61 192 22:37 18.04.2020
4520 Clouds 31 1010 68 0 4.61 192 22:18 18.04.2020
4521 Clouds 31 1010 68 0 4.61 192 21:42 18.04.2020
4522 Rain 31 1010 68 0 6.2 189 21:22 18.04.2020
4523 Rain 31 1010 67 0 6.2 189 20:59 18.04.2020
4524 Rain 31 1010 67 0 6.2 189 20:40 18.04.2020
4525 Rain 31 1011 67 0 6.2 189 20:21 18.04.2020
4526 Rain 31 1011 67 0 6.2 189 19:43 18.04.2020
4527 Rain 31 1011 67 0 6.2 189 19:25 18.04.2020
4528 Rain 31 1012 66 0 6.2 189 18:40 18.04.2020
4529 Clouds 32 1012 65 0 5.69 178 18:20 18.04.2020
4530 Clouds 32 1012 65 0 5.69 178 17:58 18.04.2020
4531 Clouds 32 1012 64 0 5.69 178 17:40 18.04.2020
4532 Clouds 33 1012 64 0 5.69 178 17:20 18.04.2020
4533 Clouds 32 1012 63 0 5.69 178 16:43 18.04.2020
4534 Clouds 33 1011 46 0 5.69 178 16:22 18.04.2020
4535 Clouds 32 1012 62 0 5.69 178 15:58 18.04.2020
4536 Clouds 32 1012 61 0 5.69 178 15:38 18.04.2020
4537 Clouds 33 1010 37 0 6.38 180 15:19 18.04.2020
4538 Clouds 34 1010 38 0 6.38 180 14:44 18.04.2020
4539 Clouds 35 1011 58 0 6.23 179 14:24 18.04.2020
4540 Clouds 34 1010 55 0 6.23 179 13:44 18.04.2020
4541 Clouds 35 1010 53 0 6.23 179 13:23 18.04.2020
4542 Clouds 35 1009 52 0 6.23 179 12:55 18.04.2020
4543 Clouds 36 1009 51 0 6.23 179 12:36 18.04.2020
4544 Clouds 37 1009 39 0 4.45 189 12:18 18.04.2020
4545 Clouds 36 1008 43 0 4.45 189 11:42 18.04.2020
4546 Clouds 36 1008 45 0 4.45 189 11:22 18.04.2020
4547 Clouds 36 1008 41 0 4.45 189 10:57 18.04.2020
4548 Clouds 37 1008 38 0 4.45 189 10:37 18.04.2020
4549 Clouds 37 1008 39 0 4.45 189 10:18 18.04.2020
4550 Clouds 36 1009 45 0 4.45 189 09:41 18.04.2020
4551 Clouds 36 1009 45 0 4.45 189 09:41 18.04.2020
4552 Clouds 36 1009 47 0 3.45 181 09:23 18.04.2020
4553 Clouds 36 1010 50 0 3.45 181 08:43 18.04.2020
4554 Clouds 36 1010 50 0 3.45 181 08:24 18.04.2020
4555 Clouds 36 1011 47 0 3.45 181 07:52 18.04.2020
4556 Clouds 35 1012 57 0 3.45 181 07:33 18.04.2020
4557 Clouds 34 1013 59 0 3.45 181 06:53 18.04.2020
4558 Clouds 32 1013 62 0 2.71 201 05:50 18.04.2020
4559 Clouds 33 1013 61 0 2.71 201 05:23 18.04.2020
4560 Clouds 33 1014 62 0 2.71 201 04:45 18.04.2020
4561 Clouds 32 1014 65 0 2.71 201 04:24 18.04.2020
4562 Clouds 29 1014 67 0 1.05 211 02:45 18.04.2020
4563 Clouds 29 1013 68 0 1.41 231 02:21 18.04.2020
4564 Clouds 29 1013 68 0 1.41 231 02:21 18.04.2020
4565 Clouds 29 1013 68 0 1.41 231 02:21 18.04.2020
4566 Clouds 29 1013 67 0 1.41 231 01:51 18.04.2020
4567 Clouds 29 1013 67 0 1.41 231 01:28 18.04.2020
4568 Clouds 30 1012 67 0 1.41 231 00:38 18.04.2020
4569 Clouds 30 1011 67 0 1.28 197 00:20 18.04.2020
4570 Clouds 30 1011 68 0 1.28 197 23:41 17.04.2020
4571 Clouds 30 1011 66 0 1.28 197 23:20 17.04.2020
4572 Clouds 29 1011 65 0 1.28 197 23:00 17.04.2020
4573 Clouds 29 1011 65 0 1.28 197 22:40 17.04.2020
4574 Clouds 29 1011 66 0 1.28 197 22:21 17.04.2020
4575 Clouds 30 1011 67 0 1.28 197 21:58 17.04.2020
4576 Clouds 29 1011 68 0 1.28 197 21:40 17.04.2020
4577 Rain 30 1011 68 0 1.61 132 21:20 17.04.2020
4578 Rain 31 1011 68 0 1.61 132 20:56 17.04.2020
4579 Rain 31 1011 68 0 1.61 132 20:56 17.04.2020
4580 Rain 31 1012 67 0 1.61 132 20:37 17.04.2020
4581 Rain 30 1012 67 0 1.61 132 20:18 17.04.2020
4582 Rain 30 1012 66 0 1.61 132 19:55 17.04.2020
4583 Rain 30 1012 66 0 1.61 132 19:37 17.04.2020
4584 Rain 30 1013 65 0 1.61 132 19:18 17.04.2020
4585 Rain 30 1013 65 0 1.61 132 18:40 17.04.2020
4586 Rain 31 1013 64 0 3.65 257 18:20 17.04.2020
4587 Rain 31 1014 63 0 3.65 257 17:38 17.04.2020
4588 Rain 32 1013 62 0 3.65 257 17:20 17.04.2020
4589 Rain 32 1013 62 0 3.65 257 17:20 17.04.2020
4590 Rain 28 1014 74 0 3.65 257 16:58 17.04.2020
4591 Rain 32 1013 61 0 3.65 257 16:39 17.04.2020
4592 Rain 31 1013 61 0 3.65 257 16:21 17.04.2020
4593 Rain 32 1012 60 0 3.65 257 15:39 17.04.2020
4594 Clouds 31 1012 60 0 8.35 186 15:21 17.04.2020
4595 Clouds 31 1012 59 0 8.35 186 14:54 17.04.2020
4596 Clouds 31 1012 60 0 8.35 186 14:36 17.04.2020
4597 Clouds 32 1012 59 0 6.84 175 14:18 17.04.2020
4598 Clouds 32 1011 58 0 6.84 175 13:39 17.04.2020
4599 Clouds 32 1009 74 10000 5.7 180 13:20 17.04.2020
4600 Clouds 32 1009 62 10000 4.6 170 12:48 17.04.2020
4601 Clouds 32 1009 62 10000 4.6 170 12:27 17.04.2020
4602 Clouds 33 1009 66 10000 3.1 90 11:59 17.04.2020
4603 Clouds 33 1008 62 10000 3.1 60 11:39 17.04.2020
4604 Clouds 33 1008 62 10000 1.5 150 11:19 17.04.2020
4605 Clouds 33 1009 62 10000 1.5 320 10:40 17.04.2020
4606 Clouds 32 1010 69 10000 4.6 10 10:20 17.04.2020
4607 Clouds 33 1010 69 10000 4.6 10 09:55 17.04.2020
4608 Thunderstorm 33 1010 69 10000 5.1 60 09:36 17.04.2020
4609 Thunderstorm 33 1010 70 10000 10.3 120 09:18 17.04.2020
4610 Thunderstorm 34 1010 70 10000 10.3 120 08:46 17.04.2020
4611 Clouds 35 1011 52 10000 8.2 180 08:26 17.04.2020
4612 Rain 34 1011 56 10000 5.1 230 07:56 17.04.2020
4613 Clouds 35 1011 53 10000 4.6 200 07:38 17.04.2020
4614 Clouds 34 1012 53 10000 4.1 190 07:18 17.04.2020
4615 Clouds 33 1012 59 10000 3.6 250 06:40 17.04.2020
4616 Clouds 33 1012 56 10000 3.1 200 05:49 17.04.2020
4617 Clouds 30 1012 83 9000 3.33 202 03:22 17.04.2020
4618 Clouds 29 1011 83 8000 3.33 202 02:49 17.04.2020
4619 Clouds 29 1010 88 10000 1.5 280 01:30 17.04.2020
4620 Clouds 29 1010 88 10000 2.1 250 00:59 17.04.2020
4621 Clouds 30 1009 83 10000 1.5 220 00:20 17.04.2020
4622 Clouds 29 1009 83 10000 1.5 220 23:46 16.04.2020
4623 Clouds 29 1009 83 10000 1.5 220 23:24 16.04.2020
4624 Clouds 29 1009 83 10000 1 200 22:59 16.04.2020
4625 Clouds 29 1009 79 10000 2.1 200 22:39 16.04.2020
4626 Clouds 29 1009 79 10000 2.1 200 22:39 16.04.2020
4627 Clouds 29 1009 79 10000 2.1 200 22:39 16.04.2020
4628 Clouds 29 1009 79 10000 2.1 200 22:20 16.04.2020
4629 Clouds 29 1009 79 10000 3.1 190 21:57 16.04.2020
4630 Clouds 29 1009 79 10000 3.1 190 21:57 16.04.2020
4631 Clouds 29 1009 79 10000 3.6 180 21:38 16.04.2020
4632 Clouds 29 1009 79 10000 3.6 180 21:18 16.04.2020
4633 Clouds 30 1010 79 10000 3.1 200 20:41 16.04.2020
4634 Clouds 30 1010 79 10000 3.1 200 20:22 16.04.2020
4635 Clouds 30 1010 83 10000 3.1 190 19:57 16.04.2020
4636 Clouds 30 1010 79 10000 4.1 190 19:38 16.04.2020
4637 Clouds 30 1010 79 10000 3.6 200 19:19 16.04.2020
4638 Clouds 30 1010 79 10000 3.6 200 19:19 16.04.2020
4639 Clouds 30 1010 79 10000 4.1 200 18:46 16.04.2020
4640 Clouds 30 1010 74 10000 5.7 190 18:27 16.04.2020
4641 Clouds 31 1010 74 10000 5.7 190 17:59 16.04.2020
4642 Clouds 30 1010 79 10000 6.2 200 17:40 16.04.2020
4643 Clouds 30 1010 79 10000 6.2 200 17:21 16.04.2020
4644 Clouds 31 1010 74 10000 3.1 170 16:45 16.04.2020
4645 Clouds 31 1010 74 10000 3.1 170 16:26 16.04.2020
4646 Clouds 31 1010 66 10000 2.6 160 15:58 16.04.2020
4647 Clouds 32 1009 70 10000 3.1 190 15:39 16.04.2020
4648 Clouds 32 1009 70 10000 3.1 190 15:19 16.04.2020
4649 Clouds 32 1009 66 10000 3.6 170 14:55 16.04.2020
4650 Clouds 32 1008 70 10000 4.1 190 14:37 16.04.2020
4651 Clouds 33 1008 66 10000 4.1 180 14:18 16.04.2020
4652 Clouds 33 1008 66 10000 4.6 210 13:41 16.04.2020
4653 Clouds 33 1008 66 10000 4.6 210 13:23 16.04.2020
4654 Clouds 33 1007 59 10000 3.6 190 12:58 16.04.2020
4655 Clouds 33 1007 55 10000 5.1 200 12:39 16.04.2020
4656 Clouds 33 1007 55 10000 5.1 200 12:39 16.04.2020
4657 Clouds 34 1006 53 10000 2.1 190 12:20 16.04.2020
4658 Clouds 34 1006 53 10000 2.1 190 11:59 16.04.2020
4659 Clouds 34 1007 50 10000 2.1 210 11:40 16.04.2020
4660 Clouds 35 1007 50 10000 2.1 210 11:21 16.04.2020
4661 Clouds 35 1008 47 10000 2.1 200 10:55 16.04.2020
4662 Clouds 35 1008 41 10000 1.5 60 10:37 16.04.2020
4663 Clouds 35 1008 41 10000 1.5 60 10:18 16.04.2020
4664 Clouds 35 1008 52 10000 3.6 290 09:39 16.04.2020
4665 Clouds 36 1008 52 10000 3.6 290 09:20 16.04.2020
4666 Clouds 36 1009 56 10000 3.6 340 08:57 16.04.2020
4667 Clouds 36 1010 50 10000 4.1 210 08:39 16.04.2020
4668 Clouds 36 1010 50 10000 4.1 210 08:21 16.04.2020
4669 Clouds 35 1011 56 10000 3.6 150 07:43 16.04.2020
4670 Clouds 34 1011 56 10000 3.6 150 07:24 16.04.2020
4671 Clouds 34 1012 59 10000 2.6 210 06:42 16.04.2020
4672 Clouds 34 1012 59 10000 2.6 210 06:23 16.04.2020
4673 Clouds 33 1012 66 10000 3.1 180 04:54 16.04.2020
4674 Clouds 33 1012 66 10000 3.1 180 04:54 16.04.2020
4675 Clouds 32 1012 83 10000 1.5 70 03:39 16.04.2020
4676 Clouds 30 1012 83 10000 1.5 70 03:21 16.04.2020
4677 Clouds 30 1011 83 10000 3.99 196 02:43 16.04.2020
4678 Clouds 29 1011 83 10000 1 200 01:59 16.04.2020
4679 Clouds 29 1010 83 10000 1.5 170 00:59 16.04.2020
4680 Clouds 29 1010 83 10000 1.5 180 00:26 16.04.2020
4681 Clouds 29 1009 83 10000 2.6 200 23:56 15.04.2020
4682 Clouds 29 1009 83 10000 3.6 200 23:38 15.04.2020
4683 Clouds 29 1009 83 10000 3.6 200 23:19 15.04.2020
4684 Rain 29 1009 83 10000 3.6 200 22:39 15.04.2020
4685 Rain 29 1009 83 10000 3.6 200 22:21 15.04.2020
4686 Rain 29 1009 83 10000 4.6 200 21:57 15.04.2020
4687 Rain 29 1009 83 10000 3.6 190 21:39 15.04.2020
4688 Clouds 30 1009 83 10000 3.6 190 21:21 15.04.2020
4689 Clouds 30 1010 79 10000 4.1 200 20:56 15.04.2020
4690 Clouds 30 1010 79 10000 3.6 190 20:38 15.04.2020
4691 Clouds 30 1010 74 10000 3.1 190 20:20 15.04.2020
4692 Clouds 30 1010 74 10000 3.1 190 20:20 15.04.2020
4693 Clouds 30 1011 74 10000 3.6 170 19:41 15.04.2020
4694 Clouds 30 1011 74 10000 2.6 180 19:20 15.04.2020
4695 Clouds 30 1011 74 10000 3.1 170 18:54 15.04.2020
4696 Clouds 31 1011 74 10000 3.1 170 18:36 15.04.2020
4697 Clear 31 1011 74 10000 3.6 170 18:18 15.04.2020
4698 Clear 31 1011 79 10000 4.6 170 17:40 15.04.2020
4699 Clear 32 1011 79 10000 4.6 170 17:21 15.04.2020
4700 Clear 32 1011 70 10000 4.6 160 16:57 15.04.2020
4701 Clear 33 1010 66 10000 4.6 160 16:38 15.04.2020
4702 Clear 33 1010 66 10000 4.6 160 16:38 15.04.2020
4703 Clear 33 1010 66 10000 4.6 160 16:19 15.04.2020
4704 Clear 33 1010 66 10000 3.6 180 15:58 15.04.2020
4705 Clear 33 1010 66 10000 4.6 190 15:39 15.04.2020
4706 Clouds 33 1010 66 10000 4.6 190 15:19 15.04.2020
4707 Clouds 33 1009 59 10000 4.1 180 14:58 15.04.2020
4708 Clouds 33 1009 59 10000 4.1 210 14:39 15.04.2020
4709 Clouds 33 1009 59 10000 4.1 210 14:39 15.04.2020
4710 Clouds 33 1009 59 10000 4.1 210 14:21 15.04.2020
4711 Clouds 34 1008 55 10000 4.6 210 13:58 15.04.2020
4712 Clouds 33 1008 52 10000 5.7 220 13:38 15.04.2020
4713 Clouds 34 1007 53 10000 4.6 200 13:20 15.04.2020
4714 Clouds 34 1007 53 10000 4.6 200 12:54 15.04.2020
4715 Clouds 34 1007 47 10000 4.1 230 12:36 15.04.2020
4716 Clouds 34 1007 47 10000 4.6 230 12:18 15.04.2020
4717 Clouds 35 1007 42 10000 1 0 11:42 15.04.2020
4718 Clouds 35 1007 42 10000 1 0 11:24 15.04.2020
4719 Clouds 35 1008 44 10000 1.5 0 10:58 15.04.2020
4720 Clouds 35 1008 44 10000 2.1 30 10:36 15.04.2020
4721 Clouds 35 1008 44 10000 2.1 30 10:18 15.04.2020
4722 Clouds 34 1009 47 10000 2.6 0 09:55 15.04.2020
4723 Clouds 35 1009 44 10000 2.1 40 09:36 15.04.2020
4724 Clouds 35 1009 44 10000 2.1 40 09:18 15.04.2020
4725 Clouds 35 1011 47 10000 1.5 150 08:41 15.04.2020
4726 Clouds 35 1011 47 10000 1.5 150 08:19 15.04.2020
4727 Clouds 35 1012 50 9000 1.5 80 07:54 15.04.2020
4728 Clouds 34 1012 52 9000 1.5 180 07:32 15.04.2020
4729 Clouds 33 1013 59 9000 2.1 250 06:34 15.04.2020
4730 Clouds 33 1013 59 9000 1.5 240 05:51 15.04.2020
4731 Clouds 33 1014 66 9000 2.1 90 05:19 15.04.2020
4732 Clouds 32 1014 79 7000 2.52 181 04:44 15.04.2020
4733 Mist 31 1013 83 5000 0.5 0 03:34 15.04.2020
4734 Mist 30 1013 88 5000 1.5 60 02:57 15.04.2020
4735 Clouds 28 1012 88 6000 1 40 01:57 15.04.2020
4736 Clouds 28 1011 88 6000 2.37 202 01:39 15.04.2020
4737 Clouds 28 1011 88 8000 2.37 202 01:18 15.04.2020
4738 Clouds 28 1011 88 8000 2.37 202 00:36 15.04.2020
4739 Clouds 28 1011 88 8000 2.94 198 00:18 15.04.2020
4740 Clouds 28 1011 88 8000 2.94 198 23:54 14.04.2020
4741 Clouds 28 1011 88 10000 2.1 210 23:36 14.04.2020
4742 Clouds 28 1011 88 10000 2.1 210 23:18 14.04.2020
4743 Clouds 28 1011 88 10000 2.1 210 22:54 14.04.2020
4744 Clouds 28 1011 88 10000 2.1 210 22:36 14.04.2020
4745 Clouds 28 1011 83 10000 2.1 240 22:18 14.04.2020
4746 Clouds 28 1011 83 10000 2.1 240 21:54 14.04.2020
4747 Clouds 28 1011 83 10000 2.1 250 21:36 14.04.2020
4748 Clouds 28 1011 83 10000 2.1 250 21:18 14.04.2020
4749 Clouds 28 1012 83 10000 2.6 260 20:40 14.04.2020
4750 Clouds 29 1012 83 10000 2.6 260 20:22 14.04.2020
4751 Clouds 29 1012 79 10000 2.6 270 19:57 14.04.2020
4752 Clouds 29 1012 79 10000 2.6 200 19:38 14.04.2020
4753 Clouds 29 1013 79 10000 1.5 210 19:20 14.04.2020
4754 Clouds 29 1013 74 10000 2.1 190 18:41 14.04.2020
4755 Clouds 29 1013 70 10000 2.6 180 18:22 14.04.2020
4756 Clouds 30 1013 70 10000 2.6 180 17:58 14.04.2020
4757 Clouds 30 1013 70 10000 2.6 180 17:39 14.04.2020
4758 Clouds 30 1013 70 10000 2.6 180 17:21 14.04.2020
4759 Clouds 30 1013 70 10000 2.6 190 16:58 14.04.2020
4760 Clouds 31 1013 66 10000 2.6 190 16:39 14.04.2020
4761 Clouds 31 1013 66 10000 2.6 190 16:20 14.04.2020
4762 Clouds 30 1012 58 10000 2.1 140 15:56 14.04.2020
4763 Clouds 31 1012 58 10000 2.1 140 15:38 14.04.2020
4764 Clouds 32 1012 58 10000 2.1 140 15:18 14.04.2020
4765 Clouds 32 1011 55 10000 2.1 130 14:56 14.04.2020
4766 Clouds 32 1011 55 10000 2.1 120 14:38 14.04.2020
4767 Clouds 32 1011 55 10000 2.1 120 14:20 14.04.2020
4768 Clouds 32 1010 52 10000 3.1 120 13:43 14.04.2020
4769 Clouds 32 1010 52 10000 3.1 120 13:24 14.04.2020
4770 Clouds 33 1010 52 10000 3.1 140 12:56 14.04.2020
4771 Clouds 33 1009 52 10000 3.6 130 12:38 14.04.2020
4772 Clouds 33 1009 52 10000 3.1 100 12:18 14.04.2020
4773 Clouds 33 1010 49 10000 2.1 180 11:41 14.04.2020
4774 Clouds 33 1010 49 10000 2.1 180 11:22 14.04.2020
4775 Clouds 33 1010 49 10000 2.1 180 11:22 14.04.2020
4776 Clouds 33 1010 49 10000 3.1 110 10:55 14.04.2020
4777 Clouds 34 1010 49 10000 2.6 110 10:37 14.04.2020
4778 Clouds 34 1010 49 10000 2.6 110 10:18 14.04.2020
4779 Clouds 34 1011 52 10000 3.1 90 09:41 14.04.2020
4780 Clouds 34 1011 52 10000 3.1 90 09:22 14.04.2020
4781 Clouds 34 1011 52 10000 3.1 110 08:55 14.04.2020
4782 Rain 33 1011 49 0 4.22 116 08:36 14.04.2020
4783 Clouds 33 1012 55 10000 3.1 110 08:18 14.04.2020
4784 Clouds 33 1013 59 10000 3.6 130 07:49 14.04.2020
4785 Clouds 33 1013 59 10000 3.6 130 07:25 14.04.2020
4786 Clouds 32 1014 70 10000 4.6 80 06:45 14.04.2020
4787 Clouds 32 1014 70 10000 4.6 80 06:45 14.04.2020
4788 Clouds 31 1014 74 9000 3.6 60 05:43 14.04.2020
4789 Clouds 31 1014 74 9000 3.6 60 05:43 14.04.2020
4790 Rain 28 1012 72 0 4.7 87 03:28 14.04.2020
4791 Mist 27 1012 100 4000 1 350 02:33 14.04.2020
4792 Mist 27 1012 100 4000 1 350 01:27 14.04.2020
4793 Mist 27 1012 100 5000 3.81 87 00:50 14.04.2020
4794 Mist 27 1011 100 5000 2.38 97 00:24 14.04.2020
4795 Mist 27 1011 94 5000 1 310 23:59 13.04.2020
4796 Mist 27 1011 94 5000 1 310 23:37 13.04.2020
4797 Mist 27 1011 94 5000 1 310 23:19 13.04.2020
4798 Mist 27 1011 94 5000 2.1 300 22:42 13.04.2020
4799 Mist 27 1011 94 5000 2.1 300 22:23 13.04.2020
4800 Mist 27 1011 94 5000 2.1 300 21:58 13.04.2020
4801 Mist 27 1011 94 4500 1.5 320 21:40 13.04.2020
4802 Mist 27 1011 94 4500 1.5 320 21:21 13.04.2020
4803 Mist 27 1011 94 4500 2.1 300 20:57 13.04.2020
4804 Mist 27 1012 100 5000 2.6 300 20:38 13.04.2020
4805 Mist 28 1012 94 5000 2.6 310 20:19 13.04.2020
4806 Mist 28 1012 94 5000 2.6 310 20:19 13.04.2020
4807 Mist 28 1012 94 5000 2.6 310 19:57 13.04.2020
4808 Clouds 28 1012 94 7000 2.1 320 19:37 13.04.2020
4809 Clouds 28 1012 94 8000 3.67 107 19:18 13.04.2020
4810 Clouds 28 1012 94 8000 3.67 107 18:55 13.04.2020
4811 Clouds 28 1012 94 8000 1.5 230 18:36 13.04.2020
4812 Rain 29 1013 94 8000 1.5 230 18:18 13.04.2020
4813 Rain 29 1013 94 8000 1.5 230 17:55 13.04.2020
4814 Rain 29 1013 100 8000 5.12 112 17:36 13.04.2020
4815 Rain 29 1013 100 8000 5.12 112 17:36 13.04.2020
4816 Rain 29 1013 100 8000 5.12 112 17:18 13.04.2020
4817 Rain 29 1013 100 7000 1 210 16:55 13.04.2020
4818 Rain 30 1013 94 7000 2.1 230 16:37 13.04.2020
4819 Rain 30 1013 94 7000 2.1 230 16:18 13.04.2020
4820 Clouds 31 1013 88 9000 1 220 15:45 13.04.2020
4821 Clouds 31 1013 88 9000 1 220 15:27 13.04.2020
4822 Rain 31 1012 88 7000 1 150 14:57 13.04.2020
4823 Rain 32 1011 88 7000 1.5 90 14:39 13.04.2020
4824 Rain 32 1011 74 9000 3.6 140 14:21 13.04.2020
4825 Rain 33 1010 70 9000 3.1 110 13:56 13.04.2020
4826 Rain 33 1010 70 9000 2.6 100 13:38 13.04.2020
4827 Thunderstorm 32 1010 83 7000 1.5 130 13:19 13.04.2020
4828 Thunderstorm 32 1010 83 7000 1.5 130 12:57 13.04.2020
4829 Thunderstorm 32 1010 83 7000 1.5 130 12:57 13.04.2020
4830 Rain 32 1009 88 8000 2.1 180 12:39 13.04.2020
4831 Clouds 32 1009 88 9000 2.6 160 12:19 13.04.2020
4832 Clouds 32 1009 88 9000 2.6 160 12:19 13.04.2020
4833 Rain 33 1009 78 10000 3.1 90 11:44 13.04.2020
4834 Rain 33 1009 78 10000 3.1 90 11:19 13.04.2020
4835 Rain 33 1009 78 10000 4.1 110 10:56 13.04.2020
4836 Thunderstorm 32 1009 83 7000 9.8 180 10:38 13.04.2020
4837 Thunderstorm 32 1009 83 7000 9.8 180 10:20 13.04.2020
4838 Rain 34 1009 59 10000 8.7 130 09:56 13.04.2020
4839 Clouds 33 1009 52 10000 6.2 110 09:38 13.04.2020
4840 Clouds 34 1009 52 10000 6.2 110 09:19 13.04.2020
4841 Clouds 35 1010 56 10000 3.6 80 08:44 13.04.2020
4842 Clouds 35 1010 56 10000 3.6 80 08:26 13.04.2020
4843 Clouds 35 1011 56 10000 2.1 0 07:43 13.04.2020
4844 Clouds 35 1011 56 10000 2.1 0 07:43 13.04.2020
4845 Clouds 34 1011 56 10000 2.1 0 07:25 13.04.2020
4846 Clouds 33 1012 59 10000 4.1 90 06:48 13.04.2020
4847 Clouds 33 1012 59 10000 4.1 90 06:29 13.04.2020
4848 Clouds 33 1013 62 10000 4.6 100 05:40 13.04.2020
4849 Clouds 32 1013 62 10000 4.6 100 05:18 13.04.2020
4850 Clouds 31 1013 66 10000 4.6 90 04:28 13.04.2020
4851 Clouds 31 1012 70 10000 4.6 70 03:50 13.04.2020
4852 Clouds 29 1012 74 10000 3.6 90 03:31 13.04.2020
4853 Clouds 27 1011 83 10000 2.6 70 02:39 13.04.2020
4854 Clouds 28 1010 83 10000 1 0 01:45 13.04.2020
4855 Clouds 28 1010 83 10000 1 0 01:25 13.04.2020
4856 Clouds 28 1010 83 10000 1.5 120 00:44 13.04.2020
4857 Clouds 27 1010 83 10000 1.5 120 00:23 13.04.2020
4858 Clouds 27 1010 83 10000 1.5 120 23:49 12.04.2020
4859 Clouds 28 1010 83 10000 2.1 120 23:26 12.04.2020
4860 Clouds 28 1010 78 10000 1.5 120 22:59 12.04.2020
4861 Clouds 28 1010 78 10000 3.1 140 22:38 12.04.2020
4862 Clouds 28 1010 78 10000 3.1 140 22:19 12.04.2020
4863 Clouds 27 1010 83 10000 3.6 120 21:54 12.04.2020
4864 Clouds 28 1010 83 10000 4.1 130 21:36 12.04.2020
4865 Clouds 28 1010 83 10000 4.1 130 21:18 12.04.2020
4866 Clouds 29 1011 83 10000 5.7 100 20:41 12.04.2020
4867 Clouds 29 1011 83 10000 5.7 100 20:22 12.04.2020
4868 Clouds 29 1011 83 10000 5.7 100 20:22 12.04.2020
4869 Clouds 29 1011 74 10000 6.2 100 19:57 12.04.2020
4870 Clouds 29 1011 69 10000 2.6 100 19:38 12.04.2020
4871 Clouds 29 1011 69 10000 3.1 140 19:18 12.04.2020
4872 Clouds 29 1011 69 10000 4.1 150 18:41 12.04.2020
4873 Clouds 30 1011 69 10000 2.6 160 18:23 12.04.2020
4874 Clouds 30 1011 69 10000 2.6 160 17:57 12.04.2020
4875 Clouds 30 1011 69 10000 4.6 130 17:39 12.04.2020
4876 Clouds 31 1011 66 10000 5.1 130 17:20 12.04.2020
4877 Clouds 31 1011 66 10000 5.1 130 16:57 12.04.2020
4878 Clouds 31 1011 66 10000 6.7 130 16:38 12.04.2020
4879 Clouds 31 1011 66 10000 6.7 130 16:19 12.04.2020
4880 Clouds 31 1009 66 10000 5.7 170 15:45 12.04.2020
4881 Clouds 32 1009 66 10000 5.7 170 15:27 12.04.2020
4882 Clouds 33 1008 59 10000 5.1 180 14:41 12.04.2020
4883 Clouds 33 1008 59 10000 5.1 180 14:22 12.04.2020
4884 Clouds 33 1007 52 10000 4.6 180 13:59 12.04.2020
4885 Clouds 34 1006 52 10000 4.6 200 13:40 12.04.2020
4886 Clouds 34 1006 52 10000 4.6 200 13:22 12.04.2020
4887 Clouds 35 1006 44 10000 3.6 230 12:47 12.04.2020
4888 Clouds 36 1006 44 10000 3.6 230 12:22 12.04.2020
4889 Clouds 36 1006 44 10000 3.6 230 11:59 12.04.2020
4890 Clouds 36 1006 47 10000 4.6 220 11:39 12.04.2020
4891 Clouds 36 1006 47 10000 4.6 220 11:21 12.04.2020
4892 Clouds 36 1006 47 10000 4.6 220 11:21 12.04.2020
4893 Clouds 36 1006 44 10000 4.1 200 10:58 12.04.2020
4894 Clouds 36 1007 50 10000 3.6 200 10:39 12.04.2020
4895 Clouds 36 1007 50 10000 3.6 200 10:20 12.04.2020
4896 Clouds 37 1007 50 10000 3.6 190 09:58 12.04.2020
4897 Clouds 36 1008 47 10000 3.6 150 09:39 12.04.2020
4898 Clouds 36 1008 47 10000 3.6 150 09:20 12.04.2020
4899 Clouds 36 1009 50 10000 4.1 190 08:51 12.04.2020
4900 Clouds 36 1009 47 10000 4.1 200 08:32 12.04.2020
4901 Clouds 35 1010 56 10000 4.1 210 07:48 12.04.2020
4902 Clouds 35 1011 53 10000 3.1 200 07:20 12.04.2020
4903 Clouds 35 1011 53 10000 3.1 200 06:59 12.04.2020
4904 Clouds 35 1012 56 10000 2.1 170 06:31 12.04.2020
4905 Clouds 35 1012 59 10000 3.1 190 05:49 12.04.2020
4906 Clouds 33 1012 66 10000 3.6 210 04:53 12.04.2020
4907 Clouds 31 1012 79 10000 2.1 130 03:31 12.04.2020
4908 Clouds 30 1012 83 10000 2.1 100 02:49 12.04.2020
4909 Clouds 30 1011 88 10000 1.5 80 02:30 12.04.2020
4910 Clouds 30 1010 83 10000 2.6 180 01:26 12.04.2020
4911 Clouds 29 1010 83 10000 2.6 180 00:55 12.04.2020
4912 Clouds 29 1010 83 10000 2.1 170 00:37 12.04.2020
4913 Clouds 29 1010 83 10000 2.1 180 00:18 12.04.2020
4914 Clouds 29 1010 83 10000 2.1 180 00:18 12.04.2020
4915 Clouds 30 1010 83 10000 3.1 190 23:43 11.04.2020
4916 Clouds 30 1010 83 10000 3.1 190 23:23 11.04.2020
4917 Clouds 30 1010 83 10000 3.1 190 22:39 11.04.2020
4918 Clouds 30 1010 83 10000 3.1 190 22:21 11.04.2020
4919 Clouds 30 1010 83 10000 3.6 200 21:56 11.04.2020
4920 Clouds 30 1010 79 10000 4.1 190 21:37 11.04.2020
4921 Clouds 30 1010 79 10000 4.1 190 21:18 11.04.2020
4922 Clouds 30 1010 79 10000 4.1 190 21:18 11.04.2020
4923 Clouds 30 1010 79 10000 4.1 190 20:56 11.04.2020
4924 Clouds 30 1011 79 10000 5.1 200 20:38 11.04.2020
4925 Clouds 30 1011 79 10000 5.1 200 20:19 11.04.2020
4926 Clouds 31 1011 79 10000 2.6 190 19:57 11.04.2020
4927 Clouds 31 1011 79 10000 3.6 180 19:38 11.04.2020
4928 Clouds 31 1011 79 10000 3.6 180 19:38 11.04.2020
4929 Clouds 31 1012 79 10000 4.1 180 19:18 11.04.2020
4930 Clouds 31 1012 79 10000 4.1 180 19:18 11.04.2020
4931 Clouds 30 1012 79 10000 4.1 180 18:55 11.04.2020
4932 Clouds 31 1012 79 10000 5.1 180 18:37 11.04.2020
4933 Clouds 31 1012 79 10000 5.1 180 18:37 11.04.2020
4934 Clouds 31 1012 79 10000 4.6 170 18:18 11.04.2020
4935 Clouds 31 1012 79 10000 4.6 170 17:58 11.04.2020
4936 Clouds 31 1011 70 10000 3.1 170 17:38 11.04.2020
4937 Clouds 32 1011 70 10000 3.6 180 17:19 11.04.2020
4938 Clouds 32 1011 70 10000 3.6 190 16:42 11.04.2020
4939 Clouds 32 1011 70 10000 3.6 190 16:21 11.04.2020
4940 Clouds 32 1010 70 10000 4.1 190 15:42 11.04.2020
4941 Clouds 32 1010 70 10000 4.1 190 15:22 11.04.2020
4942 Clouds 32 1009 66 10000 3.1 190 14:59 11.04.2020
4943 Clouds 33 1009 66 10000 4.1 200 14:40 11.04.2020
4944 Clouds 33 1009 66 10000 4.1 200 14:22 11.04.2020
4945 Clouds 34 1009 55 10000 4.6 170 13:46 11.04.2020
4946 Clouds 34 1009 55 10000 4.6 170 13:26 11.04.2020
4947 Clouds 35 1009 52 10000 3.6 170 12:59 11.04.2020
4948 Clouds 35 1008 52 10000 4.1 180 12:38 11.04.2020
4949 Clouds 36 1008 53 10000 1.5 200 12:18 11.04.2020
4950 Clouds 36 1008 53 10000 1.5 200 11:54 11.04.2020
4951 Clouds 36 1008 59 10000 1.5 210 11:36 11.04.2020
4952 Clouds 36 1009 66 10000 2.1 300 11:18 11.04.2020
4953 Clouds 36 1009 44 10000 4.6 200 10:41 11.04.2020
4954 Clouds 36 1009 44 10000 4.6 200 10:21 11.04.2020
4955 Clouds 36 1009 44 10000 4.6 200 10:21 11.04.2020
4956 Clouds 36 1009 47 10000 5.7 200 09:57 11.04.2020
4957 Thunderstorm 35 1010 56 5000 5.1 150 09:39 11.04.2020
4958 Thunderstorm 35 1010 56 5000 5.1 150 09:20 11.04.2020
4959 Clouds 36 1011 47 10000 2.1 0 08:45 11.04.2020
4960 Clouds 35 1011 47 10000 2.1 0 08:27 11.04.2020
4961 Clouds 36 1012 44 10000 2.6 200 07:49 11.04.2020
4962 Clouds 35 1012 44 10000 2.6 200 07:28 11.04.2020
4963 Clouds 35 1013 53 10000 2.1 0 06:47 11.04.2020
4964 Clouds 34 1013 53 10000 3.1 230 06:18 11.04.2020
4965 Clouds 33 1014 66 10000 2.1 140 04:35 11.04.2020
4966 Clouds 31 1014 79 8000 2.1 110 03:40 11.04.2020
4967 Clouds 29 1012 83 10000 2.6 130 01:53 11.04.2020
4968 Clouds 29 1012 83 10000 2.82 193 01:20 11.04.2020
4969 Clouds 29 1012 83 10000 2.82 193 00:44 11.04.2020
4970 Clouds 29 1011 83 10000 1 0 00:19 11.04.2020
4971 Clouds 29 1011 83 10000 1 0 23:56 10.04.2020
4972 Clouds 29 1011 83 10000 1 0 23:37 10.04.2020
4973 Clouds 28 1011 83 10000 1 0 23:18 10.04.2020
4974 Clouds 28 1011 83 10000 1 0 23:18 10.04.2020
4975 Clouds 29 1012 78 10000 1.5 110 22:43 10.04.2020
4976 Clouds 29 1012 78 10000 1.5 110 22:21 10.04.2020
4977 Clouds 29 1012 78 10000 4.67 192 21:58 10.04.2020
4978 Clouds 29 1012 74 10000 3.1 140 21:39 10.04.2020
4979 Clouds 29 1012 74 10000 3.1 140 21:20 10.04.2020
4980 Clouds 30 1012 78 10000 1 0 20:41 10.04.2020
4981 Clouds 29 1012 78 10000 1 0 20:23 10.04.2020
4982 Clouds 29 1013 78 10000 1.5 110 19:58 10.04.2020
4983 Clouds 29 1013 74 10000 3.6 110 19:40 10.04.2020
4984 Clouds 30 1013 70 10000 1.5 90 19:20 10.04.2020
4985 Clouds 30 1013 70 10000 1.5 90 18:57 10.04.2020
4986 Clouds 30 1013 74 10000 1.5 140 18:39 10.04.2020
4987 Clouds 30 1013 70 10000 4.1 130 18:21 10.04.2020
4988 Clouds 30 1013 70 10000 4.1 130 17:58 10.04.2020
4989 Clouds 30 1013 70 10000 4.1 100 17:39 10.04.2020
4990 Clouds 30 1013 70 10000 4.1 100 17:20 10.04.2020
4991 Clouds 31 1013 79 10000 3.6 190 16:56 10.04.2020
4992 Clouds 31 1012 70 10000 5.1 200 16:38 10.04.2020
4993 Clouds 31 1012 70 10000 5.1 200 16:19 10.04.2020
4994 Clouds 31 1012 70 10000 3.1 180 15:55 10.04.2020
4995 Clouds 32 1012 66 10000 4.1 150 15:36 10.04.2020
4996 Clouds 32 1012 66 10000 4.1 160 15:18 10.04.2020
4997 Clouds 32 1012 66 10000 4.1 160 14:54 10.04.2020
4998 Clouds 32 1012 66 10000 4.1 160 14:36 10.04.2020
4999 Clouds 32 1011 66 10000 5.1 170 14:18 10.04.2020
5000 Clouds 33 1010 62 10000 5.7 190 13:42 10.04.2020
5001 Clouds 33 1010 62 10000 5.7 190 13:21 10.04.2020
5002 Clouds 34 1009 63 10000 5.7 190 12:43 10.04.2020
5003 Clouds 34 1009 63 10000 5.7 190 12:23 10.04.2020
5004 Clouds 35 1009 56 10000 5.1 200 11:55 10.04.2020
5005 Clouds 35 1008 53 10000 5.1 190 11:37 10.04.2020
5006 Clouds 35 1008 53 10000 5.1 190 11:18 10.04.2020
5007 Clouds 35 1009 50 10000 7.7 210 10:43 10.04.2020
5008 Clouds 35 1009 50 10000 7.7 210 10:23 10.04.2020
5009 Clouds 35 1009 50 10000 5.1 180 09:56 10.04.2020
5010 Clouds 35 1010 50 10000 4.1 200 09:38 10.04.2020
5011 Clouds 35 1010 50 10000 4.1 200 09:18 10.04.2020
5012 Clouds 35 1012 53 10000 4.6 200 08:42 10.04.2020
5013 Clouds 35 1012 53 10000 4.6 200 08:21 10.04.2020
5014 Clouds 35 1013 56 10000 3.6 200 07:45 10.04.2020
5015 Clouds 35 1013 56 10000 3.6 200 07:23 10.04.2020
5016 Clouds 35 1013 56 10000 3.6 200 06:48 10.04.2020
5017 Clouds 34 1013 56 10000 3.6 200 06:27 10.04.2020
5018 Clouds 34 1014 59 10000 3.6 150 05:40 10.04.2020
5019 Clouds 33 1014 70 10000 2.1 140 04:57 10.04.2020
5020 Clouds 32 1013 79 10000 3.1 110 03:45 10.04.2020
5021 Clouds 30 1013 79 10000 3.1 110 03:24 10.04.2020
5022 Clouds 29 1013 79 10000 3.1 110 02:48 10.04.2020
5023 Clouds 29 1012 83 10000 3.1 110 02:28 10.04.2020
5024 Clouds 29 1012 83 10000 2.1 120 01:30 10.04.2020
5025 Clouds 29 1011 83 10000 3.52 167 00:49 10.04.2020
5026 Clouds 29 1011 83 10000 4.14 191 00:23 10.04.2020
5027 Clouds 29 1011 83 10000 2.1 130 23:44 09.04.2020
5028 Clouds 29 1011 83 10000 2.1 130 23:26 09.04.2020
5029 Clouds 29 1011 79 10000 4.14 191 22:59 09.04.2020
5030 Clouds 29 1011 79 10000 1.5 120 22:41 09.04.2020
5031 Clouds 29 1011 79 10000 1.5 120 22:22 09.04.2020
5032 Clouds 30 1012 83 10000 2.1 180 21:45 09.04.2020
5033 Clouds 29 1012 83 10000 2.1 180 21:26 09.04.2020
5034 Clouds 30 1012 83 10000 2.6 170 20:57 09.04.2020
5035 Clouds 30 1012 79 10000 2.6 160 20:38 09.04.2020
5036 Clouds 30 1012 79 10000 3.1 170 20:19 09.04.2020
5037 Clouds 30 1012 79 10000 3.6 160 19:41 09.04.2020
5038 Clouds 30 1012 79 10000 3.6 160 19:23 09.04.2020
5039 Clouds 29 1012 79 10000 3.6 160 18:58 09.04.2020
5040 Clouds 29 1012 74 10000 2.6 160 18:40 09.04.2020
5041 Clouds 30 1012 74 10000 3.6 190 18:18 09.04.2020
5042 Clouds 30 1012 74 10000 3.6 190 18:18 09.04.2020
5043 Clouds 30 1011 74 10000 3.6 200 17:39 09.04.2020
5044 Clouds 31 1011 74 10000 3.6 200 17:21 09.04.2020
5045 Clouds 31 1010 66 10000 4.6 190 16:41 09.04.2020
5046 Clouds 31 1010 66 10000 4.6 190 16:20 09.04.2020
5047 Clouds 31 1010 66 10000 4.1 200 15:58 09.04.2020
5048 Clouds 31 1010 66 10000 5.1 200 15:39 09.04.2020
5049 Clouds 32 1010 66 10000 5.1 200 15:21 09.04.2020
5050 Clouds 31 1009 66 10000 4.6 190 14:59 09.04.2020
5051 Clouds 32 1009 62 10000 5.1 170 14:38 09.04.2020
5052 Clouds 32 1009 62 10000 5.1 170 14:20 09.04.2020
5053 Clouds 33 1008 62 10000 5.7 160 13:42 09.04.2020
5054 Clouds 34 1008 62 10000 5.7 160 13:24 09.04.2020
5055 Clouds 34 1008 55 10000 5.1 190 12:59 09.04.2020
5056 Clouds 34 1008 47 10000 4.6 180 12:39 09.04.2020
5057 Clouds 35 1008 41 10000 4.1 200 12:20 09.04.2020
5058 Clouds 35 1008 41 10000 4.1 200 12:20 09.04.2020
5059 Clouds 35 1008 41 10000 4.1 200 11:55 09.04.2020
5060 Clouds 35 1008 41 10000 4.6 210 11:36 09.04.2020
5061 Clouds 35 1008 37 10000 4.6 210 11:18 09.04.2020
5062 Clouds 36 1009 39 10000 5.1 200 10:41 09.04.2020
5063 Clouds 36 1009 39 10000 5.1 200 10:22 09.04.2020
5064 Clouds 36 1009 41 10000 4.6 190 09:58 09.04.2020
5065 Clouds 36 1009 47 10000 3.6 180 09:39 09.04.2020
5066 Clouds 35 1009 47 10000 3.6 180 09:21 09.04.2020
5067 Clouds 35 1010 50 10000 4.1 190 08:44 09.04.2020
5068 Clouds 35 1010 50 10000 4.1 190 08:24 09.04.2020
5069 Clouds 35 1011 53 10000 4.1 180 07:59 09.04.2020
5070 Clouds 35 1012 53 10000 4.1 170 07:37 09.04.2020
5071 Clouds 34 1012 56 10000 4.1 180 07:18 09.04.2020
5072 Clouds 34 1012 59 10000 4.1 190 06:28 09.04.2020
5073 Clouds 33 1013 66 10000 4.6 150 05:49 09.04.2020
5074 Clouds 33 1013 66 10000 4.6 150 05:20 09.04.2020
5075 Clouds 29 1011 88 10000 2.6 110 02:35 09.04.2020
5076 Clouds 29 1010 88 10000 3.1 110 01:45 09.04.2020
5077 Clouds 29 1010 88 10000 3.1 110 01:27 09.04.2020
5078 Clouds 29 1010 83 10000 3.6 110 00:44 09.04.2020
5079 Clouds 29 1010 83 10000 3.6 110 00:20 09.04.2020
5080 Clouds 29 1010 83 10000 3.6 110 23:59 08.04.2020
5081 Clouds 29 1010 83 10000 3.1 130 23:41 08.04.2020
5082 Clouds 29 1009 83 10000 3.1 140 23:22 08.04.2020
5083 Clouds 29 1009 83 10000 3.1 140 22:44 08.04.2020
5084 Clouds 29 1010 83 10000 3.1 160 22:24 08.04.2020
5085 Clouds 30 1010 83 10000 3.1 160 21:57 08.04.2020
5086 Clouds 30 1010 83 10000 3.1 160 21:39 08.04.2020
5087 Clouds 30 1010 83 10000 3.1 170 21:21 08.04.2020
5088 Clouds 30 1010 83 10000 4.1 170 20:58 08.04.2020
5089 Clouds 30 1010 79 10000 3.6 180 20:39 08.04.2020
5090 Clouds 30 1010 79 10000 3.6 180 20:20 08.04.2020
5091 Clouds 30 1011 79 10000 4.1 180 19:57 08.04.2020
5092 Clouds 30 1011 79 10000 3.6 180 19:37 08.04.2020
5093 Clouds 30 1011 79 10000 4.6 180 19:19 08.04.2020
5094 Clouds 30 1011 79 10000 4.6 180 19:19 08.04.2020
5095 Clouds 30 1012 74 10000 5.7 190 18:42 08.04.2020
5096 Clouds 30 1011 74 10000 5.7 200 18:24 08.04.2020
5097 Clouds 31 1011 74 10000 5.7 200 17:56 08.04.2020
5098 Clouds 31 1011 70 10000 5.7 190 17:38 08.04.2020
5099 Clouds 31 1010 66 10000 5.7 190 17:18 08.04.2020
5100 Clouds 31 1010 62 10000 6.2 180 16:42 08.04.2020
5101 Clouds 31 1010 70 10000 7.7 190 16:23 08.04.2020
5102 Clouds 31 1009 66 10000 6.2 200 15:55 08.04.2020
5103 Clouds 31 1009 66 10000 6.2 200 15:37 08.04.2020
5104 Clouds 31 1009 66 10000 6.2 200 15:18 08.04.2020
5105 Clouds 32 1008 55 10000 6.2 200 14:42 08.04.2020
5106 Clouds 32 1008 55 10000 6.2 200 14:24 08.04.2020
5107 Clouds 32 1008 55 10000 4.6 200 13:54 08.04.2020
5108 Clouds 32 1008 49 10000 5.1 200 13:36 08.04.2020
5109 Clouds 34 1007 44 10000 5.7 180 13:18 08.04.2020
5110 Clouds 34 1007 39 10000 6.2 190 12:41 08.04.2020
5111 Clouds 35 1008 41 10000 5.7 200 12:18 08.04.2020
5112 Clouds 35 1008 41 10000 5.7 200 12:18 08.04.2020
5113 Clouds 35 1008 41 10000 5.7 200 11:55 08.04.2020
5114 Clouds 35 1008 41 10000 5.7 200 11:37 08.04.2020
5115 Clouds 35 1008 44 10000 6.2 200 11:19 08.04.2020
5116 Clouds 35 1008 50 10000 5.7 200 10:55 08.04.2020
5117 Clouds 35 1008 50 10000 5.7 200 10:37 08.04.2020
5118 Clouds 35 1009 50 10000 6.2 190 10:18 08.04.2020
5119 Clouds 35 1009 50 10000 6.2 200 09:42 08.04.2020
5120 Clouds 35 1009 50 10000 6.2 200 09:20 08.04.2020
5121 Clouds 35 1010 53 10000 5.1 190 08:59 08.04.2020
5122 Clouds 35 1010 53 10000 5.1 190 08:40 08.04.2020
5123 Clouds 35 1010 53 10000 5.1 190 08:21 08.04.2020
5124 Clouds 35 1011 56 10000 5.7 180 07:43 08.04.2020
5125 Clouds 35 1011 56 10000 4.6 180 07:22 08.04.2020
5126 Clouds 34 1011 59 10000 5.1 180 06:41 08.04.2020
5127 Clouds 33 1012 66 10000 4.1 150 05:30 08.04.2020
5128 Clouds 30 1011 83 10000 4.1 120 03:20 08.04.2020
5129 Clouds 29 1010 88 10000 3.1 110 02:38 08.04.2020
5130 Clouds 29 1010 88 10000 3.1 110 02:18 08.04.2020
5131 Clouds 29 1009 88 10000 2.6 120 01:28 08.04.2020
5132 Clouds 29 1009 83 10000 2.1 120 00:50 08.04.2020
5133 Clouds 29 1009 83 10000 2.1 120 00:32 08.04.2020
5134 Clouds 29 1009 79 10000 1.5 140 23:57 07.04.2020
5135 Clouds 29 1008 79 10000 2.6 150 23:38 07.04.2020
5136 Clouds 29 1008 79 10000 2.6 150 23:19 07.04.2020
5137 Clouds 29 1008 79 10000 2.6 150 23:19 07.04.2020
5138 Clouds 29 1008 79 10000 2.1 160 22:56 07.04.2020
5139 Clouds 29 1008 79 10000 2.6 170 22:38 07.04.2020
5140 Clouds 29 1008 79 10000 2.6 170 22:18 07.04.2020
5141 Clouds 29 1009 79 10000 2.1 170 21:43 07.04.2020
5142 Clouds 29 1009 79 10000 2.1 170 21:22 07.04.2020
5143 Clouds 30 1009 79 10000 3.6 190 20:59 07.04.2020
5144 Clouds 30 1009 79 10000 3.6 190 20:41 07.04.2020
5145 Clouds 29 1009 79 10000 3.6 190 20:21 07.04.2020
5146 Clouds 29 1010 79 10000 3.6 180 19:58 07.04.2020
5147 Clouds 30 1010 79 10000 4.1 180 19:38 07.04.2020
5148 Clouds 30 1010 79 10000 4.1 180 19:20 07.04.2020
5149 Clouds 29 1010 79 10000 4.1 180 18:59 07.04.2020
5150 Clouds 29 1010 74 10000 5.1 180 18:40 07.04.2020
5151 Clouds 30 1010 74 10000 5.1 180 18:21 07.04.2020
5152 Clouds 30 1009 74 10000 3.6 180 17:47 07.04.2020
5153 Clouds 30 1009 74 10000 3.6 180 17:47 07.04.2020
5154 Clouds 30 1009 74 10000 3.6 180 17:25 07.04.2020
5155 Clouds 30 1009 74 10000 5.7 200 16:58 07.04.2020
5156 Clouds 31 1008 74 10000 5.7 200 16:40 07.04.2020
5157 Clouds 31 1008 74 10000 5.7 200 16:22 07.04.2020
5158 Clouds 31 1008 74 10000 5.7 200 15:43 07.04.2020
5159 Clouds 32 1007 66 10000 4.6 180 15:24 07.04.2020
5160 Clouds 32 1007 66 10000 4.6 180 14:55 07.04.2020
5161 Clouds 32 1007 66 10000 5.1 180 14:36 07.04.2020
5162 Clouds 32 1006 59 10000 5.7 180 14:18 07.04.2020
5163 Clouds 33 1006 62 10000 4.1 180 13:41 07.04.2020
5164 Clouds 33 1006 55 10000 4.6 190 13:19 07.04.2020
5165 Clouds 33 1006 55 10000 4.6 190 12:56 07.04.2020
5166 Clouds 33 1006 55 10000 4.6 200 12:37 07.04.2020
5167 Clouds 34 1006 59 10000 5.1 200 12:19 07.04.2020
5168 Clouds 34 1007 56 10000 5.1 190 11:46 07.04.2020
5169 Clouds 34 1007 56 10000 5.1 190 11:27 07.04.2020
5170 Clouds 34 1007 59 10000 5.1 190 10:59 07.04.2020
5171 Clouds 34 1007 56 10000 4.6 190 10:39 07.04.2020
5172 Clouds 34 1007 56 10000 4.6 190 10:39 07.04.2020
5173 Clouds 34 1007 56 10000 4.6 190 10:20 07.04.2020
5174 Clouds 34 1008 53 10000 6.2 210 09:46 07.04.2020
5175 Clouds 35 1008 53 10000 6.2 210 09:20 07.04.2020
5176 Clouds 35 1009 53 10000 5.7 190 08:59 07.04.2020
5177 Clouds 35 1009 50 10000 5.1 200 08:39 07.04.2020
5178 Clouds 34 1009 50 10000 5.1 200 08:20 07.04.2020
5179 Clouds 35 1010 53 10000 4.1 190 07:44 07.04.2020
5180 Clouds 34 1010 53 10000 4.1 190 07:26 07.04.2020
5181 Clouds 34 1011 53 10000 3.6 200 06:52 07.04.2020
5182 Clouds 33 1011 53 10000 3.6 190 06:25 07.04.2020
5183 Clouds 33 1011 59 10000 3.6 210 05:50 07.04.2020
5184 Clouds 33 1012 59 10000 3.1 170 05:24 07.04.2020
5185 Clouds 31 1011 70 10000 4.1 190 03:34 07.04.2020
5186 Clouds 30 1010 74 10000 1.5 180 02:59 07.04.2020
5187 Clouds 30 1010 79 10000 2.1 170 02:35 07.04.2020
5188 Clouds 29 1009 79 10000 2.1 170 01:34 07.04.2020
5189 Clouds 29 1009 79 10000 2.1 170 00:52 07.04.2020
5190 Clouds 30 1008 79 10000 3.6 190 00:25 07.04.2020
5191 Clouds 30 1009 79 10000 4.1 190 23:40 06.04.2020
5192 Clouds 30 1009 79 10000 4.1 190 23:21 06.04.2020
5193 Clouds 30 1009 79 10000 4.1 180 22:42 06.04.2020
5194 Clouds 30 1009 79 10000 4.1 180 22:23 06.04.2020
5195 Clouds 30 1009 79 10000 4.1 190 21:59 06.04.2020
5196 Clouds 30 1009 79 10000 4.1 190 21:41 06.04.2020
5197 Clouds 30 1009 79 10000 4.1 190 21:19 06.04.2020
5198 Clouds 30 1010 74 10000 4.6 190 20:56 06.04.2020
5199 Clouds 30 1010 74 10000 4.1 190 20:38 06.04.2020
5200 Clouds 30 1010 74 10000 5.1 190 20:20 06.04.2020
5201 Clouds 30 1010 74 10000 5.1 190 19:56 06.04.2020
5202 Clouds 30 1011 74 10000 5.7 190 19:38 06.04.2020
5203 Clouds 30 1011 74 10000 4.1 180 19:19 06.04.2020
5204 Clouds 30 1011 74 10000 4.1 180 19:19 06.04.2020
5205 Clouds 30 1011 74 10000 5.1 190 18:42 06.04.2020
5206 Clouds 31 1011 74 10000 5.7 200 18:23 06.04.2020
5207 Clouds 31 1011 74 10000 5.7 200 17:57 06.04.2020
5208 Clouds 31 1010 74 10000 5.1 200 17:38 06.04.2020
5209 Clouds 31 1010 74 10000 6.2 190 17:18 06.04.2020
5210 Clouds 31 1009 70 10000 5.7 180 16:47 06.04.2020
5211 Clouds 31 1009 70 10000 5.7 180 16:29 06.04.2020
5212 Clouds 31 1009 66 10000 6.7 200 14:46 06.04.2020
5213 Clouds 31 1009 66 10000 6.7 200 14:46 06.04.2020
5214 Clouds 31 1009 66 10000 6.7 200 14:46 06.04.2020
5215 Clouds 31 1009 66 10000 6.7 200 14:46 06.04.2020
5216 Clouds 31 1009 66 10000 6.7 200 14:46 06.04.2020
5217 Clouds 32 1007 59 10000 6.2 190 13:44 06.04.2020
5218 Clouds 33 1007 59 10000 5.1 190 13:21 06.04.2020
5219 Clouds 34 1007 55 10000 6.2 190 12:44 06.04.2020
5220 Clouds 34 1007 55 10000 6.2 190 12:44 06.04.2020
5221 Clouds 34 1007 55 10000 6.2 190 12:43 06.04.2020
5222 Clouds 34 1007 56 10000 7.2 210 12:19 06.04.2020
5223 Clouds 34 1007 56 10000 7.2 210 12:19 06.04.2020
5224 Clouds 34 1007 56 10000 7.2 210 12:19 06.04.2020
5225 Clouds 35 1006 50 10000 6.7 200 11:40 06.04.2020
5226 Clouds 35 1007 47 10000 5.1 180 10:55 06.04.2020
5227 Clouds 35 1007 47 10000 4.6 180 10:37 06.04.2020
5228 Clouds 35 1007 47 10000 4.6 180 10:19 06.04.2020
5229 Clouds 35 1007 47 10000 4.6 180 10:19 06.04.2020
5230 Clouds 35 1007 47 10000 4.6 180 10:19 06.04.2020
5231 Clouds 36 1008 47 10000 5.1 200 09:38 06.04.2020
5232 Clouds 36 1008 47 10000 5.1 200 09:38 06.04.2020
5233 Clouds 36 1008 47 10000 5.1 200 09:38 06.04.2020
5234 Clouds 36 1008 47 10000 5.1 200 09:38 06.04.2020
5235 Clouds 36 1008 47 10000 4.6 180 09:19 06.04.2020
5236 Clouds 36 1009 47 10000 4.6 180 08:43 06.04.2020
5237 Clouds 36 1009 47 10000 4.6 180 08:43 06.04.2020
5238 Clouds 36 1009 47 10000 4.6 180 08:43 06.04.2020
5239 Clouds 36 1009 47 10000 4.6 180 08:43 06.04.2020
5240 Clouds 36 1009 47 10000 4.6 180 08:43 06.04.2020
5241 Clouds 36 1010 50 10000 4.6 170 07:59 06.04.2020
5242 Clouds 36 1010 50 10000 4.6 170 07:59 06.04.2020
5243 Clouds 35 1011 47 10000 5.1 200 07:20 06.04.2020
5244 Clouds 34 1012 53 10000 4.1 200 06:26 06.04.2020
5245 Clouds 34 1012 59 10000 4.6 180 05:43 06.04.2020
5246 Clouds 31 1012 70 10000 3.6 190 03:33 06.04.2020
5247 Clouds 30 1011 79 10000 3.1 190 02:49 06.04.2020
5248 Clouds 29 1011 83 10000 1 170 01:53 06.04.2020
5249 Clouds 29 1010 83 10000 2.6 160 00:52 06.04.2020
5250 Clouds 29 1010 83 10000 1.5 170 00:27 06.04.2020
5251 Clouds 30 1010 83 10000 2.6 180 23:50 05.04.2020
5252 Clouds 30 1010 83 10000 3.6 200 23:32 05.04.2020
5253 Clouds 30 1010 83 10000 3.6 200 23:32 05.04.2020
5254 Clouds 30 1010 83 10000 3.6 200 23:32 05.04.2020
5255 Clouds 30 1010 83 10000 3.1 190 22:57 05.04.2020
5256 Clouds 30 1010 83 10000 3.1 190 22:38 05.04.2020
5257 Clouds 30 1011 79 10000 3.6 190 22:19 05.04.2020
5258 Clouds 30 1011 83 10000 3.1 180 21:58 05.04.2020
5259 Clouds 30 1011 83 10000 3.1 180 21:39 05.04.2020
5260 Clouds 30 1011 83 10000 3.1 180 21:39 05.04.2020
5261 Clouds 30 1011 79 10000 4.1 210 21:21 05.04.2020
5262 Clouds 30 1012 79 10000 4.1 190 20:21 05.04.2020
5263 Clouds 31 1012 79 10000 3.6 190 19:41 05.04.2020
5264 Clouds 31 1012 79 10000 4.6 200 19:22 05.04.2020
5265 Clouds 31 1012 74 10000 7.2 200 18:47 05.04.2020
5266 Clouds 31 1013 79 10000 5.1 180 17:59 05.04.2020
5267 Clouds 31 1013 74 10000 4.6 190 17:40 05.04.2020
5268 Clouds 31 1013 74 10000 4.6 190 17:40 05.04.2020
5269 Clouds 31 1013 74 10000 4.6 190 17:40 05.04.2020
5270 Clouds 31 1013 74 10000 4.6 190 17:40 05.04.2020
5271 Clouds 31 1013 74 10000 4.6 190 17:40 05.04.2020
5272 Clouds 31 1013 74 10000 4.6 190 17:20 05.04.2020
5273 Clouds 31 1013 74 10000 4.6 190 17:20 05.04.2020
5274 Clouds 31 1013 74 10000 4.6 190 16:46 05.04.2020
5275 Clouds 31 1013 74 10000 4.6 190 16:46 05.04.2020
5276 Clouds 31 1013 74 10000 4.6 190 16:46 05.04.2020
5277 Clouds 31 1013 74 10000 4.6 190 16:46 05.04.2020
5278 Clouds 31 1013 74 10000 4.6 190 16:46 05.04.2020
5279 Clouds 31 1012 74 10000 5.7 190 16:18 05.04.2020
5280 Clouds 32 1011 74 10000 4.6 190 15:44 05.04.2020
5281 Clouds 32 1010 70 10000 6.2 190 15:25 05.04.2020
5282 Clouds 32 1010 70 10000 6.2 190 15:25 05.04.2020
5283 Clouds 32 1009 70 10000 6.2 190 14:48 05.04.2020
5284 Clouds 32 1009 70 10000 6.2 190 14:48 05.04.2020
5285 Clouds 32 1009 70 10000 6.2 190 14:48 05.04.2020
5286 Clouds 32 1009 70 10000 6.2 190 14:47 05.04.2020
5287 Clouds 32 1009 70 10000 6.2 190 14:47 05.04.2020
5288 Clouds 33 1009 62 10000 6.2 190 13:45 05.04.2020
5289 Clouds 34 1008 56 10000 6.2 200 12:57 05.04.2020
5290 Clouds 34 1008 56 10000 6.2 200 12:57 05.04.2020
5291 Clouds 34 1008 53 10000 5.1 200 11:58 05.04.2020
5292 Clouds 34 1008 53 10000 5.1 200 11:58 05.04.2020
5293 Clouds 34 1008 53 10000 5.1 200 11:58 05.04.2020
5294 Clouds 35 1008 47 10000 5.7 210 11:38 05.04.2020
5295 Clouds 35 1008 47 10000 5.7 210 11:19 05.04.2020
5296 Clouds 35 1008 50 10000 5.1 190 10:44 05.04.2020
5297 Clouds 35 1009 47 10000 5.7 210 10:19 05.04.2020
5298 Clouds 36 1009 47 10000 5.1 190 09:52 05.04.2020
5299 Clouds 36 1009 47 10000 5.1 190 09:52 05.04.2020
5300 Clouds 36 1009 47 10000 5.1 190 09:52 05.04.2020
5301 Clouds 36 1009 47 10000 5.1 190 09:52 05.04.2020
5302 Clouds 36 1009 47 10000 5.1 190 09:52 05.04.2020
5303 Clouds 35 1009 47 10000 4.1 180 09:25 05.04.2020
5304 Clouds 35 1009 47 10000 4.1 180 09:25 05.04.2020
5305 Clouds 35 1009 47 10000 4.1 180 09:25 05.04.2020
5306 Clouds 35 1009 47 10000 4.1 180 09:25 05.04.2020
5307 Clouds 35 1009 47 10000 4.1 180 09:25 05.04.2020
5308 Clouds 35 1011 50 10000 4.6 190 07:57 05.04.2020
5309 Clouds 35 1011 50 10000 4.6 190 07:57 05.04.2020
5310 Clear 33 1013 70 10000 2.6 150 04:52 05.04.2020
5311 Clear 33 1013 70 10000 2.6 150 04:52 05.04.2020
5312 Clear 31 1012 78 10000 2.6 110 03:35 05.04.2020
5313 Clear 31 1012 78 10000 2.6 110 03:35 05.04.2020
5314 Clear 31 1012 78 10000 2.6 110 03:35 05.04.2020
5315 Clouds 30 1012 83 10000 4.1 100 02:52 05.04.2020
5316 Clear 29 1011 88 10000 3.39 197 01:51 05.04.2020
5317 Clouds 29 1011 83 10000 3.1 110 01:32 05.04.2020
5318 Clouds 29 1010 83 10000 3.1 110 00:47 05.04.2020
5319 Clouds 29 1010 83 10000 3.1 110 00:22 05.04.2020
5320 Clouds 29 1010 78 10000 3.1 110 23:57 04.04.2020
5321 Clouds 29 1010 79 10000 1.5 140 23:38 04.04.2020
5322 Clouds 30 1010 79 10000 1.5 140 23:19 04.04.2020
5323 Clouds 30 1010 83 10000 2.1 170 22:55 04.04.2020
5324 Clouds 29 1010 83 10000 2.6 170 22:37 04.04.2020
5325 Clouds 29 1010 83 10000 2.6 170 22:19 04.04.2020
5326 Clouds 30 1010 83 10000 2.6 200 21:54 04.04.2020
5327 Clouds 30 1010 79 10000 3.6 190 21:36 04.04.2020
5328 Clouds 30 1010 79 10000 3.6 190 21:18 04.04.2020
5329 Clouds 30 1010 79 10000 3.6 180 20:42 04.04.2020
5330 Clouds 30 1011 79 10000 4.6 190 20:23 04.04.2020
5331 Clouds 30 1011 79 10000 4.6 190 19:58 04.04.2020
5332 Clouds 30 1011 79 10000 5.7 190 19:37 04.04.2020
5333 Clouds 30 1011 79 10000 5.7 190 19:19 04.04.2020
5334 Clouds 30 1011 79 10000 5.7 190 18:57 04.04.2020
5335 Clouds 30 1011 79 10000 5.7 190 18:57 04.04.2020
5336 Clouds 31 1011 79 10000 5.7 190 18:38 04.04.2020
5337 Clouds 31 1011 79 10000 5.7 190 18:38 04.04.2020
5338 Clouds 31 1011 79 10000 5.7 190 18:19 04.04.2020
5339 Clouds 31 1011 74 10000 5.7 200 17:56 04.04.2020
5340 Clouds 31 1011 70 10000 5.1 190 17:38 04.04.2020
5341 Clouds 31 1011 70 10000 5.1 190 17:38 04.04.2020
5342 Clouds 31 1011 70 10000 5.1 190 17:18 04.04.2020
5343 Clouds 31 1011 66 10000 6.2 180 16:42 04.04.2020
5344 Clouds 31 1011 66 10000 6.2 180 16:22 04.04.2020
5345 Clouds 32 1010 66 10000 4.1 180 15:56 04.04.2020
5346 Clouds 32 1010 66 10000 4.6 190 15:38 04.04.2020
5347 Clouds 32 1010 66 10000 4.6 190 15:18 04.04.2020
5348 Clouds 32 1009 70 10000 4.6 200 14:43 04.04.2020
5349 Clouds 32 1009 62 10000 5.7 180 14:23 04.04.2020
5350 Clouds 32 1008 59 10000 5.1 190 13:56 04.04.2020
5351 Clouds 33 1008 52 10000 5.7 190 13:38 04.04.2020
5352 Clouds 33 1008 52 10000 5.7 190 13:19 04.04.2020
5353 Clouds 33 1008 52 10000 5.7 190 13:19 04.04.2020
5354 Clouds 34 1008 47 10000 5.7 190 12:45 04.04.2020
5355 Clouds 34 1008 56 10000 7.7 200 12:26 04.04.2020
5356 Clouds 35 1008 39 10000 4.1 200 11:59 04.04.2020
5357 Clouds 35 1008 39 10000 4.1 200 11:59 04.04.2020
5358 Clouds 36 1007 39 10000 4.1 200 11:38 04.04.2020
5359 Clouds 37 1007 39 10000 4.1 200 11:20 04.04.2020
5360 Clouds 37 1007 39 10000 4.1 200 11:20 04.04.2020
5361 Clouds 36 1008 39 10000 5.1 210 10:56 04.04.2020
5362 Clouds 36 1008 44 10000 5.1 200 10:38 04.04.2020
5363 Clouds 36 1008 44 10000 5.1 200 10:19 04.04.2020
5364 Clouds 36 1008 47 10000 4.6 190 09:54 04.04.2020
5365 Clouds 36 1009 47 10000 4.6 170 09:36 04.04.2020
5366 Clouds 37 1009 47 10000 4.6 170 09:18 04.04.2020
5367 Clouds 37 1009 44 10000 5.1 180 08:41 04.04.2020
5368 Clouds 37 1010 44 10000 3.6 220 08:21 04.04.2020
5369 Clouds 37 1010 44 10000 3.1 190 07:46 04.04.2020
5370 Clouds 36 1011 44 10000 3.6 240 07:26 04.04.2020
5371 Clouds 36 1011 50 10000 2.6 150 06:53 04.04.2020
5372 Clouds 35 1011 50 10000 3.1 210 06:20 04.04.2020
5373 Clouds 34 1012 56 10000 3.1 190 05:43 04.04.2020
5374 Clouds 34 1012 56 10000 3.1 180 05:24 04.04.2020
5375 Clouds 33 1012 70 10000 3.6 160 04:31 04.04.2020
5376 Clouds 32 1012 74 10000 3.6 180 03:51 04.04.2020
5377 Clouds 30 1011 79 10000 3.2 219 02:52 04.04.2020
5378 Clouds 30 1011 83 10000 3.2 219 02:33 04.04.2020
5379 Clouds 29 1010 83 10000 1.5 150 01:55 04.04.2020
5380 Clouds 29 1010 88 10000 1.5 130 01:25 04.04.2020
5381 Clouds 29 1010 83 10000 1.5 140 00:49 04.04.2020
5382 Clouds 29 1010 83 10000 1.5 170 00:30 04.04.2020
5383 Clouds 30 1010 83 10000 2.1 170 23:40 03.04.2020
5384 Clouds 30 1009 83 10000 2.6 160 23:21 03.04.2020
5385 Clouds 30 1009 83 10000 2.6 160 23:21 03.04.2020
5386 Clouds 30 1010 83 10000 1 0 22:58 03.04.2020
5387 Clouds 30 1010 83 10000 1 0 22:39 03.04.2020
5388 Clouds 30 1010 83 10000 1.5 190 22:18 03.04.2020
5389 Clouds 30 1010 83 10000 2.1 200 21:44 03.04.2020
5390 Clouds 30 1010 79 10000 3.6 200 21:25 03.04.2020
5391 Clouds 30 1010 79 10000 3.6 210 20:57 03.04.2020
5392 Clouds 30 1011 83 10000 4.1 210 20:38 03.04.2020
5393 Clouds 30 1011 83 10000 4.1 210 20:19 03.04.2020
5394 Clouds 30 1011 83 10000 4.1 210 19:57 03.04.2020
5395 Clouds 30 1011 79 10000 3.6 200 19:39 03.04.2020
5396 Clouds 30 1011 79 10000 3.6 200 19:21 03.04.2020
5397 Clouds 30 1011 79 10000 4.6 200 18:59 03.04.2020
5398 Clouds 30 1011 79 10000 6.2 190 18:41 03.04.2020
5399 Clouds 31 1011 79 10000 6.2 190 18:22 03.04.2020
5400 Clouds 31 1011 74 10000 4.6 200 17:55 03.04.2020
5401 Clouds 31 1011 66 10000 5.1 190 17:37 03.04.2020
5402 Clouds 32 1011 66 10000 5.1 190 17:18 03.04.2020
5403 Clouds 32 1011 66 10000 5.1 190 16:44 03.04.2020
5404 Clouds 32 1010 70 10000 5.1 180 16:22 03.04.2020
5405 Clouds 32 1010 70 10000 4.1 180 15:58 03.04.2020
5406 Clouds 32 1010 70 10000 4.1 180 15:39 03.04.2020
5407 Clouds 32 1009 70 10000 4.1 180 15:20 03.04.2020
5408 Clouds 32 1010 60 0 6.97 175 14:56 03.04.2020
5409 Clouds 32 1010 60 0 6.97 175 14:37 03.04.2020
5410 Clouds 32 1008 59 10000 5.7 170 14:19 03.04.2020
5411 Clouds 33 1008 59 10000 5.7 170 13:43 03.04.2020
5412 Clouds 33 1008 59 10000 5.7 170 13:25 03.04.2020
5413 Clouds 33 1008 59 10000 6.7 180 12:55 03.04.2020
5414 Clouds 34 1008 56 10000 7.2 200 12:37 03.04.2020
5415 Clouds 34 1008 56 10000 7.2 200 12:18 03.04.2020
5416 Clouds 34 1008 52 10000 6.2 200 11:41 03.04.2020
5417 Clouds 34 1008 50 10000 6.7 200 11:23 03.04.2020
5418 Clouds 35 1008 47 10000 5.7 180 10:59 03.04.2020
5419 Clouds 35 1008 50 10000 5.7 180 10:39 03.04.2020
5420 Clouds 36 1008 50 10000 5.7 180 10:20 03.04.2020
5421 Clouds 36 1009 47 10000 5.7 210 09:59 03.04.2020
5422 Clouds 35 1009 47 10000 5.1 190 09:40 03.04.2020
5423 Clouds 35 1009 47 10000 5.1 190 09:22 03.04.2020
5424 Clouds 35 1010 47 10000 5.1 200 08:56 03.04.2020
5425 Clouds 35 1011 50 10000 5.1 190 08:38 03.04.2020
5426 Clouds 36 1011 50 10000 5.1 190 08:20 03.04.2020
5427 Clouds 35 1011 53 10000 5.7 200 07:46 03.04.2020
5428 Clouds 35 1012 53 10000 5.1 200 07:28 03.04.2020
5429 Clouds 35 1012 53 10000 4.6 180 06:41 03.04.2020
5430 Clouds 34 1012 53 10000 4.6 180 06:22 03.04.2020
5431 Clouds 33 1012 63 10000 4.6 170 05:39 03.04.2020
5432 Clouds 31 1012 74 10000 3.1 140 03:42 03.04.2020
5433 Clouds 29 1011 78 10000 3.1 110 02:56 03.04.2020
5434 Clouds 29 1011 83 10000 3.1 110 02:18 03.04.2020
5435 Clouds 29 1010 83 10000 2.6 110 01:22 03.04.2020
5436 Clouds 29 1010 79 10000 1.5 160 00:34 03.04.2020
5437 Clouds 29 1009 79 10000 1.5 170 23:58 02.04.2020
5438 Clouds 29 1009 79 10000 1.5 170 23:39 02.04.2020
5439 Clouds 29 1009 79 10000 1.5 180 23:21 02.04.2020
5440 Clouds 29 1009 83 10000 2.1 180 22:57 02.04.2020
5441 Clouds 30 1009 83 10000 2.6 190 22:37 02.04.2020
5442 Clouds 30 1009 83 10000 2.6 190 22:18 02.04.2020
5443 Clouds 30 1009 79 10000 2.6 170 21:38 02.04.2020
5444 Clouds 30 1009 79 10000 2.6 170 21:19 02.04.2020
5445 Clouds 30 1010 74 10000 4.1 180 20:57 02.04.2020
5446 Clouds 30 1010 74 10000 3.1 190 20:39 02.04.2020
5447 Clouds 30 1010 74 10000 3.1 190 20:19 02.04.2020
5448 Clouds 30 1010 79 10000 4.1 170 19:43 02.04.2020
5449 Clouds 30 1010 79 10000 4.6 160 19:21 02.04.2020
5450 Clouds 30 1010 79 10000 4.6 160 19:21 02.04.2020
5451 Clouds 30 1010 79 10000 5.7 170 18:58 02.04.2020
5452 Clouds 30 1010 79 10000 4.6 170 18:39 02.04.2020
5453 Clouds 31 1010 79 10000 4.6 170 18:20 02.04.2020
5454 Clouds 31 1011 79 10000 5.1 180 17:55 02.04.2020
5455 Clouds 31 1010 70 10000 5.7 180 17:37 02.04.2020
5456 Clouds 31 1010 70 10000 5.7 180 17:18 02.04.2020
5457 Clouds 31 1010 66 10000 6.7 180 16:55 02.04.2020
5458 Clouds 31 1010 66 10000 6.2 180 16:36 02.04.2020
5459 Clouds 31 1010 66 10000 6.2 180 16:36 02.04.2020
5460 Clouds 31 1010 66 10000 6.2 180 16:18 02.04.2020
5461 -273 0 0 0 0 0 15:43 02.04.2020
5462 Clouds 31 1009 66 10000 5.1 190 15:43 02.04.2020
5463 Clouds 31 1009 66 10000 3.6 180 15:20 02.04.2020
5464 Clouds 32 1009 59 10000 5.7 190 14:58 02.04.2020
5465 Clouds 32 1009 59 10000 5.7 190 14:58 02.04.2020
5466 Clouds 32 1009 59 10000 5.7 190 14:39 02.04.2020
5467 Clouds 32 1008 52 10000 5.1 190 14:19 02.04.2020
5468 Clouds 33 1008 46 10000 4.1 200 13:56 02.04.2020
5469 Clouds 33 1007 44 10000 5.7 200 13:38 02.04.2020
5470 Clouds 33 1007 44 10000 5.7 200 13:19 02.04.2020
5471 Clouds 34 1007 41 10000 5.7 190 12:46 02.04.2020
5472 Clouds 35 1007 34 10000 5.7 200 12:20 02.04.2020
5473 Clouds 35 1007 34 10000 5.7 200 12:20 02.04.2020
5474 Clouds 35 1007 32 10000 6.7 210 11:58 02.04.2020
5475 Clouds 35 1007 34 10000 5.7 200 11:39 02.04.2020
5476 Clouds 35 1007 34 10000 5.7 200 11:39 02.04.2020
5477 Clouds 35 1007 34 10000 5.7 200 11:39 02.04.2020
5478 Clouds 35 1007 34 10000 5.7 200 11:21 02.04.2020
5479 Clouds 35 1007 39 10000 5.7 190 10:57 02.04.2020
5480 Clouds 35 1008 44 10000 6.2 200 10:39 02.04.2020
5481 Clouds 36 1008 44 10000 6.2 200 10:21 02.04.2020
5482 Clouds 36 1008 47 10000 6.2 170 09:59 02.04.2020
5483 Clouds 36 1008 47 10000 6.2 170 09:41 02.04.2020
5484 Clouds 35 1008 53 10000 5.7 200 09:22 02.04.2020
5485 Clouds 36 1009 50 10000 4.6 190 08:48 02.04.2020
5486 Clouds 36 1009 53 10000 4.6 200 08:29 02.04.2020
5487 Clouds 35 1010 56 10000 4.6 190 07:59 02.04.2020
5488 Clouds 35 1011 56 10000 4.6 210 07:40 02.04.2020
5489 Clouds 35 1011 56 10000 4.6 210 07:19 02.04.2020
5490 Clouds 34 1011 59 10000 4.6 170 06:25 02.04.2020
5491 Clouds 33 1011 63 10000 4.6 170 05:46 02.04.2020
5492 Clouds 33 1011 66 10000 4.6 180 05:18 02.04.2020
5493 Clouds 29 1010 83 10000 3.1 140 02:26 02.04.2020
5494 Clouds 29 1009 83 10000 2.1 160 01:27 02.04.2020
5495 Clouds 29 1009 83 10000 2.1 160 00:41 02.04.2020
5496 Clouds 29 1009 83 10000 2.1 160 00:20 02.04.2020
5497 Clouds 29 1008 83 10000 3.1 160 23:40 01.04.2020
5498 Clouds 29 1008 83 10000 2.6 160 23:19 01.04.2020
5499 Clouds 29 1008 83 10000 3.6 160 22:57 01.04.2020
5500 Clouds 29 1008 83 10000 3.6 160 22:57 01.04.2020
5501 Clouds 29 1008 83 10000 3.6 160 22:57 01.04.2020
5502 Clouds 29 1008 83 10000 3.6 160 22:38 01.04.2020
5503 Clouds 30 1008 83 10000 3.1 170 22:19 01.04.2020
5504 Clouds 30 1008 83 10000 3.1 170 22:19 01.04.2020
5505 Clouds 30 1008 83 10000 3.6 170 21:41 01.04.2020
5506 Clear 30 1008 79 10000 2.1 170 21:19 01.04.2020
5507 Clear 30 1008 79 10000 3.1 190 20:56 01.04.2020
5508 Clear 30 1008 79 10000 3.1 190 20:38 01.04.2020
5509 Clear 30 1009 79 10000 5.1 180 20:19 01.04.2020
5510 Clear 30 1009 79 10000 6.7 200 19:58 01.04.2020
5511 Clear 30 1009 79 10000 6.7 200 19:38 01.04.2020
5512 Clear 30 1009 79 10000 6.7 200 19:19 01.04.2020
5513 Clear 30 1009 74 10000 3.6 210 18:42 01.04.2020
5514 Clear 30 1009 74 10000 3.6 210 18:23 01.04.2020
5515 Clear 31 1009 66 10000 4.6 190 17:57 01.04.2020
5516 Clear 31 1009 66 10000 5.1 190 17:38 01.04.2020
5517 Clear 31 1009 66 10000 5.1 190 17:19 01.04.2020
5518 Clouds 31 1009 62 10000 4.6 180 16:57 01.04.2020
5519 Clouds 31 1009 62 10000 4.6 190 16:39 01.04.2020
5520 Clouds 32 1009 62 10000 4.6 190 16:20 01.04.2020
5521 Clouds 32 1008 62 10000 3.6 190 15:56 01.04.2020
5522 Clouds 32 1008 62 10000 4.6 190 15:37 01.04.2020
5523 Clouds 32 1008 62 10000 4.6 190 15:18 01.04.2020
5524 Clouds 32 1007 52 10000 4.6 180 14:40 01.04.2020
5525 Clouds 32 1007 49 10000 4.1 180 14:22 01.04.2020
5526 Clouds 32 1006 46 10000 4.1 190 13:59 01.04.2020
5527 Clouds 33 1006 46 10000 3.6 180 13:39 01.04.2020
5528 Clouds 33 1006 46 10000 3.6 180 13:20 01.04.2020
5529 Clouds 34 1006 44 10000 5.1 200 12:58 01.04.2020
5530 Clouds 34 1006 39 10000 5.7 200 12:40 01.04.2020
5531 Clouds 34 1006 39 10000 5.7 200 12:21 01.04.2020
5532 Clouds 34 1006 39 10000 5.7 180 11:56 01.04.2020
5533 Clouds 35 1006 41 10000 5.7 190 11:37 01.04.2020
5534 Clouds 36 1006 41 10000 5.7 190 11:18 01.04.2020
5535 Clouds 36 1006 39 10000 5.1 190 10:39 01.04.2020
5536 Clouds 36 1006 42 10000 5.1 200 10:21 01.04.2020
5537 Clouds 36 1007 44 10000 6.2 210 09:59 01.04.2020
5538 Clouds 36 1007 44 10000 6.2 210 09:59 01.04.2020
5539 Clouds 36 1007 44 10000 6.2 210 09:40 01.04.2020
5540 Clouds 36 1007 53 10000 6.2 180 09:20 01.04.2020
5541 Clouds 36 1008 53 10000 5.7 180 08:44 01.04.2020
5542 Clouds 36 1008 53 10000 5.7 180 08:44 01.04.2020
5543 Clouds 35 1009 56 10000 5.7 200 08:20 01.04.2020
5544 Clouds 35 1009 50 10000 4.6 210 07:58 01.04.2020
5545 Clouds 35 1010 56 10000 5.1 200 07:40 01.04.2020
5546 Clouds 35 1010 56 10000 5.1 200 07:19 01.04.2020
5547 Clouds 35 1011 59 10000 4.1 180 06:41 01.04.2020
5548 Clouds 34 1011 59 10000 4.1 180 06:20 01.04.2020
5549 Clouds 33 1011 66 10000 4.6 160 05:24 01.04.2020
5550 Clouds 31 1011 79 10000 2.6 130 03:39 01.04.2020
5551 Clouds 30 1011 88 10000 2.6 80 02:59 01.04.2020
5552 Clouds 29 1010 83 10000 2.1 130 02:31 01.04.2020
5553 Clouds 29 1010 83 10000 2.6 150 01:49 01.04.2020
5554 Clouds 29 1009 83 10000 2.6 170 01:24 01.04.2020
5555 Clouds 29 1009 83 10000 3.1 160 00:47 01.04.2020
5556 Clouds 29 1008 83 10000 3.1 150 00:21 01.04.2020
5557 Clouds 29 1008 83 10000 2.1 150 23:54 31.03.2020
5558 Clouds 29 1008 83 10000 2.1 160 23:36 31.03.2020
5559 Clouds 29 1008 83 10000 2.1 160 23:18 31.03.2020
5560 Clouds 30 1008 83 10000 2.1 180 22:40 31.03.2020
5561 Clouds 30 1008 83 10000 2.1 180 22:40 31.03.2020
5562 Clouds 30 1008 83 10000 3.1 180 22:20 31.03.2020
5563 Clouds 30 1008 83 10000 3.1 180 21:58 31.03.2020
5564 Clouds 30 1008 79 10000 2.6 160 21:39 31.03.2020
5565 Clouds 30 1008 79 10000 2.6 160 21:21 31.03.2020
5566 Clouds 30 1008 79 10000 4.1 190 20:56 31.03.2020
5567 Clouds 30 1008 79 10000 4.1 190 20:37 31.03.2020
5568 Clouds 30 1008 79 10000 4.6 190 20:18 31.03.2020
5569 Clouds 30 1008 79 10000 4.6 190 19:55 31.03.2020
5570 Clouds 30 1008 74 10000 5.1 190 19:37 31.03.2020
5571 Clouds 30 1009 79 10000 5.1 190 19:18 31.03.2020
5572 Clouds 30 1009 79 10000 5.1 190 18:41 31.03.2020
5573 Clouds 30 1009 74 10000 4.6 190 18:20 31.03.2020
5574 Clouds 31 1009 74 10000 4.6 190 17:56 31.03.2020
5575 Clouds 31 1009 74 10000 4.6 190 17:56 31.03.2020
5576 Clouds 31 1009 74 10000 4.6 190 17:56 31.03.2020
5577 Clouds 31 1009 70 10000 5.7 190 17:38 31.03.2020
5578 Clouds 31 1009 70 10000 5.7 190 17:20 31.03.2020
5579 Clouds 31 1008 62 10000 3.6 190 16:42 31.03.2020
5580 Clouds 32 1008 58 10000 4.1 190 16:20 31.03.2020
5581 Clouds 31 1008 55 10000 3.6 200 15:59 31.03.2020
5582 Clouds 31 1008 55 10000 3.6 200 15:41 31.03.2020
5583 Clouds 32 1007 49 10000 4.1 190 15:23 31.03.2020
5584 Clouds 32 1007 49 10000 5.1 190 14:59 31.03.2020
5585 Clouds 32 1007 49 10000 5.1 190 14:40 31.03.2020
5586 Clouds 32 1007 52 10000 4.6 200 14:21 31.03.2020
5587 Clouds 33 1006 46 10000 4.6 200 13:54 31.03.2020
5588 Clouds 33 1006 39 10000 5.1 190 13:36 31.03.2020
5589 Clouds 33 1006 39 10000 5.1 190 13:18 31.03.2020
5590 Clouds 34 1006 36 10000 5.7 210 12:42 31.03.2020
5591 Clouds 35 1006 34 10000 6.2 210 12:20 31.03.2020
5592 Clouds 35 1006 34 10000 5.7 190 11:55 31.03.2020
5593 Clouds 36 1006 37 10000 5.1 190 11:36 31.03.2020
5594 Clouds 36 1006 37 10000 5.1 190 11:18 31.03.2020
5595 Clouds 35 1006 41 10000 5.1 180 10:54 31.03.2020
5596 Clouds 36 1007 42 10000 5.1 200 10:36 31.03.2020
5597 Clouds 36 1007 42 10000 5.1 200 10:18 31.03.2020
5598 Clouds 36 1007 44 10000 4.1 180 09:42 31.03.2020
5599 Clouds 36 1008 50 10000 4.6 200 09:24 31.03.2020
5600 Clouds 36 1009 53 10000 4.1 190 08:57 31.03.2020
5601 Clouds 36 1009 53 10000 4.1 190 08:39 31.03.2020
5602 Clouds 36 1010 50 10000 4.6 210 08:19 31.03.2020
5603 Clouds 35 1010 56 10000 4.1 190 07:56 31.03.2020
5604 Clouds 35 1011 56 10000 4.1 210 07:38 31.03.2020
5605 Clouds 35 1011 56 10000 4.1 210 07:19 31.03.2020
5606 Clouds 35 1011 56 10000 4.6 200 06:46 31.03.2020
5607 Clouds 34 1011 56 10000 4.1 200 06:22 31.03.2020
5608 Clouds 33 1011 66 10000 4.6 190 05:39 31.03.2020
5609 Clouds 31 1011 79 10000 4.1 170 03:34 31.03.2020
5610 Clouds 29 1010 83 10000 2.6 160 02:18 31.03.2020
5611 Clouds 29 1009 83 10000 3.1 160 01:45 31.03.2020
5612 Clouds 29 1009 83 10000 3.1 170 00:49 31.03.2020
5613 Clouds 29 1008 83 10000 3.6 170 00:25 31.03.2020
5614 Clouds 29 1008 83 10000 4.1 160 23:57 30.03.2020
5615 Clouds 29 1008 83 10000 2.6 170 23:37 30.03.2020
5616 Clouds 29 1008 83 10000 2.6 170 23:18 30.03.2020
5617 Clouds 29 1008 83 10000 3.1 170 22:55 30.03.2020
5618 Clouds 29 1008 83 10000 3.6 180 22:36 30.03.2020
5619 Clouds 30 1008 83 10000 3.6 180 22:18 30.03.2020
5620 Clouds 30 1008 83 10000 4.1 180 21:54 30.03.2020
5621 Clouds 30 1008 83 10000 3.1 170 21:36 30.03.2020
5622 Clouds 30 1008 83 10000 3.1 170 21:36 30.03.2020
5623 Clouds 30 1008 83 10000 3.1 170 21:18 30.03.2020
5624 Clouds 30 1009 79 10000 3.6 190 20:40 30.03.2020
5625 Clouds 30 1009 79 10000 4.1 200 20:22 30.03.2020
5626 Clouds 30 1009 79 10000 4.6 190 19:59 30.03.2020
5627 Clouds 30 1010 79 10000 4.1 190 19:39 30.03.2020
5628 Clouds 30 1010 79 10000 4.1 190 19:21 30.03.2020
5629 Clouds 30 1010 74 10000 4.6 190 18:56 30.03.2020
5630 Clouds 30 1010 74 10000 4.1 190 18:37 30.03.2020
5631 Clouds 30 1010 74 10000 4.1 190 18:19 30.03.2020
5632 Clouds 30 1009 74 10000 4.6 190 17:55 30.03.2020
5633 Clouds 30 1009 74 10000 5.7 190 17:36 30.03.2020
5634 Clouds 31 1009 74 10000 5.7 190 17:18 30.03.2020
5635 Clouds 31 1009 70 10000 5.1 190 16:41 30.03.2020
5636 Clouds 31 1008 74 10000 5.1 190 16:22 30.03.2020
5637 Clouds 31 1008 70 10000 5.1 190 15:57 30.03.2020
5638 Clouds 31 1008 70 10000 5.1 190 15:39 30.03.2020
5639 Clouds 31 1008 66 10000 5.7 200 15:21 30.03.2020
5640 Clouds 31 1008 62 10000 5.7 190 14:58 30.03.2020
5641 Clouds 31 1007 58 10000 5.7 200 14:38 30.03.2020
5642 Clouds 31 1007 58 10000 5.7 200 14:19 30.03.2020
5643 Clouds 32 1007 59 10000 4.6 190 13:58 30.03.2020
5644 Clouds 32 1007 59 10000 4.6 190 13:39 30.03.2020
5645 Clouds 33 1006 52 10000 5.1 170 13:20 30.03.2020
5646 Clouds 34 1006 49 10000 5.1 180 12:45 30.03.2020
5647 Clouds 34 1006 50 10000 5.1 170 12:22 30.03.2020
5648 Clouds 34 1006 50 10000 5.1 180 11:59 30.03.2020
5649 Clouds 34 1006 50 10000 5.1 180 11:59 30.03.2020
5650 Clouds 34 1006 50 10000 5.1 180 11:41 30.03.2020
5651 Clouds 35 1007 44 10000 5.7 200 11:22 30.03.2020
5652 Clouds 35 1007 47 10000 5.1 200 10:55 30.03.2020
5653 Clouds 35 1007 47 10000 5.7 210 10:37 30.03.2020
5654 Clouds 36 1007 47 10000 5.7 210 10:18 30.03.2020
5655 Clouds 35 1008 50 10000 4.6 190 09:40 30.03.2020
5656 Clouds 35 1008 53 10000 5.1 180 09:19 30.03.2020
5657 Clouds 35 1008 53 10000 5.1 180 09:19 30.03.2020
5658 Clouds 35 1009 53 10000 4.6 170 08:56 30.03.2020
5659 Clouds 35 1009 50 10000 5.1 200 08:36 30.03.2020
5660 Clouds 35 1009 50 10000 5.1 200 08:18 30.03.2020
5661 Clouds 35 1010 56 10000 5.1 190 07:42 30.03.2020
5662 Clouds 34 1010 56 10000 5.1 190 07:20 30.03.2020
5663 Clouds 34 1011 59 10000 4.1 200 06:42 30.03.2020
5664 Clouds 33 1011 59 10000 4.1 200 06:23 30.03.2020
5665 Clouds 33 1011 59 10000 4.1 190 05:39 30.03.2020
5666 Clouds 32 1011 70 10000 4.1 180 04:29 30.03.2020
5667 Clouds 31 1011 74 10000 4.1 200 03:53 30.03.2020
5668 Clouds 30 1010 79 10000 2.1 160 02:44 30.03.2020
5669 Clouds 29 1009 83 10000 2.1 160 01:54 30.03.2020
5670 Clouds 29 1008 83 10000 1.5 160 00:57 30.03.2020
5671 Clouds 29 1008 79 10000 2.6 170 00:26 30.03.2020
5672 Clouds 29 1008 79 10000 3.1 180 23:55 29.03.2020
5673 Clouds 29 1007 79 10000 3.1 180 23:36 29.03.2020
5674 Clouds 29 1007 79 10000 3.1 180 23:18 29.03.2020
5675 Clouds 29 1007 83 10000 2.6 190 22:39 29.03.2020
5676 Clouds 29 1007 83 10000 1 180 22:20 29.03.2020
5677 Clouds 29 1007 83 10000 2.1 160 21:59 29.03.2020
5678 Clouds 29 1007 79 10000 2.1 180 21:37 29.03.2020
5679 Clouds 29 1007 79 10000 2.1 180 21:19 29.03.2020
5680 Clouds 29 1007 79 10000 2.1 170 20:55 29.03.2020
5681 Clouds 29 1008 79 10000 4.1 190 20:37 29.03.2020
5682 Clouds 29 1008 79 10000 4.1 190 20:18 29.03.2020
5683 Clouds 29 1008 79 10000 4.1 190 19:55 29.03.2020
5684 Clouds 29 1008 79 10000 4.1 190 19:55 29.03.2020
5685 Clouds 30 1008 79 10000 4.1 190 19:37 29.03.2020
5686 Clouds 30 1008 79 10000 3.1 200 19:18 29.03.2020
5687 Clouds 30 1008 79 10000 3.1 200 18:54 29.03.2020
5688 Clouds 30 1008 79 10000 5.1 200 18:36 29.03.2020
5689 Clouds 30 1008 74 10000 4.1 190 18:18 29.03.2020
5690 Clouds 30 1008 74 10000 4.1 190 18:18 29.03.2020
5691 Clouds 30 1008 70 10000 3.1 170 17:42 29.03.2020
5692 Clouds 30 1008 70 10000 3.1 170 17:22 29.03.2020
5693 Clouds 31 1007 66 10000 4.1 200 16:59 29.03.2020
5694 Clouds 31 1007 66 10000 4.1 200 16:40 29.03.2020
5695 Clouds 31 1007 66 10000 4.1 200 16:21 29.03.2020
5696 Clouds 31 1007 66 10000 3.6 190 15:58 29.03.2020
5697 Clouds 31 1007 62 10000 4.6 200 15:39 29.03.2020
5698 Clouds 32 1007 62 10000 4.6 200 15:19 29.03.2020
5699 Clouds 32 1007 62 10000 4.6 190 14:56 29.03.2020
5700 Clouds 32 1006 55 10000 4.1 180 14:37 29.03.2020
5701 Clouds 33 1006 55 10000 4.1 180 14:18 29.03.2020
5702 Clouds 33 1006 52 10000 3.6 180 13:55 29.03.2020
5703 Clouds 33 1006 46 10000 4.1 180 13:36 29.03.2020
5704 Clouds 33 1006 46 10000 4.6 200 13:18 29.03.2020
5705 Clouds 34 1006 47 10000 5.1 200 12:54 29.03.2020
5706 Clouds 34 1006 47 10000 5.1 200 12:36 29.03.2020
5707 Clouds 34 1006 47 10000 5.1 180 12:18 29.03.2020
5708 Clouds 34 1006 44 10000 4.6 190 11:38 29.03.2020
5709 Clouds 35 1006 44 10000 4.6 190 11:19 29.03.2020
5710 Clouds 35 1007 50 10000 4.1 180 10:39 29.03.2020
5711 Clouds 35 1007 50 10000 4.1 180 10:39 29.03.2020
5712 Clouds 36 1007 50 10000 4.1 180 10:21 29.03.2020
5713 Clouds 35 1007 50 10000 5.1 200 09:56 29.03.2020
5714 Clouds 36 1007 50 10000 4.1 210 09:38 29.03.2020
5715 Clouds 36 1007 50 10000 4.1 210 09:18 29.03.2020
5716 Clouds 35 1008 53 10000 4.6 180 08:43 29.03.2020
5717 Clouds 35 1009 50 10000 4.6 200 08:25 29.03.2020
5718 Clouds 35 1009 50 10000 4.1 220 07:47 29.03.2020
5719 Clouds 35 1009 50 10000 4.1 220 07:23 29.03.2020
5720 Clouds 35 1010 56 10000 4.6 200 06:34 29.03.2020
5721 Clouds 33 1011 66 10000 3.6 200 04:56 29.03.2020
5722 Clouds 31 1010 79 10000 3.1 150 03:41 29.03.2020
5723 Clouds 30 1010 83 10000 2.6 130 03:20 29.03.2020
5724 Clouds 30 1009 83 10000 2.6 120 01:40 29.03.2020
5725 Clouds 29 1009 88 10000 2.6 110 01:21 29.03.2020
5726 Clouds 28 1008 88 10000 2.1 120 00:40 29.03.2020
5727 Clouds 28 1008 88 10000 2.1 110 00:19 29.03.2020
5728 Clouds 29 1007 83 10000 1.5 140 23:41 28.03.2020
5729 Clouds 29 1007 83 10000 1.5 140 23:22 28.03.2020
5730 Clouds 28 1007 83 10000 2.6 160 22:44 28.03.2020
5731 Clouds 28 1007 83 10000 2.1 160 22:22 28.03.2020
5732 Clouds 29 1007 83 10000 2.1 160 21:57 28.03.2020
5733 Clouds 29 1007 83 10000 2.1 160 21:39 28.03.2020
5734 Clouds 28 1007 83 10000 1.5 160 21:19 28.03.2020
5735 Clouds 29 1007 83 10000 3.1 170 20:56 28.03.2020
5736 Clouds 29 1007 83 10000 2.1 160 20:37 28.03.2020
5737 Clouds 29 1007 83 10000 2.1 160 20:19 28.03.2020
5738 Clouds 29 1008 79 10000 3.1 170 19:55 28.03.2020
5739 Clouds 29 1008 78 10000 1.5 150 19:36 28.03.2020
5740 Clouds 29 1008 78 10000 1.5 150 19:18 28.03.2020
5741 Clouds 29 1008 78 10000 2.6 210 18:39 28.03.2020
5742 Clouds 29 1008 78 10000 2.6 210 18:20 28.03.2020
5743 Clouds 30 1008 79 10000 3.1 210 17:42 28.03.2020
5744 Clouds 30 1008 79 10000 3.1 210 17:22 28.03.2020
5745 Clouds 30 1008 83 10000 4.6 200 16:59 28.03.2020
5746 Clouds 30 1008 83 10000 4.1 190 16:38 28.03.2020
5747 Clouds 30 1008 83 10000 4.1 190 16:18 28.03.2020
5748 Clouds 30 1008 83 10000 4.1 190 15:40 28.03.2020
5749 Clouds 30 1008 74 10000 4.6 180 15:20 28.03.2020
5750 Clouds 31 1007 74 10000 4.6 190 14:58 28.03.2020
5751 Clouds 31 1007 74 10000 4.6 190 14:40 28.03.2020
5752 Clouds 31 1007 62 10000 5.1 190 14:21 28.03.2020
5753 Clouds 32 1006 62 10000 4.6 200 13:43 28.03.2020
5754 Clouds 32 1006 62 10000 4.6 200 13:23 28.03.2020
5755 Clouds 32 1006 59 10000 4.6 200 12:41 28.03.2020
5756 Clouds 33 1006 59 10000 4.6 200 12:22 28.03.2020
5757 Clouds 34 1006 56 10000 4.1 180 11:44 28.03.2020
5758 Clouds 33 1006 56 10000 4.1 180 11:25 28.03.2020
5759 Clouds 34 1006 56 10000 4.6 190 10:58 28.03.2020
5760 Clouds 35 1006 53 10000 5.7 210 10:38 28.03.2020
5761 Clouds 35 1006 53 10000 5.7 210 10:19 28.03.2020
5762 Clouds 35 1006 50 10000 5.1 200 09:43 28.03.2020
5763 Clouds 35 1006 50 10000 4.1 180 09:24 28.03.2020
5764 Clouds 35 1007 47 10000 3.6 190 08:57 28.03.2020
5765 Clouds 35 1007 37 10000 5.7 240 08:39 28.03.2020
5766 Clouds 35 1007 37 10000 5.7 240 08:39 28.03.2020
5767 Clouds 35 1007 37 10000 5.7 240 08:20 28.03.2020
5768 Clouds 34 1008 44 10000 3.1 250 07:44 28.03.2020
5769 Clouds 34 1009 44 10000 4.6 210 06:59 28.03.2020
5770 Clouds 35 1010 47 10000 4.1 210 06:35 28.03.2020
5771 Clouds 34 1011 56 10000 3.1 180 05:43 28.03.2020
5772 Clouds 34 1011 56 10000 3.1 180 05:21 28.03.2020
5773 Clouds 33 1011 63 10000 3.6 210 04:41 28.03.2020
5774 Clouds 32 1011 66 10000 4.1 200 03:42 28.03.2020
5775 Clouds 30 1010 83 10000 2.6 160 01:57 28.03.2020
5776 Clouds 30 1010 83 10000 2.1 170 01:26 28.03.2020
5777 Clouds 29 1010 83 10000 2.1 170 00:57 28.03.2020
5778 Clouds 29 1009 83 10000 2.1 160 00:36 28.03.2020
5779 Clouds 29 1009 83 10000 1.5 170 23:55 27.03.2020
5780 Clouds 29 1009 83 10000 2.1 180 23:37 27.03.2020
5781 Clouds 29 1009 83 10000 2.1 180 23:37 27.03.2020
5782 Clouds 29 1009 83 10000 2.1 170 23:18 27.03.2020
5783 Clouds 29 1009 83 10000 2.1 170 22:55 27.03.2020
5784 Clouds 29 1008 83 10000 2.6 160 22:37 27.03.2020
5785 Clouds 29 1008 83 10000 2.6 160 22:18 27.03.2020
5786 Clouds 29 1008 83 10000 2.6 160 22:18 27.03.2020
5787 Clouds 29 1008 83 10000 1.5 190 21:42 27.03.2020
5788 Clear 29 1008 79 10000 2.1 180 21:24 27.03.2020
5789 Clear 29 1009 79 10000 4.1 190 20:58 27.03.2020
5790 Clear 29 1009 79 10000 4.1 190 20:58 27.03.2020
5791 Clear 29 1009 79 10000 4.6 190 20:39 27.03.2020
5792 Clear 30 1009 79 10000 4.6 190 20:20 27.03.2020
5793 Clear 30 1009 79 10000 3.6 180 19:56 27.03.2020
5794 Clear 30 1009 79 10000 4.1 190 19:38 27.03.2020
5795 Clear 30 1009 79 10000 4.1 190 19:19 27.03.2020
5796 Clear 30 1010 79 10000 5.1 190 18:43 27.03.2020
5797 Clear 30 1010 79 10000 5.1 190 18:23 27.03.2020
5798 Clear 30 1010 79 10000 4.1 200 17:55 27.03.2020
5799 Clear 30 1010 79 10000 5.7 200 17:37 27.03.2020
5800 Clear 30 1010 79 10000 5.7 200 17:19 27.03.2020
5801 Clear 30 1009 70 10000 6.2 190 16:44 27.03.2020
5802 Clear 30 1009 70 10000 6.2 190 16:25 27.03.2020
5803 Clear 30 1009 70 10000 6.2 190 16:25 27.03.2020
5804 Clear 31 1009 74 10000 5.7 190 15:45 27.03.2020
5805 Clear 31 1010 60 0 7.97 188 15:26 27.03.2020
5806 Clear 31 1008 69 0 0.45 307 14:56 27.03.2020
5807 Clear 32 1008 70 0 7.97 188 14:37 27.03.2020
5808 Clouds 33 1007 68 0 0.45 238 14:18 27.03.2020
5809 Clouds 33 1009 57 0 7.04 175 13:43 27.03.2020
5810 Clouds 34 1009 57 0 6.5 174 13:22 27.03.2020
5811 Clouds 34 1008 54 0 6.5 174 12:59 27.03.2020
5812 Clouds 34 1008 54 0 6.5 174 12:39 27.03.2020
5813 Clouds 34 1007 45 0 6.5 174 12:19 27.03.2020
5814 Clouds 34 1008 45 0 6.5 174 11:42 27.03.2020
5815 Clouds 34 1008 44 0 6.5 174 11:24 27.03.2020
5816 Clouds 34 1006 43 0 6.02 172 10:56 27.03.2020
5817 Clouds 34 1006 63 0 0.45 159 10:38 27.03.2020
5818 Clouds 35 1006 77 0 0.45 183 10:20 27.03.2020
5819 Clouds 35 1007 41 0 6.02 172 09:58 27.03.2020
5820 Clouds 35 1006 74 0 0.89 290 09:38 27.03.2020
5821 Clouds 35 1007 48 0 6.02 172 09:20 27.03.2020
5822 Clouds 35 1008 49 0 6.02 172 08:57 27.03.2020
5823 Clouds 36 1007 71 0 0.45 267 08:38 27.03.2020
5824 Clouds 35 1008 51 0 6.02 172 08:20 27.03.2020
5825 Clouds 35 1008 45 0 0.89 239 07:52 27.03.2020
5826 Clouds 34 1009 52 0 4.48 178 07:26 27.03.2020
5827 Clouds 34 1011 56 0 4.48 178 06:55 27.03.2020
5828 Clouds 35 1010 48 0 4.48 178 06:37 27.03.2020
5829 Clouds 33 1011 53 0 4.48 178 05:28 27.03.2020
5830 Clouds 31 1011 99 0 0.45 136 02:47 27.03.2020
5831 Clouds 29 1009 76 0 5.31 185 01:23 27.03.2020
5832 Clouds 29 1009 76 0 5.27 184 00:53 27.03.2020
5833 Clouds 28 1009 77 0 5.27 184 00:32 27.03.2020
5834 Clouds 28 1009 76 0 5.27 184 23:44 26.03.2020
5835 Clouds 28 1008 76 0 5.27 184 23:23 26.03.2020
5836 Clouds 28 1008 76 0 0.45 107 22:59 26.03.2020
5837 Clouds 28 1008 76 0 5.01 182 22:39 26.03.2020
5838 Clouds 28 1008 75 0 5.01 182 22:20 26.03.2020
5839 Clouds 28 1008 75 0 5.01 182 22:20 26.03.2020
5840 Clouds 29 1008 75 0 0.45 194 21:57 26.03.2020
5841 Clouds 29 1008 75 0 5.01 182 21:38 26.03.2020
5842 Clouds 29 1008 74 0 5.01 182 21:20 26.03.2020
5843 Clouds 29 1008 74 0 5.01 182 20:57 26.03.2020
5844 Clouds 29 1008 74 0 5.01 182 20:38 26.03.2020
5845 Clouds 29 1009 74 0 6.2 192 20:20 26.03.2020
5846 Clouds 29 1009 74 0 0.45 125 19:54 26.03.2020
5847 Clouds 29 1009 74 0 0.45 106 19:36 26.03.2020
5848 Clouds 29 1009 73 0 0.89 116 19:18 26.03.2020
5849 Clouds 31 1011 63 0 6.42 196 18:41 26.03.2020
5850 Clouds 31 1010 73 0 0.45 102 18:23 26.03.2020
5851 Clouds 31 1011 62 0 6.42 196 17:56 26.03.2020
5852 Clouds 31 1012 61 0 6.42 196 17:37 26.03.2020
5853 Clouds 31 1012 62 0 7.55 184 17:18 26.03.2020
5854 Clouds 31 1010 71 0 0.45 118 16:40 26.03.2020
5855 Clouds 30 1010 71 0 0.89 276 16:21 26.03.2020
5856 Clouds 30 1009 70 0 0.45 67 15:57 26.03.2020
5857 Clouds 30 1009 70 0 0.45 67 15:57 26.03.2020
5858 Clouds 30 1009 70 0 0.45 235 15:39 26.03.2020
5859 Clouds 31 1011 62 0 7.55 184 15:20 26.03.2020
5860 Clouds 31 1009 70 0 0.45 242 14:55 26.03.2020
5861 Clouds 31 1008 69 0 0.45 308 14:36 26.03.2020
5862 Clouds 32 1010 61 0 6.27 159 14:18 26.03.2020
5863 Clouds 32 1008 66 0 0.45 257 13:40 26.03.2020
5864 Clouds 32 1008 66 0 0.45 295 13:22 26.03.2020
5865 Clouds 33 1007 64 0 0.45 231 12:54 26.03.2020
5866 Clouds 33 1009 56 0 6.68 159 12:36 26.03.2020
5867 Clouds 33 1009 56 0 6.68 159 12:18 26.03.2020
5868 Clouds 34 1007 48 0 6.68 159 11:43 26.03.2020
5869 Clouds 34 1008 53 0 6.12 174 11:19 26.03.2020
5870 Clouds 34 1007 48 0 6.12 174 10:42 26.03.2020
5871 Clouds 34 1006 55 0 0.45 174 10:42 26.03.2020
5872 Clouds 34 1008 52 0 6.12 174 10:20 26.03.2020
5873 Clouds 34 1008 52 0 6.12 174 10:20 26.03.2020
5874 Clouds 34 1008 50 0 6.12 174 09:55 26.03.2020
5875 Clouds 34 1007 49 0 6.12 174 09:55 26.03.2020
5876 Clouds 34 1007 52 0 1.34 225 09:37 26.03.2020
5877 Clouds 35 1008 48 0 6.12 174 09:19 26.03.2020
5878 Clouds 35 1007 51 0 0.89 192 08:42 26.03.2020
5879 Clouds 35 1008 51 0 0.89 267 08:24 26.03.2020
5880 Clouds 34 1008 50 0 0.45 147 07:57 26.03.2020
5881 Clouds 35 1009 46 0 5 183 07:38 26.03.2020
5882 Clouds 35 1009 46 0 5 183 07:38 26.03.2020
5883 Clouds 34 1009 47 0 5 183 07:19 26.03.2020
5884 Clouds 35 1010 45 0 5 183 06:33 26.03.2020
5885 Clouds 33 1011 44 0 5 183 05:47 26.03.2020
5886 Clouds 32 1011 56 0 4.56 197 03:46 26.03.2020
5887 Clouds 31 1011 58 0 0.45 286 02:58 26.03.2020
5888 Clouds 30 1010 65 0 4.41 189 01:51 26.03.2020
5889 Clouds 30 1011 65 0 4.41 189 01:18 26.03.2020
5890 Clouds 29 1010 64 0 4.33 190 00:30 26.03.2020
5891 Clouds 29 1010 63 0 4.33 190 23:42 25.03.2020
5892 Clouds 29 1008 73 0 4.33 190 23:24 25.03.2020
5893 Clouds 29 1009 63 0 5.38 186 22:42 25.03.2020
5894 Clouds 29 1008 73 0 5.38 186 22:22 25.03.2020
5895 Clouds 29 1009 62 0 5.38 186 21:59 25.03.2020
5896 Clouds 29 1009 62 0 5.38 186 21:40 25.03.2020
5897 Clouds 29 1009 62 0 5.38 186 21:22 25.03.2020
5898 Clouds 29 1009 60 0 5.38 186 20:57 25.03.2020
5899 Clouds 29 1009 61 0 5.38 186 20:37 25.03.2020
5900 Clear 30 1008 71 0 6.48 185 20:18 25.03.2020
5901 Clear 30 1008 70 0 6.23 187 19:43 25.03.2020
5902 Clear 30 1009 60 0 6.23 187 19:24 25.03.2020
5903 Clear 30 1010 61 0 6.54 192 18:59 25.03.2020
5904 Clear 30 1010 61 0 6.23 187 18:41 25.03.2020
5905 Clear 30 1008 70 0 0.45 215 18:22 25.03.2020
5906 Clear 30 1008 71 0 0.89 344 17:57 25.03.2020
5907 Clear 30 1010 60 0 6.23 187 17:39 25.03.2020
5908 Clear 30 1008 70 0 0.89 295 17:21 25.03.2020
5909 Clear 30 1009 70 0 0.89 325 16:55 25.03.2020
5910 Clear 30 1010 60 0 6.6 181 16:36 25.03.2020
5911 Clear 31 1010 60 0 6.6 181 16:18 25.03.2020
5912 Clouds 31 1008 70 0 6.72 181 15:41 25.03.2020
5913 Clouds 31 1009 61 0 6.72 181 15:20 25.03.2020
5914 Clear 31 1008 70 0 6.6 181 14:55 25.03.2020
5915 Clouds 31 1007 69 0 0.45 32 14:37 25.03.2020
5916 Clouds 31 1009 62 0 6.61 166 14:18 25.03.2020
5917 Clouds 32 1007 69 0 6.61 166 13:42 25.03.2020
5918 Clouds 32 1008 60 0 6.61 166 13:22 25.03.2020
5919 Clouds 32 1008 58 0 6.67 167 12:38 25.03.2020
5920 Clouds 32 1006 56 0 6.67 167 12:19 25.03.2020
5921 Clouds 32 1008 56 0 6.67 167 11:56 25.03.2020
5922 Clouds 32 1008 56 0 6.67 167 11:37 25.03.2020
5923 Clouds 33 1006 55 0 6.64 179 11:19 25.03.2020
5924 Clouds 33 1006 52 0 6.64 179 10:56 25.03.2020
5925 Clouds 33 1007 54 0 6.64 179 10:38 25.03.2020
5926 Clouds 33 1007 54 0 6.64 179 10:18 25.03.2020
5927 Clouds 33 1006 54 0 0.45 279 09:42 25.03.2020
5928 Clouds 33 1005 53 0 1.34 259 09:24 25.03.2020
5929 Clouds 33 1006 55 0 1.34 284 08:56 25.03.2020
5930 Clouds 34 1008 54 0 6.64 179 08:38 25.03.2020
5931 Clouds 33 1008 54 0 6.62 181 08:19 25.03.2020
5932 Clouds 34 1008 41 0 6.62 181 07:41 25.03.2020
5933 Clouds 34 1008 45 0 6.62 181 07:22 25.03.2020
5934 Clouds 33 1009 53 0 6.62 181 06:48 25.03.2020
5935 Clouds 33 1009 53 0 6.62 181 06:28 25.03.2020
5936 Clouds 33 1011 59 0 6.62 181 05:56 25.03.2020
5937 Clouds 33 1011 60 0 6.62 181 05:30 25.03.2020
5938 Clear 32 1010 55 0 5.55 186 04:39 25.03.2020
5939 Clear 32 1010 56 0 5.55 186 03:36 25.03.2020
5940 Clear 30 1009 64 0 5.55 186 02:31 25.03.2020
5941 Clear 30 1010 65 0 4.69 189 01:21 25.03.2020
5942 Clear 29 1010 65 0 4.69 189 00:48 25.03.2020
5943 Clear 29 1007 73 0 0.45 338 00:23 25.03.2020
5944 Clear 29 1007 73 0 4.69 189 23:45 24.03.2020
5945 Clear 29 1007 73 0 4.69 189 23:26 24.03.2020
5946 Clear 29 1008 65 0 4.26 204 22:56 24.03.2020
5947 Clear 29 1008 65 0 4.26 204 22:37 24.03.2020
5948 Clear 29 1008 65 0 4.26 204 22:19 24.03.2020
5949 Clear 29 1008 65 0 4.26 204 22:19 24.03.2020
5950 Clear 29 1006 73 0 0.45 133 21:56 24.03.2020
5951 Clear 29 1008 65 0 4.26 204 21:37 24.03.2020
5952 Clear 29 1008 65 0 4.26 204 21:18 24.03.2020
5953 Clear 30 1008 64 0 4.26 204 20:43 24.03.2020
5954 Clear 30 1006 72 0 4.26 204 20:24 24.03.2020
5955 Clear 30 1008 63 0 6.66 185 19:59 24.03.2020
5956 Clear 30 1008 63 0 6.66 185 19:41 24.03.2020
5957 Clear 30 1008 62 0 6.66 185 19:19 24.03.2020
5958 Clear 30 1008 62 0 6.66 185 18:55 24.03.2020
5959 Clear 30 1007 71 0 0.45 118 18:36 24.03.2020
5960 Clear 30 1007 71 0 0.45 118 18:36 24.03.2020
5961 Clear 30 1009 61 0 6.66 185 18:18 24.03.2020
5962 Clear 30 1007 69 0 0.89 128 17:42 24.03.2020
5963 Clear 30 1009 61 0 6.66 185 17:22 24.03.2020
5964 Clouds 30 1009 74 10000 5.1 190 16:58 24.03.2020
5965 Clouds 30 1008 74 10000 5.7 190 16:39 24.03.2020
5966 Clouds 30 1008 74 10000 5.7 190 16:21 24.03.2020
5967 Clouds 30 1008 74 10000 5.7 200 15:57 24.03.2020
5968 Clouds 30 1008 70 10000 4.6 190 15:37 24.03.2020
5969 Clouds 30 1008 70 10000 4.6 190 15:19 24.03.2020
5970 Clouds 30 1007 66 10000 5.7 180 14:42 24.03.2020
5971 Clear 32 1008 58 0 7.12 172 14:19 24.03.2020
5972 Clear 32 1006 62 0 7.12 172 13:42 24.03.2020
5973 Clouds 32 1007 57 0 7.11 170 13:24 24.03.2020
5974 Clouds 33 1007 56 0 7.11 170 12:54 24.03.2020
5975 Clouds 33 1005 60 0 0.45 263 12:36 24.03.2020
5976 Clouds 33 1006 53 0 7.11 170 12:18 24.03.2020
5977 Clouds 33 1006 53 0 7.11 170 12:18 24.03.2020
5978 Clouds 33 1005 58 0 0.45 0 11:39 24.03.2020
5979 Clouds 33 1006 46 10000 6.2 190 11:19 24.03.2020
5980 Clouds 34 1006 47 10000 5.7 200 10:43 24.03.2020
5981 Clouds 34 1006 47 10000 5.7 200 10:43 24.03.2020
5982 Clouds 34 1006 47 10000 5.7 200 10:20 24.03.2020
5983 Clouds 34 1006 44 10000 5.1 200 09:58 24.03.2020
5984 Clouds 35 1007 44 10000 5.1 170 09:39 24.03.2020
5985 Clouds 35 1007 44 10000 5.1 170 09:21 24.03.2020
5986 Clouds 35 1008 41 10000 5.1 200 08:38 24.03.2020
5987 Clear 35 1008 41 10000 5.1 200 08:20 24.03.2020
5988 Clear 35 1008 44 10000 5.7 190 07:48 24.03.2020
5989 Clear 35 1009 41 10000 4.1 200 07:24 24.03.2020
5990 Clear 34 1010 41 10000 4.6 190 06:53 24.03.2020
5991 Clear 34 1010 41 10000 5.1 210 06:27 24.03.2020
5992 Clouds 33 1011 49 10000 4.1 190 04:57 24.03.2020
5993 Clouds 32 1012 62 10000 4.1 180 03:48 24.03.2020
5994 Clouds 31 1012 70 10000 2.6 140 03:18 24.03.2020
5995 Clouds 29 1011 88 10000 2.6 110 01:45 24.03.2020
5996 Clouds 28 1010 94 10000 2.6 110 00:46 24.03.2020
5997 Clouds 28 1010 88 10000 2.1 120 00:24 24.03.2020
5998 Clouds 28 1009 83 10000 1.5 140 23:44 23.03.2020
5999 Clouds 28 1009 83 10000 1.5 140 23:26 23.03.2020
6000 Clouds 28 1009 83 10000 2.1 160 22:55 23.03.2020
6001 Clouds 28 1009 83 10000 2.1 160 22:55 23.03.2020
6002 Clouds 28 1009 83 10000 2.1 170 22:37 23.03.2020
6003 Clouds 28 1009 83 10000 2.1 170 22:19 23.03.2020
6004 Clouds 28 1009 83 10000 2.6 170 21:43 23.03.2020
6005 Clouds 28 1009 83 10000 3.1 170 21:20 23.03.2020
6006 Clouds 28 1009 83 10000 2.1 180 20:57 23.03.2020
6007 Clouds 28 1009 83 10000 3.1 190 20:39 23.03.2020
6008 Clouds 29 1009 83 10000 3.1 190 20:19 23.03.2020
6009 Clouds 29 1010 79 10000 4.1 190 19:45 23.03.2020
6010 Clouds 29 1010 79 10000 4.1 190 19:45 23.03.2020
6011 Clouds 29 1010 79 10000 3.1 190 19:27 23.03.2020
6012 Clouds 29 1010 79 10000 4.1 190 18:59 23.03.2020
6013 Clouds 29 1010 79 10000 3.6 180 18:40 23.03.2020
6014 Clouds 29 1010 79 10000 3.6 190 18:21 23.03.2020
6015 Clouds 29 1010 79 10000 3.6 190 17:43 23.03.2020
6016 Clouds 29 1010 79 10000 4.6 190 17:21 23.03.2020
6017 Clouds 29 1010 79 10000 4.6 190 16:59 23.03.2020
6018 Clouds 30 1010 79 10000 4.6 190 16:39 23.03.2020
6019 Clouds 30 1010 79 10000 4.6 190 16:20 23.03.2020
6020 Clouds 30 1010 79 10000 5.7 200 15:42 23.03.2020
6021 Clouds 30 1010 79 10000 5.7 200 15:42 23.03.2020
6022 Clouds 30 1009 79 10000 4.6 200 15:20 23.03.2020
6023 Clouds 30 1009 70 10000 5.7 200 14:55 23.03.2020
6024 Clouds 30 1008 66 10000 4.1 200 14:36 23.03.2020
6025 Clouds 30 1008 66 10000 4.1 200 14:18 23.03.2020
6026 Clouds 31 1007 55 10000 4.6 180 13:40 23.03.2020
6027 Clouds 32 1007 55 10000 4.6 180 13:21 23.03.2020
6028 Clouds 32 1007 52 10000 5.1 180 12:45 23.03.2020
6029 Clouds 32 1007 52 10000 5.1 180 12:45 23.03.2020
6030 Clouds 32 1007 49 10000 4.1 180 12:26 23.03.2020
6031 Clouds 32 1007 46 10000 5.1 180 11:59 23.03.2020
6032 Clouds 32 1007 46 10000 5.1 180 11:59 23.03.2020
6033 Clouds 33 1007 41 10000 5.1 180 11:40 23.03.2020
6034 Clouds 34 1007 41 10000 4.6 200 11:20 23.03.2020
6035 Clouds 34 1007 41 10000 4.6 200 11:20 23.03.2020
6036 Clouds 34 1007 41 10000 4.6 200 10:58 23.03.2020
6037 Clouds 34 1007 39 10000 4.6 180 10:38 23.03.2020
6038 Clouds 34 1007 39 10000 4.6 180 10:38 23.03.2020
6039 Clouds 35 1007 39 10000 4.6 180 10:20 23.03.2020
6040 Clouds 35 1007 39 10000 5.1 200 09:44 23.03.2020
6041 Clouds 36 1008 39 10000 7.7 210 09:21 23.03.2020
6042 Clouds 36 1008 39 10000 5.7 210 08:57 23.03.2020
6043 Clouds 36 1009 41 10000 5.7 200 08:36 23.03.2020
6044 Clouds 36 1009 41 10000 5.7 200 08:18 23.03.2020
6045 Clouds 36 1010 42 10000 5.1 200 07:45 23.03.2020
6046 Clouds 35 1010 37 10000 5.1 210 07:27 23.03.2020
6047 Clouds 35 1010 39 10000 5.7 210 06:51 23.03.2020
6048 Clouds 34 1012 52 10000 4.6 190 05:54 23.03.2020
6049 Clouds 34 1012 52 10000 4.6 190 05:29 23.03.2020
6050 Clouds 31 1012 66 10000 4.1 180 03:29 23.03.2020
6051 Clouds 29 1011 79 10000 2.6 160 01:51 23.03.2020
6052 Clouds 29 1011 83 10000 2.1 150 01:33 23.03.2020
6053 Clouds 28 1010 83 10000 2.6 160 00:39 23.03.2020
6054 Clouds 28 1010 83 10000 2.6 160 23:48 22.03.2020
6055 Clouds 28 1010 83 10000 2.6 160 23:26 22.03.2020
6056 Clouds 28 1009 83 10000 2.6 170 22:45 22.03.2020
6057 Clouds 28 1009 83 10000 2.6 170 22:26 22.03.2020
6058 Clouds 29 1009 83 10000 3.1 190 21:56 22.03.2020
6059 Clouds 29 1009 83 10000 2.6 180 21:37 22.03.2020
6060 Clouds 29 1009 83 10000 2.6 180 21:19 22.03.2020
6061 Clouds 29 1010 83 10000 3.1 200 20:46 22.03.2020
6062 Clouds 29 1010 83 10000 3.6 200 20:25 22.03.2020
6063 Clouds 29 1010 83 10000 4.1 210 19:58 22.03.2020
6064 Clouds 29 1010 83 10000 4.1 210 19:40 22.03.2020
6065 Clouds 29 1010 83 10000 4.6 210 19:20 22.03.2020
6066 Clouds 29 1010 83 10000 3.6 200 18:59 22.03.2020
6067 Clouds 29 1010 79 10000 5.1 210 18:41 22.03.2020
6068 Clouds 29 1010 79 10000 5.1 210 18:22 22.03.2020
6069 Clouds 29 1011 79 10000 5.7 210 17:59 22.03.2020
6070 Clouds 30 1010 79 10000 4.6 200 17:39 22.03.2020
6071 Clouds 29 1010 79 10000 4.6 200 17:21 22.03.2020
6072 Clouds 30 1010 79 10000 4.1 190 16:58 22.03.2020
6073 Clouds 30 1010 79 10000 4.1 200 16:40 22.03.2020
6074 Clouds 30 1010 79 10000 4.1 200 16:21 22.03.2020
6075 Clouds 30 1010 79 10000 4.1 180 15:56 22.03.2020
6076 Clouds 29 1010 79 10000 4.1 190 15:38 22.03.2020
6077 Clouds 30 1009 79 10000 4.1 190 14:47 22.03.2020
6078 Clouds 31 1009 70 10000 4.6 190 14:19 22.03.2020
6079 Clouds 31 1009 70 10000 4.6 190 13:56 22.03.2020
6080 Clouds 31 1008 55 10000 4.6 210 13:37 22.03.2020
6081 Clouds 32 1008 55 10000 4.6 210 13:19 22.03.2020
6082 Clouds 33 1008 49 10000 4.1 200 12:43 22.03.2020
6083 Clouds 32 1008 49 10000 4.1 200 12:20 22.03.2020
6084 Clouds 33 1007 46 10000 3.6 190 11:56 22.03.2020
6085 Clouds 33 1008 41 10000 3.1 200 11:37 22.03.2020
6086 Clouds 34 1008 41 10000 3.1 200 11:19 22.03.2020
6087 Clouds 34 1008 41 10000 4.1 210 10:43 22.03.2020
6088 Clouds 34 1008 41 10000 4.1 210 10:23 22.03.2020
6089 Clouds 34 1008 41 10000 4.1 210 10:23 22.03.2020
6090 Clouds 35 1008 39 10000 4.6 210 09:47 22.03.2020
6091 Clouds 35 1009 41 10000 4.1 160 09:28 22.03.2020
6092 Clouds 35 1009 41 10000 4.6 190 08:53 22.03.2020
6093 Clouds 35 1009 41 10000 4.6 190 08:53 22.03.2020
6094 Clouds 35 1010 44 10000 4.6 180 08:33 22.03.2020
6095 Clouds 35 1010 41 10000 5.1 200 07:59 22.03.2020
6096 Clouds 34 1010 41 10000 5.1 200 07:41 22.03.2020
6097 Clouds 35 1011 47 10000 4.1 190 07:18 22.03.2020
6098 Clear 33 1013 44 10000 5.1 170 05:54 22.03.2020
6099 Clear 32 1013 59 10000 4.1 190 04:39 22.03.2020
6100 Clouds 30 1012 74 10000 3.6 160 02:34 22.03.2020
6101 Clouds 28 1012 78 10000 2.1 140 01:19 22.03.2020
6102 Clouds 28 1011 78 10000 2.1 180 00:34 22.03.2020
6103 Clouds 28 1011 78 10000 2.6 160 23:47 21.03.2020
6104 Clouds 28 1010 78 10000 3.1 160 23:23 21.03.2020
6105 Clouds 28 1010 78 10000 1.5 160 22:59 21.03.2020
6106 Clouds 28 1010 83 10000 2.6 170 22:38 21.03.2020
6107 Clouds 28 1010 83 10000 2.6 170 22:20 21.03.2020
6108 Clouds 28 1010 83 10000 2.1 180 21:59 21.03.2020
6109 Clouds 28 1010 83 10000 3.1 180 21:39 21.03.2020
6110 Clouds 28 1010 83 10000 3.1 180 21:20 21.03.2020
6111 Clouds 28 1010 83 10000 3.1 180 21:20 21.03.2020
6112 Clouds 28 1010 78 10000 3.1 180 20:44 21.03.2020
6113 Clouds 28 1011 78 10000 3.6 190 20:22 21.03.2020
6114 Clouds 28 1011 83 10000 3.6 190 19:57 21.03.2020
6115 Clouds 29 1011 83 10000 3.1 190 19:38 21.03.2020
6116 Clouds 29 1011 83 10000 3.1 190 19:19 21.03.2020
6117 Clouds 29 1012 79 10000 4.6 200 18:54 21.03.2020
6118 Clouds 29 1012 83 10000 4.6 210 18:36 21.03.2020
6119 Clouds 29 1012 83 10000 4.6 210 18:18 21.03.2020
6120 Clouds 29 1012 79 10000 4.1 200 17:42 21.03.2020
6121 Clouds 29 1012 79 10000 4.1 200 17:23 21.03.2020
6122 Clouds 30 1012 79 10000 4.1 200 16:43 21.03.2020
6123 Clouds 30 1012 79 10000 4.1 200 16:24 21.03.2020
6124 Clouds 30 1012 79 10000 4.1 200 16:24 21.03.2020
6125 Clouds 30 1011 79 10000 4.1 200 15:59 21.03.2020
6126 Clouds 30 1011 79 10000 4.1 200 15:41 21.03.2020
6127 Clouds 30 1011 79 10000 4.6 210 15:23 21.03.2020
6128 Clouds 30 1011 79 10000 4.1 200 14:57 21.03.2020
6129 Clouds 30 1010 74 10000 4.6 180 14:39 21.03.2020
6130 Clouds 30 1010 74 10000 4.6 180 14:20 21.03.2020
6131 Clouds 31 1010 70 10000 4.6 190 13:58 21.03.2020
6132 Clouds 31 1010 70 10000 4.6 190 13:58 21.03.2020
6133 Clouds 31 1009 62 10000 4.1 180 13:39 21.03.2020
6134 Clouds 30 1009 62 10000 4.1 180 13:21 21.03.2020
6135 Clouds 31 1009 62 10000 4.6 180 12:57 21.03.2020
6136 Clouds 31 1009 59 10000 5.1 170 12:37 21.03.2020
6137 Clouds 32 1009 52 10000 5.7 180 12:19 21.03.2020
6138 Clouds 32 1009 52 10000 5.7 180 11:55 21.03.2020
6139 Clouds 32 1009 52 10000 6.2 200 11:37 21.03.2020
6140 Clouds 33 1009 49 10000 6.2 200 11:18 21.03.2020
6141 Clouds 33 1009 49 10000 6.2 200 10:56 21.03.2020
6142 Clouds 33 1009 46 10000 5.1 190 10:38 21.03.2020
6143 Clouds 34 1009 46 10000 5.1 190 10:18 21.03.2020
6144 Clouds 34 1009 50 10000 6.2 190 09:40 21.03.2020
6145 Clouds 34 1009 50 10000 6.2 190 09:21 21.03.2020
6146 Clouds 34 1010 49 10000 4.1 180 08:59 21.03.2020
6147 Clouds 34 1010 49 10000 4.1 180 08:41 21.03.2020
6148 Clouds 34 1010 47 10000 4.6 190 08:22 21.03.2020
6149 Clouds 34 1011 47 10000 5.1 180 07:42 21.03.2020
6150 Clouds 34 1011 47 10000 5.1 200 07:23 21.03.2020
6151 Clouds 33 1013 50 10000 5.7 200 06:45 21.03.2020
6152 Clouds 33 1013 52 10000 6.7 180 06:26 21.03.2020
6153 Clouds 33 1014 52 10000 5.1 180 05:41 21.03.2020
6154 Clouds 32 1014 62 10000 5.1 200 04:37 21.03.2020
6155 Clouds 30 1013 74 10000 3.6 180 02:39 21.03.2020
6156 Clouds 29 1013 79 10000 2.6 160 01:57 21.03.2020
6157 Clouds 29 1012 83 10000 1.5 150 01:29 21.03.2020
6158 Clouds 28 1012 83 10000 2.1 170 00:47 21.03.2020
6159 Clouds 28 1011 83 10000 2.6 180 00:24 21.03.2020
6160 Clouds 28 1011 79 10000 3.6 170 23:46 20.03.2020
6161 Clouds 28 1011 79 10000 3.6 170 23:24 20.03.2020
6162 Clouds 28 1011 79 10000 2.6 170 22:44 20.03.2020
6163 Clouds 28 1011 79 10000 2.6 170 22:25 20.03.2020
6164 Clouds 28 1011 79 10000 3.1 180 21:59 20.03.2020
6165 Clouds 28 1011 79 10000 2.6 190 21:41 20.03.2020
6166 Clouds 29 1011 79 10000 2.6 190 21:20 20.03.2020
6167 Clouds 28 1011 83 10000 3.1 200 20:59 20.03.2020
6168 Clouds 29 1011 79 10000 4.1 190 20:41 20.03.2020
6169 Clouds 29 1011 79 10000 4.1 190 20:20 20.03.2020
6170 Clouds 29 1011 79 10000 4.6 200 19:49 20.03.2020
6171 Clouds 29 1011 79 10000 4.1 200 19:22 20.03.2020
6172 Clouds 29 1011 79 10000 4.6 190 18:59 20.03.2020
6173 Clouds 29 1011 79 10000 5.1 180 18:39 20.03.2020
6174 Clouds 29 1011 79 10000 5.1 180 18:20 20.03.2020
6175 Clouds 29 1011 79 10000 5.7 180 17:56 20.03.2020
6176 Clouds 29 1011 79 10000 5.1 180 17:38 20.03.2020
6177 Clouds 29 1012 79 10000 5.7 180 17:19 20.03.2020
6178 Clouds 29 1011 79 10000 5.7 180 16:42 20.03.2020
6179 Clouds 29 1011 79 10000 5.7 180 16:21 20.03.2020
6180 Clouds 30 1011 79 10000 5.1 190 15:56 20.03.2020
6181 Clouds 29 1011 79 10000 6.2 190 15:37 20.03.2020
6182 Clouds 29 1011 79 10000 6.2 190 15:19 20.03.2020
6183 Clouds 30 1010 79 10000 5.1 190 14:42 20.03.2020
6184 Clouds 29 1010 79 10000 7.2 200 14:21 20.03.2020
6185 Clouds 30 1009 74 10000 5.7 200 13:50 20.03.2020
6186 Clouds 30 1009 74 10000 5.7 200 13:50 20.03.2020
6187 Clouds 30 1009 70 10000 5.1 180 13:26 20.03.2020
6188 Clouds 31 1009 66 10000 5.7 180 12:59 20.03.2020
6189 Clouds 31 1009 62 10000 5.7 170 12:38 20.03.2020
6190 Clouds 31 1009 62 10000 5.7 170 12:20 20.03.2020
6191 Clouds 32 1008 49 10000 6.2 200 11:40 20.03.2020
6192 Clouds 33 1008 49 10000 5.1 190 11:21 20.03.2020
6193 Clouds 33 1008 49 10000 5.1 190 10:57 20.03.2020
6194 Clouds 33 1008 46 10000 6.2 200 10:38 20.03.2020
6195 Clouds 34 1008 46 10000 6.2 200 10:18 20.03.2020
6196 Clouds 34 1008 44 10000 5.1 190 09:46 20.03.2020
6197 Clouds 34 1009 46 10000 5.1 180 09:21 20.03.2020
6198 Clouds 34 1009 44 10000 5.7 200 08:58 20.03.2020
6199 Clouds 34 1010 49 10000 5.7 180 08:39 20.03.2020
6200 Clouds 34 1010 49 10000 5.7 180 08:19 20.03.2020
6201 Clouds 34 1011 56 10000 5.7 190 07:41 20.03.2020
6202 Clouds 34 1011 56 10000 5.7 190 07:23 20.03.2020
6203 Clouds 34 1012 59 10000 5.1 190 06:42 20.03.2020
6204 Clouds 33 1012 59 10000 5.1 190 06:22 20.03.2020
6205 Clouds 32 1013 66 10000 5.7 200 04:39 20.03.2020
6206 Clouds 30 1012 79 10000 2.6 110 02:54 20.03.2020
6207 Clouds 28 1011 88 10000 2.6 110 01:50 20.03.2020
6208 Clouds 28 1010 83 10000 2.6 140 00:45 20.03.2020
6209 Clouds 28 1010 83 10000 2.6 140 00:24 20.03.2020
6210 Clouds 28 1009 83 10000 2.6 150 23:42 19.03.2020
6211 Clouds 28 1009 83 10000 1.5 160 23:23 19.03.2020
6212 Clouds 28 1009 83 10000 1.5 160 22:54 19.03.2020
6213 Clouds 28 1009 83 10000 2.6 160 22:36 19.03.2020
6214 Clouds 28 1009 83 10000 2.6 160 22:18 19.03.2020
6215 Clouds 28 1009 83 10000 3.1 170 21:39 19.03.2020
6216 Clouds 28 1009 83 10000 3.1 170 21:20 19.03.2020
6217 Clouds 29 1010 83 10000 3.1 170 20:54 19.03.2020
6218 Clouds 29 1010 79 10000 2.6 180 20:36 19.03.2020
6219 Clouds 29 1010 79 10000 2.6 180 20:36 19.03.2020
6220 Clouds 29 1010 79 10000 2.6 180 20:18 19.03.2020
6221 Clouds 29 1011 79 10000 3.1 190 19:39 19.03.2020
6222 Clouds 29 1011 79 10000 3.1 190 19:21 19.03.2020
6223 Clouds 29 1011 79 10000 4.1 190 18:59 19.03.2020
6224 Clouds 29 1011 79 10000 3.6 190 18:41 19.03.2020
6225 Clouds 29 1011 79 10000 3.6 190 18:22 19.03.2020
6226 Clouds 30 1011 79 10000 4.6 180 17:55 19.03.2020
6227 Clouds 30 1011 79 10000 4.6 180 17:37 19.03.2020
6228 Clouds 30 1011 79 10000 5.1 190 17:18 19.03.2020
6229 Clouds 30 1011 79 10000 6.2 190 16:42 19.03.2020
6230 Clouds 30 1011 79 10000 6.2 190 16:21 19.03.2020
6231 Clouds 30 1011 79 10000 4.6 180 15:44 19.03.2020
6232 Clouds 30 1010 79 10000 5.7 190 15:24 19.03.2020
6233 Clouds 30 1010 79 10000 5.7 200 14:43 19.03.2020
6234 Clouds 30 1010 70 10000 5.1 190 14:23 19.03.2020
6235 Clear 30 1009 70 10000 4.6 180 13:59 19.03.2020
6236 Clear 31 1009 66 10000 4.6 170 13:37 19.03.2020
6237 Clear 31 1008 62 10000 5.1 190 13:18 19.03.2020
6238 Clear 31 1008 59 10000 5.7 200 12:41 19.03.2020
6239 Clear 32 1007 55 10000 5.1 200 12:23 19.03.2020
6240 Clear 32 1007 55 10000 5.1 200 11:58 19.03.2020
6241 Clear 32 1007 52 10000 5.7 190 11:40 19.03.2020
6242 Clear 32 1007 52 10000 6.2 190 11:22 19.03.2020
6243 Clouds 33 1007 49 10000 6.2 180 10:42 19.03.2020
6244 Clouds 33 1007 49 10000 6.2 180 10:21 19.03.2020
6245 Clouds 34 1007 47 10000 6.2 200 09:58 19.03.2020
6246 Clouds 34 1008 49 10000 6.7 200 09:38 19.03.2020
6247 Clouds 34 1008 49 10000 6.7 200 09:19 19.03.2020
6248 Clouds 35 1008 50 10000 7.2 200 08:45 19.03.2020
6249 Clouds 34 1009 52 10000 6.7 210 08:21 19.03.2020
6250 Clouds 34 1010 56 10000 6.7 210 07:47 19.03.2020
6251 Clouds 34 1010 56 10000 7.7 190 07:28 19.03.2020
6252 Clouds 34 1011 59 10000 6.7 190 06:49 19.03.2020
6253 Clouds 34 1012 63 10000 6.2 190 05:52 19.03.2020
6254 Clouds 32 1012 66 10000 5.7 180 05:19 19.03.2020
6255 Clouds 32 1012 66 10000 4.6 180 04:40 19.03.2020
6256 Clouds 30 1012 74 10000 5.1 180 03:20 19.03.2020
6257 Clouds 29 1010 79 10000 3.6 170 01:27 19.03.2020
6258 Clouds 28 1009 83 10000 3.1 170 00:35 19.03.2020
6259 Clouds 28 1009 83 10000 2.1 180 23:57 18.03.2020
6260 Clouds 29 1009 79 10000 2.6 180 23:31 18.03.2020
6261 Clouds 29 1009 79 10000 3.6 180 22:58 18.03.2020
6262 Clouds 29 1009 79 10000 4.1 180 22:40 18.03.2020
6263 Clouds 29 1009 79 10000 4.1 180 22:21 18.03.2020
6264 Clouds 29 1009 79 10000 4.1 180 21:43 18.03.2020
6265 Clouds 29 1009 79 10000 4.1 180 21:43 18.03.2020
6266 Clouds 29 1009 79 10000 3.6 180 21:22 18.03.2020
6267 Clouds 29 1009 79 10000 4.1 180 20:59 18.03.2020
6268 Clouds 29 1009 79 10000 4.1 180 20:41 18.03.2020
6269 Clouds 29 1009 79 10000 3.6 180 20:20 18.03.2020
6270 Clouds 29 1010 79 10000 3.1 180 19:58 18.03.2020
6271 Clouds 29 1010 79 10000 5.1 180 19:39 18.03.2020
6272 Clouds 29 1010 79 10000 5.1 180 19:20 18.03.2020
6273 Clouds 29 1011 83 10000 4.1 190 18:42 18.03.2020
6274 Clouds 29 1011 83 10000 4.6 190 18:21 18.03.2020
6275 Clouds 29 1011 83 10000 4.6 190 17:59 18.03.2020
6276 Clouds 29 1011 83 10000 4.6 190 17:59 18.03.2020
6277 Clouds 29 1011 79 10000 4.6 200 17:41 18.03.2020
6278 Clouds 30 1011 79 10000 5.7 200 17:22 18.03.2020
6279 Clouds 30 1011 79 10000 5.7 200 16:58 18.03.2020
6280 Clouds 30 1011 79 10000 5.7 190 16:40 18.03.2020
6281 Clouds 30 1011 79 10000 5.7 190 16:20 18.03.2020
6282 Clouds 30 1011 79 10000 5.7 190 16:20 18.03.2020
6283 Clouds 30 1010 79 10000 5.1 190 15:45 18.03.2020
6284 Clouds 30 1010 79 10000 6.2 200 15:23 18.03.2020
6285 Clouds 30 1010 74 10000 7.2 190 14:57 18.03.2020
6286 Clouds 30 1009 74 10000 6.2 190 14:39 18.03.2020
6287 Clouds 30 1009 74 10000 6.2 190 14:20 18.03.2020
6288 Clouds 30 1008 70 10000 5.7 200 13:39 18.03.2020
6289 Clouds 30 1008 66 10000 4.6 210 13:19 18.03.2020
6290 Clouds 31 1008 59 10000 5.1 190 12:42 18.03.2020
6291 Clouds 31 1008 59 10000 4.6 170 12:20 18.03.2020
6292 Clouds 32 1007 55 10000 5.1 170 11:41 18.03.2020
6293 Clouds 33 1007 56 10000 4.6 190 11:22 18.03.2020
6294 Clouds 33 1007 56 10000 4.6 190 10:59 18.03.2020
6295 Clouds 33 1007 56 10000 4.6 190 10:59 18.03.2020
6296 Clouds 33 1007 52 10000 4.6 190 10:39 18.03.2020
6297 Clouds 34 1007 52 10000 4.6 190 10:20 18.03.2020
6298 Clouds 34 1007 52 10000 4.1 180 09:59 18.03.2020
6299 Clouds 34 1008 53 10000 5.1 190 09:39 18.03.2020
6300 Clouds 34 1008 53 10000 5.1 190 09:21 18.03.2020
6301 Clouds 35 1009 53 10000 5.7 190 08:40 18.03.2020
6302 Clouds 35 1009 53 10000 5.7 190 08:21 18.03.2020
6303 Clouds 35 1010 53 10000 5.1 180 07:49 18.03.2020
6304 Clouds 35 1010 53 10000 4.6 190 07:31 18.03.2020
6305 Clouds 34 1011 53 10000 4.6 190 06:50 18.03.2020
6306 Clouds 34 1012 59 10000 4.1 190 06:31 18.03.2020
6307 Clouds 33 1012 56 10000 4.6 190 05:36 18.03.2020
6308 Clouds 32 1013 66 10000 5.1 180 04:29 18.03.2020
6309 Clouds 30 1013 74 10000 4.1 190 02:51 18.03.2020
6310 Clouds 29 1013 79 10000 2.1 180 02:23 18.03.2020
6311 Clouds 28 1011 78 10000 2.1 170 01:31 18.03.2020
6312 Clouds 28 1011 78 10000 2.6 170 00:26 18.03.2020
6313 Clouds 28 1011 83 10000 3.1 160 23:59 17.03.2020
6314 Clouds 28 1011 83 10000 3.1 160 23:40 17.03.2020
6315 Clouds 28 1010 83 10000 2.1 170 23:19 17.03.2020
6316 Clouds 28 1011 83 10000 2.1 170 22:42 17.03.2020
6317 Clouds 28 1011 83 10000 2.1 170 22:23 17.03.2020
6318 Clouds 28 1011 83 10000 3.1 180 21:42 17.03.2020
6319 Clouds 28 1011 83 10000 3.6 180 21:22 17.03.2020
6320 Clouds 28 1011 83 10000 3.1 180 20:56 17.03.2020
6321 Clouds 28 1011 83 10000 2.6 180 20:37 17.03.2020
6322 Clouds 28 1011 83 10000 2.6 180 20:18 17.03.2020
6323 Clouds 28 1012 83 10000 3.6 210 19:41 17.03.2020
6324 Clouds 28 1012 79 10000 4.1 200 19:18 17.03.2020
6325 Clouds 28 1012 79 10000 4.1 200 18:56 17.03.2020
6326 Clouds 29 1013 79 10000 3.6 190 18:38 17.03.2020
6327 Clouds 29 1013 79 10000 3.6 190 18:38 17.03.2020
6328 Clouds 29 1013 79 10000 3.1 200 18:20 17.03.2020
6329 Clouds 29 1013 79 10000 5.1 200 17:41 17.03.2020
6330 Clouds 29 1013 79 10000 5.1 200 17:22 17.03.2020
6331 Clouds 29 1013 79 10000 4.1 190 16:56 17.03.2020
6332 Clouds 30 1013 79 10000 5.1 190 16:38 17.03.2020
6333 Clouds 30 1013 79 10000 5.1 190 16:18 17.03.2020
6334 Clouds 30 1012 79 10000 4.6 190 15:43 17.03.2020
6335 Clouds 30 1012 79 10000 6.2 200 15:21 17.03.2020
6336 Clouds 30 1012 79 10000 4.6 200 14:44 17.03.2020
6337 Clouds 29 1012 79 10000 5.1 200 14:21 17.03.2020
6338 Clouds 30 1012 74 10000 4.1 180 13:46 17.03.2020
6339 Clouds 30 1011 74 10000 4.1 170 13:28 17.03.2020
6340 Clouds 31 1011 74 10000 4.1 190 12:59 17.03.2020
6341 Clouds 31 1010 66 10000 5.1 200 12:40 17.03.2020
6342 Clouds 31 1010 66 10000 5.7 200 12:22 17.03.2020
6343 Clouds 32 1010 62 10000 6.2 200 11:47 17.03.2020
6344 Clouds 32 1010 62 10000 6.2 200 11:29 17.03.2020
6345 Clouds 33 1010 59 10000 6.2 200 10:58 17.03.2020
6346 Clouds 33 1010 56 10000 5.1 200 10:38 17.03.2020
6347 Clouds 33 1010 56 10000 5.1 200 10:20 17.03.2020
6348 Clouds 33 1010 59 10000 4.6 190 09:59 17.03.2020
6349 Clouds 34 1010 56 10000 5.1 200 09:39 17.03.2020
6350 Clouds 34 1010 56 10000 5.1 200 09:19 17.03.2020
6351 Clouds 34 1011 59 10000 5.7 190 08:47 17.03.2020
6352 Clouds 34 1011 56 10000 4.6 200 08:22 17.03.2020
6353 Clouds 34 1011 56 10000 4.1 210 07:50 17.03.2020
6354 Clouds 34 1012 53 10000 4.6 180 07:26 17.03.2020
6355 Clouds 34 1013 56 10000 2.1 180 06:58 17.03.2020
6356 Clouds 34 1013 66 10000 5.7 180 06:33 17.03.2020
6357 Clouds 33 1014 63 10000 3.1 190 05:46 17.03.2020
6358 Clouds 31 1015 70 10000 3.1 200 03:40 17.03.2020
6359 Clouds 30 1014 83 10000 5.22 183 02:45 17.03.2020
6360 Clouds 28 1013 88 10000 2.1 120 01:42 17.03.2020
6361 Clouds 28 1013 88 10000 2.1 120 01:24 17.03.2020
6362 Clouds 28 1012 88 10000 3.59 176 00:25 17.03.2020
6363 Clouds 28 1012 88 10000 3.59 176 23:45 16.03.2020
6364 Clouds 28 1012 88 10000 3.59 176 23:25 16.03.2020
6365 Clouds 28 1011 83 10000 2.6 170 22:40 16.03.2020
6366 Clouds 28 1011 83 10000 2.6 170 22:22 16.03.2020
6367 Clouds 28 1012 83 10000 2.6 190 21:55 16.03.2020
6368 Clouds 28 1012 83 10000 1.5 190 21:36 16.03.2020
6369 Clouds 28 1012 83 10000 1.5 190 21:18 16.03.2020
6370 Clouds 28 1012 83 10000 2.6 180 20:43 16.03.2020
6371 Clouds 28 1012 83 10000 2.6 190 20:24 16.03.2020
6372 Rain 28 1012 83 10000 3.1 200 19:56 16.03.2020
6373 Rain 29 1013 83 10000 3.1 210 19:37 16.03.2020
6374 Rain 29 1013 83 10000 3.1 210 19:18 16.03.2020
6375 Rain 29 1013 88 10000 3.6 210 18:41 16.03.2020
6376 Rain 29 1013 83 10000 2.1 210 18:20 16.03.2020
6377 Rain 29 1013 79 10000 2.6 180 17:46 16.03.2020
6378 Rain 29 1013 79 10000 2.6 180 17:26 16.03.2020
6379 Clouds 29 1013 79 10000 2.6 200 16:58 16.03.2020
6380 Clouds 30 1013 74 10000 3.6 200 16:40 16.03.2020
6381 Clouds 30 1013 74 10000 3.6 200 16:22 16.03.2020
6382 Clouds 30 1013 74 10000 3.1 210 15:43 16.03.2020
6383 Clouds 30 1013 70 10000 4.1 190 15:25 16.03.2020
6384 Clouds 30 1012 66 10000 3.6 190 14:48 16.03.2020
6385 Clouds 30 1012 62 9000 4.1 190 14:25 16.03.2020
6386 Clouds 30 1012 66 8000 3.1 180 13:53 16.03.2020
6387 Clouds 31 1011 62 8000 3.6 190 13:30 16.03.2020
6388 Clouds 31 1011 62 8000 3.6 180 12:58 16.03.2020
6389 Clouds 31 1011 59 8000 3.6 200 12:40 16.03.2020
6390 Clouds 32 1011 59 8000 3.6 200 12:20 16.03.2020
6391 Clouds 32 1011 59 8000 3.6 200 12:20 16.03.2020
6392 Clouds 33 1010 59 7000 1 0 11:44 16.03.2020
6393 Clouds 33 1010 59 7000 1 0 11:26 16.03.2020
6394 Clouds 33 1010 55 7000 2.6 0 10:45 16.03.2020
6395 Clouds 33 1010 56 7000 2.1 200 10:25 16.03.2020
6396 Clouds 33 1010 56 7000 1.5 0 09:59 16.03.2020
6397 Clouds 34 1011 59 8000 2.6 270 09:38 16.03.2020
6398 Clouds 34 1011 59 8000 2.6 270 09:19 16.03.2020
6399 Clouds 34 1011 56 8000 2.1 250 08:43 16.03.2020
6400 Clouds 33 1012 59 8000 1 0 08:23 16.03.2020
6401 Clouds 33 1012 59 8000 1.5 0 07:44 16.03.2020
6402 Clouds 32 1013 62 8000 1.5 280 07:21 16.03.2020
6403 Clouds 32 1013 62 8000 1.5 280 07:21 16.03.2020
6404 Clouds 33 1014 66 8000 1.5 0 06:41 16.03.2020
6405 Clouds 32 1014 66 8000 1.5 0 06:22 16.03.2020
6406 Rain 30 1015 74 6000 1 0 04:26 16.03.2020
6407 Mist 25 1013 94 3000 0.5 70 01:46 16.03.2020
6408 Mist 25 1012 94 4000 1 70 00:45 16.03.2020
6409 Mist 25 1011 94 5000 3.75 170 00:26 16.03.2020
6410 Mist 25 1011 94 5000 1 360 23:40 15.03.2020
6411 Mist 25 1011 94 5000 1 360 23:19 15.03.2020
6412 Clouds 25 1011 94 6000 2.1 350 22:42 15.03.2020
6413 Clouds 25 1011 94 7000 1.5 30 22:21 15.03.2020
6414 Clouds 25 1011 94 7000 0.5 50 21:39 15.03.2020
6415 Clouds 25 1011 94 7000 1 30 21:21 15.03.2020
6416 Clouds 25 1011 94 7000 1 350 20:58 15.03.2020
6417 Clouds 25 1012 94 7000 2.65 192 20:40 15.03.2020
6418 Clouds 25 1012 94 7000 4.59 181 20:19 15.03.2020
6419 Clouds 26 1012 94 8000 0.5 330 19:55 15.03.2020
6420 Clouds 26 1012 88 8000 2.1 310 19:37 15.03.2020
6421 Clouds 26 1012 88 8000 2.1 310 19:18 15.03.2020
6422 Clouds 26 1013 88 8000 1 230 18:42 15.03.2020
6423 Clouds 26 1013 88 8000 1 230 18:24 15.03.2020
6424 Clouds 26 1013 94 8000 1 180 17:58 15.03.2020
6425 Clouds 26 1013 94 8000 4.92 191 17:39 15.03.2020
6426 Clouds 27 1013 88 8000 4.66 196 17:20 15.03.2020
6427 Clouds 27 1013 88 8000 4.66 196 16:55 15.03.2020
6428 Clouds 27 1013 88 8000 1.5 210 16:36 15.03.2020
6429 Clouds 27 1013 88 8000 1.5 210 16:18 15.03.2020
6430 Clouds 27 1013 88 8000 1 200 15:41 15.03.2020
6431 Clouds 27 1012 88 8000 1.5 270 15:20 15.03.2020
6432 Clouds 28 1012 88 10000 2.1 310 14:47 15.03.2020
6433 Clouds 28 1012 88 10000 4.66 196 14:26 15.03.2020
6434 Clouds 28 1012 88 10000 2.1 50 13:59 15.03.2020
6435 Clouds 28 1012 88 10000 3.6 30 13:39 15.03.2020
6436 Clouds 29 1012 88 10000 3.6 30 13:21 15.03.2020
6437 Clouds 29 1012 94 10000 4.1 340 12:44 15.03.2020
6438 Clouds 28 1011 88 10000 5.1 340 12:26 15.03.2020
6439 Clouds 28 1010 83 10000 2.1 190 11:57 15.03.2020
6440 Clouds 28 1010 83 10000 3.1 200 11:39 15.03.2020
6441 Clouds 29 1011 88 10000 3.6 200 11:20 15.03.2020
6442 Clouds 29 1011 88 10000 3.6 200 10:56 15.03.2020
6443 Clouds 30 1011 83 10000 2.1 230 10:36 15.03.2020
6444 Clouds 29 1011 83 10000 2.1 230 10:18 15.03.2020
6445 Rain 29 1012 88 10000 3.6 260 09:40 15.03.2020
6446 Rain 28 1012 88 10000 3.6 260 09:21 15.03.2020
6447 Rain 28 1012 88 10000 2.1 280 08:42 15.03.2020
6448 Rain 28 1013 88 10000 1 0 08:20 15.03.2020
6449 Rain 28 1014 83 10000 1.5 310 07:51 15.03.2020
6450 Clouds 27 1014 94 10000 1.5 220 07:29 15.03.2020
6451 Clouds 29 1014 94 10000 2.6 170 06:52 15.03.2020
6452 Rain 26 1015 94 10000 4.6 50 05:50 15.03.2020
6453 Thunderstorm 29 1016 83 5000 9.3 50 05:18 15.03.2020
6454 Thunderstorm 30 1016 83 5000 9.3 50 04:43 15.03.2020
6455 Clouds 31 1014 74 10000 1.5 70 04:24 15.03.2020
6456 Clouds 31 1013 79 10000 2.1 160 03:38 15.03.2020
6457 Clouds 30 1012 79 10000 3.1 190 02:37 15.03.2020
6458 Clouds 30 1011 83 10000 3.1 180 01:34 15.03.2020
6459 Clouds 29 1011 83 10000 1.5 150 00:45 15.03.2020
6460 Clouds 29 1011 83 10000 1.5 150 00:22 15.03.2020
6461 Clouds 29 1010 83 10000 2.6 180 23:42 14.03.2020
6462 Clouds 29 1010 83 10000 2.6 180 23:22 14.03.2020
6463 Clouds 29 1010 83 10000 2.6 180 22:58 14.03.2020
6464 Clouds 29 1010 83 10000 3.6 190 22:40 14.03.2020
6465 Clouds 29 1010 83 10000 3.6 190 22:22 14.03.2020
6466 Clouds 29 1009 83 10000 2.6 180 21:56 14.03.2020
6467 Clouds 29 1010 79 10000 2.6 200 21:36 14.03.2020
6468 Clouds 29 1010 79 10000 2.6 200 21:18 14.03.2020
6469 Clouds 29 1010 79 10000 2.6 200 21:18 14.03.2020
6470 Clouds 29 1010 83 10000 4.6 200 20:58 14.03.2020
6471 Clouds 29 1010 79 10000 5.1 200 20:39 14.03.2020
6472 Clouds 30 1010 79 10000 5.1 200 20:19 14.03.2020
6473 Clouds 30 1010 79 10000 4.6 180 19:42 14.03.2020
6474 Clouds 30 1010 79 10000 4.6 190 19:24 14.03.2020
6475 Clouds 30 1011 79 10000 4.6 200 18:41 14.03.2020
6476 Clouds 30 1011 79 10000 5.7 190 18:22 14.03.2020
6477 Clouds 30 1011 79 10000 4.6 200 17:56 14.03.2020
6478 Clouds 30 1011 79 10000 4.6 200 17:37 14.03.2020
6479 Clouds 31 1011 79 10000 6.2 190 17:19 14.03.2020
6480 Clouds 31 1010 79 10000 5.1 200 16:40 14.03.2020
6481 Clouds 31 1010 79 10000 5.1 200 16:22 14.03.2020
6482 Clouds 31 1010 79 10000 4.6 190 15:54 14.03.2020
6483 Clouds 31 1010 74 10000 3.6 170 15:26 14.03.2020
6484 Clouds 30 1010 74 10000 4.6 200 14:47 14.03.2020
6485 Clouds 31 1009 74 10000 3.6 190 14:24 14.03.2020
6486 Clouds 31 1008 74 10000 4.1 190 13:58 14.03.2020
6487 Clouds 31 1009 70 10000 3.6 120 13:39 14.03.2020
6488 Clouds 33 1009 70 10000 3.6 120 13:20 14.03.2020
6489 Clouds 32 1008 63 10000 5.1 190 12:46 14.03.2020
6490 Clouds 32 1008 63 10000 5.1 190 12:27 14.03.2020
6491 Clouds 34 1008 63 10000 5.1 180 11:56 14.03.2020
6492 Clouds 34 1008 63 10000 5.1 180 11:38 14.03.2020
6493 Clouds 34 1007 50 10000 5.1 210 11:19 14.03.2020
6494 Clouds 34 1007 50 10000 6.7 200 10:42 14.03.2020
6495 Clouds 34 1007 50 10000 6.7 200 10:42 14.03.2020
6496 Clouds 36 1007 50 10000 6.7 200 10:23 14.03.2020
6497 Clouds 36 1008 47 10000 5.1 220 09:47 14.03.2020
6498 Clouds 36 1007 47 10000 5.7 210 09:24 14.03.2020
6499 Clouds 36 1008 47 10000 4.1 210 08:54 14.03.2020
6500 Clouds 35 1009 50 10000 2.6 190 08:35 14.03.2020
6501 Clouds 35 1009 50 10000 4.1 200 07:56 14.03.2020
6502 Clouds 36 1010 47 10000 3.6 220 07:38 14.03.2020
6503 Clouds 35 1010 47 10000 3.6 220 07:19 14.03.2020
6504 Clouds 34 1011 56 10000 3.6 160 06:40 14.03.2020
6505 Clouds 34 1012 59 10000 3.1 180 05:43 14.03.2020
6506 Clouds 32 1013 66 10000 4.6 170 03:49 14.03.2020
6507 Clouds 32 1012 70 10000 3.6 160 03:24 14.03.2020
6508 Clouds 30 1012 79 10000 4.1 170 02:23 14.03.2020
6509 Clouds 29 1011 79 10000 2.1 170 00:49 14.03.2020
6510 Clouds 29 1010 79 10000 2.1 190 23:50 13.03.2020
6511 Clouds 29 1010 79 10000 2.1 190 23:30 13.03.2020
6512 Clouds 29 1010 79 10000 2.6 180 22:52 13.03.2020
6513 Clouds 29 1010 83 10000 2.6 180 22:26 13.03.2020
6514 Clouds 29 1010 83 10000 2.6 190 21:44 13.03.2020
6515 Clouds 29 1010 83 10000 3.6 190 21:22 13.03.2020
6516 Clouds 29 1010 83 10000 3.1 200 20:59 13.03.2020
6517 Clouds 29 1010 83 10000 3.6 190 20:40 13.03.2020
6518 Clouds 30 1010 83 10000 3.6 190 20:20 13.03.2020
6519 Clouds 30 1010 83 10000 4.6 180 19:48 13.03.2020
6520 Clouds 30 1011 83 10000 5.1 190 19:30 13.03.2020
6521 Clouds 30 1011 83 10000 3.6 180 18:49 13.03.2020
6522 Clouds 30 1011 83 10000 4.6 190 18:31 13.03.2020
6523 Clouds 30 1011 83 10000 4.6 190 17:57 13.03.2020
6524 Clouds 30 1012 83 10000 4.1 190 17:38 13.03.2020
6525 Clouds 30 1012 84 10000 4.1 200 17:20 13.03.2020
6526 Clouds 30 1011 79 10000 3.6 190 16:42 13.03.2020
6527 Clouds 30 1011 79 10000 3.6 190 16:24 13.03.2020
6528 Clouds 30 1011 79 10000 4.1 190 15:56 13.03.2020
6529 Clouds 30 1011 79 10000 4.1 190 15:37 13.03.2020
6530 Clouds 30 1011 79 10000 4.1 190 15:19 13.03.2020
6531 Clouds 31 1010 74 10000 3.6 190 14:41 13.03.2020
6532 Clouds 31 1010 74 10000 3.6 190 14:22 13.03.2020
6533 Clouds 32 1010 70 10000 3.6 190 13:57 13.03.2020
6534 Clouds 31 1009 66 10000 4.1 190 13:38 13.03.2020
6535 Clouds 32 1009 66 10000 4.1 190 13:19 13.03.2020
6536 Clouds 33 1009 47 10000 4.1 200 12:40 13.03.2020
6537 Clouds 33 1009 44 10000 4.1 200 12:22 13.03.2020
6538 Clouds 34 1009 44 10000 4.1 200 11:59 13.03.2020
6539 Clouds 34 1009 44 10000 4.1 200 11:41 13.03.2020
6540 Clouds 34 1009 44 10000 4.1 200 11:41 13.03.2020
6541 Clouds 34 1008 47 10000 4.6 210 11:22 13.03.2020
6542 Clouds 36 1008 47 10000 4.6 210 10:48 13.03.2020
6543 Clouds 36 1008 47 10000 4.6 190 10:28 13.03.2020
6544 Clouds 36 1008 47 10000 4.6 190 10:28 13.03.2020
6545 Clouds 37 1009 44 10000 4.1 200 09:59 13.03.2020
6546 Clouds 37 1009 44 10000 5.1 210 09:41 13.03.2020
6547 Clouds 37 1009 44 10000 5.1 210 09:22 13.03.2020
6548 Clouds 37 1010 44 10000 5.1 200 08:45 13.03.2020
6549 Clouds 37 1010 42 10000 3.1 150 08:23 13.03.2020
6550 Clouds 36 1011 42 10000 3.6 150 07:50 13.03.2020
6551 Clouds 36 1012 44 10000 4.1 210 07:28 13.03.2020
6552 Clouds 35 1012 47 10000 3.6 170 06:53 13.03.2020
6553 Clouds 35 1013 47 10000 3.1 200 06:32 13.03.2020
6554 Clouds 34 1013 50 10000 3.6 240 05:54 13.03.2020
6555 Clouds 33 1014 52 10000 4.6 200 05:22 13.03.2020
6556 Clouds 33 1014 59 10000 4.1 170 04:37 13.03.2020
6557 Clouds 32 1014 66 10000 4.6 160 03:37 13.03.2020
6558 Clouds 29 1013 79 10000 2.1 150 01:46 13.03.2020
6559 Clouds 29 1013 83 10000 2.6 150 01:19 13.03.2020
6560 Clouds 28 1013 83 10000 2.6 150 00:53 13.03.2020
6561 Clouds 28 1012 83 10000 2.1 140 00:24 13.03.2020
6562 Clouds 28 1012 88 10000 2.6 160 23:50 12.03.2020
6563 Clouds 28 1012 88 10000 2.6 160 23:27 12.03.2020
6564 Clouds 28 1011 83 10000 2.6 160 22:56 12.03.2020
6565 Clouds 28 1011 83 10000 1.5 160 22:38 12.03.2020
6566 Clouds 28 1011 83 10000 1.5 160 22:20 12.03.2020
6567 Clouds 28 1011 83 10000 3.1 170 21:43 12.03.2020
6568 Clouds 28 1011 83 10000 3.1 180 21:25 12.03.2020
6569 Clouds 28 1011 83 10000 3.6 190 20:57 12.03.2020
6570 Clouds 29 1012 79 10000 4.1 190 20:37 12.03.2020
6571 Clouds 29 1012 79 10000 4.1 190 20:37 12.03.2020
6572 Clouds 29 1012 79 10000 4.1 190 20:18 12.03.2020
6573 Clouds 29 1012 79 10000 4.6 200 19:39 12.03.2020
6574 Clouds 29 1012 79 10000 4.6 200 19:20 12.03.2020
6575 Clouds 29 1013 79 10000 4.6 190 18:43 12.03.2020
6576 Clouds 29 1013 79 10000 4.6 190 18:24 12.03.2020
6577 Clouds 30 1012 79 10000 4.6 200 17:57 12.03.2020
6578 Clouds 30 1012 79 10000 4.6 200 17:38 12.03.2020
6579 Clouds 30 1012 74 10000 5.1 190 17:19 12.03.2020
6580 Clouds 30 1012 74 10000 5.1 190 16:54 12.03.2020
6581 Clouds 30 1012 74 10000 4.6 200 16:36 12.03.2020
6582 Clouds 30 1012 74 10000 4.6 200 16:18 12.03.2020
6583 Clouds 30 1012 70 10000 5.1 200 15:43 12.03.2020
6584 Clouds 30 1011 70 10000 5.7 190 15:24 12.03.2020
6585 Clouds 30 1011 66 10000 4.6 190 14:39 12.03.2020
6586 Clouds 30 1011 66 10000 4.6 190 14:19 12.03.2020
6587 Clouds 31 1010 59 10000 4.1 190 13:41 12.03.2020
6588 Clouds 31 1010 59 10000 4.1 190 13:22 12.03.2020
6589 Clouds 32 1010 52 10000 4.6 190 12:56 12.03.2020
6590 Clouds 33 1009 47 10000 4.1 190 12:38 12.03.2020
6591 Clouds 33 1009 47 10000 4.1 190 12:19 12.03.2020
6592 Clouds 33 1009 47 10000 4.1 190 11:56 12.03.2020
6593 Clouds 33 1009 47 10000 4.6 190 11:37 12.03.2020
6594 Clouds 34 1009 44 10000 5.1 210 11:19 12.03.2020
6595 Clouds 34 1009 44 10000 5.1 210 11:19 12.03.2020
6596 Clouds 35 1009 44 10000 5.1 210 10:57 12.03.2020
6597 Clouds 35 1009 44 10000 5.1 210 10:57 12.03.2020
6598 Clouds 35 1009 47 10000 5.1 200 10:39 12.03.2020
6599 Clouds 35 1009 47 10000 5.1 200 10:21 12.03.2020
6600 Clouds 35 1009 50 10000 5.1 170 09:43 12.03.2020
6601 Clouds 35 1009 50 10000 5.1 170 09:43 12.03.2020
6602 Clouds 35 1010 47 10000 4.1 180 09:25 12.03.2020
6603 Clouds 35 1010 47 10000 4.6 220 08:41 12.03.2020
6604 Clouds 34 1011 53 10000 4.1 180 08:20 12.03.2020
6605 Clouds 35 1011 50 10000 4.6 180 07:53 12.03.2020
6606 Clouds 35 1012 50 10000 3.6 200 07:23 12.03.2020
6607 Clouds 34 1012 53 10000 4.6 200 06:52 12.03.2020
6608 Clouds 33 1013 59 10000 5.1 180 05:41 12.03.2020
6609 Clouds 32 1013 63 10000 5.1 160 04:29 12.03.2020
6610 Clouds 30 1012 79 9000 3.1 150 02:36 12.03.2020
6611 Clouds 28 1012 88 8000 1.5 110 01:30 12.03.2020
6612 Clear 27 1011 83 10000 2.1 160 00:43 12.03.2020
6613 Clear 28 1011 83 10000 2.1 160 00:24 12.03.2020
6614 Clear 28 1010 83 10000 2.1 170 23:42 11.03.2020
6615 Clear 28 1010 83 10000 3.1 170 23:23 11.03.2020
6616 Clear 28 1010 83 10000 3.1 160 22:45 11.03.2020
6617 Clear 28 1010 83 10000 3.1 160 22:27 11.03.2020
6618 Clear 29 1010 83 10000 3.1 170 21:59 11.03.2020
6619 Clear 29 1010 83 10000 2.6 180 21:41 11.03.2020
6620 Clear 29 1010 83 10000 2.6 180 21:41 11.03.2020
6621 Clear 28 1010 83 10000 2.6 180 21:22 11.03.2020
6622 Clear 28 1010 88 10000 3.6 190 20:58 11.03.2020
6623 Clear 29 1010 83 10000 2.6 180 20:39 11.03.2020
6624 Clear 29 1010 83 10000 2.6 180 20:19 11.03.2020
6625 Clear 29 1010 88 10000 3.1 200 19:43 11.03.2020
6626 Clear 29 1010 83 10000 4.1 200 19:25 11.03.2020
6627 Clear 29 1011 83 10000 4.6 200 18:58 11.03.2020
6628 Clear 30 1011 83 10000 4.1 200 18:38 11.03.2020
6629 Clear 30 1011 83 10000 4.1 200 18:20 11.03.2020
6630 Clear 30 1011 74 10000 4.1 190 17:56 11.03.2020
6631 Clear 30 1011 74 10000 3.6 200 17:37 11.03.2020
6632 Clear 30 1011 74 10000 3.1 210 17:19 11.03.2020
6633 Clear 30 1011 74 10000 3.1 210 16:45 11.03.2020
6634 Clear 30 1011 70 10000 2.6 200 16:20 11.03.2020
6635 Clear 30 1010 66 10000 2.6 170 15:44 11.03.2020
6636 Clear 31 1010 66 10000 3.1 190 15:23 11.03.2020
6637 Clear 31 1009 66 10000 3.1 170 14:56 11.03.2020
6638 Clear 30 1009 62 10000 3.1 170 14:38 11.03.2020
6639 Clouds 31 1009 62 10000 3.1 170 14:19 11.03.2020
6640 Clouds 32 1008 59 10000 4.6 160 13:44 11.03.2020
6641 Clouds 32 1008 46 10000 4.1 170 13:25 11.03.2020
6642 Clouds 33 1008 44 10000 4.6 190 12:57 11.03.2020
6643 Clouds 33 1007 32 10000 4.1 170 12:39 11.03.2020
6644 Clouds 34 1007 32 10000 4.1 170 12:19 11.03.2020
6645 Clouds 35 1007 29 10000 4.1 190 11:41 11.03.2020
6646 Clouds 36 1007 29 10000 4.1 190 11:22 11.03.2020
6647 Clouds 36 1007 35 10000 3.6 200 10:49 11.03.2020
6648 Clouds 37 1007 35 10000 5.1 210 10:21 11.03.2020
6649 Clouds 37 1007 37 10000 4.6 190 10:00 11.03.2020
6650 Clouds 36 1007 37 10000 4.6 190 09:41 11.03.2020
6651 Clouds 36 1008 39 10000 4.1 190 09:22 11.03.2020
6652 Clouds 36 1008 39 10000 4.1 190 09:22 11.03.2020
6653 Clouds 37 1008 35 10000 3.6 210 08:44 11.03.2020
6654 Clouds 36 1008 39 10000 4.1 190 08:26 11.03.2020
6655 Clear 36 1009 42 9000 3.1 170 07:48 11.03.2020
6656 Clear 36 1010 39 9000 3.1 190 07:22 11.03.2020
6657 Clear 36 1010 42 9000 2.1 160 06:53 11.03.2020
6658 Clear 35 1011 47 9000 1 0 06:33 11.03.2020
6659 Clear 34 1012 59 9000 2.1 180 05:33 11.03.2020
6660 Clear 30 1012 79 8000 2.6 120 03:26 11.03.2020
6661 Clear 30 1012 79 8000 2.6 120 03:26 11.03.2020
6662 Clear 30 1012 79 8000 2.6 120 03:26 11.03.2020
6663 Mist 27 1011 88 5000 2.1 110 01:54 11.03.2020
6664 Mist 27 1010 94 5000 1.5 110 01:24 11.03.2020
6665 Clouds 27 1009 88 7000 2.1 110 00:40 11.03.2020
6666 Clouds 27 1008 88 10000 1.5 120 23:50 10.03.2020
6667 Clouds 27 1008 88 10000 1.5 120 23:28 10.03.2020
6668 Clouds 27 1008 88 10000 1.5 130 22:58 10.03.2020
6669 Clouds 27 1008 88 10000 1.5 120 22:37 10.03.2020
6670 Clouds 27 1008 88 10000 1.5 120 22:19 10.03.2020
6671 Clouds 27 1008 88 10000 1.5 170 21:56 10.03.2020
6672 Clouds 27 1008 83 10000 1.5 150 21:38 10.03.2020
6673 Clouds 27 1008 83 10000 1.5 150 21:19 10.03.2020
6674 Clouds 28 1008 83 10000 2.6 160 20:43 10.03.2020
6675 Clouds 28 1008 83 10000 2.6 170 20:21 10.03.2020
6676 Clear 28 1009 83 10000 3.1 180 19:59 10.03.2020
6677 Clear 28 1009 83 10000 3.6 190 19:41 10.03.2020
6678 Clear 28 1009 83 10000 3.6 190 19:23 10.03.2020
6679 Clear 28 1009 74 10000 3.1 170 18:58 10.03.2020
6680 Clear 28 1009 74 10000 3.1 190 18:40 10.03.2020
6681 Clear 28 1009 74 10000 3.1 190 18:21 10.03.2020
6682 Clear 29 1009 74 10000 4.6 200 17:55 10.03.2020
6683 Clear 29 1009 70 10000 4.1 200 17:37 10.03.2020
6684 Clear 29 1009 70 10000 4.6 200 17:18 10.03.2020
6685 Clear 29 1009 70 10000 5.1 210 16:37 10.03.2020
6686 Clear 30 1009 70 10000 5.1 210 16:18 10.03.2020
6687 Clear 30 1008 66 10000 5.1 190 15:42 10.03.2020
6688 Clear 30 1008 66 10000 5.1 190 15:20 10.03.2020
6689 Clear 30 1007 70 10000 4.6 200 14:58 10.03.2020
6690 Clear 30 1007 70 10000 4.6 200 14:40 10.03.2020
6691 Clear 31 1007 62 10000 4.1 180 14:19 10.03.2020
6692 Clear 31 1006 62 10000 4.6 170 13:44 10.03.2020
6693 Clear 31 1006 55 10000 4.1 170 13:25 10.03.2020
6694 Clear 32 1006 52 10000 3.6 180 12:55 10.03.2020
6695 Clear 32 1006 49 10000 3.6 170 12:37 10.03.2020
6696 Clear 33 1006 47 10000 4.1 160 12:18 10.03.2020
6697 Clear 34 1005 50 10000 4.1 170 11:42 10.03.2020
6698 Clear 34 1005 50 10000 4.1 170 11:24 10.03.2020
6699 Clear 34 1005 50 10000 4.1 170 11:24 10.03.2020
6700 Clear 36 1005 47 10000 4.1 190 10:56 10.03.2020
6701 Clear 36